<?xml version="1.0" encoding="UTF-8" standalone="no" ?>
<gpx xmlns="http://www.topografix.com/GPX/1/1" xmlns:xsi="http://www.w3.org/2001/XMLSchema-instance" xsi:schemaLocation="http://www.topografix.com/GPX/1/1 http://www.topografix.com/GPX/1/1/gpx.xsd" version="1.1" creator="VisuGPX - https://www.visugpx.com">
  <metadata>
    <name>Course à pied le matin</name>
  </metadata>
  <trk>
    <name><![CDATA[Course à pied le matin_1]]></name>
    <trkseg>
      <trkpt lat="43.64761" lon="1.37615">
        <ele>156</ele>
        <time>2025-06-12T04:14:51Z</time>
      </trkpt>
      <trkpt lat="43.64764" lon="1.37613">
        <ele>156</ele>
        <time>2025-06-12T04:14:53Z</time>
      </trkpt>
      <trkpt lat="43.64767" lon="1.3761">
        <ele>156</ele>
        <time>2025-06-12T04:14:54Z</time>
      </trkpt>
      <trkpt lat="43.64768" lon="1.37609">
        <ele>156</ele>
        <time>2025-06-12T04:14:55Z</time>
      </trkpt>
      <trkpt lat="43.6477" lon="1.37608">
        <ele>156</ele>
        <time>2025-06-12T04:14:56Z</time>
      </trkpt>
      <trkpt lat="43.64772" lon="1.37607">
        <ele>156</ele>
        <time>2025-06-12T04:14:57Z</time>
      </trkpt>
      <trkpt lat="43.64772" lon="1.37607">
        <ele>156</ele>
        <time>2025-06-12T04:14:58Z</time>
      </trkpt>
      <trkpt lat="43.64775" lon="1.37605">
        <ele>156</ele>
        <time>2025-06-12T04:14:59Z</time>
      </trkpt>
      <trkpt lat="43.64775" lon="1.37605">
        <ele>156</ele>
        <time>2025-06-12T04:15:00Z</time>
      </trkpt>
      <trkpt lat="43.64777" lon="1.37603">
        <ele>155</ele>
        <time>2025-06-12T04:15:01Z</time>
      </trkpt>
      <trkpt lat="43.64781" lon="1.376">
        <ele>155</ele>
        <time>2025-06-12T04:15:02Z</time>
      </trkpt>
      <trkpt lat="43.64781" lon="1.376">
        <ele>156</ele>
        <time>2025-06-12T04:15:03Z</time>
      </trkpt>
      <trkpt lat="43.64783" lon="1.37599">
        <ele>156</ele>
        <time>2025-06-12T04:15:04Z</time>
      </trkpt>
      <trkpt lat="43.64786" lon="1.37598">
        <ele>156</ele>
        <time>2025-06-12T04:15:05Z</time>
      </trkpt>
      <trkpt lat="43.64788" lon="1.37597">
        <ele>156</ele>
        <time>2025-06-12T04:15:06Z</time>
      </trkpt>
      <trkpt lat="43.6479" lon="1.37596">
        <ele>156</ele>
        <time>2025-06-12T04:15:07Z</time>
      </trkpt>
      <trkpt lat="43.64794" lon="1.37595">
        <ele>156</ele>
        <time>2025-06-12T04:15:08Z</time>
      </trkpt>
      <trkpt lat="43.64796" lon="1.37595">
        <ele>156</ele>
        <time>2025-06-12T04:15:09Z</time>
      </trkpt>
      <trkpt lat="43.64796" lon="1.37595">
        <ele>156</ele>
        <time>2025-06-12T04:15:10Z</time>
      </trkpt>
      <trkpt lat="43.64799" lon="1.37597">
        <ele>156</ele>
        <time>2025-06-12T04:15:11Z</time>
      </trkpt>
      <trkpt lat="43.64799" lon="1.37597">
        <ele>156</ele>
        <time>2025-06-12T04:15:12Z</time>
      </trkpt>
      <trkpt lat="43.64802" lon="1.37598">
        <ele>156</ele>
        <time>2025-06-12T04:15:13Z</time>
      </trkpt>
      <trkpt lat="43.64806" lon="1.376">
        <ele>156</ele>
        <time>2025-06-12T04:15:14Z</time>
      </trkpt>
      <trkpt lat="43.64808" lon="1.37601">
        <ele>156</ele>
        <time>2025-06-12T04:15:15Z</time>
      </trkpt>
      <trkpt lat="43.6481" lon="1.37603">
        <ele>156</ele>
        <time>2025-06-12T04:15:16Z</time>
      </trkpt>
      <trkpt lat="43.6481" lon="1.37603">
        <ele>156</ele>
        <time>2025-06-12T04:15:17Z</time>
      </trkpt>
      <trkpt lat="43.64813" lon="1.37605">
        <ele>156</ele>
        <time>2025-06-12T04:15:18Z</time>
      </trkpt>
      <trkpt lat="43.64813" lon="1.37605">
        <ele>156</ele>
        <time>2025-06-12T04:15:19Z</time>
      </trkpt>
      <trkpt lat="43.64816" lon="1.37606">
        <ele>156</ele>
        <time>2025-06-12T04:15:20Z</time>
      </trkpt>
      <trkpt lat="43.64818" lon="1.37607">
        <ele>156</ele>
        <time>2025-06-12T04:15:21Z</time>
      </trkpt>
      <trkpt lat="43.64824" lon="1.37609">
        <ele>156</ele>
        <time>2025-06-12T04:15:22Z</time>
      </trkpt>
      <trkpt lat="43.64824" lon="1.37609">
        <ele>156</ele>
        <time>2025-06-12T04:15:23Z</time>
      </trkpt>
      <trkpt lat="43.64826" lon="1.37609">
        <ele>156</ele>
        <time>2025-06-12T04:15:24Z</time>
      </trkpt>
      <trkpt lat="43.64834" lon="1.37612">
        <ele>156</ele>
        <time>2025-06-12T04:15:25Z</time>
      </trkpt>
      <trkpt lat="43.64837" lon="1.37615">
        <ele>156</ele>
        <time>2025-06-12T04:15:26Z</time>
      </trkpt>
      <trkpt lat="43.6484" lon="1.37617">
        <ele>156</ele>
        <time>2025-06-12T04:15:27Z</time>
      </trkpt>
      <trkpt lat="43.64843" lon="1.3762">
        <ele>156</ele>
        <time>2025-06-12T04:15:28Z</time>
      </trkpt>
      <trkpt lat="43.64843" lon="1.3762">
        <ele>156</ele>
        <time>2025-06-12T04:15:29Z</time>
      </trkpt>
      <trkpt lat="43.64849" lon="1.37624">
        <ele>156</ele>
        <time>2025-06-12T04:15:30Z</time>
      </trkpt>
      <trkpt lat="43.64849" lon="1.37624">
        <ele>156</ele>
        <time>2025-06-12T04:15:31Z</time>
      </trkpt>
      <trkpt lat="43.64853" lon="1.37628">
        <ele>156</ele>
        <time>2025-06-12T04:15:32Z</time>
      </trkpt>
      <trkpt lat="43.64853" lon="1.37628">
        <ele>156</ele>
        <time>2025-06-12T04:15:33Z</time>
      </trkpt>
      <trkpt lat="43.64855" lon="1.3763">
        <ele>156</ele>
        <time>2025-06-12T04:15:34Z</time>
      </trkpt>
      <trkpt lat="43.64857" lon="1.37632">
        <ele>156</ele>
        <time>2025-06-12T04:15:35Z</time>
      </trkpt>
      <trkpt lat="43.64859" lon="1.37635">
        <ele>156</ele>
        <time>2025-06-12T04:15:36Z</time>
      </trkpt>
      <trkpt lat="43.64861" lon="1.37637">
        <ele>156</ele>
        <time>2025-06-12T04:15:37Z</time>
      </trkpt>
      <trkpt lat="43.64863" lon="1.37639">
        <ele>156</ele>
        <time>2025-06-12T04:15:38Z</time>
      </trkpt>
      <trkpt lat="43.64865" lon="1.37641">
        <ele>156</ele>
        <time>2025-06-12T04:15:39Z</time>
      </trkpt>
      <trkpt lat="43.64869" lon="1.37645">
        <ele>156</ele>
        <time>2025-06-12T04:15:40Z</time>
      </trkpt>
      <trkpt lat="43.64869" lon="1.37645">
        <ele>156</ele>
        <time>2025-06-12T04:15:41Z</time>
      </trkpt>
      <trkpt lat="43.64873" lon="1.37651">
        <ele>156</ele>
        <time>2025-06-12T04:15:42Z</time>
      </trkpt>
      <trkpt lat="43.64873" lon="1.37651">
        <ele>156</ele>
        <time>2025-06-12T04:15:43Z</time>
      </trkpt>
      <trkpt lat="43.64875" lon="1.37653">
        <ele>156</ele>
        <time>2025-06-12T04:15:44Z</time>
      </trkpt>
      <trkpt lat="43.64876" lon="1.37656">
        <ele>156</ele>
        <time>2025-06-12T04:15:45Z</time>
      </trkpt>
      <trkpt lat="43.64879" lon="1.37662">
        <ele>156</ele>
        <time>2025-06-12T04:15:46Z</time>
      </trkpt>
      <trkpt lat="43.64879" lon="1.37666">
        <ele>156</ele>
        <time>2025-06-12T04:15:47Z</time>
      </trkpt>
      <trkpt lat="43.64879" lon="1.37666">
        <ele>156</ele>
        <time>2025-06-12T04:15:48Z</time>
      </trkpt>
      <trkpt lat="43.6488" lon="1.37669">
        <ele>156</ele>
        <time>2025-06-12T04:15:49Z</time>
      </trkpt>
      <trkpt lat="43.64881" lon="1.37672">
        <ele>156</ele>
        <time>2025-06-12T04:15:50Z</time>
      </trkpt>
      <trkpt lat="43.64883" lon="1.37679">
        <ele>156</ele>
        <time>2025-06-12T04:15:51Z</time>
      </trkpt>
      <trkpt lat="43.64883" lon="1.37679">
        <ele>156</ele>
        <time>2025-06-12T04:15:52Z</time>
      </trkpt>
      <trkpt lat="43.64884" lon="1.37683">
        <ele>156</ele>
        <time>2025-06-12T04:15:53Z</time>
      </trkpt>
      <trkpt lat="43.64886" lon="1.3769">
        <ele>155</ele>
        <time>2025-06-12T04:15:54Z</time>
      </trkpt>
      <trkpt lat="43.64886" lon="1.3769">
        <ele>156</ele>
        <time>2025-06-12T04:15:55Z</time>
      </trkpt>
      <trkpt lat="43.64887" lon="1.37694">
        <ele>156</ele>
        <time>2025-06-12T04:15:56Z</time>
      </trkpt>
      <trkpt lat="43.64887" lon="1.37702">
        <ele>156</ele>
        <time>2025-06-12T04:15:57Z</time>
      </trkpt>
      <trkpt lat="43.64887" lon="1.37702">
        <ele>156</ele>
        <time>2025-06-12T04:15:58Z</time>
      </trkpt>
      <trkpt lat="43.64889" lon="1.37707">
        <ele>156</ele>
        <time>2025-06-12T04:15:59Z</time>
      </trkpt>
      <trkpt lat="43.64889" lon="1.3771">
        <ele>156</ele>
        <time>2025-06-12T04:16:00Z</time>
      </trkpt>
      <trkpt lat="43.64889" lon="1.37713">
        <ele>156</ele>
        <time>2025-06-12T04:16:01Z</time>
      </trkpt>
      <trkpt lat="43.6489" lon="1.37717">
        <ele>156</ele>
        <time>2025-06-12T04:16:02Z</time>
      </trkpt>
      <trkpt lat="43.6489" lon="1.37717">
        <ele>156</ele>
        <time>2025-06-12T04:16:03Z</time>
      </trkpt>
      <trkpt lat="43.64891" lon="1.3772">
        <ele>156</ele>
        <time>2025-06-12T04:16:04Z</time>
      </trkpt>
      <trkpt lat="43.64891" lon="1.37723">
        <ele>156</ele>
        <time>2025-06-12T04:16:05Z</time>
      </trkpt>
      <trkpt lat="43.64892" lon="1.37728">
        <ele>156</ele>
        <time>2025-06-12T04:16:06Z</time>
      </trkpt>
      <trkpt lat="43.64892" lon="1.37728">
        <ele>156</ele>
        <time>2025-06-12T04:16:07Z</time>
      </trkpt>
      <trkpt lat="43.64892" lon="1.37731">
        <ele>156</ele>
        <time>2025-06-12T04:16:08Z</time>
      </trkpt>
      <trkpt lat="43.64893" lon="1.37734">
        <ele>156</ele>
        <time>2025-06-12T04:16:09Z</time>
      </trkpt>
      <trkpt lat="43.64893" lon="1.37737">
        <ele>156</ele>
        <time>2025-06-12T04:16:10Z</time>
      </trkpt>
      <trkpt lat="43.64896" lon="1.37744">
        <ele>156</ele>
        <time>2025-06-12T04:16:11Z</time>
      </trkpt>
      <trkpt lat="43.64896" lon="1.37747">
        <ele>155</ele>
        <time>2025-06-12T04:16:12Z</time>
      </trkpt>
      <trkpt lat="43.64896" lon="1.37747">
        <ele>155</ele>
        <time>2025-06-12T04:16:13Z</time>
      </trkpt>
      <trkpt lat="43.64897" lon="1.3775">
        <ele>155</ele>
        <time>2025-06-12T04:16:14Z</time>
      </trkpt>
      <trkpt lat="43.64898" lon="1.37753">
        <ele>155</ele>
        <time>2025-06-12T04:16:15Z</time>
      </trkpt>
      <trkpt lat="43.64899" lon="1.37756">
        <ele>155</ele>
        <time>2025-06-12T04:16:16Z</time>
      </trkpt>
      <trkpt lat="43.649" lon="1.37762">
        <ele>155</ele>
        <time>2025-06-12T04:16:17Z</time>
      </trkpt>
      <trkpt lat="43.649" lon="1.37762">
        <ele>155</ele>
        <time>2025-06-12T04:16:18Z</time>
      </trkpt>
      <trkpt lat="43.64903" lon="1.37769">
        <ele>155</ele>
        <time>2025-06-12T04:16:19Z</time>
      </trkpt>
      <trkpt lat="43.64904" lon="1.37772">
        <ele>155</ele>
        <time>2025-06-12T04:16:20Z</time>
      </trkpt>
      <trkpt lat="43.64905" lon="1.37775">
        <ele>155</ele>
        <time>2025-06-12T04:16:21Z</time>
      </trkpt>
      <trkpt lat="43.64905" lon="1.37775">
        <ele>155</ele>
        <time>2025-06-12T04:16:22Z</time>
      </trkpt>
      <trkpt lat="43.64906" lon="1.37778">
        <ele>155</ele>
        <time>2025-06-12T04:16:23Z</time>
      </trkpt>
      <trkpt lat="43.64907" lon="1.37785">
        <ele>155</ele>
        <time>2025-06-12T04:16:24Z</time>
      </trkpt>
      <trkpt lat="43.64907" lon="1.37788">
        <ele>155</ele>
        <time>2025-06-12T04:16:25Z</time>
      </trkpt>
      <trkpt lat="43.64908" lon="1.37791">
        <ele>155</ele>
        <time>2025-06-12T04:16:26Z</time>
      </trkpt>
      <trkpt lat="43.64908" lon="1.37793">
        <ele>155</ele>
        <time>2025-06-12T04:16:27Z</time>
      </trkpt>
      <trkpt lat="43.64908" lon="1.37793">
        <ele>155</ele>
        <time>2025-06-12T04:16:28Z</time>
      </trkpt>
      <trkpt lat="43.64909" lon="1.378">
        <ele>155</ele>
        <time>2025-06-12T04:16:29Z</time>
      </trkpt>
      <trkpt lat="43.6491" lon="1.37803">
        <ele>155</ele>
        <time>2025-06-12T04:16:30Z</time>
      </trkpt>
      <trkpt lat="43.64911" lon="1.37806">
        <ele>155</ele>
        <time>2025-06-12T04:16:31Z</time>
      </trkpt>
      <trkpt lat="43.64912" lon="1.37809">
        <ele>155</ele>
        <time>2025-06-12T04:16:32Z</time>
      </trkpt>
      <trkpt lat="43.64913" lon="1.37812">
        <ele>155</ele>
        <time>2025-06-12T04:16:33Z</time>
      </trkpt>
      <trkpt lat="43.64913" lon="1.37812">
        <ele>155</ele>
        <time>2025-06-12T04:16:34Z</time>
      </trkpt>
      <trkpt lat="43.64913" lon="1.37816">
        <ele>155</ele>
        <time>2025-06-12T04:16:35Z</time>
      </trkpt>
      <trkpt lat="43.64914" lon="1.37821">
        <ele>155</ele>
        <time>2025-06-12T04:16:36Z</time>
      </trkpt>
      <trkpt lat="43.64914" lon="1.37821">
        <ele>155</ele>
        <time>2025-06-12T04:16:37Z</time>
      </trkpt>
      <trkpt lat="43.64915" lon="1.37824">
        <ele>155</ele>
        <time>2025-06-12T04:16:38Z</time>
      </trkpt>
      <trkpt lat="43.64915" lon="1.37828">
        <ele>155</ele>
        <time>2025-06-12T04:16:39Z</time>
      </trkpt>
      <trkpt lat="43.64916" lon="1.37831">
        <ele>155</ele>
        <time>2025-06-12T04:16:40Z</time>
      </trkpt>
      <trkpt lat="43.64917" lon="1.37837">
        <ele>155</ele>
        <time>2025-06-12T04:16:41Z</time>
      </trkpt>
      <trkpt lat="43.64919" lon="1.37841">
        <ele>155</ele>
        <time>2025-06-12T04:16:42Z</time>
      </trkpt>
      <trkpt lat="43.64919" lon="1.37841">
        <ele>155</ele>
        <time>2025-06-12T04:16:43Z</time>
      </trkpt>
      <trkpt lat="43.6492" lon="1.37848">
        <ele>155</ele>
        <time>2025-06-12T04:16:44Z</time>
      </trkpt>
      <trkpt lat="43.6492" lon="1.37848">
        <ele>155</ele>
        <time>2025-06-12T04:16:45Z</time>
      </trkpt>
      <trkpt lat="43.64921" lon="1.37851">
        <ele>155</ele>
        <time>2025-06-12T04:16:46Z</time>
      </trkpt>
      <trkpt lat="43.64922" lon="1.37854">
        <ele>155</ele>
        <time>2025-06-12T04:16:47Z</time>
      </trkpt>
      <trkpt lat="43.64925" lon="1.37861">
        <ele>155</ele>
        <time>2025-06-12T04:16:48Z</time>
      </trkpt>
      <trkpt lat="43.64925" lon="1.37862">
        <ele>155</ele>
        <time>2025-06-12T04:16:49Z</time>
      </trkpt>
      <trkpt lat="43.64925" lon="1.37862">
        <ele>155</ele>
        <time>2025-06-12T04:16:50Z</time>
      </trkpt>
      <trkpt lat="43.64926" lon="1.37866">
        <ele>155</ele>
        <time>2025-06-12T04:16:51Z</time>
      </trkpt>
      <trkpt lat="43.64927" lon="1.3787">
        <ele>155</ele>
        <time>2025-06-12T04:16:52Z</time>
      </trkpt>
      <trkpt lat="43.64928" lon="1.37873">
        <ele>155</ele>
        <time>2025-06-12T04:16:53Z</time>
      </trkpt>
      <trkpt lat="43.6493" lon="1.37881">
        <ele>155</ele>
        <time>2025-06-12T04:16:54Z</time>
      </trkpt>
      <trkpt lat="43.6493" lon="1.37883">
        <ele>155</ele>
        <time>2025-06-12T04:16:55Z</time>
      </trkpt>
      <trkpt lat="43.64931" lon="1.37886">
        <ele>155</ele>
        <time>2025-06-12T04:16:56Z</time>
      </trkpt>
      <trkpt lat="43.64931" lon="1.37886">
        <ele>154</ele>
        <time>2025-06-12T04:16:57Z</time>
      </trkpt>
      <trkpt lat="43.64933" lon="1.37892">
        <ele>154</ele>
        <time>2025-06-12T04:16:58Z</time>
      </trkpt>
      <trkpt lat="43.64933" lon="1.37892">
        <ele>154</ele>
        <time>2025-06-12T04:16:59Z</time>
      </trkpt>
      <trkpt lat="43.64935" lon="1.37895">
        <ele>154</ele>
        <time>2025-06-12T04:17:00Z</time>
      </trkpt>
      <trkpt lat="43.64936" lon="1.37898">
        <ele>154</ele>
        <time>2025-06-12T04:17:01Z</time>
      </trkpt>
      <trkpt lat="43.64937" lon="1.37901">
        <ele>155</ele>
        <time>2025-06-12T04:17:02Z</time>
      </trkpt>
      <trkpt lat="43.64937" lon="1.37904">
        <ele>155</ele>
        <time>2025-06-12T04:17:03Z</time>
      </trkpt>
      <trkpt lat="43.64938" lon="1.37907">
        <ele>155</ele>
        <time>2025-06-12T04:17:04Z</time>
      </trkpt>
      <trkpt lat="43.64939" lon="1.3791">
        <ele>155</ele>
        <time>2025-06-12T04:17:05Z</time>
      </trkpt>
      <trkpt lat="43.6494" lon="1.37913">
        <ele>155</ele>
        <time>2025-06-12T04:17:06Z</time>
      </trkpt>
      <trkpt lat="43.64942" lon="1.3792">
        <ele>155</ele>
        <time>2025-06-12T04:17:07Z</time>
      </trkpt>
      <trkpt lat="43.64943" lon="1.37923">
        <ele>155</ele>
        <time>2025-06-12T04:17:08Z</time>
      </trkpt>
      <trkpt lat="43.64943" lon="1.37923">
        <ele>155</ele>
        <time>2025-06-12T04:17:09Z</time>
      </trkpt>
      <trkpt lat="43.64945" lon="1.37928">
        <ele>155</ele>
        <time>2025-06-12T04:17:10Z</time>
      </trkpt>
      <trkpt lat="43.64945" lon="1.37928">
        <ele>155</ele>
        <time>2025-06-12T04:17:11Z</time>
      </trkpt>
      <trkpt lat="43.64946" lon="1.37931">
        <ele>155</ele>
        <time>2025-06-12T04:17:12Z</time>
      </trkpt>
      <trkpt lat="43.64946" lon="1.37934">
        <ele>154</ele>
        <time>2025-06-12T04:17:13Z</time>
      </trkpt>
      <trkpt lat="43.64946" lon="1.37937">
        <ele>154</ele>
        <time>2025-06-12T04:17:14Z</time>
      </trkpt>
      <trkpt lat="43.64947" lon="1.37943">
        <ele>154</ele>
        <time>2025-06-12T04:17:15Z</time>
      </trkpt>
      <trkpt lat="43.64947" lon="1.37943">
        <ele>154</ele>
        <time>2025-06-12T04:17:16Z</time>
      </trkpt>
      <trkpt lat="43.64947" lon="1.37945">
        <ele>154</ele>
        <time>2025-06-12T04:17:17Z</time>
      </trkpt>
      <trkpt lat="43.64946" lon="1.37948">
        <ele>154</ele>
        <time>2025-06-12T04:17:18Z</time>
      </trkpt>
      <trkpt lat="43.64947" lon="1.37951">
        <ele>154</ele>
        <time>2025-06-12T04:17:19Z</time>
      </trkpt>
      <trkpt lat="43.6495" lon="1.37958">
        <ele>154</ele>
        <time>2025-06-12T04:17:20Z</time>
      </trkpt>
      <trkpt lat="43.6495" lon="1.37958">
        <ele>154</ele>
        <time>2025-06-12T04:17:21Z</time>
      </trkpt>
      <trkpt lat="43.6495" lon="1.37965">
        <ele>154</ele>
        <time>2025-06-12T04:17:22Z</time>
      </trkpt>
      <trkpt lat="43.6495" lon="1.37965">
        <ele>154</ele>
        <time>2025-06-12T04:17:23Z</time>
      </trkpt>
      <trkpt lat="43.64951" lon="1.37972">
        <ele>154</ele>
        <time>2025-06-12T04:17:24Z</time>
      </trkpt>
      <trkpt lat="43.64952" lon="1.37976">
        <ele>154</ele>
        <time>2025-06-12T04:17:25Z</time>
      </trkpt>
      <trkpt lat="43.64952" lon="1.3798">
        <ele>154</ele>
        <time>2025-06-12T04:17:26Z</time>
      </trkpt>
      <trkpt lat="43.64952" lon="1.3798">
        <ele>154</ele>
        <time>2025-06-12T04:17:27Z</time>
      </trkpt>
      <trkpt lat="43.64953" lon="1.37983">
        <ele>154</ele>
        <time>2025-06-12T04:17:28Z</time>
      </trkpt>
      <trkpt lat="43.64953" lon="1.37986">
        <ele>154</ele>
        <time>2025-06-12T04:17:29Z</time>
      </trkpt>
      <trkpt lat="43.64954" lon="1.37989">
        <ele>154</ele>
        <time>2025-06-12T04:17:30Z</time>
      </trkpt>
      <trkpt lat="43.64957" lon="1.37994">
        <ele>154</ele>
        <time>2025-06-12T04:17:31Z</time>
      </trkpt>
      <trkpt lat="43.64957" lon="1.37994">
        <ele>154</ele>
        <time>2025-06-12T04:17:32Z</time>
      </trkpt>
      <trkpt lat="43.64959" lon="1.37996">
        <ele>154</ele>
        <time>2025-06-12T04:17:33Z</time>
      </trkpt>
      <trkpt lat="43.6496" lon="1.37998">
        <ele>154</ele>
        <time>2025-06-12T04:17:34Z</time>
      </trkpt>
      <trkpt lat="43.64962" lon="1.38002">
        <ele>154</ele>
        <time>2025-06-12T04:17:35Z</time>
      </trkpt>
      <trkpt lat="43.64963" lon="1.38004">
        <ele>154</ele>
        <time>2025-06-12T04:17:36Z</time>
      </trkpt>
      <trkpt lat="43.64963" lon="1.38007">
        <ele>154</ele>
        <time>2025-06-12T04:17:37Z</time>
      </trkpt>
      <trkpt lat="43.64964" lon="1.3801">
        <ele>154</ele>
        <time>2025-06-12T04:17:38Z</time>
      </trkpt>
      <trkpt lat="43.64965" lon="1.38012">
        <ele>154</ele>
        <time>2025-06-12T04:17:39Z</time>
      </trkpt>
      <trkpt lat="43.64965" lon="1.38012">
        <ele>154</ele>
        <time>2025-06-12T04:17:40Z</time>
      </trkpt>
      <trkpt lat="43.64968" lon="1.38019">
        <ele>154</ele>
        <time>2025-06-12T04:17:41Z</time>
      </trkpt>
      <trkpt lat="43.64968" lon="1.38019">
        <ele>154</ele>
        <time>2025-06-12T04:17:42Z</time>
      </trkpt>
      <trkpt lat="43.64969" lon="1.38022">
        <ele>154</ele>
        <time>2025-06-12T04:17:43Z</time>
      </trkpt>
      <trkpt lat="43.6497" lon="1.38028">
        <ele>154</ele>
        <time>2025-06-12T04:17:44Z</time>
      </trkpt>
      <trkpt lat="43.64971" lon="1.38031">
        <ele>154</ele>
        <time>2025-06-12T04:17:45Z</time>
      </trkpt>
      <trkpt lat="43.64972" lon="1.38034">
        <ele>154</ele>
        <time>2025-06-12T04:17:46Z</time>
      </trkpt>
      <trkpt lat="43.64972" lon="1.38034">
        <ele>154</ele>
        <time>2025-06-12T04:17:47Z</time>
      </trkpt>
      <trkpt lat="43.64974" lon="1.38036">
        <ele>154</ele>
        <time>2025-06-12T04:17:48Z</time>
      </trkpt>
      <trkpt lat="43.64975" lon="1.38038">
        <ele>154</ele>
        <time>2025-06-12T04:17:49Z</time>
      </trkpt>
      <trkpt lat="43.64976" lon="1.38044">
        <ele>154</ele>
        <time>2025-06-12T04:17:50Z</time>
      </trkpt>
      <trkpt lat="43.64977" lon="1.38047">
        <ele>154</ele>
        <time>2025-06-12T04:17:51Z</time>
      </trkpt>
      <trkpt lat="43.64977" lon="1.38047">
        <ele>154</ele>
        <time>2025-06-12T04:17:52Z</time>
      </trkpt>
      <trkpt lat="43.64979" lon="1.38054">
        <ele>154</ele>
        <time>2025-06-12T04:17:53Z</time>
      </trkpt>
      <trkpt lat="43.64979" lon="1.38054">
        <ele>154</ele>
        <time>2025-06-12T04:17:54Z</time>
      </trkpt>
      <trkpt lat="43.6498" lon="1.38057">
        <ele>154</ele>
        <time>2025-06-12T04:17:55Z</time>
      </trkpt>
      <trkpt lat="43.64981" lon="1.3806">
        <ele>154</ele>
        <time>2025-06-12T04:17:56Z</time>
      </trkpt>
      <trkpt lat="43.64983" lon="1.38067">
        <ele>154</ele>
        <time>2025-06-12T04:17:57Z</time>
      </trkpt>
      <trkpt lat="43.64983" lon="1.38067">
        <ele>154</ele>
        <time>2025-06-12T04:17:58Z</time>
      </trkpt>
      <trkpt lat="43.64984" lon="1.3807">
        <ele>154</ele>
        <time>2025-06-12T04:17:59Z</time>
      </trkpt>
      <trkpt lat="43.64985" lon="1.38075">
        <ele>154</ele>
        <time>2025-06-12T04:18:00Z</time>
      </trkpt>
      <trkpt lat="43.64985" lon="1.38075">
        <ele>154</ele>
        <time>2025-06-12T04:18:01Z</time>
      </trkpt>
      <trkpt lat="43.64987" lon="1.3808">
        <ele>154</ele>
        <time>2025-06-12T04:18:02Z</time>
      </trkpt>
      <trkpt lat="43.64987" lon="1.3808">
        <ele>154</ele>
        <time>2025-06-12T04:18:03Z</time>
      </trkpt>
      <trkpt lat="43.64989" lon="1.38086">
        <ele>154</ele>
        <time>2025-06-12T04:18:04Z</time>
      </trkpt>
      <trkpt lat="43.6499" lon="1.38088">
        <ele>154</ele>
        <time>2025-06-12T04:18:05Z</time>
      </trkpt>
      <trkpt lat="43.64992" lon="1.38092">
        <ele>154</ele>
        <time>2025-06-12T04:18:06Z</time>
      </trkpt>
      <trkpt lat="43.64993" lon="1.38095">
        <ele>154</ele>
        <time>2025-06-12T04:18:07Z</time>
      </trkpt>
      <trkpt lat="43.64993" lon="1.38095">
        <ele>155</ele>
        <time>2025-06-12T04:18:08Z</time>
      </trkpt>
      <trkpt lat="43.64994" lon="1.38098">
        <ele>155</ele>
        <time>2025-06-12T04:18:09Z</time>
      </trkpt>
      <trkpt lat="43.64994" lon="1.38101">
        <ele>155</ele>
        <time>2025-06-12T04:18:10Z</time>
      </trkpt>
      <trkpt lat="43.64995" lon="1.38103">
        <ele>155</ele>
        <time>2025-06-12T04:18:11Z</time>
      </trkpt>
      <trkpt lat="43.64996" lon="1.38106">
        <ele>155</ele>
        <time>2025-06-12T04:18:12Z</time>
      </trkpt>
      <trkpt lat="43.64997" lon="1.38109">
        <ele>155</ele>
        <time>2025-06-12T04:18:13Z</time>
      </trkpt>
      <trkpt lat="43.64999" lon="1.38116">
        <ele>155</ele>
        <time>2025-06-12T04:18:14Z</time>
      </trkpt>
      <trkpt lat="43.65" lon="1.3812">
        <ele>155</ele>
        <time>2025-06-12T04:18:15Z</time>
      </trkpt>
      <trkpt lat="43.65001" lon="1.38124">
        <ele>155</ele>
        <time>2025-06-12T04:18:16Z</time>
      </trkpt>
      <trkpt lat="43.65001" lon="1.38124">
        <ele>155</ele>
        <time>2025-06-12T04:18:17Z</time>
      </trkpt>
      <trkpt lat="43.65002" lon="1.38128">
        <ele>155</ele>
        <time>2025-06-12T04:18:18Z</time>
      </trkpt>
      <trkpt lat="43.65003" lon="1.38137">
        <ele>155</ele>
        <time>2025-06-12T04:18:19Z</time>
      </trkpt>
      <trkpt lat="43.65003" lon="1.38137">
        <ele>155</ele>
        <time>2025-06-12T04:18:20Z</time>
      </trkpt>
      <trkpt lat="43.65003" lon="1.38141">
        <ele>154</ele>
        <time>2025-06-12T04:18:21Z</time>
      </trkpt>
      <trkpt lat="43.65004" lon="1.38145">
        <ele>154</ele>
        <time>2025-06-12T04:18:22Z</time>
      </trkpt>
      <trkpt lat="43.65004" lon="1.38149">
        <ele>154</ele>
        <time>2025-06-12T04:18:23Z</time>
      </trkpt>
      <trkpt lat="43.65004" lon="1.38152">
        <ele>154</ele>
        <time>2025-06-12T04:18:24Z</time>
      </trkpt>
      <trkpt lat="43.65003" lon="1.38156">
        <ele>154</ele>
        <time>2025-06-12T04:18:25Z</time>
      </trkpt>
      <trkpt lat="43.65003" lon="1.38159">
        <ele>155</ele>
        <time>2025-06-12T04:18:26Z</time>
      </trkpt>
      <trkpt lat="43.65001" lon="1.38165">
        <ele>155</ele>
        <time>2025-06-12T04:18:27Z</time>
      </trkpt>
      <trkpt lat="43.65001" lon="1.38165">
        <ele>155</ele>
        <time>2025-06-12T04:18:28Z</time>
      </trkpt>
      <trkpt lat="43.65" lon="1.38168">
        <ele>155</ele>
        <time>2025-06-12T04:18:29Z</time>
      </trkpt>
      <trkpt lat="43.64999" lon="1.38173">
        <ele>155</ele>
        <time>2025-06-12T04:18:30Z</time>
      </trkpt>
      <trkpt lat="43.64999" lon="1.38176">
        <ele>155</ele>
        <time>2025-06-12T04:18:31Z</time>
      </trkpt>
      <trkpt lat="43.64999" lon="1.38179">
        <ele>155</ele>
        <time>2025-06-12T04:18:32Z</time>
      </trkpt>
      <trkpt lat="43.64999" lon="1.38179">
        <ele>155</ele>
        <time>2025-06-12T04:18:33Z</time>
      </trkpt>
      <trkpt lat="43.65" lon="1.38183">
        <ele>155</ele>
        <time>2025-06-12T04:18:34Z</time>
      </trkpt>
      <trkpt lat="43.65" lon="1.38183">
        <ele>155</ele>
        <time>2025-06-12T04:18:35Z</time>
      </trkpt>
      <trkpt lat="43.65002" lon="1.38187">
        <ele>155</ele>
        <time>2025-06-12T04:18:36Z</time>
      </trkpt>
      <trkpt lat="43.65003" lon="1.38189">
        <ele>155</ele>
        <time>2025-06-12T04:18:37Z</time>
      </trkpt>
      <trkpt lat="43.65003" lon="1.38189">
        <ele>155</ele>
        <time>2025-06-12T04:18:38Z</time>
      </trkpt>
      <trkpt lat="43.65006" lon="1.38195">
        <ele>155</ele>
        <time>2025-06-12T04:18:39Z</time>
      </trkpt>
      <trkpt lat="43.65007" lon="1.38198">
        <ele>155</ele>
        <time>2025-06-12T04:18:40Z</time>
      </trkpt>
      <trkpt lat="43.65009" lon="1.38201">
        <ele>155</ele>
        <time>2025-06-12T04:18:41Z</time>
      </trkpt>
      <trkpt lat="43.65009" lon="1.38201">
        <ele>155</ele>
        <time>2025-06-12T04:18:42Z</time>
      </trkpt>
      <trkpt lat="43.6501" lon="1.38205">
        <ele>155</ele>
        <time>2025-06-12T04:18:43Z</time>
      </trkpt>
      <trkpt lat="43.65011" lon="1.38208">
        <ele>155</ele>
        <time>2025-06-12T04:18:44Z</time>
      </trkpt>
      <trkpt lat="43.65012" lon="1.38212">
        <ele>155</ele>
        <time>2025-06-12T04:18:45Z</time>
      </trkpt>
      <trkpt lat="43.65013" lon="1.38216">
        <ele>155</ele>
        <time>2025-06-12T04:18:46Z</time>
      </trkpt>
      <trkpt lat="43.65014" lon="1.3822">
        <ele>155</ele>
        <time>2025-06-12T04:18:47Z</time>
      </trkpt>
      <trkpt lat="43.65015" lon="1.38223">
        <ele>155</ele>
        <time>2025-06-12T04:18:48Z</time>
      </trkpt>
      <trkpt lat="43.65016" lon="1.3823">
        <ele>155</ele>
        <time>2025-06-12T04:18:49Z</time>
      </trkpt>
      <trkpt lat="43.65016" lon="1.3823">
        <ele>155</ele>
        <time>2025-06-12T04:18:50Z</time>
      </trkpt>
      <trkpt lat="43.65017" lon="1.38233">
        <ele>155</ele>
        <time>2025-06-12T04:18:51Z</time>
      </trkpt>
      <trkpt lat="43.65018" lon="1.38236">
        <ele>155</ele>
        <time>2025-06-12T04:18:52Z</time>
      </trkpt>
      <trkpt lat="43.6502" lon="1.38242">
        <ele>155</ele>
        <time>2025-06-12T04:18:53Z</time>
      </trkpt>
      <trkpt lat="43.65022" lon="1.38246">
        <ele>155</ele>
        <time>2025-06-12T04:18:54Z</time>
      </trkpt>
      <trkpt lat="43.65023" lon="1.38249">
        <ele>155</ele>
        <time>2025-06-12T04:18:55Z</time>
      </trkpt>
      <trkpt lat="43.65023" lon="1.38249">
        <ele>156</ele>
        <time>2025-06-12T04:18:56Z</time>
      </trkpt>
      <trkpt lat="43.65024" lon="1.38255">
        <ele>156</ele>
        <time>2025-06-12T04:18:57Z</time>
      </trkpt>
      <trkpt lat="43.65024" lon="1.38255">
        <ele>156</ele>
        <time>2025-06-12T04:18:58Z</time>
      </trkpt>
      <trkpt lat="43.65027" lon="1.38261">
        <ele>155</ele>
        <time>2025-06-12T04:18:59Z</time>
      </trkpt>
      <trkpt lat="43.65028" lon="1.38264">
        <ele>155</ele>
        <time>2025-06-12T04:19:00Z</time>
      </trkpt>
      <trkpt lat="43.65029" lon="1.38267">
        <ele>155</ele>
        <time>2025-06-12T04:19:01Z</time>
      </trkpt>
      <trkpt lat="43.65029" lon="1.38267">
        <ele>155</ele>
        <time>2025-06-12T04:19:02Z</time>
      </trkpt>
      <trkpt lat="43.65031" lon="1.38273">
        <ele>155</ele>
        <time>2025-06-12T04:19:03Z</time>
      </trkpt>
      <trkpt lat="43.65031" lon="1.38273">
        <ele>155</ele>
        <time>2025-06-12T04:19:04Z</time>
      </trkpt>
      <trkpt lat="43.65032" lon="1.38276">
        <ele>155</ele>
        <time>2025-06-12T04:19:05Z</time>
      </trkpt>
      <trkpt lat="43.65033" lon="1.38279">
        <ele>155</ele>
        <time>2025-06-12T04:19:06Z</time>
      </trkpt>
      <trkpt lat="43.65035" lon="1.38285">
        <ele>155</ele>
        <time>2025-06-12T04:19:07Z</time>
      </trkpt>
      <trkpt lat="43.65035" lon="1.38288">
        <ele>155</ele>
        <time>2025-06-12T04:19:08Z</time>
      </trkpt>
      <trkpt lat="43.65035" lon="1.38288">
        <ele>155</ele>
        <time>2025-06-12T04:19:09Z</time>
      </trkpt>
      <trkpt lat="43.65037" lon="1.38295">
        <ele>155</ele>
        <time>2025-06-12T04:19:10Z</time>
      </trkpt>
      <trkpt lat="43.65037" lon="1.38295">
        <ele>155</ele>
        <time>2025-06-12T04:19:11Z</time>
      </trkpt>
      <trkpt lat="43.65039" lon="1.38301">
        <ele>155</ele>
        <time>2025-06-12T04:19:12Z</time>
      </trkpt>
      <trkpt lat="43.6504" lon="1.38304">
        <ele>155</ele>
        <time>2025-06-12T04:19:13Z</time>
      </trkpt>
      <trkpt lat="43.6504" lon="1.38304">
        <ele>155</ele>
        <time>2025-06-12T04:19:14Z</time>
      </trkpt>
      <trkpt lat="43.65041" lon="1.38307">
        <ele>155</ele>
        <time>2025-06-12T04:19:15Z</time>
      </trkpt>
      <trkpt lat="43.65043" lon="1.38313">
        <ele>155</ele>
        <time>2025-06-12T04:19:16Z</time>
      </trkpt>
      <trkpt lat="43.65043" lon="1.38313">
        <ele>155</ele>
        <time>2025-06-12T04:19:17Z</time>
      </trkpt>
      <trkpt lat="43.65044" lon="1.38316">
        <ele>155</ele>
        <time>2025-06-12T04:19:18Z</time>
      </trkpt>
      <trkpt lat="43.65045" lon="1.3832">
        <ele>155</ele>
        <time>2025-06-12T04:19:19Z</time>
      </trkpt>
      <trkpt lat="43.65047" lon="1.38326">
        <ele>155</ele>
        <time>2025-06-12T04:19:20Z</time>
      </trkpt>
      <trkpt lat="43.65048" lon="1.38329">
        <ele>154</ele>
        <time>2025-06-12T04:19:21Z</time>
      </trkpt>
      <trkpt lat="43.65049" lon="1.38332">
        <ele>155</ele>
        <time>2025-06-12T04:19:22Z</time>
      </trkpt>
      <trkpt lat="43.65049" lon="1.38335">
        <ele>155</ele>
        <time>2025-06-12T04:19:23Z</time>
      </trkpt>
      <trkpt lat="43.6505" lon="1.38338">
        <ele>155</ele>
        <time>2025-06-12T04:19:24Z</time>
      </trkpt>
      <trkpt lat="43.6505" lon="1.38338">
        <ele>155</ele>
        <time>2025-06-12T04:19:25Z</time>
      </trkpt>
      <trkpt lat="43.65052" lon="1.38344">
        <ele>155</ele>
        <time>2025-06-12T04:19:26Z</time>
      </trkpt>
      <trkpt lat="43.65052" lon="1.38344">
        <ele>155</ele>
        <time>2025-06-12T04:19:27Z</time>
      </trkpt>
      <trkpt lat="43.65053" lon="1.38348">
        <ele>155</ele>
        <time>2025-06-12T04:19:28Z</time>
      </trkpt>
      <trkpt lat="43.65055" lon="1.38354">
        <ele>155</ele>
        <time>2025-06-12T04:19:29Z</time>
      </trkpt>
      <trkpt lat="43.65055" lon="1.38354">
        <ele>155</ele>
        <time>2025-06-12T04:19:30Z</time>
      </trkpt>
      <trkpt lat="43.65056" lon="1.38357">
        <ele>155</ele>
        <time>2025-06-12T04:19:31Z</time>
      </trkpt>
      <trkpt lat="43.65058" lon="1.3836">
        <ele>155</ele>
        <time>2025-06-12T04:19:32Z</time>
      </trkpt>
      <trkpt lat="43.65059" lon="1.38363">
        <ele>155</ele>
        <time>2025-06-12T04:19:33Z</time>
      </trkpt>
      <trkpt lat="43.6506" lon="1.38366">
        <ele>155</ele>
        <time>2025-06-12T04:19:34Z</time>
      </trkpt>
      <trkpt lat="43.65062" lon="1.38373">
        <ele>155</ele>
        <time>2025-06-12T04:19:35Z</time>
      </trkpt>
      <trkpt lat="43.65063" lon="1.38376">
        <ele>155</ele>
        <time>2025-06-12T04:19:36Z</time>
      </trkpt>
      <trkpt lat="43.65064" lon="1.38379">
        <ele>155</ele>
        <time>2025-06-12T04:19:37Z</time>
      </trkpt>
      <trkpt lat="43.65065" lon="1.38382">
        <ele>155</ele>
        <time>2025-06-12T04:19:38Z</time>
      </trkpt>
      <trkpt lat="43.65065" lon="1.38382">
        <ele>155</ele>
        <time>2025-06-12T04:19:39Z</time>
      </trkpt>
      <trkpt lat="43.65065" lon="1.38385">
        <ele>155</ele>
        <time>2025-06-12T04:19:40Z</time>
      </trkpt>
      <trkpt lat="43.65066" lon="1.38389">
        <ele>155</ele>
        <time>2025-06-12T04:19:41Z</time>
      </trkpt>
      <trkpt lat="43.65068" lon="1.38394">
        <ele>155</ele>
        <time>2025-06-12T04:19:42Z</time>
      </trkpt>
      <trkpt lat="43.65069" lon="1.38397">
        <ele>155</ele>
        <time>2025-06-12T04:19:43Z</time>
      </trkpt>
      <trkpt lat="43.6507" lon="1.38401">
        <ele>155</ele>
        <time>2025-06-12T04:19:44Z</time>
      </trkpt>
      <trkpt lat="43.6507" lon="1.38401">
        <ele>155</ele>
        <time>2025-06-12T04:19:45Z</time>
      </trkpt>
      <trkpt lat="43.65072" lon="1.38407">
        <ele>155</ele>
        <time>2025-06-12T04:19:46Z</time>
      </trkpt>
      <trkpt lat="43.65072" lon="1.38407">
        <ele>155</ele>
        <time>2025-06-12T04:19:47Z</time>
      </trkpt>
      <trkpt lat="43.65073" lon="1.38411">
        <ele>155</ele>
        <time>2025-06-12T04:19:48Z</time>
      </trkpt>
      <trkpt lat="43.65074" lon="1.38417">
        <ele>155</ele>
        <time>2025-06-12T04:19:49Z</time>
      </trkpt>
      <trkpt lat="43.65074" lon="1.38417">
        <ele>155</ele>
        <time>2025-06-12T04:19:50Z</time>
      </trkpt>
      <trkpt lat="43.65075" lon="1.3842">
        <ele>155</ele>
        <time>2025-06-12T04:19:51Z</time>
      </trkpt>
      <trkpt lat="43.65076" lon="1.38423">
        <ele>155</ele>
        <time>2025-06-12T04:19:52Z</time>
      </trkpt>
      <trkpt lat="43.65077" lon="1.38426">
        <ele>155</ele>
        <time>2025-06-12T04:19:53Z</time>
      </trkpt>
      <trkpt lat="43.65079" lon="1.38431">
        <ele>155</ele>
        <time>2025-06-12T04:19:54Z</time>
      </trkpt>
      <trkpt lat="43.65079" lon="1.38431">
        <ele>155</ele>
        <time>2025-06-12T04:19:55Z</time>
      </trkpt>
      <trkpt lat="43.65079" lon="1.38434">
        <ele>155</ele>
        <time>2025-06-12T04:19:56Z</time>
      </trkpt>
      <trkpt lat="43.6508" lon="1.38437">
        <ele>154</ele>
        <time>2025-06-12T04:19:57Z</time>
      </trkpt>
      <trkpt lat="43.65081" lon="1.3844">
        <ele>154</ele>
        <time>2025-06-12T04:19:58Z</time>
      </trkpt>
      <trkpt lat="43.65082" lon="1.38442">
        <ele>154</ele>
        <time>2025-06-12T04:19:59Z</time>
      </trkpt>
      <trkpt lat="43.65082" lon="1.38445">
        <ele>154</ele>
        <time>2025-06-12T04:20:00Z</time>
      </trkpt>
      <trkpt lat="43.65083" lon="1.38448">
        <ele>154</ele>
        <time>2025-06-12T04:20:01Z</time>
      </trkpt>
      <trkpt lat="43.65083" lon="1.38451">
        <ele>154</ele>
        <time>2025-06-12T04:20:02Z</time>
      </trkpt>
      <trkpt lat="43.65084" lon="1.38454">
        <ele>154</ele>
        <time>2025-06-12T04:20:03Z</time>
      </trkpt>
      <trkpt lat="43.65085" lon="1.38457">
        <ele>154</ele>
        <time>2025-06-12T04:20:04Z</time>
      </trkpt>
      <trkpt lat="43.65085" lon="1.3846">
        <ele>154</ele>
        <time>2025-06-12T04:20:05Z</time>
      </trkpt>
      <trkpt lat="43.65086" lon="1.38462">
        <ele>154</ele>
        <time>2025-06-12T04:20:06Z</time>
      </trkpt>
      <trkpt lat="43.65088" lon="1.38465">
        <ele>154</ele>
        <time>2025-06-12T04:20:07Z</time>
      </trkpt>
      <trkpt lat="43.65089" lon="1.38469">
        <ele>154</ele>
        <time>2025-06-12T04:20:08Z</time>
      </trkpt>
      <trkpt lat="43.6509" lon="1.38472">
        <ele>154</ele>
        <time>2025-06-12T04:20:09Z</time>
      </trkpt>
      <trkpt lat="43.65092" lon="1.38475">
        <ele>154</ele>
        <time>2025-06-12T04:20:10Z</time>
      </trkpt>
      <trkpt lat="43.65093" lon="1.38478">
        <ele>154</ele>
        <time>2025-06-12T04:20:11Z</time>
      </trkpt>
      <trkpt lat="43.65095" lon="1.38484">
        <ele>154</ele>
        <time>2025-06-12T04:20:12Z</time>
      </trkpt>
      <trkpt lat="43.65097" lon="1.38488">
        <ele>154</ele>
        <time>2025-06-12T04:20:13Z</time>
      </trkpt>
      <trkpt lat="43.65097" lon="1.38488">
        <ele>154</ele>
        <time>2025-06-12T04:20:14Z</time>
      </trkpt>
      <trkpt lat="43.65099" lon="1.38494">
        <ele>154</ele>
        <time>2025-06-12T04:20:15Z</time>
      </trkpt>
      <trkpt lat="43.65099" lon="1.38494">
        <ele>154</ele>
        <time>2025-06-12T04:20:16Z</time>
      </trkpt>
      <trkpt lat="43.65101" lon="1.38497">
        <ele>154</ele>
        <time>2025-06-12T04:20:17Z</time>
      </trkpt>
      <trkpt lat="43.65101" lon="1.38501">
        <ele>154</ele>
        <time>2025-06-12T04:20:18Z</time>
      </trkpt>
      <trkpt lat="43.65102" lon="1.38505">
        <ele>154</ele>
        <time>2025-06-12T04:20:19Z</time>
      </trkpt>
      <trkpt lat="43.65101" lon="1.38511">
        <ele>154</ele>
        <time>2025-06-12T04:20:20Z</time>
      </trkpt>
      <trkpt lat="43.65101" lon="1.38514">
        <ele>154</ele>
        <time>2025-06-12T04:20:21Z</time>
      </trkpt>
      <trkpt lat="43.65101" lon="1.38514">
        <ele>154</ele>
        <time>2025-06-12T04:20:22Z</time>
      </trkpt>
      <trkpt lat="43.65101" lon="1.38518">
        <ele>154</ele>
        <time>2025-06-12T04:20:23Z</time>
      </trkpt>
      <trkpt lat="43.651" lon="1.38521">
        <ele>154</ele>
        <time>2025-06-12T04:20:24Z</time>
      </trkpt>
      <trkpt lat="43.651" lon="1.38525">
        <ele>154</ele>
        <time>2025-06-12T04:20:25Z</time>
      </trkpt>
      <trkpt lat="43.651" lon="1.38528">
        <ele>154</ele>
        <time>2025-06-12T04:20:26Z</time>
      </trkpt>
      <trkpt lat="43.65101" lon="1.38533">
        <ele>154</ele>
        <time>2025-06-12T04:20:27Z</time>
      </trkpt>
      <trkpt lat="43.65103" lon="1.38535">
        <ele>154</ele>
        <time>2025-06-12T04:20:28Z</time>
      </trkpt>
      <trkpt lat="43.65103" lon="1.38535">
        <ele>154</ele>
        <time>2025-06-12T04:20:29Z</time>
      </trkpt>
      <trkpt lat="43.65105" lon="1.38538">
        <ele>154</ele>
        <time>2025-06-12T04:20:30Z</time>
      </trkpt>
      <trkpt lat="43.65108" lon="1.38539">
        <ele>154</ele>
        <time>2025-06-12T04:20:31Z</time>
      </trkpt>
      <trkpt lat="43.65113" lon="1.3854">
        <ele>154</ele>
        <time>2025-06-12T04:20:32Z</time>
      </trkpt>
      <trkpt lat="43.65113" lon="1.3854">
        <ele>154</ele>
        <time>2025-06-12T04:20:33Z</time>
      </trkpt>
      <trkpt lat="43.65117" lon="1.38544">
        <ele>154</ele>
        <time>2025-06-12T04:20:34Z</time>
      </trkpt>
      <trkpt lat="43.65117" lon="1.38544">
        <ele>154</ele>
        <time>2025-06-12T04:20:35Z</time>
      </trkpt>
      <trkpt lat="43.6512" lon="1.38551">
        <ele>154</ele>
        <time>2025-06-12T04:20:36Z</time>
      </trkpt>
      <trkpt lat="43.65121" lon="1.38554">
        <ele>154</ele>
        <time>2025-06-12T04:20:37Z</time>
      </trkpt>
      <trkpt lat="43.65121" lon="1.38557">
        <ele>154</ele>
        <time>2025-06-12T04:20:38Z</time>
      </trkpt>
      <trkpt lat="43.65121" lon="1.38557">
        <ele>154</ele>
        <time>2025-06-12T04:20:39Z</time>
      </trkpt>
      <trkpt lat="43.65122" lon="1.3856">
        <ele>154</ele>
        <time>2025-06-12T04:20:40Z</time>
      </trkpt>
      <trkpt lat="43.65123" lon="1.38567">
        <ele>154</ele>
        <time>2025-06-12T04:20:41Z</time>
      </trkpt>
      <trkpt lat="43.65123" lon="1.3857">
        <ele>154</ele>
        <time>2025-06-12T04:20:42Z</time>
      </trkpt>
      <trkpt lat="43.65124" lon="1.38574">
        <ele>154</ele>
        <time>2025-06-12T04:20:43Z</time>
      </trkpt>
      <trkpt lat="43.65124" lon="1.38577">
        <ele>154</ele>
        <time>2025-06-12T04:20:44Z</time>
      </trkpt>
      <trkpt lat="43.65124" lon="1.38577">
        <ele>154</ele>
        <time>2025-06-12T04:20:45Z</time>
      </trkpt>
      <trkpt lat="43.65126" lon="1.38584">
        <ele>154</ele>
        <time>2025-06-12T04:20:46Z</time>
      </trkpt>
      <trkpt lat="43.65126" lon="1.38584">
        <ele>154</ele>
        <time>2025-06-12T04:20:47Z</time>
      </trkpt>
      <trkpt lat="43.65127" lon="1.38588">
        <ele>154</ele>
        <time>2025-06-12T04:20:48Z</time>
      </trkpt>
      <trkpt lat="43.65128" lon="1.38592">
        <ele>154</ele>
        <time>2025-06-12T04:20:49Z</time>
      </trkpt>
      <trkpt lat="43.6513" lon="1.38598">
        <ele>154</ele>
        <time>2025-06-12T04:20:50Z</time>
      </trkpt>
      <trkpt lat="43.65131" lon="1.38601">
        <ele>154</ele>
        <time>2025-06-12T04:20:51Z</time>
      </trkpt>
      <trkpt lat="43.65131" lon="1.38601">
        <ele>154</ele>
        <time>2025-06-12T04:20:52Z</time>
      </trkpt>
      <trkpt lat="43.65132" lon="1.38604">
        <ele>154</ele>
        <time>2025-06-12T04:20:53Z</time>
      </trkpt>
      <trkpt lat="43.65132" lon="1.38608">
        <ele>154</ele>
        <time>2025-06-12T04:20:54Z</time>
      </trkpt>
      <trkpt lat="43.65133" lon="1.38614">
        <ele>153</ele>
        <time>2025-06-12T04:20:55Z</time>
      </trkpt>
      <trkpt lat="43.65134" lon="1.38618">
        <ele>153</ele>
        <time>2025-06-12T04:20:56Z</time>
      </trkpt>
      <trkpt lat="43.65135" lon="1.38621">
        <ele>153</ele>
        <time>2025-06-12T04:20:57Z</time>
      </trkpt>
      <trkpt lat="43.65135" lon="1.38623">
        <ele>153</ele>
        <time>2025-06-12T04:20:58Z</time>
      </trkpt>
      <trkpt lat="43.65135" lon="1.38623">
        <ele>153</ele>
        <time>2025-06-12T04:20:59Z</time>
      </trkpt>
      <trkpt lat="43.65136" lon="1.38629">
        <ele>153</ele>
        <time>2025-06-12T04:21:00Z</time>
      </trkpt>
      <trkpt lat="43.65136" lon="1.38629">
        <ele>153</ele>
        <time>2025-06-12T04:21:01Z</time>
      </trkpt>
      <trkpt lat="43.65137" lon="1.38632">
        <ele>153</ele>
        <time>2025-06-12T04:21:02Z</time>
      </trkpt>
      <trkpt lat="43.65138" lon="1.38634">
        <ele>153</ele>
        <time>2025-06-12T04:21:03Z</time>
      </trkpt>
      <trkpt lat="43.6514" lon="1.3864">
        <ele>153</ele>
        <time>2025-06-12T04:21:04Z</time>
      </trkpt>
      <trkpt lat="43.65142" lon="1.38642">
        <ele>153</ele>
        <time>2025-06-12T04:21:05Z</time>
      </trkpt>
      <trkpt lat="43.65144" lon="1.38645">
        <ele>153</ele>
        <time>2025-06-12T04:21:06Z</time>
      </trkpt>
      <trkpt lat="43.65144" lon="1.38645">
        <ele>153</ele>
        <time>2025-06-12T04:21:07Z</time>
      </trkpt>
      <trkpt lat="43.65145" lon="1.38648">
        <ele>153</ele>
        <time>2025-06-12T04:21:08Z</time>
      </trkpt>
      <trkpt lat="43.65147" lon="1.38651">
        <ele>153</ele>
        <time>2025-06-12T04:21:09Z</time>
      </trkpt>
      <trkpt lat="43.6515" lon="1.38657">
        <ele>153</ele>
        <time>2025-06-12T04:21:10Z</time>
      </trkpt>
      <trkpt lat="43.6515" lon="1.38657">
        <ele>153</ele>
        <time>2025-06-12T04:21:11Z</time>
      </trkpt>
      <trkpt lat="43.65151" lon="1.3866">
        <ele>153</ele>
        <time>2025-06-12T04:21:12Z</time>
      </trkpt>
      <trkpt lat="43.65152" lon="1.38664">
        <ele>153</ele>
        <time>2025-06-12T04:21:13Z</time>
      </trkpt>
      <trkpt lat="43.65155" lon="1.3867">
        <ele>153</ele>
        <time>2025-06-12T04:21:14Z</time>
      </trkpt>
      <trkpt lat="43.65155" lon="1.3867">
        <ele>153</ele>
        <time>2025-06-12T04:21:15Z</time>
      </trkpt>
      <trkpt lat="43.65157" lon="1.38676">
        <ele>153</ele>
        <time>2025-06-12T04:21:16Z</time>
      </trkpt>
      <trkpt lat="43.65157" lon="1.38676">
        <ele>153</ele>
        <time>2025-06-12T04:21:17Z</time>
      </trkpt>
      <trkpt lat="43.65157" lon="1.38679">
        <ele>153</ele>
        <time>2025-06-12T04:21:18Z</time>
      </trkpt>
      <trkpt lat="43.65157" lon="1.38679">
        <ele>153</ele>
        <time>2025-06-12T04:21:19Z</time>
      </trkpt>
      <trkpt lat="43.65159" lon="1.38682">
        <ele>153</ele>
        <time>2025-06-12T04:21:20Z</time>
      </trkpt>
      <trkpt lat="43.6516" lon="1.38685">
        <ele>153</ele>
        <time>2025-06-12T04:21:21Z</time>
      </trkpt>
      <trkpt lat="43.65161" lon="1.38688">
        <ele>153</ele>
        <time>2025-06-12T04:21:22Z</time>
      </trkpt>
      <trkpt lat="43.65161" lon="1.38691">
        <ele>153</ele>
        <time>2025-06-12T04:21:23Z</time>
      </trkpt>
      <trkpt lat="43.65162" lon="1.38694">
        <ele>153</ele>
        <time>2025-06-12T04:21:24Z</time>
      </trkpt>
      <trkpt lat="43.65163" lon="1.38697">
        <ele>153</ele>
        <time>2025-06-12T04:21:25Z</time>
      </trkpt>
      <trkpt lat="43.65165" lon="1.387">
        <ele>153</ele>
        <time>2025-06-12T04:21:26Z</time>
      </trkpt>
      <trkpt lat="43.65166" lon="1.38702">
        <ele>153</ele>
        <time>2025-06-12T04:21:27Z</time>
      </trkpt>
      <trkpt lat="43.65166" lon="1.38705">
        <ele>154</ele>
        <time>2025-06-12T04:21:28Z</time>
      </trkpt>
      <trkpt lat="43.65168" lon="1.38708">
        <ele>154</ele>
        <time>2025-06-12T04:21:29Z</time>
      </trkpt>
      <trkpt lat="43.65169" lon="1.38711">
        <ele>154</ele>
        <time>2025-06-12T04:21:30Z</time>
      </trkpt>
      <trkpt lat="43.65171" lon="1.38717">
        <ele>154</ele>
        <time>2025-06-12T04:21:31Z</time>
      </trkpt>
      <trkpt lat="43.65173" lon="1.3872">
        <ele>154</ele>
        <time>2025-06-12T04:21:32Z</time>
      </trkpt>
      <trkpt lat="43.65173" lon="1.3872">
        <ele>154</ele>
        <time>2025-06-12T04:21:33Z</time>
      </trkpt>
      <trkpt lat="43.65175" lon="1.38723">
        <ele>154</ele>
        <time>2025-06-12T04:21:34Z</time>
      </trkpt>
      <trkpt lat="43.65176" lon="1.38727">
        <ele>154</ele>
        <time>2025-06-12T04:21:35Z</time>
      </trkpt>
      <trkpt lat="43.65178" lon="1.3873">
        <ele>154</ele>
        <time>2025-06-12T04:21:36Z</time>
      </trkpt>
      <trkpt lat="43.65179" lon="1.38733">
        <ele>154</ele>
        <time>2025-06-12T04:21:37Z</time>
      </trkpt>
      <trkpt lat="43.6518" lon="1.38738">
        <ele>153</ele>
        <time>2025-06-12T04:21:38Z</time>
      </trkpt>
      <trkpt lat="43.65181" lon="1.38741">
        <ele>153</ele>
        <time>2025-06-12T04:21:39Z</time>
      </trkpt>
      <trkpt lat="43.65181" lon="1.38743">
        <ele>153</ele>
        <time>2025-06-12T04:21:40Z</time>
      </trkpt>
      <trkpt lat="43.65182" lon="1.38746">
        <ele>153</ele>
        <time>2025-06-12T04:21:41Z</time>
      </trkpt>
      <trkpt lat="43.65182" lon="1.38749">
        <ele>153</ele>
        <time>2025-06-12T04:21:42Z</time>
      </trkpt>
      <trkpt lat="43.65183" lon="1.38752">
        <ele>154</ele>
        <time>2025-06-12T04:21:43Z</time>
      </trkpt>
      <trkpt lat="43.65183" lon="1.38752">
        <ele>154</ele>
        <time>2025-06-12T04:21:44Z</time>
      </trkpt>
      <trkpt lat="43.65184" lon="1.38756">
        <ele>154</ele>
        <time>2025-06-12T04:21:45Z</time>
      </trkpt>
      <trkpt lat="43.65185" lon="1.38759">
        <ele>154</ele>
        <time>2025-06-12T04:21:46Z</time>
      </trkpt>
      <trkpt lat="43.65188" lon="1.38765">
        <ele>154</ele>
        <time>2025-06-12T04:21:47Z</time>
      </trkpt>
      <trkpt lat="43.6519" lon="1.38768">
        <ele>154</ele>
        <time>2025-06-12T04:21:48Z</time>
      </trkpt>
      <trkpt lat="43.6519" lon="1.38768">
        <ele>154</ele>
        <time>2025-06-12T04:21:49Z</time>
      </trkpt>
      <trkpt lat="43.65192" lon="1.38772">
        <ele>154</ele>
        <time>2025-06-12T04:21:50Z</time>
      </trkpt>
      <trkpt lat="43.65192" lon="1.38772">
        <ele>153</ele>
        <time>2025-06-12T04:21:51Z</time>
      </trkpt>
      <trkpt lat="43.65194" lon="1.38775">
        <ele>153</ele>
        <time>2025-06-12T04:21:52Z</time>
      </trkpt>
      <trkpt lat="43.65196" lon="1.38777">
        <ele>153</ele>
        <time>2025-06-12T04:21:53Z</time>
      </trkpt>
      <trkpt lat="43.65201" lon="1.38782">
        <ele>153</ele>
        <time>2025-06-12T04:21:54Z</time>
      </trkpt>
      <trkpt lat="43.65201" lon="1.38782">
        <ele>153</ele>
        <time>2025-06-12T04:21:55Z</time>
      </trkpt>
      <trkpt lat="43.65202" lon="1.38784">
        <ele>153</ele>
        <time>2025-06-12T04:21:56Z</time>
      </trkpt>
      <trkpt lat="43.65205" lon="1.38787">
        <ele>153</ele>
        <time>2025-06-12T04:21:57Z</time>
      </trkpt>
      <trkpt lat="43.65206" lon="1.3879">
        <ele>153</ele>
        <time>2025-06-12T04:21:58Z</time>
      </trkpt>
      <trkpt lat="43.65208" lon="1.38793">
        <ele>153</ele>
        <time>2025-06-12T04:21:59Z</time>
      </trkpt>
      <trkpt lat="43.65212" lon="1.38798">
        <ele>153</ele>
        <time>2025-06-12T04:22:00Z</time>
      </trkpt>
      <trkpt lat="43.65212" lon="1.38798">
        <ele>153</ele>
        <time>2025-06-12T04:22:01Z</time>
      </trkpt>
      <trkpt lat="43.65214" lon="1.388">
        <ele>152</ele>
        <time>2025-06-12T04:22:02Z</time>
      </trkpt>
      <trkpt lat="43.65217" lon="1.38805">
        <ele>152</ele>
        <time>2025-06-12T04:22:03Z</time>
      </trkpt>
      <trkpt lat="43.65219" lon="1.38808">
        <ele>152</ele>
        <time>2025-06-12T04:22:04Z</time>
      </trkpt>
      <trkpt lat="43.65219" lon="1.38808">
        <ele>152</ele>
        <time>2025-06-12T04:22:05Z</time>
      </trkpt>
      <trkpt lat="43.65223" lon="1.38813">
        <ele>152</ele>
        <time>2025-06-12T04:22:06Z</time>
      </trkpt>
      <trkpt lat="43.65224" lon="1.38816">
        <ele>152</ele>
        <time>2025-06-12T04:22:07Z</time>
      </trkpt>
      <trkpt lat="43.65224" lon="1.38816">
        <ele>152</ele>
        <time>2025-06-12T04:22:08Z</time>
      </trkpt>
      <trkpt lat="43.65226" lon="1.38818">
        <ele>152</ele>
        <time>2025-06-12T04:22:09Z</time>
      </trkpt>
      <trkpt lat="43.65227" lon="1.38821">
        <ele>152</ele>
        <time>2025-06-12T04:22:10Z</time>
      </trkpt>
      <trkpt lat="43.65229" lon="1.38824">
        <ele>152</ele>
        <time>2025-06-12T04:22:11Z</time>
      </trkpt>
      <trkpt lat="43.65231" lon="1.38826">
        <ele>152</ele>
        <time>2025-06-12T04:22:12Z</time>
      </trkpt>
      <trkpt lat="43.65233" lon="1.38829">
        <ele>151</ele>
        <time>2025-06-12T04:22:13Z</time>
      </trkpt>
      <trkpt lat="43.65235" lon="1.38831">
        <ele>151</ele>
        <time>2025-06-12T04:22:14Z</time>
      </trkpt>
      <trkpt lat="43.65238" lon="1.38837">
        <ele>151</ele>
        <time>2025-06-12T04:22:15Z</time>
      </trkpt>
      <trkpt lat="43.6524" lon="1.38839">
        <ele>152</ele>
        <time>2025-06-12T04:22:16Z</time>
      </trkpt>
      <trkpt lat="43.6524" lon="1.38839">
        <ele>152</ele>
        <time>2025-06-12T04:22:17Z</time>
      </trkpt>
      <trkpt lat="43.65241" lon="1.38841">
        <ele>152</ele>
        <time>2025-06-12T04:22:18Z</time>
      </trkpt>
      <trkpt lat="43.65243" lon="1.38844">
        <ele>152</ele>
        <time>2025-06-12T04:22:19Z</time>
      </trkpt>
      <trkpt lat="43.65245" lon="1.38846">
        <ele>151</ele>
        <time>2025-06-12T04:22:20Z</time>
      </trkpt>
      <trkpt lat="43.65246" lon="1.38849">
        <ele>151</ele>
        <time>2025-06-12T04:22:21Z</time>
      </trkpt>
      <trkpt lat="43.65248" lon="1.38852">
        <ele>151</ele>
        <time>2025-06-12T04:22:22Z</time>
      </trkpt>
      <trkpt lat="43.65249" lon="1.38855">
        <ele>151</ele>
        <time>2025-06-12T04:22:23Z</time>
      </trkpt>
      <trkpt lat="43.65252" lon="1.3886">
        <ele>151</ele>
        <time>2025-06-12T04:22:24Z</time>
      </trkpt>
      <trkpt lat="43.65254" lon="1.38863">
        <ele>151</ele>
        <time>2025-06-12T04:22:25Z</time>
      </trkpt>
      <trkpt lat="43.65256" lon="1.38865">
        <ele>151</ele>
        <time>2025-06-12T04:22:26Z</time>
      </trkpt>
      <trkpt lat="43.65256" lon="1.38865">
        <ele>151</ele>
        <time>2025-06-12T04:22:27Z</time>
      </trkpt>
      <trkpt lat="43.65261" lon="1.3887">
        <ele>151</ele>
        <time>2025-06-12T04:22:28Z</time>
      </trkpt>
      <trkpt lat="43.65261" lon="1.3887">
        <ele>150</ele>
        <time>2025-06-12T04:22:29Z</time>
      </trkpt>
      <trkpt lat="43.65263" lon="1.38872">
        <ele>150</ele>
        <time>2025-06-12T04:22:30Z</time>
      </trkpt>
      <trkpt lat="43.65264" lon="1.38875">
        <ele>150</ele>
        <time>2025-06-12T04:22:31Z</time>
      </trkpt>
      <trkpt lat="43.65268" lon="1.3888">
        <ele>149</ele>
        <time>2025-06-12T04:22:32Z</time>
      </trkpt>
      <trkpt lat="43.65271" lon="1.38883">
        <ele>149</ele>
        <time>2025-06-12T04:22:33Z</time>
      </trkpt>
      <trkpt lat="43.65271" lon="1.38883">
        <ele>149</ele>
        <time>2025-06-12T04:22:34Z</time>
      </trkpt>
      <trkpt lat="43.65275" lon="1.38889">
        <ele>149</ele>
        <time>2025-06-12T04:22:35Z</time>
      </trkpt>
      <trkpt lat="43.65276" lon="1.38891">
        <ele>148</ele>
        <time>2025-06-12T04:22:36Z</time>
      </trkpt>
      <trkpt lat="43.65278" lon="1.38894">
        <ele>148</ele>
        <time>2025-06-12T04:22:37Z</time>
      </trkpt>
      <trkpt lat="43.6528" lon="1.38896">
        <ele>148</ele>
        <time>2025-06-12T04:22:38Z</time>
      </trkpt>
      <trkpt lat="43.6528" lon="1.38896">
        <ele>147</ele>
        <time>2025-06-12T04:22:39Z</time>
      </trkpt>
      <trkpt lat="43.65282" lon="1.38899">
        <ele>147</ele>
        <time>2025-06-12T04:22:40Z</time>
      </trkpt>
      <trkpt lat="43.65284" lon="1.38902">
        <ele>147</ele>
        <time>2025-06-12T04:22:41Z</time>
      </trkpt>
      <trkpt lat="43.65285" lon="1.38905">
        <ele>146</ele>
        <time>2025-06-12T04:22:42Z</time>
      </trkpt>
      <trkpt lat="43.65287" lon="1.38907">
        <ele>146</ele>
        <time>2025-06-12T04:22:43Z</time>
      </trkpt>
      <trkpt lat="43.65291" lon="1.38911">
        <ele>146</ele>
        <time>2025-06-12T04:22:44Z</time>
      </trkpt>
      <trkpt lat="43.65293" lon="1.38912">
        <ele>146</ele>
        <time>2025-06-12T04:22:45Z</time>
      </trkpt>
      <trkpt lat="43.65293" lon="1.38912">
        <ele>146</ele>
        <time>2025-06-12T04:22:46Z</time>
      </trkpt>
      <trkpt lat="43.65293" lon="1.38912">
        <ele>146</ele>
        <time>2025-06-12T04:22:47Z</time>
      </trkpt>
      <trkpt lat="43.65297" lon="1.38913">
        <ele>146</ele>
        <time>2025-06-12T04:22:48Z</time>
      </trkpt>
      <trkpt lat="43.65301" lon="1.38915">
        <ele>146</ele>
        <time>2025-06-12T04:22:49Z</time>
      </trkpt>
      <trkpt lat="43.65304" lon="1.38916">
        <ele>146</ele>
        <time>2025-06-12T04:22:50Z</time>
      </trkpt>
      <trkpt lat="43.65306" lon="1.38917">
        <ele>146</ele>
        <time>2025-06-12T04:22:51Z</time>
      </trkpt>
      <trkpt lat="43.65308" lon="1.38919">
        <ele>145</ele>
        <time>2025-06-12T04:22:52Z</time>
      </trkpt>
      <trkpt lat="43.65308" lon="1.38919">
        <ele>145</ele>
        <time>2025-06-12T04:22:53Z</time>
      </trkpt>
      <trkpt lat="43.65311" lon="1.38922">
        <ele>145</ele>
        <time>2025-06-12T04:22:54Z</time>
      </trkpt>
      <trkpt lat="43.65313" lon="1.38926">
        <ele>145</ele>
        <time>2025-06-12T04:22:55Z</time>
      </trkpt>
      <trkpt lat="43.65315" lon="1.38931">
        <ele>144</ele>
        <time>2025-06-12T04:22:56Z</time>
      </trkpt>
      <trkpt lat="43.65315" lon="1.38936">
        <ele>144</ele>
        <time>2025-06-12T04:22:57Z</time>
      </trkpt>
      <trkpt lat="43.65319" lon="1.38946">
        <ele>143</ele>
        <time>2025-06-12T04:22:58Z</time>
      </trkpt>
      <trkpt lat="43.65319" lon="1.38946">
        <ele>143</ele>
        <time>2025-06-12T04:22:59Z</time>
      </trkpt>
      <trkpt lat="43.6532" lon="1.3895">
        <ele>141</ele>
        <time>2025-06-12T04:23:00Z</time>
      </trkpt>
      <trkpt lat="43.65322" lon="1.38955">
        <ele>141</ele>
        <time>2025-06-12T04:23:01Z</time>
      </trkpt>
      <trkpt lat="43.65322" lon="1.38965">
        <ele>140</ele>
        <time>2025-06-12T04:23:02Z</time>
      </trkpt>
      <trkpt lat="43.65322" lon="1.38965">
        <ele>140</ele>
        <time>2025-06-12T04:23:03Z</time>
      </trkpt>
      <trkpt lat="43.65324" lon="1.38973">
        <ele>140</ele>
        <time>2025-06-12T04:23:04Z</time>
      </trkpt>
      <trkpt lat="43.65324" lon="1.38973">
        <ele>140</ele>
        <time>2025-06-12T04:23:05Z</time>
      </trkpt>
      <trkpt lat="43.65325" lon="1.38977">
        <ele>140</ele>
        <time>2025-06-12T04:23:06Z</time>
      </trkpt>
      <trkpt lat="43.65326" lon="1.3898">
        <ele>140</ele>
        <time>2025-06-12T04:23:07Z</time>
      </trkpt>
      <trkpt lat="43.65328" lon="1.38987">
        <ele>139</ele>
        <time>2025-06-12T04:23:08Z</time>
      </trkpt>
      <trkpt lat="43.65329" lon="1.3899">
        <ele>139</ele>
        <time>2025-06-12T04:23:09Z</time>
      </trkpt>
      <trkpt lat="43.65329" lon="1.3899">
        <ele>138</ele>
        <time>2025-06-12T04:23:10Z</time>
      </trkpt>
      <trkpt lat="43.6533" lon="1.38994">
        <ele>137</ele>
        <time>2025-06-12T04:23:11Z</time>
      </trkpt>
      <trkpt lat="43.65331" lon="1.38997">
        <ele>137</ele>
        <time>2025-06-12T04:23:12Z</time>
      </trkpt>
      <trkpt lat="43.65329" lon="1.39005">
        <ele>137</ele>
        <time>2025-06-12T04:23:13Z</time>
      </trkpt>
      <trkpt lat="43.65329" lon="1.39005">
        <ele>137</ele>
        <time>2025-06-12T04:23:14Z</time>
      </trkpt>
      <trkpt lat="43.65327" lon="1.39009">
        <ele>137</ele>
        <time>2025-06-12T04:23:15Z</time>
      </trkpt>
      <trkpt lat="43.65326" lon="1.39012">
        <ele>137</ele>
        <time>2025-06-12T04:23:16Z</time>
      </trkpt>
      <trkpt lat="43.65325" lon="1.39016">
        <ele>137</ele>
        <time>2025-06-12T04:23:17Z</time>
      </trkpt>
      <trkpt lat="43.65323" lon="1.3902">
        <ele>136</ele>
        <time>2025-06-12T04:23:18Z</time>
      </trkpt>
      <trkpt lat="43.65322" lon="1.39024">
        <ele>136</ele>
        <time>2025-06-12T04:23:19Z</time>
      </trkpt>
      <trkpt lat="43.65319" lon="1.3903">
        <ele>136</ele>
        <time>2025-06-12T04:23:20Z</time>
      </trkpt>
      <trkpt lat="43.65318" lon="1.39033">
        <ele>136</ele>
        <time>2025-06-12T04:23:21Z</time>
      </trkpt>
      <trkpt lat="43.65316" lon="1.39037">
        <ele>136</ele>
        <time>2025-06-12T04:23:22Z</time>
      </trkpt>
      <trkpt lat="43.65314" lon="1.3904">
        <ele>136</ele>
        <time>2025-06-12T04:23:23Z</time>
      </trkpt>
      <trkpt lat="43.65314" lon="1.3904">
        <ele>136</ele>
        <time>2025-06-12T04:23:24Z</time>
      </trkpt>
      <trkpt lat="43.65312" lon="1.39042">
        <ele>136</ele>
        <time>2025-06-12T04:23:25Z</time>
      </trkpt>
      <trkpt lat="43.65309" lon="1.39044">
        <ele>136</ele>
        <time>2025-06-12T04:23:26Z</time>
      </trkpt>
      <trkpt lat="43.65306" lon="1.39045">
        <ele>136</ele>
        <time>2025-06-12T04:23:27Z</time>
      </trkpt>
      <trkpt lat="43.65303" lon="1.39044">
        <ele>136</ele>
        <time>2025-06-12T04:23:28Z</time>
      </trkpt>
      <trkpt lat="43.653" lon="1.39044">
        <ele>136</ele>
        <time>2025-06-12T04:23:29Z</time>
      </trkpt>
      <trkpt lat="43.65293" lon="1.39043">
        <ele>136</ele>
        <time>2025-06-12T04:23:30Z</time>
      </trkpt>
      <trkpt lat="43.65291" lon="1.39042">
        <ele>136</ele>
        <time>2025-06-12T04:23:31Z</time>
      </trkpt>
      <trkpt lat="43.65288" lon="1.39041">
        <ele>136</ele>
        <time>2025-06-12T04:23:32Z</time>
      </trkpt>
      <trkpt lat="43.65285" lon="1.39041">
        <ele>136</ele>
        <time>2025-06-12T04:23:33Z</time>
      </trkpt>
      <trkpt lat="43.65282" lon="1.39041">
        <ele>136</ele>
        <time>2025-06-12T04:23:34Z</time>
      </trkpt>
      <trkpt lat="43.65279" lon="1.3904">
        <ele>136</ele>
        <time>2025-06-12T04:23:35Z</time>
      </trkpt>
      <trkpt lat="43.65279" lon="1.3904">
        <ele>136</ele>
        <time>2025-06-12T04:23:36Z</time>
      </trkpt>
      <trkpt lat="43.65277" lon="1.39039">
        <ele>136</ele>
        <time>2025-06-12T04:23:37Z</time>
      </trkpt>
      <trkpt lat="43.65274" lon="1.39039">
        <ele>136</ele>
        <time>2025-06-12T04:23:38Z</time>
      </trkpt>
      <trkpt lat="43.65268" lon="1.39038">
        <ele>136</ele>
        <time>2025-06-12T04:23:39Z</time>
      </trkpt>
      <trkpt lat="43.65266" lon="1.39038">
        <ele>136</ele>
        <time>2025-06-12T04:23:40Z</time>
      </trkpt>
      <trkpt lat="43.65266" lon="1.39038">
        <ele>136</ele>
        <time>2025-06-12T04:23:41Z</time>
      </trkpt>
      <trkpt lat="43.65261" lon="1.39038">
        <ele>136</ele>
        <time>2025-06-12T04:23:42Z</time>
      </trkpt>
      <trkpt lat="43.65261" lon="1.39038">
        <ele>136</ele>
        <time>2025-06-12T04:23:43Z</time>
      </trkpt>
      <trkpt lat="43.65258" lon="1.39037">
        <ele>136</ele>
        <time>2025-06-12T04:23:44Z</time>
      </trkpt>
      <trkpt lat="43.65256" lon="1.39037">
        <ele>136</ele>
        <time>2025-06-12T04:23:45Z</time>
      </trkpt>
      <trkpt lat="43.65253" lon="1.39037">
        <ele>136</ele>
        <time>2025-06-12T04:23:46Z</time>
      </trkpt>
      <trkpt lat="43.65251" lon="1.39037">
        <ele>136</ele>
        <time>2025-06-12T04:23:47Z</time>
      </trkpt>
      <trkpt lat="43.65245" lon="1.39035">
        <ele>137</ele>
        <time>2025-06-12T04:23:48Z</time>
      </trkpt>
      <trkpt lat="43.65245" lon="1.39035">
        <ele>137</ele>
        <time>2025-06-12T04:23:49Z</time>
      </trkpt>
      <trkpt lat="43.65242" lon="1.39033">
        <ele>136</ele>
        <time>2025-06-12T04:23:50Z</time>
      </trkpt>
      <trkpt lat="43.65239" lon="1.39032">
        <ele>136</ele>
        <time>2025-06-12T04:23:51Z</time>
      </trkpt>
      <trkpt lat="43.65237" lon="1.3903">
        <ele>136</ele>
        <time>2025-06-12T04:23:52Z</time>
      </trkpt>
      <trkpt lat="43.65234" lon="1.39029">
        <ele>136</ele>
        <time>2025-06-12T04:23:53Z</time>
      </trkpt>
      <trkpt lat="43.65231" lon="1.39027">
        <ele>136</ele>
        <time>2025-06-12T04:23:54Z</time>
      </trkpt>
      <trkpt lat="43.65226" lon="1.39024">
        <ele>136</ele>
        <time>2025-06-12T04:23:55Z</time>
      </trkpt>
      <trkpt lat="43.65226" lon="1.39024">
        <ele>136</ele>
        <time>2025-06-12T04:23:56Z</time>
      </trkpt>
      <trkpt lat="43.65224" lon="1.39022">
        <ele>136</ele>
        <time>2025-06-12T04:23:57Z</time>
      </trkpt>
      <trkpt lat="43.65221" lon="1.39021">
        <ele>136</ele>
        <time>2025-06-12T04:23:58Z</time>
      </trkpt>
      <trkpt lat="43.65219" lon="1.3902">
        <ele>136</ele>
        <time>2025-06-12T04:23:59Z</time>
      </trkpt>
      <trkpt lat="43.65216" lon="1.39019">
        <ele>136</ele>
        <time>2025-06-12T04:24:00Z</time>
      </trkpt>
      <trkpt lat="43.65211" lon="1.39018">
        <ele>136</ele>
        <time>2025-06-12T04:24:01Z</time>
      </trkpt>
      <trkpt lat="43.65209" lon="1.39018">
        <ele>136</ele>
        <time>2025-06-12T04:24:02Z</time>
      </trkpt>
      <trkpt lat="43.65207" lon="1.39018">
        <ele>136</ele>
        <time>2025-06-12T04:24:03Z</time>
      </trkpt>
      <trkpt lat="43.65207" lon="1.39018">
        <ele>135</ele>
        <time>2025-06-12T04:24:04Z</time>
      </trkpt>
      <trkpt lat="43.65201" lon="1.39018">
        <ele>136</ele>
        <time>2025-06-12T04:24:05Z</time>
      </trkpt>
      <trkpt lat="43.65199" lon="1.39018">
        <ele>136</ele>
        <time>2025-06-12T04:24:06Z</time>
      </trkpt>
      <trkpt lat="43.65196" lon="1.39018">
        <ele>136</ele>
        <time>2025-06-12T04:24:07Z</time>
      </trkpt>
      <trkpt lat="43.65193" lon="1.39017">
        <ele>136</ele>
        <time>2025-06-12T04:24:08Z</time>
      </trkpt>
      <trkpt lat="43.65191" lon="1.39017">
        <ele>136</ele>
        <time>2025-06-12T04:24:09Z</time>
      </trkpt>
      <trkpt lat="43.65191" lon="1.39017">
        <ele>136</ele>
        <time>2025-06-12T04:24:10Z</time>
      </trkpt>
      <trkpt lat="43.65188" lon="1.39017">
        <ele>136</ele>
        <time>2025-06-12T04:24:11Z</time>
      </trkpt>
      <trkpt lat="43.65186" lon="1.39017">
        <ele>136</ele>
        <time>2025-06-12T04:24:12Z</time>
      </trkpt>
      <trkpt lat="43.65183" lon="1.39017">
        <ele>136</ele>
        <time>2025-06-12T04:24:13Z</time>
      </trkpt>
      <trkpt lat="43.6518" lon="1.39016">
        <ele>136</ele>
        <time>2025-06-12T04:24:14Z</time>
      </trkpt>
      <trkpt lat="43.65175" lon="1.39016">
        <ele>136</ele>
        <time>2025-06-12T04:24:15Z</time>
      </trkpt>
      <trkpt lat="43.65172" lon="1.39016">
        <ele>136</ele>
        <time>2025-06-12T04:24:16Z</time>
      </trkpt>
      <trkpt lat="43.65172" lon="1.39016">
        <ele>136</ele>
        <time>2025-06-12T04:24:17Z</time>
      </trkpt>
      <trkpt lat="43.65167" lon="1.39017">
        <ele>136</ele>
        <time>2025-06-12T04:24:18Z</time>
      </trkpt>
      <trkpt lat="43.65167" lon="1.39017">
        <ele>136</ele>
        <time>2025-06-12T04:24:19Z</time>
      </trkpt>
      <trkpt lat="43.65162" lon="1.39017">
        <ele>136</ele>
        <time>2025-06-12T04:24:20Z</time>
      </trkpt>
      <trkpt lat="43.65162" lon="1.39017">
        <ele>136</ele>
        <time>2025-06-12T04:24:21Z</time>
      </trkpt>
      <trkpt lat="43.6516" lon="1.39017">
        <ele>136</ele>
        <time>2025-06-12T04:24:22Z</time>
      </trkpt>
      <trkpt lat="43.65157" lon="1.39018">
        <ele>136</ele>
        <time>2025-06-12T04:24:23Z</time>
      </trkpt>
      <trkpt lat="43.65152" lon="1.39018">
        <ele>136</ele>
        <time>2025-06-12T04:24:24Z</time>
      </trkpt>
      <trkpt lat="43.65149" lon="1.39018">
        <ele>136</ele>
        <time>2025-06-12T04:24:25Z</time>
      </trkpt>
      <trkpt lat="43.65147" lon="1.39018">
        <ele>136</ele>
        <time>2025-06-12T04:24:26Z</time>
      </trkpt>
      <trkpt lat="43.65144" lon="1.39018">
        <ele>136</ele>
        <time>2025-06-12T04:24:27Z</time>
      </trkpt>
      <trkpt lat="43.65144" lon="1.39018">
        <ele>136</ele>
        <time>2025-06-12T04:24:28Z</time>
      </trkpt>
      <trkpt lat="43.65142" lon="1.39018">
        <ele>136</ele>
        <time>2025-06-12T04:24:29Z</time>
      </trkpt>
      <trkpt lat="43.65139" lon="1.39018">
        <ele>136</ele>
        <time>2025-06-12T04:24:30Z</time>
      </trkpt>
      <trkpt lat="43.65136" lon="1.39019">
        <ele>136</ele>
        <time>2025-06-12T04:24:31Z</time>
      </trkpt>
      <trkpt lat="43.65134" lon="1.39019">
        <ele>136</ele>
        <time>2025-06-12T04:24:32Z</time>
      </trkpt>
      <trkpt lat="43.65129" lon="1.39018">
        <ele>136</ele>
        <time>2025-06-12T04:24:33Z</time>
      </trkpt>
      <trkpt lat="43.65129" lon="1.39018">
        <ele>136</ele>
        <time>2025-06-12T04:24:34Z</time>
      </trkpt>
      <trkpt lat="43.65126" lon="1.39018">
        <ele>136</ele>
        <time>2025-06-12T04:24:35Z</time>
      </trkpt>
      <trkpt lat="43.65124" lon="1.39018">
        <ele>136</ele>
        <time>2025-06-12T04:24:36Z</time>
      </trkpt>
      <trkpt lat="43.65121" lon="1.39018">
        <ele>136</ele>
        <time>2025-06-12T04:24:37Z</time>
      </trkpt>
      <trkpt lat="43.65116" lon="1.39018">
        <ele>136</ele>
        <time>2025-06-12T04:24:38Z</time>
      </trkpt>
      <trkpt lat="43.65114" lon="1.39018">
        <ele>136</ele>
        <time>2025-06-12T04:24:39Z</time>
      </trkpt>
      <trkpt lat="43.65114" lon="1.39018">
        <ele>136</ele>
        <time>2025-06-12T04:24:40Z</time>
      </trkpt>
      <trkpt lat="43.65111" lon="1.39017">
        <ele>136</ele>
        <time>2025-06-12T04:24:41Z</time>
      </trkpt>
      <trkpt lat="43.65109" lon="1.39017">
        <ele>136</ele>
        <time>2025-06-12T04:24:42Z</time>
      </trkpt>
      <trkpt lat="43.65103" lon="1.39018">
        <ele>136</ele>
        <time>2025-06-12T04:24:43Z</time>
      </trkpt>
      <trkpt lat="43.65103" lon="1.39018">
        <ele>136</ele>
        <time>2025-06-12T04:24:44Z</time>
      </trkpt>
      <trkpt lat="43.651" lon="1.39018">
        <ele>136</ele>
        <time>2025-06-12T04:24:45Z</time>
      </trkpt>
      <trkpt lat="43.65095" lon="1.39018">
        <ele>136</ele>
        <time>2025-06-12T04:24:46Z</time>
      </trkpt>
      <trkpt lat="43.65095" lon="1.39018">
        <ele>136</ele>
        <time>2025-06-12T04:24:47Z</time>
      </trkpt>
      <trkpt lat="43.6509" lon="1.3902">
        <ele>136</ele>
        <time>2025-06-12T04:24:48Z</time>
      </trkpt>
      <trkpt lat="43.65088" lon="1.39021">
        <ele>136</ele>
        <time>2025-06-12T04:24:49Z</time>
      </trkpt>
      <trkpt lat="43.65088" lon="1.39021">
        <ele>136</ele>
        <time>2025-06-12T04:24:50Z</time>
      </trkpt>
      <trkpt lat="43.65084" lon="1.39024">
        <ele>136</ele>
        <time>2025-06-12T04:24:51Z</time>
      </trkpt>
      <trkpt lat="43.65082" lon="1.39025">
        <ele>136</ele>
        <time>2025-06-12T04:24:52Z</time>
      </trkpt>
      <trkpt lat="43.65082" lon="1.39025">
        <ele>136</ele>
        <time>2025-06-12T04:24:53Z</time>
      </trkpt>
      <trkpt lat="43.65077" lon="1.39028">
        <ele>136</ele>
        <time>2025-06-12T04:24:54Z</time>
      </trkpt>
      <trkpt lat="43.65075" lon="1.3903">
        <ele>136</ele>
        <time>2025-06-12T04:24:55Z</time>
      </trkpt>
      <trkpt lat="43.65075" lon="1.3903">
        <ele>136</ele>
        <time>2025-06-12T04:24:56Z</time>
      </trkpt>
      <trkpt lat="43.65072" lon="1.39035">
        <ele>136</ele>
        <time>2025-06-12T04:24:57Z</time>
      </trkpt>
      <trkpt lat="43.65071" lon="1.39039">
        <ele>136</ele>
        <time>2025-06-12T04:24:58Z</time>
      </trkpt>
      <trkpt lat="43.65071" lon="1.39039">
        <ele>136</ele>
        <time>2025-06-12T04:24:59Z</time>
      </trkpt>
      <trkpt lat="43.6507" lon="1.39042">
        <ele>136</ele>
        <time>2025-06-12T04:25:00Z</time>
      </trkpt>
      <trkpt lat="43.6507" lon="1.39046">
        <ele>136</ele>
        <time>2025-06-12T04:25:01Z</time>
      </trkpt>
      <trkpt lat="43.6507" lon="1.39049">
        <ele>136</ele>
        <time>2025-06-12T04:25:02Z</time>
      </trkpt>
      <trkpt lat="43.6507" lon="1.39053">
        <ele>136</ele>
        <time>2025-06-12T04:25:03Z</time>
      </trkpt>
      <trkpt lat="43.6507" lon="1.39056">
        <ele>136</ele>
        <time>2025-06-12T04:25:04Z</time>
      </trkpt>
      <trkpt lat="43.6507" lon="1.3906">
        <ele>136</ele>
        <time>2025-06-12T04:25:05Z</time>
      </trkpt>
      <trkpt lat="43.6507" lon="1.39064">
        <ele>136</ele>
        <time>2025-06-12T04:25:06Z</time>
      </trkpt>
      <trkpt lat="43.65071" lon="1.39068">
        <ele>136</ele>
        <time>2025-06-12T04:25:07Z</time>
      </trkpt>
      <trkpt lat="43.65071" lon="1.39071">
        <ele>136</ele>
        <time>2025-06-12T04:25:08Z</time>
      </trkpt>
      <trkpt lat="43.65072" lon="1.39074">
        <ele>136</ele>
        <time>2025-06-12T04:25:09Z</time>
      </trkpt>
      <trkpt lat="43.65072" lon="1.39078">
        <ele>136</ele>
        <time>2025-06-12T04:25:10Z</time>
      </trkpt>
      <trkpt lat="43.65072" lon="1.39081">
        <ele>136</ele>
        <time>2025-06-12T04:25:11Z</time>
      </trkpt>
      <trkpt lat="43.65072" lon="1.39089">
        <ele>136</ele>
        <time>2025-06-12T04:25:12Z</time>
      </trkpt>
      <trkpt lat="43.65072" lon="1.39089">
        <ele>136</ele>
        <time>2025-06-12T04:25:13Z</time>
      </trkpt>
      <trkpt lat="43.65073" lon="1.39092">
        <ele>136</ele>
        <time>2025-06-12T04:25:14Z</time>
      </trkpt>
      <trkpt lat="43.65073" lon="1.39096">
        <ele>136</ele>
        <time>2025-06-12T04:25:15Z</time>
      </trkpt>
      <trkpt lat="43.65074" lon="1.391">
        <ele>136</ele>
        <time>2025-06-12T04:25:16Z</time>
      </trkpt>
      <trkpt lat="43.65074" lon="1.39107">
        <ele>136</ele>
        <time>2025-06-12T04:25:17Z</time>
      </trkpt>
      <trkpt lat="43.65074" lon="1.39107">
        <ele>136</ele>
        <time>2025-06-12T04:25:18Z</time>
      </trkpt>
      <trkpt lat="43.65075" lon="1.39115">
        <ele>136</ele>
        <time>2025-06-12T04:25:19Z</time>
      </trkpt>
      <trkpt lat="43.65075" lon="1.39115">
        <ele>137</ele>
        <time>2025-06-12T04:25:20Z</time>
      </trkpt>
      <trkpt lat="43.65074" lon="1.39118">
        <ele>137</ele>
        <time>2025-06-12T04:25:21Z</time>
      </trkpt>
      <trkpt lat="43.65073" lon="1.39122">
        <ele>137</ele>
        <time>2025-06-12T04:25:22Z</time>
      </trkpt>
      <trkpt lat="43.65072" lon="1.39125">
        <ele>137</ele>
        <time>2025-06-12T04:25:23Z</time>
      </trkpt>
      <trkpt lat="43.6507" lon="1.39131">
        <ele>137</ele>
        <time>2025-06-12T04:25:24Z</time>
      </trkpt>
      <trkpt lat="43.65068" lon="1.39134">
        <ele>137</ele>
        <time>2025-06-12T04:25:25Z</time>
      </trkpt>
      <trkpt lat="43.65067" lon="1.39136">
        <ele>137</ele>
        <time>2025-06-12T04:25:26Z</time>
      </trkpt>
      <trkpt lat="43.65064" lon="1.39138">
        <ele>137</ele>
        <time>2025-06-12T04:25:27Z</time>
      </trkpt>
      <trkpt lat="43.65062" lon="1.3914">
        <ele>137</ele>
        <time>2025-06-12T04:25:28Z</time>
      </trkpt>
      <trkpt lat="43.65062" lon="1.3914">
        <ele>137</ele>
        <time>2025-06-12T04:25:29Z</time>
      </trkpt>
      <trkpt lat="43.6506" lon="1.39141">
        <ele>137</ele>
        <time>2025-06-12T04:25:30Z</time>
      </trkpt>
      <trkpt lat="43.65054" lon="1.39144">
        <ele>137</ele>
        <time>2025-06-12T04:25:31Z</time>
      </trkpt>
      <trkpt lat="43.65054" lon="1.39144">
        <ele>137</ele>
        <time>2025-06-12T04:25:32Z</time>
      </trkpt>
      <trkpt lat="43.65052" lon="1.39144">
        <ele>137</ele>
        <time>2025-06-12T04:25:33Z</time>
      </trkpt>
      <trkpt lat="43.65049" lon="1.39145">
        <ele>137</ele>
        <time>2025-06-12T04:25:34Z</time>
      </trkpt>
      <trkpt lat="43.65046" lon="1.39146">
        <ele>137</ele>
        <time>2025-06-12T04:25:35Z</time>
      </trkpt>
      <trkpt lat="43.65041" lon="1.39147">
        <ele>137</ele>
        <time>2025-06-12T04:25:36Z</time>
      </trkpt>
      <trkpt lat="43.65041" lon="1.39147">
        <ele>137</ele>
        <time>2025-06-12T04:25:37Z</time>
      </trkpt>
      <trkpt lat="43.65039" lon="1.39148">
        <ele>137</ele>
        <time>2025-06-12T04:25:38Z</time>
      </trkpt>
      <trkpt lat="43.65036" lon="1.39148">
        <ele>137</ele>
        <time>2025-06-12T04:25:39Z</time>
      </trkpt>
      <trkpt lat="43.65031" lon="1.39149">
        <ele>137</ele>
        <time>2025-06-12T04:25:40Z</time>
      </trkpt>
      <trkpt lat="43.65029" lon="1.39149">
        <ele>137</ele>
        <time>2025-06-12T04:25:41Z</time>
      </trkpt>
      <trkpt lat="43.65026" lon="1.3915">
        <ele>137</ele>
        <time>2025-06-12T04:25:42Z</time>
      </trkpt>
      <trkpt lat="43.65026" lon="1.3915">
        <ele>137</ele>
        <time>2025-06-12T04:25:43Z</time>
      </trkpt>
      <trkpt lat="43.65023" lon="1.3915">
        <ele>137</ele>
        <time>2025-06-12T04:25:44Z</time>
      </trkpt>
      <trkpt lat="43.65018" lon="1.39152">
        <ele>137</ele>
        <time>2025-06-12T04:25:45Z</time>
      </trkpt>
      <trkpt lat="43.65015" lon="1.39152">
        <ele>137</ele>
        <time>2025-06-12T04:25:46Z</time>
      </trkpt>
      <trkpt lat="43.65015" lon="1.39152">
        <ele>137</ele>
        <time>2025-06-12T04:25:47Z</time>
      </trkpt>
      <trkpt lat="43.65012" lon="1.39153">
        <ele>137</ele>
        <time>2025-06-12T04:25:48Z</time>
      </trkpt>
      <trkpt lat="43.65009" lon="1.39153">
        <ele>137</ele>
        <time>2025-06-12T04:25:49Z</time>
      </trkpt>
      <trkpt lat="43.65004" lon="1.39154">
        <ele>137</ele>
        <time>2025-06-12T04:25:50Z</time>
      </trkpt>
      <trkpt lat="43.65004" lon="1.39154">
        <ele>137</ele>
        <time>2025-06-12T04:25:51Z</time>
      </trkpt>
      <trkpt lat="43.65002" lon="1.39154">
        <ele>137</ele>
        <time>2025-06-12T04:25:52Z</time>
      </trkpt>
      <trkpt lat="43.64999" lon="1.39154">
        <ele>137</ele>
        <time>2025-06-12T04:25:53Z</time>
      </trkpt>
      <trkpt lat="43.64997" lon="1.39155">
        <ele>137</ele>
        <time>2025-06-12T04:25:54Z</time>
      </trkpt>
      <trkpt lat="43.64992" lon="1.39156">
        <ele>137</ele>
        <time>2025-06-12T04:25:55Z</time>
      </trkpt>
      <trkpt lat="43.64992" lon="1.39156">
        <ele>137</ele>
        <time>2025-06-12T04:25:56Z</time>
      </trkpt>
      <trkpt lat="43.64989" lon="1.39157">
        <ele>137</ele>
        <time>2025-06-12T04:25:57Z</time>
      </trkpt>
      <trkpt lat="43.64987" lon="1.39158">
        <ele>137</ele>
        <time>2025-06-12T04:25:58Z</time>
      </trkpt>
      <trkpt lat="43.64984" lon="1.39158">
        <ele>137</ele>
        <time>2025-06-12T04:25:59Z</time>
      </trkpt>
      <trkpt lat="43.64982" lon="1.39159">
        <ele>137</ele>
        <time>2025-06-12T04:26:00Z</time>
      </trkpt>
      <trkpt lat="43.64979" lon="1.3916">
        <ele>137</ele>
        <time>2025-06-12T04:26:01Z</time>
      </trkpt>
      <trkpt lat="43.64976" lon="1.3916">
        <ele>137</ele>
        <time>2025-06-12T04:26:02Z</time>
      </trkpt>
      <trkpt lat="43.64971" lon="1.39161">
        <ele>137</ele>
        <time>2025-06-12T04:26:03Z</time>
      </trkpt>
      <trkpt lat="43.64971" lon="1.39161">
        <ele>137</ele>
        <time>2025-06-12T04:26:04Z</time>
      </trkpt>
      <trkpt lat="43.64969" lon="1.39161">
        <ele>137</ele>
        <time>2025-06-12T04:26:05Z</time>
      </trkpt>
      <trkpt lat="43.64966" lon="1.39161">
        <ele>137</ele>
        <time>2025-06-12T04:26:06Z</time>
      </trkpt>
      <trkpt lat="43.64961" lon="1.39159">
        <ele>137</ele>
        <time>2025-06-12T04:26:07Z</time>
      </trkpt>
      <trkpt lat="43.64961" lon="1.39159">
        <ele>137</ele>
        <time>2025-06-12T04:26:08Z</time>
      </trkpt>
      <trkpt lat="43.64956" lon="1.39154">
        <ele>137</ele>
        <time>2025-06-12T04:26:09Z</time>
      </trkpt>
      <trkpt lat="43.64956" lon="1.39154">
        <ele>137</ele>
        <time>2025-06-12T04:26:10Z</time>
      </trkpt>
      <trkpt lat="43.64955" lon="1.39151">
        <ele>137</ele>
        <time>2025-06-12T04:26:11Z</time>
      </trkpt>
      <trkpt lat="43.64953" lon="1.39147">
        <ele>137</ele>
        <time>2025-06-12T04:26:12Z</time>
      </trkpt>
      <trkpt lat="43.64952" lon="1.39144">
        <ele>137</ele>
        <time>2025-06-12T04:26:13Z</time>
      </trkpt>
      <trkpt lat="43.64951" lon="1.39136">
        <ele>137</ele>
        <time>2025-06-12T04:26:14Z</time>
      </trkpt>
      <trkpt lat="43.64951" lon="1.39136">
        <ele>137</ele>
        <time>2025-06-12T04:26:15Z</time>
      </trkpt>
      <trkpt lat="43.6495" lon="1.39133">
        <ele>137</ele>
        <time>2025-06-12T04:26:16Z</time>
      </trkpt>
      <trkpt lat="43.64949" lon="1.3913">
        <ele>137</ele>
        <time>2025-06-12T04:26:17Z</time>
      </trkpt>
      <trkpt lat="43.64948" lon="1.39126">
        <ele>137</ele>
        <time>2025-06-12T04:26:18Z</time>
      </trkpt>
      <trkpt lat="43.64946" lon="1.39124">
        <ele>137</ele>
        <time>2025-06-12T04:26:19Z</time>
      </trkpt>
      <trkpt lat="43.64942" lon="1.3912">
        <ele>137</ele>
        <time>2025-06-12T04:26:20Z</time>
      </trkpt>
      <trkpt lat="43.64942" lon="1.3912">
        <ele>137</ele>
        <time>2025-06-12T04:26:21Z</time>
      </trkpt>
      <trkpt lat="43.64939" lon="1.39118">
        <ele>137</ele>
        <time>2025-06-12T04:26:22Z</time>
      </trkpt>
      <trkpt lat="43.64937" lon="1.39118">
        <ele>137</ele>
        <time>2025-06-12T04:26:23Z</time>
      </trkpt>
      <trkpt lat="43.64934" lon="1.39117">
        <ele>137</ele>
        <time>2025-06-12T04:26:24Z</time>
      </trkpt>
      <trkpt lat="43.64931" lon="1.39117">
        <ele>137</ele>
        <time>2025-06-12T04:26:25Z</time>
      </trkpt>
      <trkpt lat="43.64929" lon="1.39117">
        <ele>137</ele>
        <time>2025-06-12T04:26:26Z</time>
      </trkpt>
      <trkpt lat="43.64926" lon="1.39117">
        <ele>137</ele>
        <time>2025-06-12T04:26:27Z</time>
      </trkpt>
      <trkpt lat="43.64924" lon="1.39117">
        <ele>137</ele>
        <time>2025-06-12T04:26:28Z</time>
      </trkpt>
      <trkpt lat="43.64921" lon="1.39116">
        <ele>137</ele>
        <time>2025-06-12T04:26:29Z</time>
      </trkpt>
      <trkpt lat="43.64919" lon="1.39116">
        <ele>137</ele>
        <time>2025-06-12T04:26:30Z</time>
      </trkpt>
      <trkpt lat="43.64913" lon="1.39116">
        <ele>137</ele>
        <time>2025-06-12T04:26:31Z</time>
      </trkpt>
      <trkpt lat="43.64913" lon="1.39116">
        <ele>137</ele>
        <time>2025-06-12T04:26:32Z</time>
      </trkpt>
      <trkpt lat="43.64908" lon="1.39117">
        <ele>137</ele>
        <time>2025-06-12T04:26:33Z</time>
      </trkpt>
      <trkpt lat="43.64905" lon="1.39118">
        <ele>137</ele>
        <time>2025-06-12T04:26:34Z</time>
      </trkpt>
      <trkpt lat="43.64905" lon="1.39118">
        <ele>137</ele>
        <time>2025-06-12T04:26:35Z</time>
      </trkpt>
      <trkpt lat="43.64903" lon="1.39118">
        <ele>137</ele>
        <time>2025-06-12T04:26:36Z</time>
      </trkpt>
      <trkpt lat="43.649" lon="1.39119">
        <ele>137</ele>
        <time>2025-06-12T04:26:37Z</time>
      </trkpt>
      <trkpt lat="43.64895" lon="1.3912">
        <ele>137</ele>
        <time>2025-06-12T04:26:38Z</time>
      </trkpt>
      <trkpt lat="43.64892" lon="1.39121">
        <ele>137</ele>
        <time>2025-06-12T04:26:39Z</time>
      </trkpt>
      <trkpt lat="43.64892" lon="1.39121">
        <ele>137</ele>
        <time>2025-06-12T04:26:40Z</time>
      </trkpt>
      <trkpt lat="43.64887" lon="1.39122">
        <ele>137</ele>
        <time>2025-06-12T04:26:41Z</time>
      </trkpt>
      <trkpt lat="43.64887" lon="1.39122">
        <ele>137</ele>
        <time>2025-06-12T04:26:42Z</time>
      </trkpt>
      <trkpt lat="43.64881" lon="1.39124">
        <ele>137</ele>
        <time>2025-06-12T04:26:43Z</time>
      </trkpt>
      <trkpt lat="43.64881" lon="1.39124">
        <ele>137</ele>
        <time>2025-06-12T04:26:44Z</time>
      </trkpt>
      <trkpt lat="43.64876" lon="1.39125">
        <ele>137</ele>
        <time>2025-06-12T04:26:45Z</time>
      </trkpt>
      <trkpt lat="43.64876" lon="1.39125">
        <ele>137</ele>
        <time>2025-06-12T04:26:46Z</time>
      </trkpt>
      <trkpt lat="43.64874" lon="1.39126">
        <ele>137</ele>
        <time>2025-06-12T04:26:47Z</time>
      </trkpt>
      <trkpt lat="43.64871" lon="1.39126">
        <ele>137</ele>
        <time>2025-06-12T04:26:48Z</time>
      </trkpt>
      <trkpt lat="43.64868" lon="1.39127">
        <ele>137</ele>
        <time>2025-06-12T04:26:49Z</time>
      </trkpt>
      <trkpt lat="43.64866" lon="1.39128">
        <ele>137</ele>
        <time>2025-06-12T04:26:50Z</time>
      </trkpt>
      <trkpt lat="43.64863" lon="1.39128">
        <ele>137</ele>
        <time>2025-06-12T04:26:51Z</time>
      </trkpt>
      <trkpt lat="43.64858" lon="1.3913">
        <ele>137</ele>
        <time>2025-06-12T04:26:52Z</time>
      </trkpt>
      <trkpt lat="43.64858" lon="1.3913">
        <ele>137</ele>
        <time>2025-06-12T04:26:53Z</time>
      </trkpt>
      <trkpt lat="43.64853" lon="1.39131">
        <ele>137</ele>
        <time>2025-06-12T04:26:54Z</time>
      </trkpt>
      <trkpt lat="43.64853" lon="1.39131">
        <ele>137</ele>
        <time>2025-06-12T04:26:55Z</time>
      </trkpt>
      <trkpt lat="43.64848" lon="1.39133">
        <ele>137</ele>
        <time>2025-06-12T04:26:56Z</time>
      </trkpt>
      <trkpt lat="43.64845" lon="1.39134">
        <ele>137</ele>
        <time>2025-06-12T04:26:57Z</time>
      </trkpt>
      <trkpt lat="43.64842" lon="1.39136">
        <ele>137</ele>
        <time>2025-06-12T04:26:58Z</time>
      </trkpt>
      <trkpt lat="43.64842" lon="1.39136">
        <ele>137</ele>
        <time>2025-06-12T04:26:59Z</time>
      </trkpt>
      <trkpt lat="43.64838" lon="1.39138">
        <ele>137</ele>
        <time>2025-06-12T04:27:00Z</time>
      </trkpt>
      <trkpt lat="43.64838" lon="1.39138">
        <ele>137</ele>
        <time>2025-06-12T04:27:01Z</time>
      </trkpt>
      <trkpt lat="43.64833" lon="1.39142">
        <ele>137</ele>
        <time>2025-06-12T04:27:02Z</time>
      </trkpt>
      <trkpt lat="43.6483" lon="1.39143">
        <ele>137</ele>
        <time>2025-06-12T04:27:03Z</time>
      </trkpt>
      <trkpt lat="43.6483" lon="1.39143">
        <ele>137</ele>
        <time>2025-06-12T04:27:04Z</time>
      </trkpt>
      <trkpt lat="43.64828" lon="1.39145">
        <ele>137</ele>
        <time>2025-06-12T04:27:05Z</time>
      </trkpt>
      <trkpt lat="43.64825" lon="1.39147">
        <ele>137</ele>
        <time>2025-06-12T04:27:06Z</time>
      </trkpt>
      <trkpt lat="43.64823" lon="1.39148">
        <ele>137</ele>
        <time>2025-06-12T04:27:07Z</time>
      </trkpt>
      <trkpt lat="43.64821" lon="1.3915">
        <ele>137</ele>
        <time>2025-06-12T04:27:08Z</time>
      </trkpt>
      <trkpt lat="43.64819" lon="1.39151">
        <ele>136</ele>
        <time>2025-06-12T04:27:09Z</time>
      </trkpt>
      <trkpt lat="43.64816" lon="1.39153">
        <ele>136</ele>
        <time>2025-06-12T04:27:10Z</time>
      </trkpt>
      <trkpt lat="43.64811" lon="1.39156">
        <ele>136</ele>
        <time>2025-06-12T04:27:11Z</time>
      </trkpt>
      <trkpt lat="43.64811" lon="1.39156">
        <ele>136</ele>
        <time>2025-06-12T04:27:12Z</time>
      </trkpt>
      <trkpt lat="43.64809" lon="1.39158">
        <ele>136</ele>
        <time>2025-06-12T04:27:13Z</time>
      </trkpt>
      <trkpt lat="43.64806" lon="1.3916">
        <ele>136</ele>
        <time>2025-06-12T04:27:14Z</time>
      </trkpt>
      <trkpt lat="43.64804" lon="1.39161">
        <ele>136</ele>
        <time>2025-06-12T04:27:15Z</time>
      </trkpt>
      <trkpt lat="43.64801" lon="1.39163">
        <ele>136</ele>
        <time>2025-06-12T04:27:16Z</time>
      </trkpt>
      <trkpt lat="43.64799" lon="1.39165">
        <ele>136</ele>
        <time>2025-06-12T04:27:17Z</time>
      </trkpt>
      <trkpt lat="43.64797" lon="1.39166">
        <ele>136</ele>
        <time>2025-06-12T04:27:18Z</time>
      </trkpt>
      <trkpt lat="43.64794" lon="1.39168">
        <ele>136</ele>
        <time>2025-06-12T04:27:19Z</time>
      </trkpt>
      <trkpt lat="43.64791" lon="1.39169">
        <ele>136</ele>
        <time>2025-06-12T04:27:20Z</time>
      </trkpt>
      <trkpt lat="43.64789" lon="1.39171">
        <ele>136</ele>
        <time>2025-06-12T04:27:21Z</time>
      </trkpt>
      <trkpt lat="43.64784" lon="1.39174">
        <ele>136</ele>
        <time>2025-06-12T04:27:22Z</time>
      </trkpt>
      <trkpt lat="43.64784" lon="1.39174">
        <ele>135</ele>
        <time>2025-06-12T04:27:23Z</time>
      </trkpt>
      <trkpt lat="43.64779" lon="1.39177">
        <ele>135</ele>
        <time>2025-06-12T04:27:24Z</time>
      </trkpt>
      <trkpt lat="43.64779" lon="1.39177">
        <ele>135</ele>
        <time>2025-06-12T04:27:25Z</time>
      </trkpt>
      <trkpt lat="43.64775" lon="1.3918">
        <ele>136</ele>
        <time>2025-06-12T04:27:26Z</time>
      </trkpt>
      <trkpt lat="43.64775" lon="1.3918">
        <ele>136</ele>
        <time>2025-06-12T04:27:27Z</time>
      </trkpt>
      <trkpt lat="43.64772" lon="1.39181">
        <ele>135</ele>
        <time>2025-06-12T04:27:28Z</time>
      </trkpt>
      <trkpt lat="43.6477" lon="1.39183">
        <ele>135</ele>
        <time>2025-06-12T04:27:29Z</time>
      </trkpt>
      <trkpt lat="43.64765" lon="1.39186">
        <ele>135</ele>
        <time>2025-06-12T04:27:30Z</time>
      </trkpt>
      <trkpt lat="43.64765" lon="1.39186">
        <ele>135</ele>
        <time>2025-06-12T04:27:31Z</time>
      </trkpt>
      <trkpt lat="43.64762" lon="1.39187">
        <ele>135</ele>
        <time>2025-06-12T04:27:32Z</time>
      </trkpt>
      <trkpt lat="43.6476" lon="1.39189">
        <ele>135</ele>
        <time>2025-06-12T04:27:33Z</time>
      </trkpt>
      <trkpt lat="43.64758" lon="1.3919">
        <ele>135</ele>
        <time>2025-06-12T04:27:34Z</time>
      </trkpt>
      <trkpt lat="43.64755" lon="1.39192">
        <ele>135</ele>
        <time>2025-06-12T04:27:35Z</time>
      </trkpt>
      <trkpt lat="43.64753" lon="1.39194">
        <ele>135</ele>
        <time>2025-06-12T04:27:36Z</time>
      </trkpt>
      <trkpt lat="43.64748" lon="1.39197">
        <ele>135</ele>
        <time>2025-06-12T04:27:37Z</time>
      </trkpt>
      <trkpt lat="43.64748" lon="1.39197">
        <ele>135</ele>
        <time>2025-06-12T04:27:38Z</time>
      </trkpt>
      <trkpt lat="43.64746" lon="1.39198">
        <ele>135</ele>
        <time>2025-06-12T04:27:39Z</time>
      </trkpt>
      <trkpt lat="43.64745" lon="1.392">
        <ele>135</ele>
        <time>2025-06-12T04:27:40Z</time>
      </trkpt>
      <trkpt lat="43.64743" lon="1.39201">
        <ele>135</ele>
        <time>2025-06-12T04:27:41Z</time>
      </trkpt>
      <trkpt lat="43.6474" lon="1.39203">
        <ele>135</ele>
        <time>2025-06-12T04:27:42Z</time>
      </trkpt>
      <trkpt lat="43.64738" lon="1.39204">
        <ele>135</ele>
        <time>2025-06-12T04:27:43Z</time>
      </trkpt>
      <trkpt lat="43.64736" lon="1.39206">
        <ele>135</ele>
        <time>2025-06-12T04:27:44Z</time>
      </trkpt>
      <trkpt lat="43.64733" lon="1.39207">
        <ele>135</ele>
        <time>2025-06-12T04:27:45Z</time>
      </trkpt>
      <trkpt lat="43.64731" lon="1.39209">
        <ele>135</ele>
        <time>2025-06-12T04:27:46Z</time>
      </trkpt>
      <trkpt lat="43.64728" lon="1.39211">
        <ele>135</ele>
        <time>2025-06-12T04:27:47Z</time>
      </trkpt>
      <trkpt lat="43.64723" lon="1.39214">
        <ele>135</ele>
        <time>2025-06-12T04:27:48Z</time>
      </trkpt>
      <trkpt lat="43.64721" lon="1.39216">
        <ele>135</ele>
        <time>2025-06-12T04:27:49Z</time>
      </trkpt>
      <trkpt lat="43.64718" lon="1.39218">
        <ele>135</ele>
        <time>2025-06-12T04:27:50Z</time>
      </trkpt>
      <trkpt lat="43.64718" lon="1.39218">
        <ele>135</ele>
        <time>2025-06-12T04:27:51Z</time>
      </trkpt>
      <trkpt lat="43.64716" lon="1.39219">
        <ele>135</ele>
        <time>2025-06-12T04:27:52Z</time>
      </trkpt>
      <trkpt lat="43.64713" lon="1.39221">
        <ele>135</ele>
        <time>2025-06-12T04:27:53Z</time>
      </trkpt>
      <trkpt lat="43.64711" lon="1.39222">
        <ele>135</ele>
        <time>2025-06-12T04:27:54Z</time>
      </trkpt>
      <trkpt lat="43.64708" lon="1.39224">
        <ele>135</ele>
        <time>2025-06-12T04:27:55Z</time>
      </trkpt>
      <trkpt lat="43.64706" lon="1.39225">
        <ele>135</ele>
        <time>2025-06-12T04:27:56Z</time>
      </trkpt>
      <trkpt lat="43.64701" lon="1.39229">
        <ele>135</ele>
        <time>2025-06-12T04:27:57Z</time>
      </trkpt>
      <trkpt lat="43.64701" lon="1.39229">
        <ele>135</ele>
        <time>2025-06-12T04:27:58Z</time>
      </trkpt>
      <trkpt lat="43.64699" lon="1.3923">
        <ele>135</ele>
        <time>2025-06-12T04:27:59Z</time>
      </trkpt>
      <trkpt lat="43.64696" lon="1.39232">
        <ele>135</ele>
        <time>2025-06-12T04:28:00Z</time>
      </trkpt>
      <trkpt lat="43.64694" lon="1.39233">
        <ele>135</ele>
        <time>2025-06-12T04:28:01Z</time>
      </trkpt>
      <trkpt lat="43.64689" lon="1.39236">
        <ele>135</ele>
        <time>2025-06-12T04:28:02Z</time>
      </trkpt>
      <trkpt lat="43.64689" lon="1.39236">
        <ele>135</ele>
        <time>2025-06-12T04:28:03Z</time>
      </trkpt>
      <trkpt lat="43.64686" lon="1.39238">
        <ele>135</ele>
        <time>2025-06-12T04:28:04Z</time>
      </trkpt>
      <trkpt lat="43.64684" lon="1.39239">
        <ele>135</ele>
        <time>2025-06-12T04:28:05Z</time>
      </trkpt>
      <trkpt lat="43.64679" lon="1.39242">
        <ele>135</ele>
        <time>2025-06-12T04:28:06Z</time>
      </trkpt>
      <trkpt lat="43.64679" lon="1.39242">
        <ele>135</ele>
        <time>2025-06-12T04:28:07Z</time>
      </trkpt>
      <trkpt lat="43.64674" lon="1.39246">
        <ele>136</ele>
        <time>2025-06-12T04:28:08Z</time>
      </trkpt>
      <trkpt lat="43.64674" lon="1.39246">
        <ele>136</ele>
        <time>2025-06-12T04:28:09Z</time>
      </trkpt>
      <trkpt lat="43.64672" lon="1.39247">
        <ele>136</ele>
        <time>2025-06-12T04:28:10Z</time>
      </trkpt>
      <trkpt lat="43.64669" lon="1.39249">
        <ele>136</ele>
        <time>2025-06-12T04:28:11Z</time>
      </trkpt>
      <trkpt lat="43.64667" lon="1.39251">
        <ele>136</ele>
        <time>2025-06-12T04:28:12Z</time>
      </trkpt>
      <trkpt lat="43.64665" lon="1.39252">
        <ele>136</ele>
        <time>2025-06-12T04:28:13Z</time>
      </trkpt>
      <trkpt lat="43.64663" lon="1.39254">
        <ele>136</ele>
        <time>2025-06-12T04:28:14Z</time>
      </trkpt>
      <trkpt lat="43.64658" lon="1.39256">
        <ele>135</ele>
        <time>2025-06-12T04:28:15Z</time>
      </trkpt>
      <trkpt lat="43.64658" lon="1.39256">
        <ele>135</ele>
        <time>2025-06-12T04:28:16Z</time>
      </trkpt>
      <trkpt lat="43.64655" lon="1.39258">
        <ele>135</ele>
        <time>2025-06-12T04:28:17Z</time>
      </trkpt>
      <trkpt lat="43.64653" lon="1.39259">
        <ele>135</ele>
        <time>2025-06-12T04:28:18Z</time>
      </trkpt>
      <trkpt lat="43.64647" lon="1.39261">
        <ele>135</ele>
        <time>2025-06-12T04:28:19Z</time>
      </trkpt>
      <trkpt lat="43.64647" lon="1.39261">
        <ele>135</ele>
        <time>2025-06-12T04:28:20Z</time>
      </trkpt>
      <trkpt lat="43.64645" lon="1.39263">
        <ele>135</ele>
        <time>2025-06-12T04:28:21Z</time>
      </trkpt>
      <trkpt lat="43.64642" lon="1.39264">
        <ele>135</ele>
        <time>2025-06-12T04:28:22Z</time>
      </trkpt>
      <trkpt lat="43.6464" lon="1.39265">
        <ele>136</ele>
        <time>2025-06-12T04:28:23Z</time>
      </trkpt>
      <trkpt lat="43.64637" lon="1.39267">
        <ele>136</ele>
        <time>2025-06-12T04:28:24Z</time>
      </trkpt>
      <trkpt lat="43.64635" lon="1.39268">
        <ele>136</ele>
        <time>2025-06-12T04:28:25Z</time>
      </trkpt>
      <trkpt lat="43.64632" lon="1.39269">
        <ele>136</ele>
        <time>2025-06-12T04:28:26Z</time>
      </trkpt>
      <trkpt lat="43.64627" lon="1.39272">
        <ele>136</ele>
        <time>2025-06-12T04:28:27Z</time>
      </trkpt>
      <trkpt lat="43.64627" lon="1.39272">
        <ele>136</ele>
        <time>2025-06-12T04:28:28Z</time>
      </trkpt>
      <trkpt lat="43.64624" lon="1.39273">
        <ele>136</ele>
        <time>2025-06-12T04:28:29Z</time>
      </trkpt>
      <trkpt lat="43.64622" lon="1.39274">
        <ele>136</ele>
        <time>2025-06-12T04:28:30Z</time>
      </trkpt>
      <trkpt lat="43.64619" lon="1.39276">
        <ele>136</ele>
        <time>2025-06-12T04:28:31Z</time>
      </trkpt>
      <trkpt lat="43.64617" lon="1.39277">
        <ele>136</ele>
        <time>2025-06-12T04:28:32Z</time>
      </trkpt>
      <trkpt lat="43.64615" lon="1.39278">
        <ele>136</ele>
        <time>2025-06-12T04:28:33Z</time>
      </trkpt>
      <trkpt lat="43.64612" lon="1.39279">
        <ele>136</ele>
        <time>2025-06-12T04:28:34Z</time>
      </trkpt>
      <trkpt lat="43.6461" lon="1.3928">
        <ele>136</ele>
        <time>2025-06-12T04:28:35Z</time>
      </trkpt>
      <trkpt lat="43.64604" lon="1.39282">
        <ele>136</ele>
        <time>2025-06-12T04:28:36Z</time>
      </trkpt>
      <trkpt lat="43.64604" lon="1.39282">
        <ele>136</ele>
        <time>2025-06-12T04:28:37Z</time>
      </trkpt>
      <trkpt lat="43.64602" lon="1.39284">
        <ele>136</ele>
        <time>2025-06-12T04:28:38Z</time>
      </trkpt>
      <trkpt lat="43.64599" lon="1.39285">
        <ele>136</ele>
        <time>2025-06-12T04:28:39Z</time>
      </trkpt>
      <trkpt lat="43.64596" lon="1.39286">
        <ele>136</ele>
        <time>2025-06-12T04:28:40Z</time>
      </trkpt>
      <trkpt lat="43.64593" lon="1.39287">
        <ele>136</ele>
        <time>2025-06-12T04:28:41Z</time>
      </trkpt>
      <trkpt lat="43.64591" lon="1.39288">
        <ele>136</ele>
        <time>2025-06-12T04:28:42Z</time>
      </trkpt>
      <trkpt lat="43.64588" lon="1.39289">
        <ele>136</ele>
        <time>2025-06-12T04:28:43Z</time>
      </trkpt>
      <trkpt lat="43.64585" lon="1.3929">
        <ele>136</ele>
        <time>2025-06-12T04:28:44Z</time>
      </trkpt>
      <trkpt lat="43.64582" lon="1.3929">
        <ele>136</ele>
        <time>2025-06-12T04:28:45Z</time>
      </trkpt>
      <trkpt lat="43.64577" lon="1.39292">
        <ele>136</ele>
        <time>2025-06-12T04:28:46Z</time>
      </trkpt>
      <trkpt lat="43.64577" lon="1.39292">
        <ele>136</ele>
        <time>2025-06-12T04:28:47Z</time>
      </trkpt>
      <trkpt lat="43.64574" lon="1.39293">
        <ele>136</ele>
        <time>2025-06-12T04:28:48Z</time>
      </trkpt>
      <trkpt lat="43.64572" lon="1.39294">
        <ele>136</ele>
        <time>2025-06-12T04:28:49Z</time>
      </trkpt>
      <trkpt lat="43.64569" lon="1.39295">
        <ele>136</ele>
        <time>2025-06-12T04:28:50Z</time>
      </trkpt>
      <trkpt lat="43.64564" lon="1.39297">
        <ele>136</ele>
        <time>2025-06-12T04:28:51Z</time>
      </trkpt>
      <trkpt lat="43.64564" lon="1.39297">
        <ele>136</ele>
        <time>2025-06-12T04:28:52Z</time>
      </trkpt>
      <trkpt lat="43.64561" lon="1.39297">
        <ele>136</ele>
        <time>2025-06-12T04:28:53Z</time>
      </trkpt>
      <trkpt lat="43.64559" lon="1.39298">
        <ele>136</ele>
        <time>2025-06-12T04:28:54Z</time>
      </trkpt>
      <trkpt lat="43.64556" lon="1.39299">
        <ele>136</ele>
        <time>2025-06-12T04:28:55Z</time>
      </trkpt>
      <trkpt lat="43.64554" lon="1.393">
        <ele>136</ele>
        <time>2025-06-12T04:28:56Z</time>
      </trkpt>
      <trkpt lat="43.64551" lon="1.393">
        <ele>136</ele>
        <time>2025-06-12T04:28:57Z</time>
      </trkpt>
      <trkpt lat="43.64548" lon="1.39301">
        <ele>136</ele>
        <time>2025-06-12T04:28:58Z</time>
      </trkpt>
      <trkpt lat="43.64546" lon="1.39302">
        <ele>136</ele>
        <time>2025-06-12T04:28:59Z</time>
      </trkpt>
      <trkpt lat="43.64543" lon="1.39302">
        <ele>136</ele>
        <time>2025-06-12T04:29:00Z</time>
      </trkpt>
      <trkpt lat="43.6454" lon="1.39303">
        <ele>136</ele>
        <time>2025-06-12T04:29:01Z</time>
      </trkpt>
      <trkpt lat="43.64538" lon="1.39304">
        <ele>136</ele>
        <time>2025-06-12T04:29:02Z</time>
      </trkpt>
      <trkpt lat="43.64535" lon="1.39305">
        <ele>136</ele>
        <time>2025-06-12T04:29:03Z</time>
      </trkpt>
      <trkpt lat="43.64533" lon="1.39305">
        <ele>135</ele>
        <time>2025-06-12T04:29:04Z</time>
      </trkpt>
      <trkpt lat="43.64528" lon="1.39307">
        <ele>135</ele>
        <time>2025-06-12T04:29:05Z</time>
      </trkpt>
      <trkpt lat="43.64525" lon="1.39307">
        <ele>135</ele>
        <time>2025-06-12T04:29:06Z</time>
      </trkpt>
      <trkpt lat="43.64525" lon="1.39307">
        <ele>135</ele>
        <time>2025-06-12T04:29:07Z</time>
      </trkpt>
      <trkpt lat="43.64522" lon="1.39308">
        <ele>135</ele>
        <time>2025-06-12T04:29:08Z</time>
      </trkpt>
      <trkpt lat="43.64519" lon="1.39309">
        <ele>135</ele>
        <time>2025-06-12T04:29:09Z</time>
      </trkpt>
      <trkpt lat="43.64517" lon="1.39309">
        <ele>135</ele>
        <time>2025-06-12T04:29:10Z</time>
      </trkpt>
      <trkpt lat="43.64514" lon="1.3931">
        <ele>135</ele>
        <time>2025-06-12T04:29:11Z</time>
      </trkpt>
      <trkpt lat="43.64511" lon="1.3931">
        <ele>135</ele>
        <time>2025-06-12T04:29:12Z</time>
      </trkpt>
      <trkpt lat="43.64509" lon="1.39311">
        <ele>135</ele>
        <time>2025-06-12T04:29:13Z</time>
      </trkpt>
      <trkpt lat="43.64506" lon="1.39311">
        <ele>135</ele>
        <time>2025-06-12T04:29:14Z</time>
      </trkpt>
      <trkpt lat="43.64504" lon="1.39311">
        <ele>136</ele>
        <time>2025-06-12T04:29:15Z</time>
      </trkpt>
      <trkpt lat="43.64501" lon="1.39311">
        <ele>136</ele>
        <time>2025-06-12T04:29:16Z</time>
      </trkpt>
      <trkpt lat="43.64499" lon="1.39311">
        <ele>136</ele>
        <time>2025-06-12T04:29:17Z</time>
      </trkpt>
      <trkpt lat="43.64496" lon="1.39311">
        <ele>136</ele>
        <time>2025-06-12T04:29:18Z</time>
      </trkpt>
      <trkpt lat="43.64494" lon="1.39311">
        <ele>136</ele>
        <time>2025-06-12T04:29:19Z</time>
      </trkpt>
      <trkpt lat="43.64491" lon="1.39311">
        <ele>136</ele>
        <time>2025-06-12T04:29:20Z</time>
      </trkpt>
      <trkpt lat="43.64488" lon="1.39311">
        <ele>136</ele>
        <time>2025-06-12T04:29:21Z</time>
      </trkpt>
      <trkpt lat="43.64486" lon="1.39311">
        <ele>137</ele>
        <time>2025-06-12T04:29:22Z</time>
      </trkpt>
      <trkpt lat="43.64484" lon="1.39311">
        <ele>137</ele>
        <time>2025-06-12T04:29:23Z</time>
      </trkpt>
      <trkpt lat="43.64479" lon="1.39311">
        <ele>137</ele>
        <time>2025-06-12T04:29:24Z</time>
      </trkpt>
      <trkpt lat="43.64479" lon="1.39311">
        <ele>137</ele>
        <time>2025-06-12T04:29:25Z</time>
      </trkpt>
      <trkpt lat="43.64476" lon="1.39311">
        <ele>137</ele>
        <time>2025-06-12T04:29:26Z</time>
      </trkpt>
      <trkpt lat="43.64474" lon="1.3931">
        <ele>137</ele>
        <time>2025-06-12T04:29:27Z</time>
      </trkpt>
      <trkpt lat="43.64472" lon="1.3931">
        <ele>137</ele>
        <time>2025-06-12T04:29:28Z</time>
      </trkpt>
      <trkpt lat="43.64469" lon="1.3931">
        <ele>138</ele>
        <time>2025-06-12T04:29:29Z</time>
      </trkpt>
      <trkpt lat="43.64467" lon="1.3931">
        <ele>138</ele>
        <time>2025-06-12T04:29:30Z</time>
      </trkpt>
      <trkpt lat="43.64464" lon="1.39311">
        <ele>138</ele>
        <time>2025-06-12T04:29:31Z</time>
      </trkpt>
      <trkpt lat="43.64462" lon="1.39312">
        <ele>138</ele>
        <time>2025-06-12T04:29:32Z</time>
      </trkpt>
      <trkpt lat="43.64461" lon="1.39314">
        <ele>138</ele>
        <time>2025-06-12T04:29:33Z</time>
      </trkpt>
      <trkpt lat="43.64461" lon="1.39318">
        <ele>138</ele>
        <time>2025-06-12T04:29:34Z</time>
      </trkpt>
      <trkpt lat="43.64462" lon="1.39321">
        <ele>138</ele>
        <time>2025-06-12T04:29:35Z</time>
      </trkpt>
      <trkpt lat="43.64463" lon="1.39325">
        <ele>138</ele>
        <time>2025-06-12T04:29:36Z</time>
      </trkpt>
      <trkpt lat="43.64464" lon="1.39328">
        <ele>139</ele>
        <time>2025-06-12T04:29:37Z</time>
      </trkpt>
      <trkpt lat="43.64465" lon="1.39332">
        <ele>139</ele>
        <time>2025-06-12T04:29:38Z</time>
      </trkpt>
      <trkpt lat="43.64466" lon="1.39335">
        <ele>138</ele>
        <time>2025-06-12T04:29:39Z</time>
      </trkpt>
      <trkpt lat="43.64467" lon="1.39338">
        <ele>138</ele>
        <time>2025-06-12T04:29:40Z</time>
      </trkpt>
      <trkpt lat="43.64468" lon="1.39342">
        <ele>138</ele>
        <time>2025-06-12T04:29:41Z</time>
      </trkpt>
      <trkpt lat="43.64469" lon="1.39345">
        <ele>138</ele>
        <time>2025-06-12T04:29:42Z</time>
      </trkpt>
      <trkpt lat="43.6447" lon="1.39352">
        <ele>139</ele>
        <time>2025-06-12T04:29:43Z</time>
      </trkpt>
      <trkpt lat="43.64471" lon="1.39356">
        <ele>139</ele>
        <time>2025-06-12T04:29:44Z</time>
      </trkpt>
      <trkpt lat="43.64471" lon="1.39356">
        <ele>139</ele>
        <time>2025-06-12T04:29:45Z</time>
      </trkpt>
      <trkpt lat="43.64472" lon="1.39359">
        <ele>139</ele>
        <time>2025-06-12T04:29:46Z</time>
      </trkpt>
      <trkpt lat="43.64472" lon="1.39362">
        <ele>138</ele>
        <time>2025-06-12T04:29:47Z</time>
      </trkpt>
      <trkpt lat="43.64473" lon="1.39366">
        <ele>139</ele>
        <time>2025-06-12T04:29:48Z</time>
      </trkpt>
      <trkpt lat="43.64474" lon="1.39369">
        <ele>139</ele>
        <time>2025-06-12T04:29:49Z</time>
      </trkpt>
      <trkpt lat="43.64475" lon="1.39372">
        <ele>139</ele>
        <time>2025-06-12T04:29:50Z</time>
      </trkpt>
      <trkpt lat="43.64475" lon="1.39375">
        <ele>139</ele>
        <time>2025-06-12T04:29:51Z</time>
      </trkpt>
      <trkpt lat="43.64476" lon="1.39379">
        <ele>139</ele>
        <time>2025-06-12T04:29:52Z</time>
      </trkpt>
      <trkpt lat="43.64477" lon="1.39383">
        <ele>139</ele>
        <time>2025-06-12T04:29:53Z</time>
      </trkpt>
      <trkpt lat="43.64477" lon="1.39386">
        <ele>139</ele>
        <time>2025-06-12T04:29:54Z</time>
      </trkpt>
      <trkpt lat="43.64477" lon="1.3939">
        <ele>139</ele>
        <time>2025-06-12T04:29:55Z</time>
      </trkpt>
      <trkpt lat="43.64478" lon="1.39393">
        <ele>139</ele>
        <time>2025-06-12T04:29:56Z</time>
      </trkpt>
      <trkpt lat="43.64478" lon="1.39397">
        <ele>139</ele>
        <time>2025-06-12T04:29:57Z</time>
      </trkpt>
      <trkpt lat="43.64479" lon="1.394">
        <ele>139</ele>
        <time>2025-06-12T04:29:58Z</time>
      </trkpt>
      <trkpt lat="43.64479" lon="1.39404">
        <ele>138</ele>
        <time>2025-06-12T04:29:59Z</time>
      </trkpt>
      <trkpt lat="43.64479" lon="1.39407">
        <ele>138</ele>
        <time>2025-06-12T04:30:00Z</time>
      </trkpt>
      <trkpt lat="43.6448" lon="1.39414">
        <ele>138</ele>
        <time>2025-06-12T04:30:01Z</time>
      </trkpt>
      <trkpt lat="43.6448" lon="1.39418">
        <ele>138</ele>
        <time>2025-06-12T04:30:02Z</time>
      </trkpt>
      <trkpt lat="43.6448" lon="1.39418">
        <ele>138</ele>
        <time>2025-06-12T04:30:03Z</time>
      </trkpt>
      <trkpt lat="43.64481" lon="1.39421">
        <ele>138</ele>
        <time>2025-06-12T04:30:04Z</time>
      </trkpt>
      <trkpt lat="43.64481" lon="1.39425">
        <ele>138</ele>
        <time>2025-06-12T04:30:05Z</time>
      </trkpt>
      <trkpt lat="43.64481" lon="1.39428">
        <ele>138</ele>
        <time>2025-06-12T04:30:06Z</time>
      </trkpt>
      <trkpt lat="43.64482" lon="1.39431">
        <ele>138</ele>
        <time>2025-06-12T04:30:07Z</time>
      </trkpt>
      <trkpt lat="43.64482" lon="1.39437">
        <ele>138</ele>
        <time>2025-06-12T04:30:08Z</time>
      </trkpt>
      <trkpt lat="43.64482" lon="1.39437">
        <ele>138</ele>
        <time>2025-06-12T04:30:09Z</time>
      </trkpt>
      <trkpt lat="43.64484" lon="1.39443">
        <ele>138</ele>
        <time>2025-06-12T04:30:10Z</time>
      </trkpt>
      <trkpt lat="43.64484" lon="1.39443">
        <ele>138</ele>
        <time>2025-06-12T04:30:11Z</time>
      </trkpt>
      <trkpt lat="43.64486" lon="1.39451">
        <ele>139</ele>
        <time>2025-06-12T04:30:12Z</time>
      </trkpt>
      <trkpt lat="43.64486" lon="1.39451">
        <ele>139</ele>
        <time>2025-06-12T04:30:13Z</time>
      </trkpt>
      <trkpt lat="43.64486" lon="1.39454">
        <ele>138</ele>
        <time>2025-06-12T04:30:14Z</time>
      </trkpt>
      <trkpt lat="43.64487" lon="1.39458">
        <ele>138</ele>
        <time>2025-06-12T04:30:15Z</time>
      </trkpt>
      <trkpt lat="43.64488" lon="1.39461">
        <ele>138</ele>
        <time>2025-06-12T04:30:16Z</time>
      </trkpt>
      <trkpt lat="43.64488" lon="1.39465">
        <ele>138</ele>
        <time>2025-06-12T04:30:17Z</time>
      </trkpt>
      <trkpt lat="43.64489" lon="1.39468">
        <ele>138</ele>
        <time>2025-06-12T04:30:18Z</time>
      </trkpt>
      <trkpt lat="43.6449" lon="1.39472">
        <ele>138</ele>
        <time>2025-06-12T04:30:19Z</time>
      </trkpt>
      <trkpt lat="43.6449" lon="1.39475">
        <ele>138</ele>
        <time>2025-06-12T04:30:20Z</time>
      </trkpt>
      <trkpt lat="43.64491" lon="1.39482">
        <ele>138</ele>
        <time>2025-06-12T04:30:21Z</time>
      </trkpt>
      <trkpt lat="43.64491" lon="1.39482">
        <ele>138</ele>
        <time>2025-06-12T04:30:22Z</time>
      </trkpt>
      <trkpt lat="43.64491" lon="1.39486">
        <ele>138</ele>
        <time>2025-06-12T04:30:23Z</time>
      </trkpt>
      <trkpt lat="43.64492" lon="1.3949">
        <ele>138</ele>
        <time>2025-06-12T04:30:24Z</time>
      </trkpt>
      <trkpt lat="43.64492" lon="1.39493">
        <ele>138</ele>
        <time>2025-06-12T04:30:25Z</time>
      </trkpt>
      <trkpt lat="43.64493" lon="1.39497">
        <ele>138</ele>
        <time>2025-06-12T04:30:26Z</time>
      </trkpt>
      <trkpt lat="43.64493" lon="1.39501">
        <ele>138</ele>
        <time>2025-06-12T04:30:27Z</time>
      </trkpt>
      <trkpt lat="43.64494" lon="1.39504">
        <ele>138</ele>
        <time>2025-06-12T04:30:28Z</time>
      </trkpt>
      <trkpt lat="43.64495" lon="1.39511">
        <ele>138</ele>
        <time>2025-06-12T04:30:29Z</time>
      </trkpt>
      <trkpt lat="43.64495" lon="1.39511">
        <ele>138</ele>
        <time>2025-06-12T04:30:30Z</time>
      </trkpt>
      <trkpt lat="43.64495" lon="1.39515">
        <ele>138</ele>
        <time>2025-06-12T04:30:31Z</time>
      </trkpt>
      <trkpt lat="43.64495" lon="1.39518">
        <ele>138</ele>
        <time>2025-06-12T04:30:32Z</time>
      </trkpt>
      <trkpt lat="43.64496" lon="1.39521">
        <ele>138</ele>
        <time>2025-06-12T04:30:33Z</time>
      </trkpt>
      <trkpt lat="43.64496" lon="1.39525">
        <ele>138</ele>
        <time>2025-06-12T04:30:34Z</time>
      </trkpt>
      <trkpt lat="43.64497" lon="1.39528">
        <ele>138</ele>
        <time>2025-06-12T04:30:35Z</time>
      </trkpt>
      <trkpt lat="43.64498" lon="1.39532">
        <ele>137</ele>
        <time>2025-06-12T04:30:36Z</time>
      </trkpt>
      <trkpt lat="43.64498" lon="1.39535">
        <ele>138</ele>
        <time>2025-06-12T04:30:37Z</time>
      </trkpt>
      <trkpt lat="43.64498" lon="1.39539">
        <ele>138</ele>
        <time>2025-06-12T04:30:38Z</time>
      </trkpt>
      <trkpt lat="43.64498" lon="1.39543">
        <ele>138</ele>
        <time>2025-06-12T04:30:39Z</time>
      </trkpt>
      <trkpt lat="43.64498" lon="1.3955">
        <ele>138</ele>
        <time>2025-06-12T04:30:40Z</time>
      </trkpt>
      <trkpt lat="43.64498" lon="1.3955">
        <ele>138</ele>
        <time>2025-06-12T04:30:41Z</time>
      </trkpt>
      <trkpt lat="43.64498" lon="1.39553">
        <ele>138</ele>
        <time>2025-06-12T04:30:42Z</time>
      </trkpt>
      <trkpt lat="43.64498" lon="1.39557">
        <ele>138</ele>
        <time>2025-06-12T04:30:43Z</time>
      </trkpt>
      <trkpt lat="43.64499" lon="1.39561">
        <ele>139</ele>
        <time>2025-06-12T04:30:44Z</time>
      </trkpt>
      <trkpt lat="43.645" lon="1.39564">
        <ele>139</ele>
        <time>2025-06-12T04:30:45Z</time>
      </trkpt>
      <trkpt lat="43.64501" lon="1.39568">
        <ele>139</ele>
        <time>2025-06-12T04:30:46Z</time>
      </trkpt>
      <trkpt lat="43.64501" lon="1.39571">
        <ele>139</ele>
        <time>2025-06-12T04:30:47Z</time>
      </trkpt>
      <trkpt lat="43.64502" lon="1.39574">
        <ele>138</ele>
        <time>2025-06-12T04:30:48Z</time>
      </trkpt>
      <trkpt lat="43.64503" lon="1.39578">
        <ele>138</ele>
        <time>2025-06-12T04:30:49Z</time>
      </trkpt>
      <trkpt lat="43.64504" lon="1.39582">
        <ele>138</ele>
        <time>2025-06-12T04:30:50Z</time>
      </trkpt>
      <trkpt lat="43.64504" lon="1.39585">
        <ele>138</ele>
        <time>2025-06-12T04:30:51Z</time>
      </trkpt>
      <trkpt lat="43.64504" lon="1.39589">
        <ele>138</ele>
        <time>2025-06-12T04:30:52Z</time>
      </trkpt>
      <trkpt lat="43.64504" lon="1.39592">
        <ele>138</ele>
        <time>2025-06-12T04:30:53Z</time>
      </trkpt>
      <trkpt lat="43.64505" lon="1.39596">
        <ele>138</ele>
        <time>2025-06-12T04:30:54Z</time>
      </trkpt>
      <trkpt lat="43.64505" lon="1.39599">
        <ele>138</ele>
        <time>2025-06-12T04:30:55Z</time>
      </trkpt>
      <trkpt lat="43.64505" lon="1.39603">
        <ele>138</ele>
        <time>2025-06-12T04:30:56Z</time>
      </trkpt>
      <trkpt lat="43.64505" lon="1.39606">
        <ele>138</ele>
        <time>2025-06-12T04:30:57Z</time>
      </trkpt>
      <trkpt lat="43.64506" lon="1.3961">
        <ele>138</ele>
        <time>2025-06-12T04:30:58Z</time>
      </trkpt>
      <trkpt lat="43.64505" lon="1.39617">
        <ele>138</ele>
        <time>2025-06-12T04:30:59Z</time>
      </trkpt>
      <trkpt lat="43.64505" lon="1.39617">
        <ele>138</ele>
        <time>2025-06-12T04:31:00Z</time>
      </trkpt>
      <trkpt lat="43.64505" lon="1.39621">
        <ele>138</ele>
        <time>2025-06-12T04:31:01Z</time>
      </trkpt>
      <trkpt lat="43.64505" lon="1.39624">
        <ele>138</ele>
        <time>2025-06-12T04:31:02Z</time>
      </trkpt>
      <trkpt lat="43.64505" lon="1.39628">
        <ele>138</ele>
        <time>2025-06-12T04:31:03Z</time>
      </trkpt>
      <trkpt lat="43.64506" lon="1.39631">
        <ele>138</ele>
        <time>2025-06-12T04:31:04Z</time>
      </trkpt>
      <trkpt lat="43.64506" lon="1.39635">
        <ele>138</ele>
        <time>2025-06-12T04:31:05Z</time>
      </trkpt>
      <trkpt lat="43.64506" lon="1.39639">
        <ele>138</ele>
        <time>2025-06-12T04:31:06Z</time>
      </trkpt>
      <trkpt lat="43.64506" lon="1.39642">
        <ele>138</ele>
        <time>2025-06-12T04:31:07Z</time>
      </trkpt>
      <trkpt lat="43.64505" lon="1.39646">
        <ele>137</ele>
        <time>2025-06-12T04:31:08Z</time>
      </trkpt>
      <trkpt lat="43.64505" lon="1.3965">
        <ele>137</ele>
        <time>2025-06-12T04:31:09Z</time>
      </trkpt>
      <trkpt lat="43.64505" lon="1.39653">
        <ele>137</ele>
        <time>2025-06-12T04:31:10Z</time>
      </trkpt>
      <trkpt lat="43.64505" lon="1.39657">
        <ele>138</ele>
        <time>2025-06-12T04:31:11Z</time>
      </trkpt>
      <trkpt lat="43.64505" lon="1.39661">
        <ele>138</ele>
        <time>2025-06-12T04:31:12Z</time>
      </trkpt>
      <trkpt lat="43.64505" lon="1.39664">
        <ele>137</ele>
        <time>2025-06-12T04:31:13Z</time>
      </trkpt>
      <trkpt lat="43.64505" lon="1.39668">
        <ele>137</ele>
        <time>2025-06-12T04:31:14Z</time>
      </trkpt>
      <trkpt lat="43.64505" lon="1.39672">
        <ele>137</ele>
        <time>2025-06-12T04:31:15Z</time>
      </trkpt>
      <trkpt lat="43.64505" lon="1.39675">
        <ele>137</ele>
        <time>2025-06-12T04:31:16Z</time>
      </trkpt>
      <trkpt lat="43.64505" lon="1.39679">
        <ele>137</ele>
        <time>2025-06-12T04:31:17Z</time>
      </trkpt>
      <trkpt lat="43.64504" lon="1.39686">
        <ele>138</ele>
        <time>2025-06-12T04:31:18Z</time>
      </trkpt>
      <trkpt lat="43.64504" lon="1.39686">
        <ele>138</ele>
        <time>2025-06-12T04:31:19Z</time>
      </trkpt>
      <trkpt lat="43.64505" lon="1.3969">
        <ele>138</ele>
        <time>2025-06-12T04:31:20Z</time>
      </trkpt>
      <trkpt lat="43.64505" lon="1.39694">
        <ele>138</ele>
        <time>2025-06-12T04:31:21Z</time>
      </trkpt>
      <trkpt lat="43.64506" lon="1.39697">
        <ele>138</ele>
        <time>2025-06-12T04:31:22Z</time>
      </trkpt>
      <trkpt lat="43.64506" lon="1.39701">
        <ele>138</ele>
        <time>2025-06-12T04:31:23Z</time>
      </trkpt>
      <trkpt lat="43.64505" lon="1.39705">
        <ele>138</ele>
        <time>2025-06-12T04:31:24Z</time>
      </trkpt>
      <trkpt lat="43.64505" lon="1.39708">
        <ele>138</ele>
        <time>2025-06-12T04:31:25Z</time>
      </trkpt>
      <trkpt lat="43.64505" lon="1.39712">
        <ele>138</ele>
        <time>2025-06-12T04:31:26Z</time>
      </trkpt>
      <trkpt lat="43.64505" lon="1.39716">
        <ele>138</ele>
        <time>2025-06-12T04:31:27Z</time>
      </trkpt>
      <trkpt lat="43.64505" lon="1.39719">
        <ele>138</ele>
        <time>2025-06-12T04:31:28Z</time>
      </trkpt>
      <trkpt lat="43.64506" lon="1.39723">
        <ele>138</ele>
        <time>2025-06-12T04:31:29Z</time>
      </trkpt>
      <trkpt lat="43.64506" lon="1.39726">
        <ele>138</ele>
        <time>2025-06-12T04:31:30Z</time>
      </trkpt>
      <trkpt lat="43.64506" lon="1.39729">
        <ele>137</ele>
        <time>2025-06-12T04:31:31Z</time>
      </trkpt>
      <trkpt lat="43.64507" lon="1.39733">
        <ele>137</ele>
        <time>2025-06-12T04:31:32Z</time>
      </trkpt>
      <trkpt lat="43.64506" lon="1.39737">
        <ele>137</ele>
        <time>2025-06-12T04:31:33Z</time>
      </trkpt>
      <trkpt lat="43.64506" lon="1.3974">
        <ele>137</ele>
        <time>2025-06-12T04:31:34Z</time>
      </trkpt>
      <trkpt lat="43.64506" lon="1.39744">
        <ele>137</ele>
        <time>2025-06-12T04:31:35Z</time>
      </trkpt>
      <trkpt lat="43.64506" lon="1.39747">
        <ele>137</ele>
        <time>2025-06-12T04:31:36Z</time>
      </trkpt>
      <trkpt lat="43.64506" lon="1.39751">
        <ele>137</ele>
        <time>2025-06-12T04:31:37Z</time>
      </trkpt>
      <trkpt lat="43.64507" lon="1.39755">
        <ele>137</ele>
        <time>2025-06-12T04:31:38Z</time>
      </trkpt>
      <trkpt lat="43.64507" lon="1.39758">
        <ele>137</ele>
        <time>2025-06-12T04:31:39Z</time>
      </trkpt>
      <trkpt lat="43.64506" lon="1.39762">
        <ele>137</ele>
        <time>2025-06-12T04:31:40Z</time>
      </trkpt>
      <trkpt lat="43.64505" lon="1.39765">
        <ele>137</ele>
        <time>2025-06-12T04:31:41Z</time>
      </trkpt>
      <trkpt lat="43.64505" lon="1.39769">
        <ele>137</ele>
        <time>2025-06-12T04:31:42Z</time>
      </trkpt>
      <trkpt lat="43.64505" lon="1.39772">
        <ele>138</ele>
        <time>2025-06-12T04:31:43Z</time>
      </trkpt>
      <trkpt lat="43.64505" lon="1.39776">
        <ele>138</ele>
        <time>2025-06-12T04:31:44Z</time>
      </trkpt>
      <trkpt lat="43.64505" lon="1.39779">
        <ele>138</ele>
        <time>2025-06-12T04:31:45Z</time>
      </trkpt>
      <trkpt lat="43.64505" lon="1.39783">
        <ele>138</ele>
        <time>2025-06-12T04:31:46Z</time>
      </trkpt>
      <trkpt lat="43.64505" lon="1.39787">
        <ele>138</ele>
        <time>2025-06-12T04:31:47Z</time>
      </trkpt>
      <trkpt lat="43.64504" lon="1.3979">
        <ele>138</ele>
        <time>2025-06-12T04:31:48Z</time>
      </trkpt>
      <trkpt lat="43.64504" lon="1.39794">
        <ele>138</ele>
        <time>2025-06-12T04:31:49Z</time>
      </trkpt>
      <trkpt lat="43.64504" lon="1.39798">
        <ele>138</ele>
        <time>2025-06-12T04:31:50Z</time>
      </trkpt>
      <trkpt lat="43.64503" lon="1.39802">
        <ele>138</ele>
        <time>2025-06-12T04:31:51Z</time>
      </trkpt>
      <trkpt lat="43.64503" lon="1.39805">
        <ele>138</ele>
        <time>2025-06-12T04:31:52Z</time>
      </trkpt>
      <trkpt lat="43.64503" lon="1.39809">
        <ele>138</ele>
        <time>2025-06-12T04:31:53Z</time>
      </trkpt>
      <trkpt lat="43.64504" lon="1.39813">
        <ele>138</ele>
        <time>2025-06-12T04:31:54Z</time>
      </trkpt>
      <trkpt lat="43.64504" lon="1.39816">
        <ele>138</ele>
        <time>2025-06-12T04:31:55Z</time>
      </trkpt>
      <trkpt lat="43.64504" lon="1.3982">
        <ele>138</ele>
        <time>2025-06-12T04:31:56Z</time>
      </trkpt>
      <trkpt lat="43.64504" lon="1.39823">
        <ele>138</ele>
        <time>2025-06-12T04:31:57Z</time>
      </trkpt>
      <trkpt lat="43.64504" lon="1.39827">
        <ele>138</ele>
        <time>2025-06-12T04:31:58Z</time>
      </trkpt>
      <trkpt lat="43.64503" lon="1.3983">
        <ele>138</ele>
        <time>2025-06-12T04:31:59Z</time>
      </trkpt>
      <trkpt lat="43.64503" lon="1.39833">
        <ele>137</ele>
        <time>2025-06-12T04:32:00Z</time>
      </trkpt>
      <trkpt lat="43.64503" lon="1.39837">
        <ele>137</ele>
        <time>2025-06-12T04:32:01Z</time>
      </trkpt>
      <trkpt lat="43.64503" lon="1.3984">
        <ele>137</ele>
        <time>2025-06-12T04:32:02Z</time>
      </trkpt>
      <trkpt lat="43.64503" lon="1.39844">
        <ele>137</ele>
        <time>2025-06-12T04:32:03Z</time>
      </trkpt>
      <trkpt lat="43.64503" lon="1.39848">
        <ele>137</ele>
        <time>2025-06-12T04:32:04Z</time>
      </trkpt>
      <trkpt lat="43.64503" lon="1.39851">
        <ele>137</ele>
        <time>2025-06-12T04:32:05Z</time>
      </trkpt>
      <trkpt lat="43.64502" lon="1.39854">
        <ele>137</ele>
        <time>2025-06-12T04:32:06Z</time>
      </trkpt>
      <trkpt lat="43.64502" lon="1.39858">
        <ele>137</ele>
        <time>2025-06-12T04:32:07Z</time>
      </trkpt>
      <trkpt lat="43.64503" lon="1.39862">
        <ele>137</ele>
        <time>2025-06-12T04:32:08Z</time>
      </trkpt>
      <trkpt lat="43.64502" lon="1.39865">
        <ele>137</ele>
        <time>2025-06-12T04:32:09Z</time>
      </trkpt>
      <trkpt lat="43.64503" lon="1.39868">
        <ele>137</ele>
        <time>2025-06-12T04:32:10Z</time>
      </trkpt>
      <trkpt lat="43.64503" lon="1.39871">
        <ele>137</ele>
        <time>2025-06-12T04:32:11Z</time>
      </trkpt>
      <trkpt lat="43.64503" lon="1.39875">
        <ele>137</ele>
        <time>2025-06-12T04:32:12Z</time>
      </trkpt>
      <trkpt lat="43.64503" lon="1.39878">
        <ele>137</ele>
        <time>2025-06-12T04:32:13Z</time>
      </trkpt>
      <trkpt lat="43.64503" lon="1.39882">
        <ele>137</ele>
        <time>2025-06-12T04:32:14Z</time>
      </trkpt>
      <trkpt lat="43.64503" lon="1.39889">
        <ele>137</ele>
        <time>2025-06-12T04:32:15Z</time>
      </trkpt>
      <trkpt lat="43.64503" lon="1.39889">
        <ele>137</ele>
        <time>2025-06-12T04:32:16Z</time>
      </trkpt>
      <trkpt lat="43.64503" lon="1.39893">
        <ele>137</ele>
        <time>2025-06-12T04:32:17Z</time>
      </trkpt>
      <trkpt lat="43.64503" lon="1.39897">
        <ele>138</ele>
        <time>2025-06-12T04:32:18Z</time>
      </trkpt>
      <trkpt lat="43.64503" lon="1.399">
        <ele>138</ele>
        <time>2025-06-12T04:32:19Z</time>
      </trkpt>
      <trkpt lat="43.64503" lon="1.39904">
        <ele>138</ele>
        <time>2025-06-12T04:32:20Z</time>
      </trkpt>
      <trkpt lat="43.64502" lon="1.39908">
        <ele>137</ele>
        <time>2025-06-12T04:32:21Z</time>
      </trkpt>
      <trkpt lat="43.64502" lon="1.39912">
        <ele>137</ele>
        <time>2025-06-12T04:32:22Z</time>
      </trkpt>
      <trkpt lat="43.64503" lon="1.39916">
        <ele>137</ele>
        <time>2025-06-12T04:32:23Z</time>
      </trkpt>
      <trkpt lat="43.64503" lon="1.39919">
        <ele>137</ele>
        <time>2025-06-12T04:32:24Z</time>
      </trkpt>
      <trkpt lat="43.64505" lon="1.39922">
        <ele>137</ele>
        <time>2025-06-12T04:32:25Z</time>
      </trkpt>
      <trkpt lat="43.64507" lon="1.39924">
        <ele>137</ele>
        <time>2025-06-12T04:32:26Z</time>
      </trkpt>
      <trkpt lat="43.64509" lon="1.39926">
        <ele>137</ele>
        <time>2025-06-12T04:32:27Z</time>
      </trkpt>
      <trkpt lat="43.64511" lon="1.39929">
        <ele>136</ele>
        <time>2025-06-12T04:32:28Z</time>
      </trkpt>
      <trkpt lat="43.64512" lon="1.39932">
        <ele>137</ele>
        <time>2025-06-12T04:32:29Z</time>
      </trkpt>
      <trkpt lat="43.64512" lon="1.39936">
        <ele>137</ele>
        <time>2025-06-12T04:32:30Z</time>
      </trkpt>
      <trkpt lat="43.64512" lon="1.3994">
        <ele>137</ele>
        <time>2025-06-12T04:32:31Z</time>
      </trkpt>
      <trkpt lat="43.64511" lon="1.39943">
        <ele>137</ele>
        <time>2025-06-12T04:32:32Z</time>
      </trkpt>
      <trkpt lat="43.64509" lon="1.39947">
        <ele>137</ele>
        <time>2025-06-12T04:32:33Z</time>
      </trkpt>
      <trkpt lat="43.64505" lon="1.39952">
        <ele>137</ele>
        <time>2025-06-12T04:32:34Z</time>
      </trkpt>
      <trkpt lat="43.64505" lon="1.39952">
        <ele>137</ele>
        <time>2025-06-12T04:32:35Z</time>
      </trkpt>
      <trkpt lat="43.64502" lon="1.39953">
        <ele>137</ele>
        <time>2025-06-12T04:32:36Z</time>
      </trkpt>
      <trkpt lat="43.645" lon="1.39954">
        <ele>137</ele>
        <time>2025-06-12T04:32:37Z</time>
      </trkpt>
      <trkpt lat="43.64497" lon="1.39956">
        <ele>137</ele>
        <time>2025-06-12T04:32:38Z</time>
      </trkpt>
      <trkpt lat="43.64495" lon="1.39956">
        <ele>137</ele>
        <time>2025-06-12T04:32:39Z</time>
      </trkpt>
      <trkpt lat="43.64493" lon="1.39957">
        <ele>137</ele>
        <time>2025-06-12T04:32:40Z</time>
      </trkpt>
      <trkpt lat="43.64491" lon="1.39958">
        <ele>137</ele>
        <time>2025-06-12T04:32:41Z</time>
      </trkpt>
      <trkpt lat="43.64488" lon="1.39959">
        <ele>137</ele>
        <time>2025-06-12T04:32:42Z</time>
      </trkpt>
      <trkpt lat="43.64486" lon="1.39959">
        <ele>136</ele>
        <time>2025-06-12T04:32:43Z</time>
      </trkpt>
      <trkpt lat="43.64483" lon="1.3996">
        <ele>136</ele>
        <time>2025-06-12T04:32:44Z</time>
      </trkpt>
      <trkpt lat="43.64479" lon="1.39961">
        <ele>136</ele>
        <time>2025-06-12T04:32:45Z</time>
      </trkpt>
      <trkpt lat="43.64476" lon="1.39962">
        <ele>136</ele>
        <time>2025-06-12T04:32:46Z</time>
      </trkpt>
      <trkpt lat="43.64473" lon="1.39963">
        <ele>136</ele>
        <time>2025-06-12T04:32:47Z</time>
      </trkpt>
      <trkpt lat="43.64469" lon="1.39964">
        <ele>136</ele>
        <time>2025-06-12T04:32:48Z</time>
      </trkpt>
      <trkpt lat="43.64466" lon="1.39964">
        <ele>135</ele>
        <time>2025-06-12T04:32:49Z</time>
      </trkpt>
      <trkpt lat="43.64464" lon="1.39964">
        <ele>135</ele>
        <time>2025-06-12T04:32:50Z</time>
      </trkpt>
      <trkpt lat="43.64461" lon="1.39965">
        <ele>135</ele>
        <time>2025-06-12T04:32:51Z</time>
      </trkpt>
      <trkpt lat="43.64458" lon="1.39965">
        <ele>134</ele>
        <time>2025-06-12T04:32:52Z</time>
      </trkpt>
      <trkpt lat="43.64452" lon="1.39966">
        <ele>134</ele>
        <time>2025-06-12T04:32:53Z</time>
      </trkpt>
      <trkpt lat="43.64452" lon="1.39966">
        <ele>134</ele>
        <time>2025-06-12T04:32:54Z</time>
      </trkpt>
      <trkpt lat="43.64449" lon="1.39966">
        <ele>134</ele>
        <time>2025-06-12T04:32:55Z</time>
      </trkpt>
      <trkpt lat="43.64446" lon="1.39966">
        <ele>134</ele>
        <time>2025-06-12T04:32:56Z</time>
      </trkpt>
      <trkpt lat="43.64443" lon="1.39966">
        <ele>134</ele>
        <time>2025-06-12T04:32:57Z</time>
      </trkpt>
      <trkpt lat="43.64441" lon="1.39966">
        <ele>134</ele>
        <time>2025-06-12T04:32:58Z</time>
      </trkpt>
      <trkpt lat="43.64438" lon="1.39966">
        <ele>135</ele>
        <time>2025-06-12T04:32:59Z</time>
      </trkpt>
      <trkpt lat="43.64435" lon="1.39966">
        <ele>135</ele>
        <time>2025-06-12T04:33:00Z</time>
      </trkpt>
      <trkpt lat="43.64432" lon="1.39966">
        <ele>135</ele>
        <time>2025-06-12T04:33:01Z</time>
      </trkpt>
      <trkpt lat="43.64429" lon="1.39966">
        <ele>135</ele>
        <time>2025-06-12T04:33:02Z</time>
      </trkpt>
      <trkpt lat="43.64427" lon="1.39965">
        <ele>135</ele>
        <time>2025-06-12T04:33:03Z</time>
      </trkpt>
      <trkpt lat="43.64424" lon="1.39965">
        <ele>135</ele>
        <time>2025-06-12T04:33:04Z</time>
      </trkpt>
      <trkpt lat="43.64421" lon="1.39965">
        <ele>134</ele>
        <time>2025-06-12T04:33:05Z</time>
      </trkpt>
      <trkpt lat="43.64419" lon="1.39965">
        <ele>134</ele>
        <time>2025-06-12T04:33:06Z</time>
      </trkpt>
      <trkpt lat="43.64416" lon="1.39965">
        <ele>134</ele>
        <time>2025-06-12T04:33:07Z</time>
      </trkpt>
      <trkpt lat="43.64414" lon="1.39965">
        <ele>134</ele>
        <time>2025-06-12T04:33:08Z</time>
      </trkpt>
      <trkpt lat="43.64411" lon="1.39964">
        <ele>134</ele>
        <time>2025-06-12T04:33:09Z</time>
      </trkpt>
      <trkpt lat="43.64408" lon="1.39964">
        <ele>134</ele>
        <time>2025-06-12T04:33:10Z</time>
      </trkpt>
      <trkpt lat="43.64406" lon="1.39964">
        <ele>134</ele>
        <time>2025-06-12T04:33:11Z</time>
      </trkpt>
      <trkpt lat="43.644" lon="1.39963">
        <ele>134</ele>
        <time>2025-06-12T04:33:12Z</time>
      </trkpt>
      <trkpt lat="43.644" lon="1.39963">
        <ele>135</ele>
        <time>2025-06-12T04:33:13Z</time>
      </trkpt>
      <trkpt lat="43.64397" lon="1.39962">
        <ele>135</ele>
        <time>2025-06-12T04:33:14Z</time>
      </trkpt>
      <trkpt lat="43.64395" lon="1.39962">
        <ele>135</ele>
        <time>2025-06-12T04:33:15Z</time>
      </trkpt>
      <trkpt lat="43.64392" lon="1.39962">
        <ele>135</ele>
        <time>2025-06-12T04:33:16Z</time>
      </trkpt>
      <trkpt lat="43.6439" lon="1.39961">
        <ele>135</ele>
        <time>2025-06-12T04:33:17Z</time>
      </trkpt>
      <trkpt lat="43.64388" lon="1.39961">
        <ele>135</ele>
        <time>2025-06-12T04:33:18Z</time>
      </trkpt>
      <trkpt lat="43.64386" lon="1.3996">
        <ele>135</ele>
        <time>2025-06-12T04:33:19Z</time>
      </trkpt>
      <trkpt lat="43.64383" lon="1.3996">
        <ele>135</ele>
        <time>2025-06-12T04:33:20Z</time>
      </trkpt>
      <trkpt lat="43.64381" lon="1.39959">
        <ele>135</ele>
        <time>2025-06-12T04:33:21Z</time>
      </trkpt>
      <trkpt lat="43.64378" lon="1.39959">
        <ele>135</ele>
        <time>2025-06-12T04:33:22Z</time>
      </trkpt>
      <trkpt lat="43.64376" lon="1.39959">
        <ele>135</ele>
        <time>2025-06-12T04:33:23Z</time>
      </trkpt>
      <trkpt lat="43.64373" lon="1.39959">
        <ele>135</ele>
        <time>2025-06-12T04:33:24Z</time>
      </trkpt>
      <trkpt lat="43.64371" lon="1.39959">
        <ele>135</ele>
        <time>2025-06-12T04:33:25Z</time>
      </trkpt>
      <trkpt lat="43.64368" lon="1.39959">
        <ele>135</ele>
        <time>2025-06-12T04:33:26Z</time>
      </trkpt>
      <trkpt lat="43.64365" lon="1.39959">
        <ele>135</ele>
        <time>2025-06-12T04:33:27Z</time>
      </trkpt>
      <trkpt lat="43.64362" lon="1.39959">
        <ele>135</ele>
        <time>2025-06-12T04:33:28Z</time>
      </trkpt>
      <trkpt lat="43.6436" lon="1.39958">
        <ele>135</ele>
        <time>2025-06-12T04:33:29Z</time>
      </trkpt>
      <trkpt lat="43.64357" lon="1.39956">
        <ele>135</ele>
        <time>2025-06-12T04:33:30Z</time>
      </trkpt>
      <trkpt lat="43.64351" lon="1.39954">
        <ele>135</ele>
        <time>2025-06-12T04:33:31Z</time>
      </trkpt>
      <trkpt lat="43.64351" lon="1.39954">
        <ele>135</ele>
        <time>2025-06-12T04:33:32Z</time>
      </trkpt>
      <trkpt lat="43.64348" lon="1.39953">
        <ele>135</ele>
        <time>2025-06-12T04:33:33Z</time>
      </trkpt>
      <trkpt lat="43.64346" lon="1.39952">
        <ele>135</ele>
        <time>2025-06-12T04:33:34Z</time>
      </trkpt>
      <trkpt lat="43.64343" lon="1.39952">
        <ele>135</ele>
        <time>2025-06-12T04:33:35Z</time>
      </trkpt>
      <trkpt lat="43.64341" lon="1.39951">
        <ele>135</ele>
        <time>2025-06-12T04:33:36Z</time>
      </trkpt>
      <trkpt lat="43.64338" lon="1.3995">
        <ele>135</ele>
        <time>2025-06-12T04:33:37Z</time>
      </trkpt>
      <trkpt lat="43.64335" lon="1.39949">
        <ele>135</ele>
        <time>2025-06-12T04:33:38Z</time>
      </trkpt>
      <trkpt lat="43.64333" lon="1.39949">
        <ele>135</ele>
        <time>2025-06-12T04:33:39Z</time>
      </trkpt>
      <trkpt lat="43.6433" lon="1.39948">
        <ele>135</ele>
        <time>2025-06-12T04:33:40Z</time>
      </trkpt>
      <trkpt lat="43.64328" lon="1.39948">
        <ele>135</ele>
        <time>2025-06-12T04:33:41Z</time>
      </trkpt>
      <trkpt lat="43.64326" lon="1.39947">
        <ele>135</ele>
        <time>2025-06-12T04:33:42Z</time>
      </trkpt>
      <trkpt lat="43.64324" lon="1.39946">
        <ele>135</ele>
        <time>2025-06-12T04:33:43Z</time>
      </trkpt>
      <trkpt lat="43.64321" lon="1.39945">
        <ele>135</ele>
        <time>2025-06-12T04:33:44Z</time>
      </trkpt>
      <trkpt lat="43.6432" lon="1.39944">
        <ele>135</ele>
        <time>2025-06-12T04:33:45Z</time>
      </trkpt>
      <trkpt lat="43.64317" lon="1.39942">
        <ele>135</ele>
        <time>2025-06-12T04:33:46Z</time>
      </trkpt>
      <trkpt lat="43.64315" lon="1.39941">
        <ele>135</ele>
        <time>2025-06-12T04:33:47Z</time>
      </trkpt>
      <trkpt lat="43.64313" lon="1.3994">
        <ele>135</ele>
        <time>2025-06-12T04:33:48Z</time>
      </trkpt>
      <trkpt lat="43.64313" lon="1.3994">
        <ele>135</ele>
        <time>2025-06-12T04:33:49Z</time>
      </trkpt>
      <trkpt lat="43.6431" lon="1.39939">
        <ele>135</ele>
        <time>2025-06-12T04:33:50Z</time>
      </trkpt>
      <trkpt lat="43.64308" lon="1.39939">
        <ele>135</ele>
        <time>2025-06-12T04:33:51Z</time>
      </trkpt>
      <trkpt lat="43.64306" lon="1.39938">
        <ele>135</ele>
        <time>2025-06-12T04:33:52Z</time>
      </trkpt>
      <trkpt lat="43.64304" lon="1.39938">
        <ele>135</ele>
        <time>2025-06-12T04:33:53Z</time>
      </trkpt>
      <trkpt lat="43.64301" lon="1.39937">
        <ele>135</ele>
        <time>2025-06-12T04:33:54Z</time>
      </trkpt>
      <trkpt lat="43.64298" lon="1.39936">
        <ele>135</ele>
        <time>2025-06-12T04:33:55Z</time>
      </trkpt>
      <trkpt lat="43.64296" lon="1.39935">
        <ele>135</ele>
        <time>2025-06-12T04:33:56Z</time>
      </trkpt>
      <trkpt lat="43.64293" lon="1.39934">
        <ele>135</ele>
        <time>2025-06-12T04:33:57Z</time>
      </trkpt>
      <trkpt lat="43.6429" lon="1.39933">
        <ele>135</ele>
        <time>2025-06-12T04:33:58Z</time>
      </trkpt>
      <trkpt lat="43.64287" lon="1.39932">
        <ele>135</ele>
        <time>2025-06-12T04:33:59Z</time>
      </trkpt>
      <trkpt lat="43.64284" lon="1.39933">
        <ele>135</ele>
        <time>2025-06-12T04:34:00Z</time>
      </trkpt>
      <trkpt lat="43.6428" lon="1.39932">
        <ele>135</ele>
        <time>2025-06-12T04:34:01Z</time>
      </trkpt>
      <trkpt lat="43.64277" lon="1.39931">
        <ele>135</ele>
        <time>2025-06-12T04:34:02Z</time>
      </trkpt>
      <trkpt lat="43.64274" lon="1.39931">
        <ele>135</ele>
        <time>2025-06-12T04:34:03Z</time>
      </trkpt>
      <trkpt lat="43.64271" lon="1.39931">
        <ele>135</ele>
        <time>2025-06-12T04:34:04Z</time>
      </trkpt>
      <trkpt lat="43.64267" lon="1.3993">
        <ele>135</ele>
        <time>2025-06-12T04:34:05Z</time>
      </trkpt>
      <trkpt lat="43.64264" lon="1.3993">
        <ele>135</ele>
        <time>2025-06-12T04:34:06Z</time>
      </trkpt>
      <trkpt lat="43.64261" lon="1.3993">
        <ele>135</ele>
        <time>2025-06-12T04:34:07Z</time>
      </trkpt>
      <trkpt lat="43.64259" lon="1.3993">
        <ele>135</ele>
        <time>2025-06-12T04:34:08Z</time>
      </trkpt>
      <trkpt lat="43.64253" lon="1.3993">
        <ele>135</ele>
        <time>2025-06-12T04:34:09Z</time>
      </trkpt>
      <trkpt lat="43.64253" lon="1.3993">
        <ele>136</ele>
        <time>2025-06-12T04:34:10Z</time>
      </trkpt>
      <trkpt lat="43.64251" lon="1.3993">
        <ele>136</ele>
        <time>2025-06-12T04:34:11Z</time>
      </trkpt>
      <trkpt lat="43.64248" lon="1.39931">
        <ele>136</ele>
        <time>2025-06-12T04:34:12Z</time>
      </trkpt>
      <trkpt lat="43.64246" lon="1.39931">
        <ele>136</ele>
        <time>2025-06-12T04:34:13Z</time>
      </trkpt>
      <trkpt lat="43.64244" lon="1.39932">
        <ele>136</ele>
        <time>2025-06-12T04:34:14Z</time>
      </trkpt>
      <trkpt lat="43.64241" lon="1.39933">
        <ele>135</ele>
        <time>2025-06-12T04:34:15Z</time>
      </trkpt>
      <trkpt lat="43.64239" lon="1.39934">
        <ele>135</ele>
        <time>2025-06-12T04:34:16Z</time>
      </trkpt>
      <trkpt lat="43.64236" lon="1.39935">
        <ele>135</ele>
        <time>2025-06-12T04:34:17Z</time>
      </trkpt>
      <trkpt lat="43.64234" lon="1.39937">
        <ele>135</ele>
        <time>2025-06-12T04:34:18Z</time>
      </trkpt>
      <trkpt lat="43.64231" lon="1.39938">
        <ele>135</ele>
        <time>2025-06-12T04:34:19Z</time>
      </trkpt>
      <trkpt lat="43.64228" lon="1.3994">
        <ele>135</ele>
        <time>2025-06-12T04:34:20Z</time>
      </trkpt>
      <trkpt lat="43.64225" lon="1.39942">
        <ele>135</ele>
        <time>2025-06-12T04:34:21Z</time>
      </trkpt>
      <trkpt lat="43.64223" lon="1.39944">
        <ele>135</ele>
        <time>2025-06-12T04:34:22Z</time>
      </trkpt>
      <trkpt lat="43.64221" lon="1.39947">
        <ele>135</ele>
        <time>2025-06-12T04:34:23Z</time>
      </trkpt>
      <trkpt lat="43.64218" lon="1.39949">
        <ele>135</ele>
        <time>2025-06-12T04:34:24Z</time>
      </trkpt>
      <trkpt lat="43.64216" lon="1.39952">
        <ele>135</ele>
        <time>2025-06-12T04:34:25Z</time>
      </trkpt>
      <trkpt lat="43.64214" lon="1.39954">
        <ele>135</ele>
        <time>2025-06-12T04:34:26Z</time>
      </trkpt>
      <trkpt lat="43.64212" lon="1.39956">
        <ele>135</ele>
        <time>2025-06-12T04:34:27Z</time>
      </trkpt>
      <trkpt lat="43.64207" lon="1.39961">
        <ele>135</ele>
        <time>2025-06-12T04:34:28Z</time>
      </trkpt>
      <trkpt lat="43.64207" lon="1.39961">
        <ele>135</ele>
        <time>2025-06-12T04:34:29Z</time>
      </trkpt>
      <trkpt lat="43.64205" lon="1.39963">
        <ele>135</ele>
        <time>2025-06-12T04:34:30Z</time>
      </trkpt>
      <trkpt lat="43.64203" lon="1.39965">
        <ele>135</ele>
        <time>2025-06-12T04:34:31Z</time>
      </trkpt>
      <trkpt lat="43.642" lon="1.39967">
        <ele>135</ele>
        <time>2025-06-12T04:34:32Z</time>
      </trkpt>
      <trkpt lat="43.64198" lon="1.39967">
        <ele>135</ele>
        <time>2025-06-12T04:34:33Z</time>
      </trkpt>
      <trkpt lat="43.64195" lon="1.39969">
        <ele>135</ele>
        <time>2025-06-12T04:34:34Z</time>
      </trkpt>
      <trkpt lat="43.64193" lon="1.3997">
        <ele>135</ele>
        <time>2025-06-12T04:34:35Z</time>
      </trkpt>
      <trkpt lat="43.6419" lon="1.39971">
        <ele>135</ele>
        <time>2025-06-12T04:34:36Z</time>
      </trkpt>
      <trkpt lat="43.64188" lon="1.39972">
        <ele>135</ele>
        <time>2025-06-12T04:34:37Z</time>
      </trkpt>
      <trkpt lat="43.64185" lon="1.39973">
        <ele>135</ele>
        <time>2025-06-12T04:34:38Z</time>
      </trkpt>
      <trkpt lat="43.64182" lon="1.39974">
        <ele>135</ele>
        <time>2025-06-12T04:34:39Z</time>
      </trkpt>
      <trkpt lat="43.6418" lon="1.39974">
        <ele>135</ele>
        <time>2025-06-12T04:34:40Z</time>
      </trkpt>
      <trkpt lat="43.64177" lon="1.39975">
        <ele>135</ele>
        <time>2025-06-12T04:34:41Z</time>
      </trkpt>
      <trkpt lat="43.64174" lon="1.39975">
        <ele>135</ele>
        <time>2025-06-12T04:34:42Z</time>
      </trkpt>
      <trkpt lat="43.64171" lon="1.39976">
        <ele>135</ele>
        <time>2025-06-12T04:34:43Z</time>
      </trkpt>
      <trkpt lat="43.64169" lon="1.39977">
        <ele>135</ele>
        <time>2025-06-12T04:34:44Z</time>
      </trkpt>
      <trkpt lat="43.64166" lon="1.39979">
        <ele>135</ele>
        <time>2025-06-12T04:34:45Z</time>
      </trkpt>
      <trkpt lat="43.64164" lon="1.39979">
        <ele>135</ele>
        <time>2025-06-12T04:34:46Z</time>
      </trkpt>
      <trkpt lat="43.64161" lon="1.3998">
        <ele>135</ele>
        <time>2025-06-12T04:34:47Z</time>
      </trkpt>
      <trkpt lat="43.64158" lon="1.39982">
        <ele>135</ele>
        <time>2025-06-12T04:34:48Z</time>
      </trkpt>
      <trkpt lat="43.64155" lon="1.39983">
        <ele>135</ele>
        <time>2025-06-12T04:34:49Z</time>
      </trkpt>
      <trkpt lat="43.64153" lon="1.39984">
        <ele>135</ele>
        <time>2025-06-12T04:34:50Z</time>
      </trkpt>
      <trkpt lat="43.64151" lon="1.39984">
        <ele>135</ele>
        <time>2025-06-12T04:34:51Z</time>
      </trkpt>
      <trkpt lat="43.64148" lon="1.39985">
        <ele>135</ele>
        <time>2025-06-12T04:34:52Z</time>
      </trkpt>
      <trkpt lat="43.64146" lon="1.39986">
        <ele>135</ele>
        <time>2025-06-12T04:34:53Z</time>
      </trkpt>
      <trkpt lat="43.64144" lon="1.39987">
        <ele>135</ele>
        <time>2025-06-12T04:34:54Z</time>
      </trkpt>
      <trkpt lat="43.64142" lon="1.39987">
        <ele>135</ele>
        <time>2025-06-12T04:34:55Z</time>
      </trkpt>
      <trkpt lat="43.6414" lon="1.39987">
        <ele>135</ele>
        <time>2025-06-12T04:34:56Z</time>
      </trkpt>
      <trkpt lat="43.64138" lon="1.39988">
        <ele>136</ele>
        <time>2025-06-12T04:34:57Z</time>
      </trkpt>
      <trkpt lat="43.64136" lon="1.39989">
        <ele>136</ele>
        <time>2025-06-12T04:34:58Z</time>
      </trkpt>
      <trkpt lat="43.64133" lon="1.39989">
        <ele>137</ele>
        <time>2025-06-12T04:34:59Z</time>
      </trkpt>
      <trkpt lat="43.6413" lon="1.39989">
        <ele>137</ele>
        <time>2025-06-12T04:35:00Z</time>
      </trkpt>
      <trkpt lat="43.64128" lon="1.3999">
        <ele>137</ele>
        <time>2025-06-12T04:35:01Z</time>
      </trkpt>
      <trkpt lat="43.64125" lon="1.39991">
        <ele>137</ele>
        <time>2025-06-12T04:35:02Z</time>
      </trkpt>
      <trkpt lat="43.64123" lon="1.39994">
        <ele>137</ele>
        <time>2025-06-12T04:35:03Z</time>
      </trkpt>
      <trkpt lat="43.64121" lon="1.39996">
        <ele>137</ele>
        <time>2025-06-12T04:35:04Z</time>
      </trkpt>
      <trkpt lat="43.64119" lon="1.39999">
        <ele>137</ele>
        <time>2025-06-12T04:35:05Z</time>
      </trkpt>
      <trkpt lat="43.64116" lon="1.40006">
        <ele>138</ele>
        <time>2025-06-12T04:35:06Z</time>
      </trkpt>
      <trkpt lat="43.64116" lon="1.40006">
        <ele>138</ele>
        <time>2025-06-12T04:35:07Z</time>
      </trkpt>
      <trkpt lat="43.64115" lon="1.40009">
        <ele>138</ele>
        <time>2025-06-12T04:35:08Z</time>
      </trkpt>
      <trkpt lat="43.64114" lon="1.40012">
        <ele>137</ele>
        <time>2025-06-12T04:35:09Z</time>
      </trkpt>
      <trkpt lat="43.64113" lon="1.40015">
        <ele>137</ele>
        <time>2025-06-12T04:35:10Z</time>
      </trkpt>
      <trkpt lat="43.64112" lon="1.40018">
        <ele>137</ele>
        <time>2025-06-12T04:35:11Z</time>
      </trkpt>
      <trkpt lat="43.64111" lon="1.40022">
        <ele>137</ele>
        <time>2025-06-12T04:35:12Z</time>
      </trkpt>
      <trkpt lat="43.6411" lon="1.40025">
        <ele>137</ele>
        <time>2025-06-12T04:35:13Z</time>
      </trkpt>
      <trkpt lat="43.64108" lon="1.40028">
        <ele>137</ele>
        <time>2025-06-12T04:35:14Z</time>
      </trkpt>
      <trkpt lat="43.64107" lon="1.40031">
        <ele>137</ele>
        <time>2025-06-12T04:35:15Z</time>
      </trkpt>
      <trkpt lat="43.64106" lon="1.40035">
        <ele>137</ele>
        <time>2025-06-12T04:35:16Z</time>
      </trkpt>
      <trkpt lat="43.64104" lon="1.40038">
        <ele>138</ele>
        <time>2025-06-12T04:35:17Z</time>
      </trkpt>
      <trkpt lat="43.64103" lon="1.40041">
        <ele>138</ele>
        <time>2025-06-12T04:35:18Z</time>
      </trkpt>
      <trkpt lat="43.64102" lon="1.40044">
        <ele>138</ele>
        <time>2025-06-12T04:35:19Z</time>
      </trkpt>
      <trkpt lat="43.64101" lon="1.40047">
        <ele>138</ele>
        <time>2025-06-12T04:35:20Z</time>
      </trkpt>
      <trkpt lat="43.64099" lon="1.4005">
        <ele>138</ele>
        <time>2025-06-12T04:35:21Z</time>
      </trkpt>
      <trkpt lat="43.64098" lon="1.40053">
        <ele>138</ele>
        <time>2025-06-12T04:35:22Z</time>
      </trkpt>
      <trkpt lat="43.64096" lon="1.40056">
        <ele>138</ele>
        <time>2025-06-12T04:35:23Z</time>
      </trkpt>
      <trkpt lat="43.64094" lon="1.40059">
        <ele>138</ele>
        <time>2025-06-12T04:35:24Z</time>
      </trkpt>
      <trkpt lat="43.64092" lon="1.40062">
        <ele>138</ele>
        <time>2025-06-12T04:35:25Z</time>
      </trkpt>
      <trkpt lat="43.6409" lon="1.40065">
        <ele>138</ele>
        <time>2025-06-12T04:35:26Z</time>
      </trkpt>
      <trkpt lat="43.64088" lon="1.40067">
        <ele>138</ele>
        <time>2025-06-12T04:35:27Z</time>
      </trkpt>
      <trkpt lat="43.64086" lon="1.4007">
        <ele>138</ele>
        <time>2025-06-12T04:35:28Z</time>
      </trkpt>
      <trkpt lat="43.64084" lon="1.40072">
        <ele>138</ele>
        <time>2025-06-12T04:35:29Z</time>
      </trkpt>
      <trkpt lat="43.64082" lon="1.40074">
        <ele>138</ele>
        <time>2025-06-12T04:35:30Z</time>
      </trkpt>
      <trkpt lat="43.6408" lon="1.40077">
        <ele>138</ele>
        <time>2025-06-12T04:35:31Z</time>
      </trkpt>
      <trkpt lat="43.64077" lon="1.40079">
        <ele>138</ele>
        <time>2025-06-12T04:35:32Z</time>
      </trkpt>
      <trkpt lat="43.64075" lon="1.40081">
        <ele>138</ele>
        <time>2025-06-12T04:35:33Z</time>
      </trkpt>
      <trkpt lat="43.64073" lon="1.40083">
        <ele>138</ele>
        <time>2025-06-12T04:35:34Z</time>
      </trkpt>
      <trkpt lat="43.6407" lon="1.40085">
        <ele>138</ele>
        <time>2025-06-12T04:35:35Z</time>
      </trkpt>
      <trkpt lat="43.64068" lon="1.40087">
        <ele>138</ele>
        <time>2025-06-12T04:35:36Z</time>
      </trkpt>
      <trkpt lat="43.64066" lon="1.40089">
        <ele>137</ele>
        <time>2025-06-12T04:35:37Z</time>
      </trkpt>
      <trkpt lat="43.64064" lon="1.40092">
        <ele>137</ele>
        <time>2025-06-12T04:35:38Z</time>
      </trkpt>
      <trkpt lat="43.64061" lon="1.40094">
        <ele>137</ele>
        <time>2025-06-12T04:35:39Z</time>
      </trkpt>
      <trkpt lat="43.64059" lon="1.40096">
        <ele>137</ele>
        <time>2025-06-12T04:35:40Z</time>
      </trkpt>
      <trkpt lat="43.64057" lon="1.40098">
        <ele>137</ele>
        <time>2025-06-12T04:35:41Z</time>
      </trkpt>
      <trkpt lat="43.64055" lon="1.401">
        <ele>137</ele>
        <time>2025-06-12T04:35:42Z</time>
      </trkpt>
      <trkpt lat="43.64053" lon="1.40103">
        <ele>137</ele>
        <time>2025-06-12T04:35:43Z</time>
      </trkpt>
      <trkpt lat="43.64049" lon="1.40107">
        <ele>138</ele>
        <time>2025-06-12T04:35:44Z</time>
      </trkpt>
      <trkpt lat="43.64049" lon="1.40107">
        <ele>138</ele>
        <time>2025-06-12T04:35:45Z</time>
      </trkpt>
      <trkpt lat="43.64047" lon="1.40109">
        <ele>138</ele>
        <time>2025-06-12T04:35:46Z</time>
      </trkpt>
      <trkpt lat="43.64045" lon="1.40111">
        <ele>137</ele>
        <time>2025-06-12T04:35:47Z</time>
      </trkpt>
      <trkpt lat="43.64043" lon="1.40114">
        <ele>137</ele>
        <time>2025-06-12T04:35:48Z</time>
      </trkpt>
      <trkpt lat="43.6404" lon="1.40116">
        <ele>137</ele>
        <time>2025-06-12T04:35:49Z</time>
      </trkpt>
      <trkpt lat="43.64038" lon="1.40118">
        <ele>137</ele>
        <time>2025-06-12T04:35:50Z</time>
      </trkpt>
      <trkpt lat="43.64036" lon="1.4012">
        <ele>137</ele>
        <time>2025-06-12T04:35:51Z</time>
      </trkpt>
      <trkpt lat="43.64034" lon="1.40122">
        <ele>138</ele>
        <time>2025-06-12T04:35:52Z</time>
      </trkpt>
      <trkpt lat="43.64032" lon="1.40125">
        <ele>138</ele>
        <time>2025-06-12T04:35:53Z</time>
      </trkpt>
      <trkpt lat="43.6403" lon="1.40127">
        <ele>138</ele>
        <time>2025-06-12T04:35:54Z</time>
      </trkpt>
      <trkpt lat="43.64027" lon="1.40129">
        <ele>138</ele>
        <time>2025-06-12T04:35:55Z</time>
      </trkpt>
      <trkpt lat="43.64025" lon="1.40131">
        <ele>138</ele>
        <time>2025-06-12T04:35:56Z</time>
      </trkpt>
      <trkpt lat="43.64023" lon="1.40134">
        <ele>138</ele>
        <time>2025-06-12T04:35:57Z</time>
      </trkpt>
      <trkpt lat="43.64021" lon="1.40136">
        <ele>138</ele>
        <time>2025-06-12T04:35:58Z</time>
      </trkpt>
      <trkpt lat="43.64019" lon="1.40139">
        <ele>138</ele>
        <time>2025-06-12T04:35:59Z</time>
      </trkpt>
      <trkpt lat="43.64017" lon="1.40142">
        <ele>138</ele>
        <time>2025-06-12T04:36:00Z</time>
      </trkpt>
      <trkpt lat="43.64015" lon="1.40144">
        <ele>138</ele>
        <time>2025-06-12T04:36:01Z</time>
      </trkpt>
      <trkpt lat="43.64013" lon="1.40146">
        <ele>138</ele>
        <time>2025-06-12T04:36:02Z</time>
      </trkpt>
      <trkpt lat="43.64008" lon="1.4015">
        <ele>138</ele>
        <time>2025-06-12T04:36:03Z</time>
      </trkpt>
      <trkpt lat="43.64008" lon="1.4015">
        <ele>138</ele>
        <time>2025-06-12T04:36:04Z</time>
      </trkpt>
      <trkpt lat="43.64005" lon="1.40152">
        <ele>138</ele>
        <time>2025-06-12T04:36:05Z</time>
      </trkpt>
      <trkpt lat="43.64003" lon="1.40154">
        <ele>138</ele>
        <time>2025-06-12T04:36:06Z</time>
      </trkpt>
      <trkpt lat="43.64001" lon="1.40155">
        <ele>138</ele>
        <time>2025-06-12T04:36:07Z</time>
      </trkpt>
      <trkpt lat="43.63999" lon="1.40157">
        <ele>138</ele>
        <time>2025-06-12T04:36:08Z</time>
      </trkpt>
      <trkpt lat="43.63994" lon="1.40161">
        <ele>138</ele>
        <time>2025-06-12T04:36:09Z</time>
      </trkpt>
      <trkpt lat="43.63994" lon="1.40161">
        <ele>138</ele>
        <time>2025-06-12T04:36:10Z</time>
      </trkpt>
      <trkpt lat="43.63993" lon="1.40163">
        <ele>138</ele>
        <time>2025-06-12T04:36:11Z</time>
      </trkpt>
      <trkpt lat="43.63991" lon="1.40166">
        <ele>138</ele>
        <time>2025-06-12T04:36:12Z</time>
      </trkpt>
      <trkpt lat="43.63989" lon="1.40168">
        <ele>138</ele>
        <time>2025-06-12T04:36:13Z</time>
      </trkpt>
      <trkpt lat="43.63987" lon="1.4017">
        <ele>138</ele>
        <time>2025-06-12T04:36:14Z</time>
      </trkpt>
      <trkpt lat="43.63985" lon="1.40172">
        <ele>138</ele>
        <time>2025-06-12T04:36:15Z</time>
      </trkpt>
      <trkpt lat="43.63982" lon="1.40175">
        <ele>138</ele>
        <time>2025-06-12T04:36:16Z</time>
      </trkpt>
      <trkpt lat="43.6398" lon="1.40177">
        <ele>138</ele>
        <time>2025-06-12T04:36:17Z</time>
      </trkpt>
      <trkpt lat="43.63978" lon="1.40179">
        <ele>138</ele>
        <time>2025-06-12T04:36:18Z</time>
      </trkpt>
      <trkpt lat="43.63976" lon="1.40181">
        <ele>138</ele>
        <time>2025-06-12T04:36:19Z</time>
      </trkpt>
      <trkpt lat="43.63973" lon="1.40184">
        <ele>138</ele>
        <time>2025-06-12T04:36:20Z</time>
      </trkpt>
      <trkpt lat="43.63971" lon="1.40186">
        <ele>138</ele>
        <time>2025-06-12T04:36:21Z</time>
      </trkpt>
      <trkpt lat="43.63969" lon="1.40189">
        <ele>138</ele>
        <time>2025-06-12T04:36:22Z</time>
      </trkpt>
      <trkpt lat="43.63967" lon="1.40191">
        <ele>138</ele>
        <time>2025-06-12T04:36:23Z</time>
      </trkpt>
      <trkpt lat="43.63965" lon="1.40193">
        <ele>138</ele>
        <time>2025-06-12T04:36:24Z</time>
      </trkpt>
      <trkpt lat="43.63963" lon="1.40195">
        <ele>138</ele>
        <time>2025-06-12T04:36:25Z</time>
      </trkpt>
      <trkpt lat="43.6396" lon="1.40196">
        <ele>138</ele>
        <time>2025-06-12T04:36:26Z</time>
      </trkpt>
      <trkpt lat="43.63958" lon="1.40198">
        <ele>138</ele>
        <time>2025-06-12T04:36:27Z</time>
      </trkpt>
      <trkpt lat="43.63955" lon="1.402">
        <ele>138</ele>
        <time>2025-06-12T04:36:28Z</time>
      </trkpt>
      <trkpt lat="43.63953" lon="1.40202">
        <ele>138</ele>
        <time>2025-06-12T04:36:29Z</time>
      </trkpt>
      <trkpt lat="43.63951" lon="1.40204">
        <ele>138</ele>
        <time>2025-06-12T04:36:30Z</time>
      </trkpt>
      <trkpt lat="43.63949" lon="1.40206">
        <ele>138</ele>
        <time>2025-06-12T04:36:31Z</time>
      </trkpt>
      <trkpt lat="43.63946" lon="1.40208">
        <ele>138</ele>
        <time>2025-06-12T04:36:32Z</time>
      </trkpt>
      <trkpt lat="43.63944" lon="1.40209">
        <ele>138</ele>
        <time>2025-06-12T04:36:33Z</time>
      </trkpt>
      <trkpt lat="43.63941" lon="1.4021">
        <ele>138</ele>
        <time>2025-06-12T04:36:34Z</time>
      </trkpt>
      <trkpt lat="43.63939" lon="1.40211">
        <ele>138</ele>
        <time>2025-06-12T04:36:35Z</time>
      </trkpt>
      <trkpt lat="43.63937" lon="1.40212">
        <ele>138</ele>
        <time>2025-06-12T04:36:36Z</time>
      </trkpt>
      <trkpt lat="43.63934" lon="1.40214">
        <ele>138</ele>
        <time>2025-06-12T04:36:37Z</time>
      </trkpt>
      <trkpt lat="43.63932" lon="1.40215">
        <ele>138</ele>
        <time>2025-06-12T04:36:38Z</time>
      </trkpt>
      <trkpt lat="43.6393" lon="1.40217">
        <ele>138</ele>
        <time>2025-06-12T04:36:39Z</time>
      </trkpt>
      <trkpt lat="43.63927" lon="1.40219">
        <ele>138</ele>
        <time>2025-06-12T04:36:40Z</time>
      </trkpt>
      <trkpt lat="43.63923" lon="1.40223">
        <ele>138</ele>
        <time>2025-06-12T04:36:41Z</time>
      </trkpt>
      <trkpt lat="43.63923" lon="1.40223">
        <ele>138</ele>
        <time>2025-06-12T04:36:42Z</time>
      </trkpt>
      <trkpt lat="43.63921" lon="1.40224">
        <ele>138</ele>
        <time>2025-06-12T04:36:43Z</time>
      </trkpt>
      <trkpt lat="43.63919" lon="1.40226">
        <ele>138</ele>
        <time>2025-06-12T04:36:44Z</time>
      </trkpt>
      <trkpt lat="43.63916" lon="1.40227">
        <ele>138</ele>
        <time>2025-06-12T04:36:45Z</time>
      </trkpt>
      <trkpt lat="43.63914" lon="1.40228">
        <ele>138</ele>
        <time>2025-06-12T04:36:46Z</time>
      </trkpt>
      <trkpt lat="43.63911" lon="1.4023">
        <ele>138</ele>
        <time>2025-06-12T04:36:47Z</time>
      </trkpt>
      <trkpt lat="43.63908" lon="1.40231">
        <ele>138</ele>
        <time>2025-06-12T04:36:48Z</time>
      </trkpt>
      <trkpt lat="43.63906" lon="1.40232">
        <ele>138</ele>
        <time>2025-06-12T04:36:49Z</time>
      </trkpt>
      <trkpt lat="43.63903" lon="1.40233">
        <ele>138</ele>
        <time>2025-06-12T04:36:50Z</time>
      </trkpt>
      <trkpt lat="43.639" lon="1.40234">
        <ele>138</ele>
        <time>2025-06-12T04:36:51Z</time>
      </trkpt>
      <trkpt lat="43.63897" lon="1.40235">
        <ele>138</ele>
        <time>2025-06-12T04:36:52Z</time>
      </trkpt>
      <trkpt lat="43.63895" lon="1.40236">
        <ele>138</ele>
        <time>2025-06-12T04:36:53Z</time>
      </trkpt>
      <trkpt lat="43.63892" lon="1.40237">
        <ele>138</ele>
        <time>2025-06-12T04:36:54Z</time>
      </trkpt>
      <trkpt lat="43.63889" lon="1.40238">
        <ele>138</ele>
        <time>2025-06-12T04:36:55Z</time>
      </trkpt>
      <trkpt lat="43.63887" lon="1.40239">
        <ele>138</ele>
        <time>2025-06-12T04:36:56Z</time>
      </trkpt>
      <trkpt lat="43.63884" lon="1.4024">
        <ele>138</ele>
        <time>2025-06-12T04:36:57Z</time>
      </trkpt>
      <trkpt lat="43.63882" lon="1.4024">
        <ele>138</ele>
        <time>2025-06-12T04:36:58Z</time>
      </trkpt>
      <trkpt lat="43.63879" lon="1.40241">
        <ele>138</ele>
        <time>2025-06-12T04:36:59Z</time>
      </trkpt>
      <trkpt lat="43.63876" lon="1.40241">
        <ele>138</ele>
        <time>2025-06-12T04:37:00Z</time>
      </trkpt>
      <trkpt lat="43.63873" lon="1.40242">
        <ele>138</ele>
        <time>2025-06-12T04:37:01Z</time>
      </trkpt>
      <trkpt lat="43.63871" lon="1.40243">
        <ele>138</ele>
        <time>2025-06-12T04:37:02Z</time>
      </trkpt>
      <trkpt lat="43.63868" lon="1.40243">
        <ele>138</ele>
        <time>2025-06-12T04:37:03Z</time>
      </trkpt>
      <trkpt lat="43.63865" lon="1.40244">
        <ele>138</ele>
        <time>2025-06-12T04:37:04Z</time>
      </trkpt>
      <trkpt lat="43.63862" lon="1.40245">
        <ele>138</ele>
        <time>2025-06-12T04:37:05Z</time>
      </trkpt>
      <trkpt lat="43.6386" lon="1.40246">
        <ele>138</ele>
        <time>2025-06-12T04:37:06Z</time>
      </trkpt>
      <trkpt lat="43.63857" lon="1.40247">
        <ele>138</ele>
        <time>2025-06-12T04:37:07Z</time>
      </trkpt>
      <trkpt lat="43.63855" lon="1.40248">
        <ele>138</ele>
        <time>2025-06-12T04:37:08Z</time>
      </trkpt>
      <trkpt lat="43.63852" lon="1.40248">
        <ele>138</ele>
        <time>2025-06-12T04:37:09Z</time>
      </trkpt>
      <trkpt lat="43.63849" lon="1.40249">
        <ele>138</ele>
        <time>2025-06-12T04:37:10Z</time>
      </trkpt>
      <trkpt lat="43.63846" lon="1.4025">
        <ele>138</ele>
        <time>2025-06-12T04:37:11Z</time>
      </trkpt>
      <trkpt lat="43.63843" lon="1.4025">
        <ele>138</ele>
        <time>2025-06-12T04:37:12Z</time>
      </trkpt>
      <trkpt lat="43.6384" lon="1.40251">
        <ele>138</ele>
        <time>2025-06-12T04:37:13Z</time>
      </trkpt>
      <trkpt lat="43.63837" lon="1.40252">
        <ele>138</ele>
        <time>2025-06-12T04:37:14Z</time>
      </trkpt>
      <trkpt lat="43.63834" lon="1.40253">
        <ele>138</ele>
        <time>2025-06-12T04:37:15Z</time>
      </trkpt>
      <trkpt lat="43.63831" lon="1.40253">
        <ele>138</ele>
        <time>2025-06-12T04:37:16Z</time>
      </trkpt>
      <trkpt lat="43.63828" lon="1.40254">
        <ele>138</ele>
        <time>2025-06-12T04:37:17Z</time>
      </trkpt>
      <trkpt lat="43.63826" lon="1.40254">
        <ele>138</ele>
        <time>2025-06-12T04:37:18Z</time>
      </trkpt>
      <trkpt lat="43.6382" lon="1.40255">
        <ele>138</ele>
        <time>2025-06-12T04:37:19Z</time>
      </trkpt>
      <trkpt lat="43.6382" lon="1.40255">
        <ele>137</ele>
        <time>2025-06-12T04:37:20Z</time>
      </trkpt>
      <trkpt lat="43.63818" lon="1.40255">
        <ele>137</ele>
        <time>2025-06-12T04:37:21Z</time>
      </trkpt>
      <trkpt lat="43.63815" lon="1.40256">
        <ele>137</ele>
        <time>2025-06-12T04:37:22Z</time>
      </trkpt>
      <trkpt lat="43.63813" lon="1.40257">
        <ele>137</ele>
        <time>2025-06-12T04:37:23Z</time>
      </trkpt>
      <trkpt lat="43.6381" lon="1.40257">
        <ele>137</ele>
        <time>2025-06-12T04:37:24Z</time>
      </trkpt>
      <trkpt lat="43.63807" lon="1.40258">
        <ele>137</ele>
        <time>2025-06-12T04:37:25Z</time>
      </trkpt>
      <trkpt lat="43.63805" lon="1.40259">
        <ele>137</ele>
        <time>2025-06-12T04:37:26Z</time>
      </trkpt>
      <trkpt lat="43.63802" lon="1.40259">
        <ele>137</ele>
        <time>2025-06-12T04:37:27Z</time>
      </trkpt>
      <trkpt lat="43.638" lon="1.4026">
        <ele>137</ele>
        <time>2025-06-12T04:37:28Z</time>
      </trkpt>
      <trkpt lat="43.63797" lon="1.4026">
        <ele>137</ele>
        <time>2025-06-12T04:37:29Z</time>
      </trkpt>
      <trkpt lat="43.63794" lon="1.40261">
        <ele>137</ele>
        <time>2025-06-12T04:37:30Z</time>
      </trkpt>
      <trkpt lat="43.63792" lon="1.40261">
        <ele>137</ele>
        <time>2025-06-12T04:37:31Z</time>
      </trkpt>
      <trkpt lat="43.63789" lon="1.40261">
        <ele>137</ele>
        <time>2025-06-12T04:37:32Z</time>
      </trkpt>
      <trkpt lat="43.63786" lon="1.40262">
        <ele>137</ele>
        <time>2025-06-12T04:37:33Z</time>
      </trkpt>
      <trkpt lat="43.63784" lon="1.40262">
        <ele>137</ele>
        <time>2025-06-12T04:37:34Z</time>
      </trkpt>
      <trkpt lat="43.63781" lon="1.40262">
        <ele>137</ele>
        <time>2025-06-12T04:37:35Z</time>
      </trkpt>
      <trkpt lat="43.63778" lon="1.40262">
        <ele>137</ele>
        <time>2025-06-12T04:37:36Z</time>
      </trkpt>
      <trkpt lat="43.63775" lon="1.40263">
        <ele>137</ele>
        <time>2025-06-12T04:37:37Z</time>
      </trkpt>
      <trkpt lat="43.6377" lon="1.40264">
        <ele>137</ele>
        <time>2025-06-12T04:37:38Z</time>
      </trkpt>
      <trkpt lat="43.6377" lon="1.40264">
        <ele>137</ele>
        <time>2025-06-12T04:37:39Z</time>
      </trkpt>
      <trkpt lat="43.63767" lon="1.40264">
        <ele>137</ele>
        <time>2025-06-12T04:37:40Z</time>
      </trkpt>
      <trkpt lat="43.63764" lon="1.40265">
        <ele>136</ele>
        <time>2025-06-12T04:37:41Z</time>
      </trkpt>
      <trkpt lat="43.63762" lon="1.40265">
        <ele>136</ele>
        <time>2025-06-12T04:37:42Z</time>
      </trkpt>
      <trkpt lat="43.63759" lon="1.40265">
        <ele>136</ele>
        <time>2025-06-12T04:37:43Z</time>
      </trkpt>
      <trkpt lat="43.63757" lon="1.40266">
        <ele>137</ele>
        <time>2025-06-12T04:37:44Z</time>
      </trkpt>
      <trkpt lat="43.63754" lon="1.40267">
        <ele>137</ele>
        <time>2025-06-12T04:37:45Z</time>
      </trkpt>
      <trkpt lat="43.63751" lon="1.40268">
        <ele>137</ele>
        <time>2025-06-12T04:37:46Z</time>
      </trkpt>
      <trkpt lat="43.63749" lon="1.40268">
        <ele>137</ele>
        <time>2025-06-12T04:37:47Z</time>
      </trkpt>
      <trkpt lat="43.63746" lon="1.40269">
        <ele>137</ele>
        <time>2025-06-12T04:37:48Z</time>
      </trkpt>
      <trkpt lat="43.63744" lon="1.40269">
        <ele>137</ele>
        <time>2025-06-12T04:37:49Z</time>
      </trkpt>
      <trkpt lat="43.63741" lon="1.40269">
        <ele>137</ele>
        <time>2025-06-12T04:37:50Z</time>
      </trkpt>
      <trkpt lat="43.63738" lon="1.4027">
        <ele>137</ele>
        <time>2025-06-12T04:37:51Z</time>
      </trkpt>
      <trkpt lat="43.63735" lon="1.4027">
        <ele>137</ele>
        <time>2025-06-12T04:37:52Z</time>
      </trkpt>
      <trkpt lat="43.63733" lon="1.40271">
        <ele>137</ele>
        <time>2025-06-12T04:37:53Z</time>
      </trkpt>
      <trkpt lat="43.6373" lon="1.40271">
        <ele>137</ele>
        <time>2025-06-12T04:37:54Z</time>
      </trkpt>
      <trkpt lat="43.63727" lon="1.40272">
        <ele>138</ele>
        <time>2025-06-12T04:37:55Z</time>
      </trkpt>
      <trkpt lat="43.63724" lon="1.40272">
        <ele>138</ele>
        <time>2025-06-12T04:37:56Z</time>
      </trkpt>
      <trkpt lat="43.63719" lon="1.40273">
        <ele>138</ele>
        <time>2025-06-12T04:37:57Z</time>
      </trkpt>
      <trkpt lat="43.63716" lon="1.40274">
        <ele>138</ele>
        <time>2025-06-12T04:37:58Z</time>
      </trkpt>
      <trkpt lat="43.63716" lon="1.40274">
        <ele>138</ele>
        <time>2025-06-12T04:37:59Z</time>
      </trkpt>
      <trkpt lat="43.63713" lon="1.40274">
        <ele>138</ele>
        <time>2025-06-12T04:38:00Z</time>
      </trkpt>
      <trkpt lat="43.63711" lon="1.40274">
        <ele>138</ele>
        <time>2025-06-12T04:38:01Z</time>
      </trkpt>
      <trkpt lat="43.63708" lon="1.40275">
        <ele>137</ele>
        <time>2025-06-12T04:38:02Z</time>
      </trkpt>
      <trkpt lat="43.63705" lon="1.40275">
        <ele>137</ele>
        <time>2025-06-12T04:38:03Z</time>
      </trkpt>
      <trkpt lat="43.63702" lon="1.40275">
        <ele>138</ele>
        <time>2025-06-12T04:38:04Z</time>
      </trkpt>
      <trkpt lat="43.637" lon="1.40276">
        <ele>138</ele>
        <time>2025-06-12T04:38:05Z</time>
      </trkpt>
      <trkpt lat="43.63697" lon="1.40276">
        <ele>138</ele>
        <time>2025-06-12T04:38:06Z</time>
      </trkpt>
      <trkpt lat="43.63694" lon="1.40277">
        <ele>138</ele>
        <time>2025-06-12T04:38:07Z</time>
      </trkpt>
      <trkpt lat="43.63691" lon="1.40277">
        <ele>138</ele>
        <time>2025-06-12T04:38:08Z</time>
      </trkpt>
      <trkpt lat="43.63688" lon="1.40278">
        <ele>138</ele>
        <time>2025-06-12T04:38:09Z</time>
      </trkpt>
      <trkpt lat="43.63686" lon="1.40278">
        <ele>138</ele>
        <time>2025-06-12T04:38:10Z</time>
      </trkpt>
      <trkpt lat="43.63684" lon="1.40279">
        <ele>137</ele>
        <time>2025-06-12T04:38:11Z</time>
      </trkpt>
      <trkpt lat="43.63681" lon="1.40279">
        <ele>137</ele>
        <time>2025-06-12T04:38:12Z</time>
      </trkpt>
      <trkpt lat="43.63679" lon="1.40279">
        <ele>137</ele>
        <time>2025-06-12T04:38:13Z</time>
      </trkpt>
      <trkpt lat="43.63676" lon="1.40279">
        <ele>137</ele>
        <time>2025-06-12T04:38:14Z</time>
      </trkpt>
      <trkpt lat="43.63673" lon="1.40279">
        <ele>137</ele>
        <time>2025-06-12T04:38:15Z</time>
      </trkpt>
      <trkpt lat="43.63668" lon="1.40279">
        <ele>137</ele>
        <time>2025-06-12T04:38:16Z</time>
      </trkpt>
      <trkpt lat="43.63668" lon="1.40279">
        <ele>137</ele>
        <time>2025-06-12T04:38:17Z</time>
      </trkpt>
      <trkpt lat="43.63665" lon="1.40279">
        <ele>137</ele>
        <time>2025-06-12T04:38:18Z</time>
      </trkpt>
      <trkpt lat="43.63662" lon="1.4028">
        <ele>137</ele>
        <time>2025-06-12T04:38:19Z</time>
      </trkpt>
      <trkpt lat="43.63659" lon="1.4028">
        <ele>137</ele>
        <time>2025-06-12T04:38:20Z</time>
      </trkpt>
      <trkpt lat="43.63656" lon="1.40281">
        <ele>137</ele>
        <time>2025-06-12T04:38:21Z</time>
      </trkpt>
      <trkpt lat="43.63653" lon="1.40281">
        <ele>137</ele>
        <time>2025-06-12T04:38:22Z</time>
      </trkpt>
      <trkpt lat="43.63651" lon="1.40281">
        <ele>137</ele>
        <time>2025-06-12T04:38:23Z</time>
      </trkpt>
      <trkpt lat="43.63648" lon="1.40281">
        <ele>137</ele>
        <time>2025-06-12T04:38:24Z</time>
      </trkpt>
      <trkpt lat="43.63645" lon="1.40281">
        <ele>137</ele>
        <time>2025-06-12T04:38:25Z</time>
      </trkpt>
      <trkpt lat="43.63643" lon="1.40281">
        <ele>138</ele>
        <time>2025-06-12T04:38:26Z</time>
      </trkpt>
      <trkpt lat="43.6364" lon="1.40281">
        <ele>138</ele>
        <time>2025-06-12T04:38:27Z</time>
      </trkpt>
      <trkpt lat="43.63638" lon="1.40281">
        <ele>138</ele>
        <time>2025-06-12T04:38:28Z</time>
      </trkpt>
      <trkpt lat="43.63636" lon="1.40281">
        <ele>138</ele>
        <time>2025-06-12T04:38:29Z</time>
      </trkpt>
      <trkpt lat="43.63633" lon="1.40281">
        <ele>138</ele>
        <time>2025-06-12T04:38:30Z</time>
      </trkpt>
      <trkpt lat="43.63631" lon="1.40281">
        <ele>138</ele>
        <time>2025-06-12T04:38:31Z</time>
      </trkpt>
      <trkpt lat="43.63629" lon="1.40281">
        <ele>138</ele>
        <time>2025-06-12T04:38:32Z</time>
      </trkpt>
      <trkpt lat="43.63627" lon="1.40281">
        <ele>138</ele>
        <time>2025-06-12T04:38:33Z</time>
      </trkpt>
      <trkpt lat="43.63624" lon="1.40281">
        <ele>138</ele>
        <time>2025-06-12T04:38:34Z</time>
      </trkpt>
      <trkpt lat="43.63621" lon="1.40281">
        <ele>138</ele>
        <time>2025-06-12T04:38:35Z</time>
      </trkpt>
      <trkpt lat="43.63618" lon="1.40281">
        <ele>138</ele>
        <time>2025-06-12T04:38:36Z</time>
      </trkpt>
      <trkpt lat="43.63615" lon="1.4028">
        <ele>138</ele>
        <time>2025-06-12T04:38:37Z</time>
      </trkpt>
      <trkpt lat="43.63612" lon="1.4028">
        <ele>138</ele>
        <time>2025-06-12T04:38:38Z</time>
      </trkpt>
      <trkpt lat="43.63609" lon="1.4028">
        <ele>138</ele>
        <time>2025-06-12T04:38:39Z</time>
      </trkpt>
      <trkpt lat="43.63606" lon="1.40279">
        <ele>138</ele>
        <time>2025-06-12T04:38:40Z</time>
      </trkpt>
      <trkpt lat="43.63603" lon="1.40278">
        <ele>137</ele>
        <time>2025-06-12T04:38:41Z</time>
      </trkpt>
      <trkpt lat="43.636" lon="1.40278">
        <ele>137</ele>
        <time>2025-06-12T04:38:42Z</time>
      </trkpt>
      <trkpt lat="43.63597" lon="1.40277">
        <ele>137</ele>
        <time>2025-06-12T04:38:43Z</time>
      </trkpt>
      <trkpt lat="43.63594" lon="1.40277">
        <ele>137</ele>
        <time>2025-06-12T04:38:44Z</time>
      </trkpt>
      <trkpt lat="43.63591" lon="1.40276">
        <ele>137</ele>
        <time>2025-06-12T04:38:45Z</time>
      </trkpt>
      <trkpt lat="43.63588" lon="1.40276">
        <ele>137</ele>
        <time>2025-06-12T04:38:46Z</time>
      </trkpt>
      <trkpt lat="43.63585" lon="1.40275">
        <ele>137</ele>
        <time>2025-06-12T04:38:47Z</time>
      </trkpt>
      <trkpt lat="43.63582" lon="1.40275">
        <ele>137</ele>
        <time>2025-06-12T04:38:48Z</time>
      </trkpt>
      <trkpt lat="43.6358" lon="1.40274">
        <ele>137</ele>
        <time>2025-06-12T04:38:49Z</time>
      </trkpt>
      <trkpt lat="43.63577" lon="1.40274">
        <ele>137</ele>
        <time>2025-06-12T04:38:50Z</time>
      </trkpt>
      <trkpt lat="43.63575" lon="1.40273">
        <ele>137</ele>
        <time>2025-06-12T04:38:51Z</time>
      </trkpt>
      <trkpt lat="43.63572" lon="1.40272">
        <ele>137</ele>
        <time>2025-06-12T04:38:52Z</time>
      </trkpt>
      <trkpt lat="43.63569" lon="1.40272">
        <ele>137</ele>
        <time>2025-06-12T04:38:53Z</time>
      </trkpt>
      <trkpt lat="43.63566" lon="1.40271">
        <ele>137</ele>
        <time>2025-06-12T04:38:54Z</time>
      </trkpt>
      <trkpt lat="43.63564" lon="1.40271">
        <ele>137</ele>
        <time>2025-06-12T04:38:55Z</time>
      </trkpt>
      <trkpt lat="43.63561" lon="1.4027">
        <ele>137</ele>
        <time>2025-06-12T04:38:56Z</time>
      </trkpt>
      <trkpt lat="43.63558" lon="1.4027">
        <ele>137</ele>
        <time>2025-06-12T04:38:57Z</time>
      </trkpt>
      <trkpt lat="43.63556" lon="1.40269">
        <ele>137</ele>
        <time>2025-06-12T04:38:58Z</time>
      </trkpt>
      <trkpt lat="43.63553" lon="1.40269">
        <ele>137</ele>
        <time>2025-06-12T04:38:59Z</time>
      </trkpt>
      <trkpt lat="43.63551" lon="1.40268">
        <ele>137</ele>
        <time>2025-06-12T04:39:00Z</time>
      </trkpt>
      <trkpt lat="43.63548" lon="1.40268">
        <ele>137</ele>
        <time>2025-06-12T04:39:01Z</time>
      </trkpt>
      <trkpt lat="43.63546" lon="1.40268">
        <ele>137</ele>
        <time>2025-06-12T04:39:02Z</time>
      </trkpt>
      <trkpt lat="43.63544" lon="1.40268">
        <ele>137</ele>
        <time>2025-06-12T04:39:03Z</time>
      </trkpt>
      <trkpt lat="43.63541" lon="1.40267">
        <ele>137</ele>
        <time>2025-06-12T04:39:04Z</time>
      </trkpt>
      <trkpt lat="43.63539" lon="1.40266">
        <ele>137</ele>
        <time>2025-06-12T04:39:05Z</time>
      </trkpt>
      <trkpt lat="43.63536" lon="1.40265">
        <ele>137</ele>
        <time>2025-06-12T04:39:06Z</time>
      </trkpt>
      <trkpt lat="43.63533" lon="1.40265">
        <ele>137</ele>
        <time>2025-06-12T04:39:07Z</time>
      </trkpt>
      <trkpt lat="43.6353" lon="1.40265">
        <ele>137</ele>
        <time>2025-06-12T04:39:08Z</time>
      </trkpt>
      <trkpt lat="43.63527" lon="1.40264">
        <ele>137</ele>
        <time>2025-06-12T04:39:09Z</time>
      </trkpt>
      <trkpt lat="43.63524" lon="1.40263">
        <ele>137</ele>
        <time>2025-06-12T04:39:10Z</time>
      </trkpt>
      <trkpt lat="43.63521" lon="1.40262">
        <ele>137</ele>
        <time>2025-06-12T04:39:11Z</time>
      </trkpt>
      <trkpt lat="43.63518" lon="1.40262">
        <ele>137</ele>
        <time>2025-06-12T04:39:12Z</time>
      </trkpt>
      <trkpt lat="43.63516" lon="1.40261">
        <ele>137</ele>
        <time>2025-06-12T04:39:13Z</time>
      </trkpt>
      <trkpt lat="43.63513" lon="1.4026">
        <ele>137</ele>
        <time>2025-06-12T04:39:14Z</time>
      </trkpt>
      <trkpt lat="43.63511" lon="1.40259">
        <ele>137</ele>
        <time>2025-06-12T04:39:15Z</time>
      </trkpt>
      <trkpt lat="43.63508" lon="1.40258">
        <ele>137</ele>
        <time>2025-06-12T04:39:16Z</time>
      </trkpt>
      <trkpt lat="43.63505" lon="1.40258">
        <ele>137</ele>
        <time>2025-06-12T04:39:17Z</time>
      </trkpt>
      <trkpt lat="43.63502" lon="1.40257">
        <ele>137</ele>
        <time>2025-06-12T04:39:18Z</time>
      </trkpt>
      <trkpt lat="43.63499" lon="1.40257">
        <ele>137</ele>
        <time>2025-06-12T04:39:19Z</time>
      </trkpt>
      <trkpt lat="43.63497" lon="1.40256">
        <ele>137</ele>
        <time>2025-06-12T04:39:20Z</time>
      </trkpt>
      <trkpt lat="43.63494" lon="1.40255">
        <ele>137</ele>
        <time>2025-06-12T04:39:21Z</time>
      </trkpt>
      <trkpt lat="43.63491" lon="1.40255">
        <ele>137</ele>
        <time>2025-06-12T04:39:22Z</time>
      </trkpt>
      <trkpt lat="43.63488" lon="1.40254">
        <ele>137</ele>
        <time>2025-06-12T04:39:23Z</time>
      </trkpt>
      <trkpt lat="43.63486" lon="1.40253">
        <ele>137</ele>
        <time>2025-06-12T04:39:24Z</time>
      </trkpt>
      <trkpt lat="43.63483" lon="1.40253">
        <ele>138</ele>
        <time>2025-06-12T04:39:25Z</time>
      </trkpt>
      <trkpt lat="43.63481" lon="1.40252">
        <ele>138</ele>
        <time>2025-06-12T04:39:26Z</time>
      </trkpt>
      <trkpt lat="43.63478" lon="1.40251">
        <ele>138</ele>
        <time>2025-06-12T04:39:27Z</time>
      </trkpt>
      <trkpt lat="43.63476" lon="1.4025">
        <ele>138</ele>
        <time>2025-06-12T04:39:28Z</time>
      </trkpt>
      <trkpt lat="43.63473" lon="1.4025">
        <ele>138</ele>
        <time>2025-06-12T04:39:29Z</time>
      </trkpt>
      <trkpt lat="43.6347" lon="1.40249">
        <ele>137</ele>
        <time>2025-06-12T04:39:30Z</time>
      </trkpt>
      <trkpt lat="43.63468" lon="1.40248">
        <ele>137</ele>
        <time>2025-06-12T04:39:31Z</time>
      </trkpt>
      <trkpt lat="43.63465" lon="1.40248">
        <ele>137</ele>
        <time>2025-06-12T04:39:32Z</time>
      </trkpt>
      <trkpt lat="43.63462" lon="1.40247">
        <ele>137</ele>
        <time>2025-06-12T04:39:33Z</time>
      </trkpt>
      <trkpt lat="43.6346" lon="1.40246">
        <ele>137</ele>
        <time>2025-06-12T04:39:34Z</time>
      </trkpt>
      <trkpt lat="43.63457" lon="1.40245">
        <ele>137</ele>
        <time>2025-06-12T04:39:35Z</time>
      </trkpt>
      <trkpt lat="43.63455" lon="1.40244">
        <ele>137</ele>
        <time>2025-06-12T04:39:36Z</time>
      </trkpt>
      <trkpt lat="43.63453" lon="1.40243">
        <ele>137</ele>
        <time>2025-06-12T04:39:37Z</time>
      </trkpt>
      <trkpt lat="43.6345" lon="1.40242">
        <ele>137</ele>
        <time>2025-06-12T04:39:38Z</time>
      </trkpt>
      <trkpt lat="43.63447" lon="1.40241">
        <ele>137</ele>
        <time>2025-06-12T04:39:39Z</time>
      </trkpt>
      <trkpt lat="43.63445" lon="1.4024">
        <ele>137</ele>
        <time>2025-06-12T04:39:40Z</time>
      </trkpt>
      <trkpt lat="43.63443" lon="1.40238">
        <ele>137</ele>
        <time>2025-06-12T04:39:41Z</time>
      </trkpt>
      <trkpt lat="43.6344" lon="1.40238">
        <ele>137</ele>
        <time>2025-06-12T04:39:42Z</time>
      </trkpt>
      <trkpt lat="43.63437" lon="1.40237">
        <ele>137</ele>
        <time>2025-06-12T04:39:43Z</time>
      </trkpt>
      <trkpt lat="43.63434" lon="1.40237">
        <ele>137</ele>
        <time>2025-06-12T04:39:44Z</time>
      </trkpt>
      <trkpt lat="43.63432" lon="1.40236">
        <ele>137</ele>
        <time>2025-06-12T04:39:45Z</time>
      </trkpt>
      <trkpt lat="43.63429" lon="1.40235">
        <ele>138</ele>
        <time>2025-06-12T04:39:46Z</time>
      </trkpt>
      <trkpt lat="43.63426" lon="1.40234">
        <ele>138</ele>
        <time>2025-06-12T04:39:47Z</time>
      </trkpt>
      <trkpt lat="43.63424" lon="1.40233">
        <ele>137</ele>
        <time>2025-06-12T04:39:48Z</time>
      </trkpt>
      <trkpt lat="43.63421" lon="1.40232">
        <ele>137</ele>
        <time>2025-06-12T04:39:49Z</time>
      </trkpt>
      <trkpt lat="43.63418" lon="1.40231">
        <ele>137</ele>
        <time>2025-06-12T04:39:50Z</time>
      </trkpt>
      <trkpt lat="43.63412" lon="1.4023">
        <ele>137</ele>
        <time>2025-06-12T04:39:51Z</time>
      </trkpt>
      <trkpt lat="43.63412" lon="1.4023">
        <ele>137</ele>
        <time>2025-06-12T04:39:52Z</time>
      </trkpt>
      <trkpt lat="43.63409" lon="1.40228">
        <ele>137</ele>
        <time>2025-06-12T04:39:53Z</time>
      </trkpt>
      <trkpt lat="43.63404" lon="1.40227">
        <ele>137</ele>
        <time>2025-06-12T04:39:54Z</time>
      </trkpt>
      <trkpt lat="43.63404" lon="1.40227">
        <ele>137</ele>
        <time>2025-06-12T04:39:55Z</time>
      </trkpt>
      <trkpt lat="43.63402" lon="1.40225">
        <ele>137</ele>
        <time>2025-06-12T04:39:56Z</time>
      </trkpt>
      <trkpt lat="43.63399" lon="1.40224">
        <ele>137</ele>
        <time>2025-06-12T04:39:57Z</time>
      </trkpt>
      <trkpt lat="43.63397" lon="1.40223">
        <ele>137</ele>
        <time>2025-06-12T04:39:58Z</time>
      </trkpt>
      <trkpt lat="43.63394" lon="1.40222">
        <ele>137</ele>
        <time>2025-06-12T04:39:59Z</time>
      </trkpt>
      <trkpt lat="43.63392" lon="1.40221">
        <ele>137</ele>
        <time>2025-06-12T04:40:00Z</time>
      </trkpt>
      <trkpt lat="43.63389" lon="1.40219">
        <ele>137</ele>
        <time>2025-06-12T04:40:01Z</time>
      </trkpt>
      <trkpt lat="43.63387" lon="1.40218">
        <ele>137</ele>
        <time>2025-06-12T04:40:02Z</time>
      </trkpt>
      <trkpt lat="43.63384" lon="1.40217">
        <ele>137</ele>
        <time>2025-06-12T04:40:03Z</time>
      </trkpt>
      <trkpt lat="43.63382" lon="1.40216">
        <ele>137</ele>
        <time>2025-06-12T04:40:04Z</time>
      </trkpt>
      <trkpt lat="43.6338" lon="1.40214">
        <ele>137</ele>
        <time>2025-06-12T04:40:05Z</time>
      </trkpt>
      <trkpt lat="43.63378" lon="1.40213">
        <ele>137</ele>
        <time>2025-06-12T04:40:06Z</time>
      </trkpt>
      <trkpt lat="43.63375" lon="1.40212">
        <ele>137</ele>
        <time>2025-06-12T04:40:07Z</time>
      </trkpt>
      <trkpt lat="43.63373" lon="1.40211">
        <ele>137</ele>
        <time>2025-06-12T04:40:08Z</time>
      </trkpt>
      <trkpt lat="43.63371" lon="1.4021">
        <ele>137</ele>
        <time>2025-06-12T04:40:09Z</time>
      </trkpt>
      <trkpt lat="43.63365" lon="1.40209">
        <ele>137</ele>
        <time>2025-06-12T04:40:10Z</time>
      </trkpt>
      <trkpt lat="43.63365" lon="1.40209">
        <ele>137</ele>
        <time>2025-06-12T04:40:11Z</time>
      </trkpt>
      <trkpt lat="43.63362" lon="1.40208">
        <ele>137</ele>
        <time>2025-06-12T04:40:12Z</time>
      </trkpt>
      <trkpt lat="43.63359" lon="1.40207">
        <ele>138</ele>
        <time>2025-06-12T04:40:13Z</time>
      </trkpt>
      <trkpt lat="43.63356" lon="1.40206">
        <ele>138</ele>
        <time>2025-06-12T04:40:14Z</time>
      </trkpt>
      <trkpt lat="43.63353" lon="1.40205">
        <ele>138</ele>
        <time>2025-06-12T04:40:15Z</time>
      </trkpt>
      <trkpt lat="43.63351" lon="1.40204">
        <ele>138</ele>
        <time>2025-06-12T04:40:16Z</time>
      </trkpt>
      <trkpt lat="43.63348" lon="1.40203">
        <ele>138</ele>
        <time>2025-06-12T04:40:17Z</time>
      </trkpt>
      <trkpt lat="43.63346" lon="1.40202">
        <ele>138</ele>
        <time>2025-06-12T04:40:18Z</time>
      </trkpt>
      <trkpt lat="43.63345" lon="1.40201">
        <ele>138</ele>
        <time>2025-06-12T04:40:19Z</time>
      </trkpt>
      <trkpt lat="43.63343" lon="1.40199">
        <ele>137</ele>
        <time>2025-06-12T04:40:20Z</time>
      </trkpt>
      <trkpt lat="43.6334" lon="1.40198">
        <ele>137</ele>
        <time>2025-06-12T04:40:21Z</time>
      </trkpt>
      <trkpt lat="43.63337" lon="1.40197">
        <ele>137</ele>
        <time>2025-06-12T04:40:22Z</time>
      </trkpt>
      <trkpt lat="43.63334" lon="1.40196">
        <ele>137</ele>
        <time>2025-06-12T04:40:23Z</time>
      </trkpt>
      <trkpt lat="43.63332" lon="1.40195">
        <ele>137</ele>
        <time>2025-06-12T04:40:24Z</time>
      </trkpt>
      <trkpt lat="43.63329" lon="1.40193">
        <ele>137</ele>
        <time>2025-06-12T04:40:25Z</time>
      </trkpt>
      <trkpt lat="43.63327" lon="1.40192">
        <ele>137</ele>
        <time>2025-06-12T04:40:26Z</time>
      </trkpt>
      <trkpt lat="43.63324" lon="1.4019">
        <ele>137</ele>
        <time>2025-06-12T04:40:27Z</time>
      </trkpt>
      <trkpt lat="43.63321" lon="1.40189">
        <ele>137</ele>
        <time>2025-06-12T04:40:28Z</time>
      </trkpt>
      <trkpt lat="43.63318" lon="1.40188">
        <ele>137</ele>
        <time>2025-06-12T04:40:29Z</time>
      </trkpt>
      <trkpt lat="43.63316" lon="1.40187">
        <ele>138</ele>
        <time>2025-06-12T04:40:30Z</time>
      </trkpt>
      <trkpt lat="43.63314" lon="1.40186">
        <ele>138</ele>
        <time>2025-06-12T04:40:31Z</time>
      </trkpt>
      <trkpt lat="43.63311" lon="1.40184">
        <ele>138</ele>
        <time>2025-06-12T04:40:32Z</time>
      </trkpt>
      <trkpt lat="43.63308" lon="1.40184">
        <ele>138</ele>
        <time>2025-06-12T04:40:33Z</time>
      </trkpt>
      <trkpt lat="43.63305" lon="1.40183">
        <ele>138</ele>
        <time>2025-06-12T04:40:34Z</time>
      </trkpt>
      <trkpt lat="43.63302" lon="1.40182">
        <ele>138</ele>
        <time>2025-06-12T04:40:35Z</time>
      </trkpt>
      <trkpt lat="43.633" lon="1.40181">
        <ele>138</ele>
        <time>2025-06-12T04:40:36Z</time>
      </trkpt>
      <trkpt lat="43.63297" lon="1.4018">
        <ele>138</ele>
        <time>2025-06-12T04:40:37Z</time>
      </trkpt>
      <trkpt lat="43.63295" lon="1.4018">
        <ele>138</ele>
        <time>2025-06-12T04:40:38Z</time>
      </trkpt>
      <trkpt lat="43.63292" lon="1.40178">
        <ele>138</ele>
        <time>2025-06-12T04:40:39Z</time>
      </trkpt>
      <trkpt lat="43.63289" lon="1.40177">
        <ele>138</ele>
        <time>2025-06-12T04:40:40Z</time>
      </trkpt>
      <trkpt lat="43.63286" lon="1.40176">
        <ele>138</ele>
        <time>2025-06-12T04:40:41Z</time>
      </trkpt>
      <trkpt lat="43.63284" lon="1.40176">
        <ele>138</ele>
        <time>2025-06-12T04:40:42Z</time>
      </trkpt>
      <trkpt lat="43.63281" lon="1.40175">
        <ele>138</ele>
        <time>2025-06-12T04:40:43Z</time>
      </trkpt>
      <trkpt lat="43.63279" lon="1.40174">
        <ele>138</ele>
        <time>2025-06-12T04:40:44Z</time>
      </trkpt>
      <trkpt lat="43.63277" lon="1.40173">
        <ele>138</ele>
        <time>2025-06-12T04:40:45Z</time>
      </trkpt>
      <trkpt lat="43.63275" lon="1.40172">
        <ele>138</ele>
        <time>2025-06-12T04:40:46Z</time>
      </trkpt>
      <trkpt lat="43.63273" lon="1.40172">
        <ele>138</ele>
        <time>2025-06-12T04:40:47Z</time>
      </trkpt>
      <trkpt lat="43.6327" lon="1.40171">
        <ele>138</ele>
        <time>2025-06-12T04:40:48Z</time>
      </trkpt>
      <trkpt lat="43.63268" lon="1.4017">
        <ele>138</ele>
        <time>2025-06-12T04:40:49Z</time>
      </trkpt>
      <trkpt lat="43.63265" lon="1.4017">
        <ele>138</ele>
        <time>2025-06-12T04:40:50Z</time>
      </trkpt>
      <trkpt lat="43.63262" lon="1.40169">
        <ele>138</ele>
        <time>2025-06-12T04:40:51Z</time>
      </trkpt>
      <trkpt lat="43.6326" lon="1.40167">
        <ele>138</ele>
        <time>2025-06-12T04:40:52Z</time>
      </trkpt>
      <trkpt lat="43.63258" lon="1.40166">
        <ele>138</ele>
        <time>2025-06-12T04:40:53Z</time>
      </trkpt>
      <trkpt lat="43.63256" lon="1.40165">
        <ele>138</ele>
        <time>2025-06-12T04:40:54Z</time>
      </trkpt>
      <trkpt lat="43.63254" lon="1.40164">
        <ele>138</ele>
        <time>2025-06-12T04:40:55Z</time>
      </trkpt>
      <trkpt lat="43.63252" lon="1.40164">
        <ele>138</ele>
        <time>2025-06-12T04:40:56Z</time>
      </trkpt>
      <trkpt lat="43.63249" lon="1.40163">
        <ele>138</ele>
        <time>2025-06-12T04:40:57Z</time>
      </trkpt>
      <trkpt lat="43.63246" lon="1.40162">
        <ele>138</ele>
        <time>2025-06-12T04:40:58Z</time>
      </trkpt>
      <trkpt lat="43.63243" lon="1.40161">
        <ele>138</ele>
        <time>2025-06-12T04:40:59Z</time>
      </trkpt>
      <trkpt lat="43.63239" lon="1.4016">
        <ele>138</ele>
        <time>2025-06-12T04:41:00Z</time>
      </trkpt>
      <trkpt lat="43.63236" lon="1.4016">
        <ele>138</ele>
        <time>2025-06-12T04:41:01Z</time>
      </trkpt>
      <trkpt lat="43.63233" lon="1.40159">
        <ele>138</ele>
        <time>2025-06-12T04:41:02Z</time>
      </trkpt>
      <trkpt lat="43.63231" lon="1.40158">
        <ele>138</ele>
        <time>2025-06-12T04:41:03Z</time>
      </trkpt>
      <trkpt lat="43.63228" lon="1.40157">
        <ele>138</ele>
        <time>2025-06-12T04:41:04Z</time>
      </trkpt>
      <trkpt lat="43.63225" lon="1.40156">
        <ele>138</ele>
        <time>2025-06-12T04:41:05Z</time>
      </trkpt>
      <trkpt lat="43.63222" lon="1.40155">
        <ele>138</ele>
        <time>2025-06-12T04:41:06Z</time>
      </trkpt>
      <trkpt lat="43.63217" lon="1.40152">
        <ele>138</ele>
        <time>2025-06-12T04:41:07Z</time>
      </trkpt>
      <trkpt lat="43.63217" lon="1.40152">
        <ele>138</ele>
        <time>2025-06-12T04:41:08Z</time>
      </trkpt>
      <trkpt lat="43.63215" lon="1.40151">
        <ele>138</ele>
        <time>2025-06-12T04:41:09Z</time>
      </trkpt>
      <trkpt lat="43.63212" lon="1.4015">
        <ele>138</ele>
        <time>2025-06-12T04:41:10Z</time>
      </trkpt>
      <trkpt lat="43.6321" lon="1.40149">
        <ele>138</ele>
        <time>2025-06-12T04:41:11Z</time>
      </trkpt>
      <trkpt lat="43.63207" lon="1.40148">
        <ele>138</ele>
        <time>2025-06-12T04:41:12Z</time>
      </trkpt>
      <trkpt lat="43.63204" lon="1.40147">
        <ele>138</ele>
        <time>2025-06-12T04:41:13Z</time>
      </trkpt>
      <trkpt lat="43.63201" lon="1.40146">
        <ele>138</ele>
        <time>2025-06-12T04:41:14Z</time>
      </trkpt>
      <trkpt lat="43.63198" lon="1.40145">
        <ele>138</ele>
        <time>2025-06-12T04:41:15Z</time>
      </trkpt>
      <trkpt lat="43.63196" lon="1.40145">
        <ele>138</ele>
        <time>2025-06-12T04:41:16Z</time>
      </trkpt>
      <trkpt lat="43.63194" lon="1.40144">
        <ele>138</ele>
        <time>2025-06-12T04:41:17Z</time>
      </trkpt>
      <trkpt lat="43.63191" lon="1.40143">
        <ele>138</ele>
        <time>2025-06-12T04:41:18Z</time>
      </trkpt>
      <trkpt lat="43.63189" lon="1.40141">
        <ele>138</ele>
        <time>2025-06-12T04:41:19Z</time>
      </trkpt>
      <trkpt lat="43.63187" lon="1.40141">
        <ele>138</ele>
        <time>2025-06-12T04:41:20Z</time>
      </trkpt>
      <trkpt lat="43.63184" lon="1.4014">
        <ele>138</ele>
        <time>2025-06-12T04:41:21Z</time>
      </trkpt>
      <trkpt lat="43.63181" lon="1.40139">
        <ele>138</ele>
        <time>2025-06-12T04:41:22Z</time>
      </trkpt>
      <trkpt lat="43.63178" lon="1.40138">
        <ele>138</ele>
        <time>2025-06-12T04:41:23Z</time>
      </trkpt>
      <trkpt lat="43.63176" lon="1.40137">
        <ele>138</ele>
        <time>2025-06-12T04:41:24Z</time>
      </trkpt>
      <trkpt lat="43.63173" lon="1.40136">
        <ele>138</ele>
        <time>2025-06-12T04:41:25Z</time>
      </trkpt>
      <trkpt lat="43.63167" lon="1.40134">
        <ele>138</ele>
        <time>2025-06-12T04:41:26Z</time>
      </trkpt>
      <trkpt lat="43.63167" lon="1.40134">
        <ele>138</ele>
        <time>2025-06-12T04:41:27Z</time>
      </trkpt>
      <trkpt lat="43.63164" lon="1.40133">
        <ele>138</ele>
        <time>2025-06-12T04:41:28Z</time>
      </trkpt>
      <trkpt lat="43.63162" lon="1.40132">
        <ele>138</ele>
        <time>2025-06-12T04:41:29Z</time>
      </trkpt>
      <trkpt lat="43.6316" lon="1.40131">
        <ele>138</ele>
        <time>2025-06-12T04:41:30Z</time>
      </trkpt>
      <trkpt lat="43.63157" lon="1.40129">
        <ele>138</ele>
        <time>2025-06-12T04:41:31Z</time>
      </trkpt>
      <trkpt lat="43.63155" lon="1.40128">
        <ele>138</ele>
        <time>2025-06-12T04:41:32Z</time>
      </trkpt>
      <trkpt lat="43.63152" lon="1.40127">
        <ele>138</ele>
        <time>2025-06-12T04:41:33Z</time>
      </trkpt>
      <trkpt lat="43.6315" lon="1.40126">
        <ele>138</ele>
        <time>2025-06-12T04:41:34Z</time>
      </trkpt>
      <trkpt lat="43.63147" lon="1.40125">
        <ele>138</ele>
        <time>2025-06-12T04:41:35Z</time>
      </trkpt>
      <trkpt lat="43.63144" lon="1.40124">
        <ele>138</ele>
        <time>2025-06-12T04:41:36Z</time>
      </trkpt>
      <trkpt lat="43.63142" lon="1.40123">
        <ele>138</ele>
        <time>2025-06-12T04:41:37Z</time>
      </trkpt>
      <trkpt lat="43.6314" lon="1.40121">
        <ele>138</ele>
        <time>2025-06-12T04:41:38Z</time>
      </trkpt>
      <trkpt lat="43.63137" lon="1.4012">
        <ele>138</ele>
        <time>2025-06-12T04:41:39Z</time>
      </trkpt>
      <trkpt lat="43.63135" lon="1.40119">
        <ele>138</ele>
        <time>2025-06-12T04:41:40Z</time>
      </trkpt>
      <trkpt lat="43.63132" lon="1.40118">
        <ele>138</ele>
        <time>2025-06-12T04:41:41Z</time>
      </trkpt>
      <trkpt lat="43.63129" lon="1.40117">
        <ele>138</ele>
        <time>2025-06-12T04:41:42Z</time>
      </trkpt>
      <trkpt lat="43.63127" lon="1.40117">
        <ele>138</ele>
        <time>2025-06-12T04:41:43Z</time>
      </trkpt>
      <trkpt lat="43.63124" lon="1.40116">
        <ele>138</ele>
        <time>2025-06-12T04:41:44Z</time>
      </trkpt>
      <trkpt lat="43.63119" lon="1.40116">
        <ele>138</ele>
        <time>2025-06-12T04:41:45Z</time>
      </trkpt>
      <trkpt lat="43.63119" lon="1.40116">
        <ele>138</ele>
        <time>2025-06-12T04:41:46Z</time>
      </trkpt>
      <trkpt lat="43.63116" lon="1.40115">
        <ele>138</ele>
        <time>2025-06-12T04:41:47Z</time>
      </trkpt>
      <trkpt lat="43.63113" lon="1.40115">
        <ele>138</ele>
        <time>2025-06-12T04:41:48Z</time>
      </trkpt>
      <trkpt lat="43.6311" lon="1.40115">
        <ele>139</ele>
        <time>2025-06-12T04:41:49Z</time>
      </trkpt>
      <trkpt lat="43.63107" lon="1.40114">
        <ele>139</ele>
        <time>2025-06-12T04:41:50Z</time>
      </trkpt>
      <trkpt lat="43.63104" lon="1.40114">
        <ele>139</ele>
        <time>2025-06-12T04:41:51Z</time>
      </trkpt>
      <trkpt lat="43.63101" lon="1.40113">
        <ele>139</ele>
        <time>2025-06-12T04:41:52Z</time>
      </trkpt>
      <trkpt lat="43.63098" lon="1.40113">
        <ele>139</ele>
        <time>2025-06-12T04:41:53Z</time>
      </trkpt>
      <trkpt lat="43.63096" lon="1.40112">
        <ele>139</ele>
        <time>2025-06-12T04:41:54Z</time>
      </trkpt>
      <trkpt lat="43.63093" lon="1.40111">
        <ele>138</ele>
        <time>2025-06-12T04:41:55Z</time>
      </trkpt>
      <trkpt lat="43.6309" lon="1.40111">
        <ele>138</ele>
        <time>2025-06-12T04:41:56Z</time>
      </trkpt>
      <trkpt lat="43.63088" lon="1.4011">
        <ele>138</ele>
        <time>2025-06-12T04:41:57Z</time>
      </trkpt>
      <trkpt lat="43.63085" lon="1.40109">
        <ele>139</ele>
        <time>2025-06-12T04:41:58Z</time>
      </trkpt>
      <trkpt lat="43.63083" lon="1.40109">
        <ele>139</ele>
        <time>2025-06-12T04:41:59Z</time>
      </trkpt>
      <trkpt lat="43.6308" lon="1.40109">
        <ele>139</ele>
        <time>2025-06-12T04:42:00Z</time>
      </trkpt>
      <trkpt lat="43.63078" lon="1.40108">
        <ele>139</ele>
        <time>2025-06-12T04:42:01Z</time>
      </trkpt>
      <trkpt lat="43.63075" lon="1.40108">
        <ele>139</ele>
        <time>2025-06-12T04:42:02Z</time>
      </trkpt>
      <trkpt lat="43.63073" lon="1.40107">
        <ele>138</ele>
        <time>2025-06-12T04:42:03Z</time>
      </trkpt>
      <trkpt lat="43.63069" lon="1.40106">
        <ele>138</ele>
        <time>2025-06-12T04:42:04Z</time>
      </trkpt>
      <trkpt lat="43.63069" lon="1.40106">
        <ele>138</ele>
        <time>2025-06-12T04:42:05Z</time>
      </trkpt>
      <trkpt lat="43.63067" lon="1.40105">
        <ele>138</ele>
        <time>2025-06-12T04:42:06Z</time>
      </trkpt>
      <trkpt lat="43.63065" lon="1.40104">
        <ele>138</ele>
        <time>2025-06-12T04:42:07Z</time>
      </trkpt>
      <trkpt lat="43.63063" lon="1.40103">
        <ele>138</ele>
        <time>2025-06-12T04:42:08Z</time>
      </trkpt>
      <trkpt lat="43.63061" lon="1.40102">
        <ele>138</ele>
        <time>2025-06-12T04:42:09Z</time>
      </trkpt>
      <trkpt lat="43.63058" lon="1.40101">
        <ele>138</ele>
        <time>2025-06-12T04:42:10Z</time>
      </trkpt>
      <trkpt lat="43.63055" lon="1.401">
        <ele>138</ele>
        <time>2025-06-12T04:42:11Z</time>
      </trkpt>
      <trkpt lat="43.63052" lon="1.401">
        <ele>138</ele>
        <time>2025-06-12T04:42:12Z</time>
      </trkpt>
      <trkpt lat="43.6305" lon="1.40099">
        <ele>138</ele>
        <time>2025-06-12T04:42:13Z</time>
      </trkpt>
      <trkpt lat="43.63047" lon="1.40098">
        <ele>138</ele>
        <time>2025-06-12T04:42:14Z</time>
      </trkpt>
      <trkpt lat="43.63044" lon="1.40097">
        <ele>138</ele>
        <time>2025-06-12T04:42:15Z</time>
      </trkpt>
      <trkpt lat="43.63041" lon="1.40097">
        <ele>138</ele>
        <time>2025-06-12T04:42:16Z</time>
      </trkpt>
      <trkpt lat="43.63038" lon="1.40096">
        <ele>138</ele>
        <time>2025-06-12T04:42:17Z</time>
      </trkpt>
      <trkpt lat="43.63036" lon="1.40096">
        <ele>138</ele>
        <time>2025-06-12T04:42:18Z</time>
      </trkpt>
      <trkpt lat="43.63034" lon="1.40095">
        <ele>138</ele>
        <time>2025-06-12T04:42:19Z</time>
      </trkpt>
      <trkpt lat="43.63031" lon="1.40095">
        <ele>138</ele>
        <time>2025-06-12T04:42:20Z</time>
      </trkpt>
      <trkpt lat="43.63028" lon="1.40095">
        <ele>138</ele>
        <time>2025-06-12T04:42:21Z</time>
      </trkpt>
      <trkpt lat="43.63026" lon="1.40094">
        <ele>139</ele>
        <time>2025-06-12T04:42:22Z</time>
      </trkpt>
      <trkpt lat="43.6302" lon="1.40093">
        <ele>139</ele>
        <time>2025-06-12T04:42:23Z</time>
      </trkpt>
      <trkpt lat="43.6302" lon="1.40093">
        <ele>138</ele>
        <time>2025-06-12T04:42:24Z</time>
      </trkpt>
      <trkpt lat="43.63017" lon="1.40092">
        <ele>138</ele>
        <time>2025-06-12T04:42:25Z</time>
      </trkpt>
      <trkpt lat="43.63015" lon="1.40092">
        <ele>138</ele>
        <time>2025-06-12T04:42:26Z</time>
      </trkpt>
      <trkpt lat="43.63012" lon="1.40091">
        <ele>138</ele>
        <time>2025-06-12T04:42:27Z</time>
      </trkpt>
      <trkpt lat="43.6301" lon="1.4009">
        <ele>138</ele>
        <time>2025-06-12T04:42:28Z</time>
      </trkpt>
      <trkpt lat="43.63007" lon="1.40089">
        <ele>138</ele>
        <time>2025-06-12T04:42:29Z</time>
      </trkpt>
      <trkpt lat="43.63004" lon="1.40088">
        <ele>138</ele>
        <time>2025-06-12T04:42:30Z</time>
      </trkpt>
      <trkpt lat="43.63002" lon="1.40088">
        <ele>138</ele>
        <time>2025-06-12T04:42:31Z</time>
      </trkpt>
      <trkpt lat="43.62999" lon="1.40087">
        <ele>138</ele>
        <time>2025-06-12T04:42:32Z</time>
      </trkpt>
      <trkpt lat="43.62997" lon="1.40086">
        <ele>139</ele>
        <time>2025-06-12T04:42:33Z</time>
      </trkpt>
      <trkpt lat="43.62994" lon="1.40084">
        <ele>139</ele>
        <time>2025-06-12T04:42:34Z</time>
      </trkpt>
      <trkpt lat="43.62992" lon="1.40083">
        <ele>139</ele>
        <time>2025-06-12T04:42:35Z</time>
      </trkpt>
      <trkpt lat="43.62989" lon="1.40083">
        <ele>139</ele>
        <time>2025-06-12T04:42:36Z</time>
      </trkpt>
      <trkpt lat="43.62986" lon="1.40083">
        <ele>139</ele>
        <time>2025-06-12T04:42:37Z</time>
      </trkpt>
      <trkpt lat="43.62984" lon="1.40082">
        <ele>139</ele>
        <time>2025-06-12T04:42:38Z</time>
      </trkpt>
      <trkpt lat="43.62982" lon="1.40081">
        <ele>139</ele>
        <time>2025-06-12T04:42:39Z</time>
      </trkpt>
      <trkpt lat="43.62979" lon="1.40081">
        <ele>139</ele>
        <time>2025-06-12T04:42:40Z</time>
      </trkpt>
      <trkpt lat="43.62976" lon="1.4008">
        <ele>139</ele>
        <time>2025-06-12T04:42:41Z</time>
      </trkpt>
      <trkpt lat="43.62974" lon="1.40079">
        <ele>140</ele>
        <time>2025-06-12T04:42:42Z</time>
      </trkpt>
      <trkpt lat="43.62971" lon="1.40078">
        <ele>140</ele>
        <time>2025-06-12T04:42:43Z</time>
      </trkpt>
      <trkpt lat="43.62969" lon="1.40077">
        <ele>140</ele>
        <time>2025-06-12T04:42:44Z</time>
      </trkpt>
      <trkpt lat="43.62966" lon="1.40075">
        <ele>140</ele>
        <time>2025-06-12T04:42:45Z</time>
      </trkpt>
      <trkpt lat="43.62964" lon="1.40075">
        <ele>140</ele>
        <time>2025-06-12T04:42:46Z</time>
      </trkpt>
      <trkpt lat="43.62962" lon="1.40075">
        <ele>140</ele>
        <time>2025-06-12T04:42:47Z</time>
      </trkpt>
      <trkpt lat="43.62959" lon="1.40074">
        <ele>140</ele>
        <time>2025-06-12T04:42:48Z</time>
      </trkpt>
      <trkpt lat="43.62957" lon="1.40074">
        <ele>139</ele>
        <time>2025-06-12T04:42:49Z</time>
      </trkpt>
      <trkpt lat="43.62953" lon="1.40074">
        <ele>139</ele>
        <time>2025-06-12T04:42:50Z</time>
      </trkpt>
      <trkpt lat="43.62949" lon="1.40074">
        <ele>139</ele>
        <time>2025-06-12T04:42:51Z</time>
      </trkpt>
      <trkpt lat="43.62945" lon="1.40075">
        <ele>138</ele>
        <time>2025-06-12T04:42:52Z</time>
      </trkpt>
      <trkpt lat="43.62941" lon="1.40076">
        <ele>137</ele>
        <time>2025-06-12T04:42:53Z</time>
      </trkpt>
      <trkpt lat="43.62937" lon="1.40077">
        <ele>136</ele>
        <time>2025-06-12T04:42:54Z</time>
      </trkpt>
      <trkpt lat="43.62934" lon="1.40077">
        <ele>136</ele>
        <time>2025-06-12T04:42:55Z</time>
      </trkpt>
      <trkpt lat="43.62931" lon="1.40076">
        <ele>136</ele>
        <time>2025-06-12T04:42:56Z</time>
      </trkpt>
      <trkpt lat="43.62927" lon="1.40075">
        <ele>136</ele>
        <time>2025-06-12T04:42:57Z</time>
      </trkpt>
      <trkpt lat="43.62924" lon="1.40075">
        <ele>136</ele>
        <time>2025-06-12T04:42:58Z</time>
      </trkpt>
      <trkpt lat="43.62921" lon="1.40074">
        <ele>136</ele>
        <time>2025-06-12T04:42:59Z</time>
      </trkpt>
      <trkpt lat="43.62918" lon="1.40073">
        <ele>136</ele>
        <time>2025-06-12T04:43:00Z</time>
      </trkpt>
      <trkpt lat="43.62911" lon="1.40072">
        <ele>136</ele>
        <time>2025-06-12T04:43:01Z</time>
      </trkpt>
      <trkpt lat="43.62911" lon="1.40072">
        <ele>136</ele>
        <time>2025-06-12T04:43:02Z</time>
      </trkpt>
      <trkpt lat="43.62908" lon="1.40071">
        <ele>136</ele>
        <time>2025-06-12T04:43:03Z</time>
      </trkpt>
      <trkpt lat="43.62905" lon="1.40071">
        <ele>136</ele>
        <time>2025-06-12T04:43:04Z</time>
      </trkpt>
      <trkpt lat="43.62902" lon="1.4007">
        <ele>136</ele>
        <time>2025-06-12T04:43:05Z</time>
      </trkpt>
      <trkpt lat="43.62899" lon="1.40069">
        <ele>135</ele>
        <time>2025-06-12T04:43:06Z</time>
      </trkpt>
      <trkpt lat="43.62896" lon="1.40068">
        <ele>135</ele>
        <time>2025-06-12T04:43:07Z</time>
      </trkpt>
      <trkpt lat="43.62893" lon="1.40067">
        <ele>135</ele>
        <time>2025-06-12T04:43:08Z</time>
      </trkpt>
      <trkpt lat="43.62891" lon="1.40067">
        <ele>135</ele>
        <time>2025-06-12T04:43:09Z</time>
      </trkpt>
      <trkpt lat="43.62889" lon="1.40067">
        <ele>135</ele>
        <time>2025-06-12T04:43:10Z</time>
      </trkpt>
      <trkpt lat="43.62889" lon="1.40067">
        <ele>135</ele>
        <time>2025-06-12T04:43:11Z</time>
      </trkpt>
      <trkpt lat="43.62886" lon="1.40066">
        <ele>135</ele>
        <time>2025-06-12T04:43:12Z</time>
      </trkpt>
      <trkpt lat="43.62885" lon="1.40065">
        <ele>136</ele>
        <time>2025-06-12T04:43:13Z</time>
      </trkpt>
      <trkpt lat="43.62883" lon="1.40064">
        <ele>136</ele>
        <time>2025-06-12T04:43:14Z</time>
      </trkpt>
      <trkpt lat="43.62881" lon="1.40064">
        <ele>136</ele>
        <time>2025-06-12T04:43:15Z</time>
      </trkpt>
      <trkpt lat="43.62879" lon="1.40064">
        <ele>136</ele>
        <time>2025-06-12T04:43:16Z</time>
      </trkpt>
      <trkpt lat="43.62876" lon="1.40063">
        <ele>136</ele>
        <time>2025-06-12T04:43:17Z</time>
      </trkpt>
      <trkpt lat="43.62873" lon="1.40062">
        <ele>136</ele>
        <time>2025-06-12T04:43:18Z</time>
      </trkpt>
      <trkpt lat="43.62871" lon="1.40061">
        <ele>136</ele>
        <time>2025-06-12T04:43:19Z</time>
      </trkpt>
      <trkpt lat="43.62868" lon="1.40061">
        <ele>136</ele>
        <time>2025-06-12T04:43:20Z</time>
      </trkpt>
      <trkpt lat="43.62866" lon="1.4006">
        <ele>136</ele>
        <time>2025-06-12T04:43:21Z</time>
      </trkpt>
      <trkpt lat="43.62863" lon="1.4006">
        <ele>136</ele>
        <time>2025-06-12T04:43:22Z</time>
      </trkpt>
      <trkpt lat="43.6286" lon="1.40059">
        <ele>136</ele>
        <time>2025-06-12T04:43:23Z</time>
      </trkpt>
      <trkpt lat="43.62858" lon="1.40059">
        <ele>136</ele>
        <time>2025-06-12T04:43:24Z</time>
      </trkpt>
      <trkpt lat="43.62855" lon="1.40059">
        <ele>136</ele>
        <time>2025-06-12T04:43:25Z</time>
      </trkpt>
      <trkpt lat="43.62852" lon="1.40058">
        <ele>136</ele>
        <time>2025-06-12T04:43:26Z</time>
      </trkpt>
      <trkpt lat="43.62849" lon="1.40057">
        <ele>136</ele>
        <time>2025-06-12T04:43:27Z</time>
      </trkpt>
      <trkpt lat="43.62845" lon="1.40056">
        <ele>136</ele>
        <time>2025-06-12T04:43:28Z</time>
      </trkpt>
      <trkpt lat="43.6284" lon="1.40056">
        <ele>136</ele>
        <time>2025-06-12T04:43:29Z</time>
      </trkpt>
      <trkpt lat="43.6284" lon="1.40056">
        <ele>136</ele>
        <time>2025-06-12T04:43:30Z</time>
      </trkpt>
      <trkpt lat="43.62836" lon="1.40056">
        <ele>136</ele>
        <time>2025-06-12T04:43:31Z</time>
      </trkpt>
      <trkpt lat="43.62833" lon="1.40055">
        <ele>136</ele>
        <time>2025-06-12T04:43:32Z</time>
      </trkpt>
      <trkpt lat="43.6283" lon="1.40055">
        <ele>136</ele>
        <time>2025-06-12T04:43:33Z</time>
      </trkpt>
      <trkpt lat="43.62827" lon="1.40055">
        <ele>136</ele>
        <time>2025-06-12T04:43:34Z</time>
      </trkpt>
      <trkpt lat="43.62823" lon="1.40054">
        <ele>136</ele>
        <time>2025-06-12T04:43:35Z</time>
      </trkpt>
      <trkpt lat="43.6282" lon="1.40054">
        <ele>136</ele>
        <time>2025-06-12T04:43:36Z</time>
      </trkpt>
      <trkpt lat="43.62816" lon="1.40053">
        <ele>136</ele>
        <time>2025-06-12T04:43:37Z</time>
      </trkpt>
      <trkpt lat="43.62813" lon="1.40053">
        <ele>136</ele>
        <time>2025-06-12T04:43:38Z</time>
      </trkpt>
      <trkpt lat="43.62808" lon="1.40053">
        <ele>136</ele>
        <time>2025-06-12T04:43:39Z</time>
      </trkpt>
      <trkpt lat="43.62808" lon="1.40053">
        <ele>136</ele>
        <time>2025-06-12T04:43:40Z</time>
      </trkpt>
      <trkpt lat="43.62806" lon="1.40053">
        <ele>136</ele>
        <time>2025-06-12T04:43:41Z</time>
      </trkpt>
      <trkpt lat="43.62803" lon="1.40053">
        <ele>136</ele>
        <time>2025-06-12T04:43:42Z</time>
      </trkpt>
      <trkpt lat="43.62801" lon="1.40053">
        <ele>136</ele>
        <time>2025-06-12T04:43:43Z</time>
      </trkpt>
      <trkpt lat="43.62799" lon="1.40053">
        <ele>136</ele>
        <time>2025-06-12T04:43:44Z</time>
      </trkpt>
      <trkpt lat="43.62796" lon="1.40053">
        <ele>136</ele>
        <time>2025-06-12T04:43:45Z</time>
      </trkpt>
      <trkpt lat="43.62794" lon="1.40053">
        <ele>136</ele>
        <time>2025-06-12T04:43:46Z</time>
      </trkpt>
      <trkpt lat="43.6279" lon="1.40052">
        <ele>136</ele>
        <time>2025-06-12T04:43:47Z</time>
      </trkpt>
      <trkpt lat="43.62787" lon="1.40052">
        <ele>136</ele>
        <time>2025-06-12T04:43:48Z</time>
      </trkpt>
      <trkpt lat="43.62784" lon="1.40051">
        <ele>136</ele>
        <time>2025-06-12T04:43:49Z</time>
      </trkpt>
      <trkpt lat="43.62781" lon="1.40051">
        <ele>136</ele>
        <time>2025-06-12T04:43:50Z</time>
      </trkpt>
      <trkpt lat="43.62778" lon="1.4005">
        <ele>136</ele>
        <time>2025-06-12T04:43:51Z</time>
      </trkpt>
      <trkpt lat="43.62774" lon="1.4005">
        <ele>136</ele>
        <time>2025-06-12T04:43:52Z</time>
      </trkpt>
      <trkpt lat="43.62772" lon="1.40049">
        <ele>136</ele>
        <time>2025-06-12T04:43:53Z</time>
      </trkpt>
      <trkpt lat="43.62768" lon="1.40047">
        <ele>136</ele>
        <time>2025-06-12T04:43:54Z</time>
      </trkpt>
      <trkpt lat="43.62765" lon="1.40047">
        <ele>136</ele>
        <time>2025-06-12T04:43:55Z</time>
      </trkpt>
      <trkpt lat="43.62762" lon="1.40047">
        <ele>136</ele>
        <time>2025-06-12T04:43:56Z</time>
      </trkpt>
      <trkpt lat="43.62759" lon="1.40046">
        <ele>136</ele>
        <time>2025-06-12T04:43:57Z</time>
      </trkpt>
      <trkpt lat="43.62753" lon="1.40046">
        <ele>136</ele>
        <time>2025-06-12T04:43:58Z</time>
      </trkpt>
      <trkpt lat="43.62753" lon="1.40046">
        <ele>136</ele>
        <time>2025-06-12T04:43:59Z</time>
      </trkpt>
      <trkpt lat="43.6275" lon="1.40046">
        <ele>136</ele>
        <time>2025-06-12T04:44:00Z</time>
      </trkpt>
      <trkpt lat="43.62747" lon="1.40046">
        <ele>136</ele>
        <time>2025-06-12T04:44:01Z</time>
      </trkpt>
      <trkpt lat="43.62744" lon="1.40046">
        <ele>136</ele>
        <time>2025-06-12T04:44:02Z</time>
      </trkpt>
      <trkpt lat="43.62741" lon="1.40045">
        <ele>136</ele>
        <time>2025-06-12T04:44:03Z</time>
      </trkpt>
      <trkpt lat="43.62738" lon="1.40045">
        <ele>136</ele>
        <time>2025-06-12T04:44:04Z</time>
      </trkpt>
      <trkpt lat="43.62735" lon="1.40044">
        <ele>136</ele>
        <time>2025-06-12T04:44:05Z</time>
      </trkpt>
      <trkpt lat="43.62732" lon="1.40044">
        <ele>136</ele>
        <time>2025-06-12T04:44:06Z</time>
      </trkpt>
      <trkpt lat="43.62729" lon="1.40044">
        <ele>136</ele>
        <time>2025-06-12T04:44:07Z</time>
      </trkpt>
      <trkpt lat="43.62726" lon="1.40044">
        <ele>136</ele>
        <time>2025-06-12T04:44:08Z</time>
      </trkpt>
      <trkpt lat="43.62724" lon="1.40044">
        <ele>136</ele>
        <time>2025-06-12T04:44:09Z</time>
      </trkpt>
      <trkpt lat="43.62722" lon="1.40043">
        <ele>136</ele>
        <time>2025-06-12T04:44:10Z</time>
      </trkpt>
      <trkpt lat="43.62719" lon="1.40043">
        <ele>136</ele>
        <time>2025-06-12T04:44:11Z</time>
      </trkpt>
      <trkpt lat="43.62717" lon="1.40043">
        <ele>136</ele>
        <time>2025-06-12T04:44:12Z</time>
      </trkpt>
      <trkpt lat="43.62714" lon="1.40043">
        <ele>136</ele>
        <time>2025-06-12T04:44:13Z</time>
      </trkpt>
      <trkpt lat="43.62712" lon="1.40042">
        <ele>136</ele>
        <time>2025-06-12T04:44:14Z</time>
      </trkpt>
      <trkpt lat="43.6271" lon="1.40042">
        <ele>136</ele>
        <time>2025-06-12T04:44:15Z</time>
      </trkpt>
      <trkpt lat="43.62707" lon="1.40041">
        <ele>136</ele>
        <time>2025-06-12T04:44:16Z</time>
      </trkpt>
      <trkpt lat="43.62703" lon="1.4004">
        <ele>137</ele>
        <time>2025-06-12T04:44:17Z</time>
      </trkpt>
      <trkpt lat="43.62703" lon="1.4004">
        <ele>137</ele>
        <time>2025-06-12T04:44:18Z</time>
      </trkpt>
      <trkpt lat="43.627" lon="1.4004">
        <ele>137</ele>
        <time>2025-06-12T04:44:19Z</time>
      </trkpt>
      <trkpt lat="43.62697" lon="1.40039">
        <ele>136</ele>
        <time>2025-06-12T04:44:20Z</time>
      </trkpt>
      <trkpt lat="43.62694" lon="1.40039">
        <ele>137</ele>
        <time>2025-06-12T04:44:21Z</time>
      </trkpt>
      <trkpt lat="43.62692" lon="1.4004">
        <ele>137</ele>
        <time>2025-06-12T04:44:22Z</time>
      </trkpt>
      <trkpt lat="43.62688" lon="1.40039">
        <ele>137</ele>
        <time>2025-06-12T04:44:23Z</time>
      </trkpt>
      <trkpt lat="43.62685" lon="1.40039">
        <ele>136</ele>
        <time>2025-06-12T04:44:24Z</time>
      </trkpt>
      <trkpt lat="43.62682" lon="1.40038">
        <ele>136</ele>
        <time>2025-06-12T04:44:25Z</time>
      </trkpt>
      <trkpt lat="43.62679" lon="1.40038">
        <ele>136</ele>
        <time>2025-06-12T04:44:26Z</time>
      </trkpt>
      <trkpt lat="43.62676" lon="1.40038">
        <ele>136</ele>
        <time>2025-06-12T04:44:27Z</time>
      </trkpt>
      <trkpt lat="43.62673" lon="1.40037">
        <ele>136</ele>
        <time>2025-06-12T04:44:28Z</time>
      </trkpt>
      <trkpt lat="43.6267" lon="1.40037">
        <ele>136</ele>
        <time>2025-06-12T04:44:29Z</time>
      </trkpt>
      <trkpt lat="43.62667" lon="1.40037">
        <ele>136</ele>
        <time>2025-06-12T04:44:30Z</time>
      </trkpt>
      <trkpt lat="43.62665" lon="1.40037">
        <ele>136</ele>
        <time>2025-06-12T04:44:31Z</time>
      </trkpt>
      <trkpt lat="43.62662" lon="1.40037">
        <ele>136</ele>
        <time>2025-06-12T04:44:32Z</time>
      </trkpt>
      <trkpt lat="43.62659" lon="1.40037">
        <ele>136</ele>
        <time>2025-06-12T04:44:33Z</time>
      </trkpt>
      <trkpt lat="43.62657" lon="1.40037">
        <ele>136</ele>
        <time>2025-06-12T04:44:34Z</time>
      </trkpt>
      <trkpt lat="43.62654" lon="1.40037">
        <ele>136</ele>
        <time>2025-06-12T04:44:35Z</time>
      </trkpt>
      <trkpt lat="43.62649" lon="1.40037">
        <ele>136</ele>
        <time>2025-06-12T04:44:36Z</time>
      </trkpt>
      <trkpt lat="43.62649" lon="1.40037">
        <ele>136</ele>
        <time>2025-06-12T04:44:37Z</time>
      </trkpt>
      <trkpt lat="43.62647" lon="1.40037">
        <ele>136</ele>
        <time>2025-06-12T04:44:38Z</time>
      </trkpt>
      <trkpt lat="43.62644" lon="1.40036">
        <ele>136</ele>
        <time>2025-06-12T04:44:39Z</time>
      </trkpt>
      <trkpt lat="43.62641" lon="1.40036">
        <ele>136</ele>
        <time>2025-06-12T04:44:40Z</time>
      </trkpt>
      <trkpt lat="43.62637" lon="1.40036">
        <ele>137</ele>
        <time>2025-06-12T04:44:41Z</time>
      </trkpt>
      <trkpt lat="43.62634" lon="1.40036">
        <ele>137</ele>
        <time>2025-06-12T04:44:42Z</time>
      </trkpt>
      <trkpt lat="43.62631" lon="1.40036">
        <ele>137</ele>
        <time>2025-06-12T04:44:43Z</time>
      </trkpt>
      <trkpt lat="43.62629" lon="1.40035">
        <ele>137</ele>
        <time>2025-06-12T04:44:44Z</time>
      </trkpt>
      <trkpt lat="43.62626" lon="1.40035">
        <ele>137</ele>
        <time>2025-06-12T04:44:45Z</time>
      </trkpt>
      <trkpt lat="43.62623" lon="1.40035">
        <ele>137</ele>
        <time>2025-06-12T04:44:46Z</time>
      </trkpt>
      <trkpt lat="43.6262" lon="1.40034">
        <ele>137</ele>
        <time>2025-06-12T04:44:47Z</time>
      </trkpt>
      <trkpt lat="43.62617" lon="1.40034">
        <ele>137</ele>
        <time>2025-06-12T04:44:48Z</time>
      </trkpt>
      <trkpt lat="43.62614" lon="1.40034">
        <ele>137</ele>
        <time>2025-06-12T04:44:49Z</time>
      </trkpt>
      <trkpt lat="43.62612" lon="1.40033">
        <ele>137</ele>
        <time>2025-06-12T04:44:50Z</time>
      </trkpt>
      <trkpt lat="43.62609" lon="1.40033">
        <ele>137</ele>
        <time>2025-06-12T04:44:51Z</time>
      </trkpt>
      <trkpt lat="43.62606" lon="1.40032">
        <ele>137</ele>
        <time>2025-06-12T04:44:52Z</time>
      </trkpt>
      <trkpt lat="43.62603" lon="1.40032">
        <ele>137</ele>
        <time>2025-06-12T04:44:53Z</time>
      </trkpt>
      <trkpt lat="43.62601" lon="1.40031">
        <ele>137</ele>
        <time>2025-06-12T04:44:54Z</time>
      </trkpt>
      <trkpt lat="43.62598" lon="1.4003">
        <ele>137</ele>
        <time>2025-06-12T04:44:55Z</time>
      </trkpt>
      <trkpt lat="43.62596" lon="1.4003">
        <ele>137</ele>
        <time>2025-06-12T04:44:56Z</time>
      </trkpt>
      <trkpt lat="43.62592" lon="1.40029">
        <ele>137</ele>
        <time>2025-06-12T04:44:57Z</time>
      </trkpt>
      <trkpt lat="43.62589" lon="1.40029">
        <ele>137</ele>
        <time>2025-06-12T04:44:58Z</time>
      </trkpt>
      <trkpt lat="43.62586" lon="1.40029">
        <ele>137</ele>
        <time>2025-06-12T04:44:59Z</time>
      </trkpt>
      <trkpt lat="43.62583" lon="1.40029">
        <ele>137</ele>
        <time>2025-06-12T04:45:00Z</time>
      </trkpt>
      <trkpt lat="43.6258" lon="1.40029">
        <ele>137</ele>
        <time>2025-06-12T04:45:01Z</time>
      </trkpt>
      <trkpt lat="43.62577" lon="1.40029">
        <ele>137</ele>
        <time>2025-06-12T04:45:02Z</time>
      </trkpt>
      <trkpt lat="43.62575" lon="1.40028">
        <ele>138</ele>
        <time>2025-06-12T04:45:03Z</time>
      </trkpt>
      <trkpt lat="43.62572" lon="1.40029">
        <ele>138</ele>
        <time>2025-06-12T04:45:04Z</time>
      </trkpt>
      <trkpt lat="43.6257" lon="1.40029">
        <ele>138</ele>
        <time>2025-06-12T04:45:05Z</time>
      </trkpt>
      <trkpt lat="43.62567" lon="1.40028">
        <ele>138</ele>
        <time>2025-06-12T04:45:06Z</time>
      </trkpt>
      <trkpt lat="43.62564" lon="1.40027">
        <ele>138</ele>
        <time>2025-06-12T04:45:07Z</time>
      </trkpt>
      <trkpt lat="43.62561" lon="1.40026">
        <ele>138</ele>
        <time>2025-06-12T04:45:08Z</time>
      </trkpt>
      <trkpt lat="43.62558" lon="1.40026">
        <ele>138</ele>
        <time>2025-06-12T04:45:09Z</time>
      </trkpt>
      <trkpt lat="43.62555" lon="1.40025">
        <ele>138</ele>
        <time>2025-06-12T04:45:10Z</time>
      </trkpt>
      <trkpt lat="43.62551" lon="1.40025">
        <ele>138</ele>
        <time>2025-06-12T04:45:11Z</time>
      </trkpt>
      <trkpt lat="43.62549" lon="1.40025">
        <ele>138</ele>
        <time>2025-06-12T04:45:12Z</time>
      </trkpt>
      <trkpt lat="43.62546" lon="1.40025">
        <ele>138</ele>
        <time>2025-06-12T04:45:13Z</time>
      </trkpt>
      <trkpt lat="43.62542" lon="1.40024">
        <ele>138</ele>
        <time>2025-06-12T04:45:14Z</time>
      </trkpt>
      <trkpt lat="43.6254" lon="1.40024">
        <ele>138</ele>
        <time>2025-06-12T04:45:15Z</time>
      </trkpt>
      <trkpt lat="43.62538" lon="1.40024">
        <ele>138</ele>
        <time>2025-06-12T04:45:16Z</time>
      </trkpt>
      <trkpt lat="43.62536" lon="1.40024">
        <ele>138</ele>
        <time>2025-06-12T04:45:17Z</time>
      </trkpt>
      <trkpt lat="43.62534" lon="1.40023">
        <ele>138</ele>
        <time>2025-06-12T04:45:18Z</time>
      </trkpt>
      <trkpt lat="43.62531" lon="1.40023">
        <ele>138</ele>
        <time>2025-06-12T04:45:19Z</time>
      </trkpt>
      <trkpt lat="43.62529" lon="1.40023">
        <ele>138</ele>
        <time>2025-06-12T04:45:20Z</time>
      </trkpt>
      <trkpt lat="43.62526" lon="1.40022">
        <ele>138</ele>
        <time>2025-06-12T04:45:21Z</time>
      </trkpt>
      <trkpt lat="43.62523" lon="1.40022">
        <ele>138</ele>
        <time>2025-06-12T04:45:22Z</time>
      </trkpt>
      <trkpt lat="43.6252" lon="1.40022">
        <ele>138</ele>
        <time>2025-06-12T04:45:23Z</time>
      </trkpt>
      <trkpt lat="43.62517" lon="1.40022">
        <ele>138</ele>
        <time>2025-06-12T04:45:24Z</time>
      </trkpt>
      <trkpt lat="43.62514" lon="1.40022">
        <ele>138</ele>
        <time>2025-06-12T04:45:25Z</time>
      </trkpt>
      <trkpt lat="43.62512" lon="1.40021">
        <ele>138</ele>
        <time>2025-06-12T04:45:26Z</time>
      </trkpt>
      <trkpt lat="43.62512" lon="1.40021">
        <ele>138</ele>
        <time>2025-06-12T04:45:27Z</time>
      </trkpt>
      <trkpt lat="43.62509" lon="1.40021">
        <ele>138</ele>
        <time>2025-06-12T04:45:28Z</time>
      </trkpt>
      <trkpt lat="43.62507" lon="1.4002">
        <ele>138</ele>
        <time>2025-06-12T04:45:29Z</time>
      </trkpt>
      <trkpt lat="43.62507" lon="1.4002">
        <ele>138</ele>
        <time>2025-06-12T04:45:30Z</time>
      </trkpt>
      <trkpt lat="43.62507" lon="1.4002">
        <ele>138</ele>
        <time>2025-06-12T04:45:31Z</time>
      </trkpt>
      <trkpt lat="43.62489" lon="1.39985">
        <ele>142</ele>
        <time>2025-06-12T04:46:46Z</time>
      </trkpt>
      <trkpt lat="43.62489" lon="1.39985">
        <ele>142</ele>
        <time>2025-06-12T04:46:47Z</time>
      </trkpt>
      <trkpt lat="43.62487" lon="1.39988">
        <ele>142</ele>
        <time>2025-06-12T04:46:48Z</time>
      </trkpt>
      <trkpt lat="43.62487" lon="1.39991">
        <ele>142</ele>
        <time>2025-06-12T04:46:49Z</time>
      </trkpt>
      <trkpt lat="43.62486" lon="1.39994">
        <ele>142</ele>
        <time>2025-06-12T04:46:50Z</time>
      </trkpt>
      <trkpt lat="43.62486" lon="1.39997">
        <ele>142</ele>
        <time>2025-06-12T04:46:51Z</time>
      </trkpt>
      <trkpt lat="43.62485" lon="1.40001">
        <ele>141</ele>
        <time>2025-06-12T04:46:52Z</time>
      </trkpt>
      <trkpt lat="43.62484" lon="1.40005">
        <ele>141</ele>
        <time>2025-06-12T04:46:53Z</time>
      </trkpt>
      <trkpt lat="43.62484" lon="1.40009">
        <ele>141</ele>
        <time>2025-06-12T04:46:54Z</time>
      </trkpt>
      <trkpt lat="43.62485" lon="1.40012">
        <ele>140</ele>
        <time>2025-06-12T04:46:55Z</time>
      </trkpt>
      <trkpt lat="43.62487" lon="1.40013">
        <ele>139</ele>
        <time>2025-06-12T04:46:56Z</time>
      </trkpt>
      <trkpt lat="43.62489" lon="1.40013">
        <ele>139</ele>
        <time>2025-06-12T04:46:57Z</time>
      </trkpt>
      <trkpt lat="43.62492" lon="1.40013">
        <ele>139</ele>
        <time>2025-06-12T04:46:58Z</time>
      </trkpt>
      <trkpt lat="43.62494" lon="1.40013">
        <ele>139</ele>
        <time>2025-06-12T04:46:59Z</time>
      </trkpt>
      <trkpt lat="43.62497" lon="1.40013">
        <ele>139</ele>
        <time>2025-06-12T04:47:00Z</time>
      </trkpt>
      <trkpt lat="43.62499" lon="1.40014">
        <ele>139</ele>
        <time>2025-06-12T04:47:01Z</time>
      </trkpt>
      <trkpt lat="43.62502" lon="1.40014">
        <ele>139</ele>
        <time>2025-06-12T04:47:02Z</time>
      </trkpt>
      <trkpt lat="43.62505" lon="1.40014">
        <ele>139</ele>
        <time>2025-06-12T04:47:03Z</time>
      </trkpt>
      <trkpt lat="43.62509" lon="1.40014">
        <ele>139</ele>
        <time>2025-06-12T04:47:04Z</time>
      </trkpt>
      <trkpt lat="43.62513" lon="1.40014">
        <ele>139</ele>
        <time>2025-06-12T04:47:05Z</time>
      </trkpt>
      <trkpt lat="43.62516" lon="1.40015">
        <ele>139</ele>
        <time>2025-06-12T04:47:06Z</time>
      </trkpt>
      <trkpt lat="43.62519" lon="1.40015">
        <ele>139</ele>
        <time>2025-06-12T04:47:07Z</time>
      </trkpt>
      <trkpt lat="43.62522" lon="1.40016">
        <ele>139</ele>
        <time>2025-06-12T04:47:08Z</time>
      </trkpt>
      <trkpt lat="43.62524" lon="1.40017">
        <ele>139</ele>
        <time>2025-06-12T04:47:09Z</time>
      </trkpt>
      <trkpt lat="43.62527" lon="1.40018">
        <ele>139</ele>
        <time>2025-06-12T04:47:10Z</time>
      </trkpt>
      <trkpt lat="43.62529" lon="1.40018">
        <ele>139</ele>
        <time>2025-06-12T04:47:11Z</time>
      </trkpt>
      <trkpt lat="43.62532" lon="1.40019">
        <ele>139</ele>
        <time>2025-06-12T04:47:12Z</time>
      </trkpt>
      <trkpt lat="43.62535" lon="1.4002">
        <ele>139</ele>
        <time>2025-06-12T04:47:13Z</time>
      </trkpt>
      <trkpt lat="43.62538" lon="1.4002">
        <ele>139</ele>
        <time>2025-06-12T04:47:14Z</time>
      </trkpt>
      <trkpt lat="43.6254" lon="1.4002">
        <ele>139</ele>
        <time>2025-06-12T04:47:15Z</time>
      </trkpt>
      <trkpt lat="43.62543" lon="1.4002">
        <ele>139</ele>
        <time>2025-06-12T04:47:16Z</time>
      </trkpt>
      <trkpt lat="43.62545" lon="1.40021">
        <ele>139</ele>
        <time>2025-06-12T04:47:17Z</time>
      </trkpt>
      <trkpt lat="43.62548" lon="1.40021">
        <ele>139</ele>
        <time>2025-06-12T04:47:18Z</time>
      </trkpt>
      <trkpt lat="43.62551" lon="1.40021">
        <ele>139</ele>
        <time>2025-06-12T04:47:19Z</time>
      </trkpt>
      <trkpt lat="43.62553" lon="1.40022">
        <ele>139</ele>
        <time>2025-06-12T04:47:20Z</time>
      </trkpt>
      <trkpt lat="43.62556" lon="1.40022">
        <ele>139</ele>
        <time>2025-06-12T04:47:21Z</time>
      </trkpt>
      <trkpt lat="43.62559" lon="1.40023">
        <ele>139</ele>
        <time>2025-06-12T04:47:22Z</time>
      </trkpt>
      <trkpt lat="43.62561" lon="1.40023">
        <ele>139</ele>
        <time>2025-06-12T04:47:23Z</time>
      </trkpt>
      <trkpt lat="43.62563" lon="1.40023">
        <ele>139</ele>
        <time>2025-06-12T04:47:24Z</time>
      </trkpt>
      <trkpt lat="43.62566" lon="1.40024">
        <ele>138</ele>
        <time>2025-06-12T04:47:25Z</time>
      </trkpt>
      <trkpt lat="43.62568" lon="1.40024">
        <ele>138</ele>
        <time>2025-06-12T04:47:26Z</time>
      </trkpt>
      <trkpt lat="43.62571" lon="1.40024">
        <ele>139</ele>
        <time>2025-06-12T04:47:27Z</time>
      </trkpt>
      <trkpt lat="43.62573" lon="1.40025">
        <ele>139</ele>
        <time>2025-06-12T04:47:28Z</time>
      </trkpt>
      <trkpt lat="43.62575" lon="1.40026">
        <ele>139</ele>
        <time>2025-06-12T04:47:29Z</time>
      </trkpt>
      <trkpt lat="43.62577" lon="1.40026">
        <ele>139</ele>
        <time>2025-06-12T04:47:30Z</time>
      </trkpt>
      <trkpt lat="43.6258" lon="1.40027">
        <ele>139</ele>
        <time>2025-06-12T04:47:31Z</time>
      </trkpt>
      <trkpt lat="43.62583" lon="1.40028">
        <ele>139</ele>
        <time>2025-06-12T04:47:32Z</time>
      </trkpt>
      <trkpt lat="43.62586" lon="1.40029">
        <ele>139</ele>
        <time>2025-06-12T04:47:33Z</time>
      </trkpt>
      <trkpt lat="43.62589" lon="1.40029">
        <ele>139</ele>
        <time>2025-06-12T04:47:34Z</time>
      </trkpt>
      <trkpt lat="43.62591" lon="1.40029">
        <ele>139</ele>
        <time>2025-06-12T04:47:35Z</time>
      </trkpt>
      <trkpt lat="43.62593" lon="1.40029">
        <ele>139</ele>
        <time>2025-06-12T04:47:36Z</time>
      </trkpt>
      <trkpt lat="43.62596" lon="1.40029">
        <ele>139</ele>
        <time>2025-06-12T04:47:37Z</time>
      </trkpt>
      <trkpt lat="43.62598" lon="1.40029">
        <ele>139</ele>
        <time>2025-06-12T04:47:38Z</time>
      </trkpt>
      <trkpt lat="43.626" lon="1.40028">
        <ele>139</ele>
        <time>2025-06-12T04:47:39Z</time>
      </trkpt>
      <trkpt lat="43.62603" lon="1.40028">
        <ele>139</ele>
        <time>2025-06-12T04:47:40Z</time>
      </trkpt>
      <trkpt lat="43.62606" lon="1.40028">
        <ele>139</ele>
        <time>2025-06-12T04:47:41Z</time>
      </trkpt>
      <trkpt lat="43.6261" lon="1.40028">
        <ele>139</ele>
        <time>2025-06-12T04:47:42Z</time>
      </trkpt>
      <trkpt lat="43.62612" lon="1.40029">
        <ele>138</ele>
        <time>2025-06-12T04:47:43Z</time>
      </trkpt>
      <trkpt lat="43.62617" lon="1.40029">
        <ele>138</ele>
        <time>2025-06-12T04:47:44Z</time>
      </trkpt>
      <trkpt lat="43.62617" lon="1.40029">
        <ele>138</ele>
        <time>2025-06-12T04:47:45Z</time>
      </trkpt>
      <trkpt lat="43.6262" lon="1.4003">
        <ele>138</ele>
        <time>2025-06-12T04:47:46Z</time>
      </trkpt>
      <trkpt lat="43.62623" lon="1.4003">
        <ele>138</ele>
        <time>2025-06-12T04:47:47Z</time>
      </trkpt>
      <trkpt lat="43.62625" lon="1.4003">
        <ele>138</ele>
        <time>2025-06-12T04:47:48Z</time>
      </trkpt>
      <trkpt lat="43.62629" lon="1.4003">
        <ele>138</ele>
        <time>2025-06-12T04:47:49Z</time>
      </trkpt>
      <trkpt lat="43.62632" lon="1.40031">
        <ele>138</ele>
        <time>2025-06-12T04:47:50Z</time>
      </trkpt>
      <trkpt lat="43.62635" lon="1.40031">
        <ele>138</ele>
        <time>2025-06-12T04:47:51Z</time>
      </trkpt>
      <trkpt lat="43.62638" lon="1.40031">
        <ele>138</ele>
        <time>2025-06-12T04:47:52Z</time>
      </trkpt>
      <trkpt lat="43.62641" lon="1.40031">
        <ele>138</ele>
        <time>2025-06-12T04:47:53Z</time>
      </trkpt>
      <trkpt lat="43.62644" lon="1.40031">
        <ele>138</ele>
        <time>2025-06-12T04:47:54Z</time>
      </trkpt>
      <trkpt lat="43.62647" lon="1.40031">
        <ele>138</ele>
        <time>2025-06-12T04:47:55Z</time>
      </trkpt>
      <trkpt lat="43.62649" lon="1.40031">
        <ele>138</ele>
        <time>2025-06-12T04:47:56Z</time>
      </trkpt>
      <trkpt lat="43.62652" lon="1.40031">
        <ele>138</ele>
        <time>2025-06-12T04:47:57Z</time>
      </trkpt>
      <trkpt lat="43.62655" lon="1.40031">
        <ele>138</ele>
        <time>2025-06-12T04:47:58Z</time>
      </trkpt>
      <trkpt lat="43.62658" lon="1.4003">
        <ele>138</ele>
        <time>2025-06-12T04:47:59Z</time>
      </trkpt>
      <trkpt lat="43.6266" lon="1.40031">
        <ele>138</ele>
        <time>2025-06-12T04:48:00Z</time>
      </trkpt>
      <trkpt lat="43.62664" lon="1.40031">
        <ele>138</ele>
        <time>2025-06-12T04:48:01Z</time>
      </trkpt>
      <trkpt lat="43.62667" lon="1.40031">
        <ele>138</ele>
        <time>2025-06-12T04:48:02Z</time>
      </trkpt>
      <trkpt lat="43.62673" lon="1.40032">
        <ele>138</ele>
        <time>2025-06-12T04:48:03Z</time>
      </trkpt>
      <trkpt lat="43.62673" lon="1.40032">
        <ele>138</ele>
        <time>2025-06-12T04:48:04Z</time>
      </trkpt>
      <trkpt lat="43.62675" lon="1.40031">
        <ele>138</ele>
        <time>2025-06-12T04:48:05Z</time>
      </trkpt>
      <trkpt lat="43.62677" lon="1.40031">
        <ele>138</ele>
        <time>2025-06-12T04:48:06Z</time>
      </trkpt>
      <trkpt lat="43.62677" lon="1.40031">
        <ele>138</ele>
        <time>2025-06-12T04:48:07Z</time>
      </trkpt>
      <trkpt lat="43.62682" lon="1.40031">
        <ele>138</ele>
        <time>2025-06-12T04:48:08Z</time>
      </trkpt>
      <trkpt lat="43.62684" lon="1.40031">
        <ele>138</ele>
        <time>2025-06-12T04:48:09Z</time>
      </trkpt>
      <trkpt lat="43.62687" lon="1.40031">
        <ele>138</ele>
        <time>2025-06-12T04:48:10Z</time>
      </trkpt>
      <trkpt lat="43.6269" lon="1.40032">
        <ele>138</ele>
        <time>2025-06-12T04:48:11Z</time>
      </trkpt>
      <trkpt lat="43.62693" lon="1.40033">
        <ele>138</ele>
        <time>2025-06-12T04:48:12Z</time>
      </trkpt>
      <trkpt lat="43.62696" lon="1.40033">
        <ele>138</ele>
        <time>2025-06-12T04:48:13Z</time>
      </trkpt>
      <trkpt lat="43.62699" lon="1.40034">
        <ele>138</ele>
        <time>2025-06-12T04:48:14Z</time>
      </trkpt>
      <trkpt lat="43.62703" lon="1.40034">
        <ele>138</ele>
        <time>2025-06-12T04:48:15Z</time>
      </trkpt>
      <trkpt lat="43.62707" lon="1.40034">
        <ele>138</ele>
        <time>2025-06-12T04:48:16Z</time>
      </trkpt>
      <trkpt lat="43.6271" lon="1.40035">
        <ele>138</ele>
        <time>2025-06-12T04:48:17Z</time>
      </trkpt>
      <trkpt lat="43.62713" lon="1.40035">
        <ele>138</ele>
        <time>2025-06-12T04:48:18Z</time>
      </trkpt>
      <trkpt lat="43.62716" lon="1.40035">
        <ele>138</ele>
        <time>2025-06-12T04:48:19Z</time>
      </trkpt>
      <trkpt lat="43.6272" lon="1.40036">
        <ele>138</ele>
        <time>2025-06-12T04:48:20Z</time>
      </trkpt>
      <trkpt lat="43.62724" lon="1.40037">
        <ele>138</ele>
        <time>2025-06-12T04:48:21Z</time>
      </trkpt>
      <trkpt lat="43.62728" lon="1.40038">
        <ele>138</ele>
        <time>2025-06-12T04:48:22Z</time>
      </trkpt>
      <trkpt lat="43.62728" lon="1.40038">
        <ele>138</ele>
        <time>2025-06-12T04:48:23Z</time>
      </trkpt>
      <trkpt lat="43.62732" lon="1.40038">
        <ele>138</ele>
        <time>2025-06-12T04:48:24Z</time>
      </trkpt>
      <trkpt lat="43.62736" lon="1.40039">
        <ele>138</ele>
        <time>2025-06-12T04:48:25Z</time>
      </trkpt>
      <trkpt lat="43.62739" lon="1.40039">
        <ele>138</ele>
        <time>2025-06-12T04:48:26Z</time>
      </trkpt>
      <trkpt lat="43.62741" lon="1.4004">
        <ele>138</ele>
        <time>2025-06-12T04:48:27Z</time>
      </trkpt>
      <trkpt lat="43.62744" lon="1.40041">
        <ele>138</ele>
        <time>2025-06-12T04:48:28Z</time>
      </trkpt>
      <trkpt lat="43.62746" lon="1.40041">
        <ele>138</ele>
        <time>2025-06-12T04:48:29Z</time>
      </trkpt>
      <trkpt lat="43.62749" lon="1.40041">
        <ele>138</ele>
        <time>2025-06-12T04:48:30Z</time>
      </trkpt>
      <trkpt lat="43.62752" lon="1.40041">
        <ele>138</ele>
        <time>2025-06-12T04:48:31Z</time>
      </trkpt>
      <trkpt lat="43.62754" lon="1.4004">
        <ele>137</ele>
        <time>2025-06-12T04:48:32Z</time>
      </trkpt>
      <trkpt lat="43.62757" lon="1.40041">
        <ele>137</ele>
        <time>2025-06-12T04:48:33Z</time>
      </trkpt>
      <trkpt lat="43.62759" lon="1.40041">
        <ele>137</ele>
        <time>2025-06-12T04:48:34Z</time>
      </trkpt>
      <trkpt lat="43.62761" lon="1.40041">
        <ele>137</ele>
        <time>2025-06-12T04:48:35Z</time>
      </trkpt>
      <trkpt lat="43.62764" lon="1.40041">
        <ele>137</ele>
        <time>2025-06-12T04:48:36Z</time>
      </trkpt>
      <trkpt lat="43.62766" lon="1.40041">
        <ele>137</ele>
        <time>2025-06-12T04:48:37Z</time>
      </trkpt>
      <trkpt lat="43.62766" lon="1.40041">
        <ele>137</ele>
        <time>2025-06-12T04:48:38Z</time>
      </trkpt>
      <trkpt lat="43.6277" lon="1.40042">
        <ele>137</ele>
        <time>2025-06-12T04:48:39Z</time>
      </trkpt>
      <trkpt lat="43.62773" lon="1.40042">
        <ele>137</ele>
        <time>2025-06-12T04:48:40Z</time>
      </trkpt>
      <trkpt lat="43.62775" lon="1.40042">
        <ele>137</ele>
        <time>2025-06-12T04:48:41Z</time>
      </trkpt>
      <trkpt lat="43.62777" lon="1.40042">
        <ele>137</ele>
        <time>2025-06-12T04:48:42Z</time>
      </trkpt>
      <trkpt lat="43.6278" lon="1.40042">
        <ele>137</ele>
        <time>2025-06-12T04:48:43Z</time>
      </trkpt>
      <trkpt lat="43.62783" lon="1.40042">
        <ele>137</ele>
        <time>2025-06-12T04:48:44Z</time>
      </trkpt>
      <trkpt lat="43.62786" lon="1.40041">
        <ele>136</ele>
        <time>2025-06-12T04:48:45Z</time>
      </trkpt>
      <trkpt lat="43.62788" lon="1.4004">
        <ele>137</ele>
        <time>2025-06-12T04:48:46Z</time>
      </trkpt>
      <trkpt lat="43.62791" lon="1.4004">
        <ele>137</ele>
        <time>2025-06-12T04:48:47Z</time>
      </trkpt>
      <trkpt lat="43.62795" lon="1.40041">
        <ele>137</ele>
        <time>2025-06-12T04:48:48Z</time>
      </trkpt>
      <trkpt lat="43.62798" lon="1.40041">
        <ele>137</ele>
        <time>2025-06-12T04:48:49Z</time>
      </trkpt>
      <trkpt lat="43.62801" lon="1.40041">
        <ele>137</ele>
        <time>2025-06-12T04:48:50Z</time>
      </trkpt>
      <trkpt lat="43.62804" lon="1.40041">
        <ele>137</ele>
        <time>2025-06-12T04:48:51Z</time>
      </trkpt>
      <trkpt lat="43.62807" lon="1.40041">
        <ele>137</ele>
        <time>2025-06-12T04:48:52Z</time>
      </trkpt>
      <trkpt lat="43.62809" lon="1.40042">
        <ele>137</ele>
        <time>2025-06-12T04:48:53Z</time>
      </trkpt>
      <trkpt lat="43.62812" lon="1.40042">
        <ele>137</ele>
        <time>2025-06-12T04:48:54Z</time>
      </trkpt>
      <trkpt lat="43.62814" lon="1.40042">
        <ele>137</ele>
        <time>2025-06-12T04:48:55Z</time>
      </trkpt>
      <trkpt lat="43.62817" lon="1.40042">
        <ele>137</ele>
        <time>2025-06-12T04:48:56Z</time>
      </trkpt>
      <trkpt lat="43.62819" lon="1.40042">
        <ele>137</ele>
        <time>2025-06-12T04:48:57Z</time>
      </trkpt>
      <trkpt lat="43.62821" lon="1.40043">
        <ele>137</ele>
        <time>2025-06-12T04:48:58Z</time>
      </trkpt>
      <trkpt lat="43.62822" lon="1.40043">
        <ele>137</ele>
        <time>2025-06-12T04:48:59Z</time>
      </trkpt>
      <trkpt lat="43.62824" lon="1.40043">
        <ele>137</ele>
        <time>2025-06-12T04:49:00Z</time>
      </trkpt>
      <trkpt lat="43.62825" lon="1.40043">
        <ele>137</ele>
        <time>2025-06-12T04:49:01Z</time>
      </trkpt>
      <trkpt lat="43.62827" lon="1.40043">
        <ele>137</ele>
        <time>2025-06-12T04:49:02Z</time>
      </trkpt>
      <trkpt lat="43.62834" lon="1.40044">
        <ele>137</ele>
        <time>2025-06-12T04:49:03Z</time>
      </trkpt>
      <trkpt lat="43.62835" lon="1.40044">
        <ele>137</ele>
        <time>2025-06-12T04:49:04Z</time>
      </trkpt>
      <trkpt lat="43.62836" lon="1.40045">
        <ele>137</ele>
        <time>2025-06-12T04:49:05Z</time>
      </trkpt>
      <trkpt lat="43.62837" lon="1.40045">
        <ele>137</ele>
        <time>2025-06-12T04:49:06Z</time>
      </trkpt>
      <trkpt lat="43.62838" lon="1.40045">
        <ele>137</ele>
        <time>2025-06-12T04:49:07Z</time>
      </trkpt>
      <trkpt lat="43.62845" lon="1.40046">
        <ele>138</ele>
        <time>2025-06-12T04:49:08Z</time>
      </trkpt>
      <trkpt lat="43.62846" lon="1.40046">
        <ele>138</ele>
        <time>2025-06-12T04:49:09Z</time>
      </trkpt>
      <trkpt lat="43.62848" lon="1.40046">
        <ele>137</ele>
        <time>2025-06-12T04:49:10Z</time>
      </trkpt>
      <trkpt lat="43.62849" lon="1.40046">
        <ele>137</ele>
        <time>2025-06-12T04:49:11Z</time>
      </trkpt>
      <trkpt lat="43.62851" lon="1.40047">
        <ele>137</ele>
        <time>2025-06-12T04:49:12Z</time>
      </trkpt>
      <trkpt lat="43.62858" lon="1.40048">
        <ele>137</ele>
        <time>2025-06-12T04:49:13Z</time>
      </trkpt>
      <trkpt lat="43.6286" lon="1.40049">
        <ele>138</ele>
        <time>2025-06-12T04:49:14Z</time>
      </trkpt>
      <trkpt lat="43.62862" lon="1.40049">
        <ele>138</ele>
        <time>2025-06-12T04:49:15Z</time>
      </trkpt>
      <trkpt lat="43.62865" lon="1.4005">
        <ele>138</ele>
        <time>2025-06-12T04:49:16Z</time>
      </trkpt>
      <trkpt lat="43.62867" lon="1.4005">
        <ele>138</ele>
        <time>2025-06-12T04:49:17Z</time>
      </trkpt>
      <trkpt lat="43.62871" lon="1.4005">
        <ele>138</ele>
        <time>2025-06-12T04:49:18Z</time>
      </trkpt>
      <trkpt lat="43.62874" lon="1.40049">
        <ele>138</ele>
        <time>2025-06-12T04:49:19Z</time>
      </trkpt>
      <trkpt lat="43.62878" lon="1.40049">
        <ele>138</ele>
        <time>2025-06-12T04:49:20Z</time>
      </trkpt>
      <trkpt lat="43.62881" lon="1.4005">
        <ele>138</ele>
        <time>2025-06-12T04:49:21Z</time>
      </trkpt>
      <trkpt lat="43.62885" lon="1.4005">
        <ele>137</ele>
        <time>2025-06-12T04:49:22Z</time>
      </trkpt>
      <trkpt lat="43.62888" lon="1.40051">
        <ele>137</ele>
        <time>2025-06-12T04:49:23Z</time>
      </trkpt>
      <trkpt lat="43.62891" lon="1.40052">
        <ele>137</ele>
        <time>2025-06-12T04:49:24Z</time>
      </trkpt>
      <trkpt lat="43.62894" lon="1.40053">
        <ele>137</ele>
        <time>2025-06-12T04:49:25Z</time>
      </trkpt>
      <trkpt lat="43.62898" lon="1.40054">
        <ele>137</ele>
        <time>2025-06-12T04:49:26Z</time>
      </trkpt>
      <trkpt lat="43.629" lon="1.40055">
        <ele>137</ele>
        <time>2025-06-12T04:49:27Z</time>
      </trkpt>
      <trkpt lat="43.62903" lon="1.40056">
        <ele>137</ele>
        <time>2025-06-12T04:49:28Z</time>
      </trkpt>
      <trkpt lat="43.62906" lon="1.40057">
        <ele>137</ele>
        <time>2025-06-12T04:49:29Z</time>
      </trkpt>
      <trkpt lat="43.62908" lon="1.40057">
        <ele>137</ele>
        <time>2025-06-12T04:49:30Z</time>
      </trkpt>
      <trkpt lat="43.62911" lon="1.40057">
        <ele>137</ele>
        <time>2025-06-12T04:49:31Z</time>
      </trkpt>
      <trkpt lat="43.62914" lon="1.40057">
        <ele>137</ele>
        <time>2025-06-12T04:49:32Z</time>
      </trkpt>
      <trkpt lat="43.62917" lon="1.40058">
        <ele>137</ele>
        <time>2025-06-12T04:49:33Z</time>
      </trkpt>
      <trkpt lat="43.62919" lon="1.40058">
        <ele>137</ele>
        <time>2025-06-12T04:49:34Z</time>
      </trkpt>
      <trkpt lat="43.62922" lon="1.40059">
        <ele>137</ele>
        <time>2025-06-12T04:49:35Z</time>
      </trkpt>
      <trkpt lat="43.62924" lon="1.40059">
        <ele>137</ele>
        <time>2025-06-12T04:49:36Z</time>
      </trkpt>
      <trkpt lat="43.62926" lon="1.40059">
        <ele>137</ele>
        <time>2025-06-12T04:49:37Z</time>
      </trkpt>
      <trkpt lat="43.62927" lon="1.40059">
        <ele>137</ele>
        <time>2025-06-12T04:49:38Z</time>
      </trkpt>
      <trkpt lat="43.62929" lon="1.40059">
        <ele>137</ele>
        <time>2025-06-12T04:49:39Z</time>
      </trkpt>
      <trkpt lat="43.6293" lon="1.40059">
        <ele>137</ele>
        <time>2025-06-12T04:49:40Z</time>
      </trkpt>
      <trkpt lat="43.62931" lon="1.40059">
        <ele>137</ele>
        <time>2025-06-12T04:49:41Z</time>
      </trkpt>
      <trkpt lat="43.62932" lon="1.40059">
        <ele>138</ele>
        <time>2025-06-12T04:49:42Z</time>
      </trkpt>
      <trkpt lat="43.62939" lon="1.40059">
        <ele>139</ele>
        <time>2025-06-12T04:49:43Z</time>
      </trkpt>
      <trkpt lat="43.62941" lon="1.40059">
        <ele>139</ele>
        <time>2025-06-12T04:49:44Z</time>
      </trkpt>
      <trkpt lat="43.62942" lon="1.40059">
        <ele>140</ele>
        <time>2025-06-12T04:49:45Z</time>
      </trkpt>
      <trkpt lat="43.62944" lon="1.40059">
        <ele>140</ele>
        <time>2025-06-12T04:49:46Z</time>
      </trkpt>
      <trkpt lat="43.62951" lon="1.40059">
        <ele>141</ele>
        <time>2025-06-12T04:49:47Z</time>
      </trkpt>
      <trkpt lat="43.62953" lon="1.4006">
        <ele>141</ele>
        <time>2025-06-12T04:49:48Z</time>
      </trkpt>
      <trkpt lat="43.62956" lon="1.4006">
        <ele>141</ele>
        <time>2025-06-12T04:49:49Z</time>
      </trkpt>
      <trkpt lat="43.62959" lon="1.40062">
        <ele>140</ele>
        <time>2025-06-12T04:49:50Z</time>
      </trkpt>
      <trkpt lat="43.62962" lon="1.40063">
        <ele>140</ele>
        <time>2025-06-12T04:49:51Z</time>
      </trkpt>
      <trkpt lat="43.62965" lon="1.40064">
        <ele>140</ele>
        <time>2025-06-12T04:49:52Z</time>
      </trkpt>
      <trkpt lat="43.62967" lon="1.40065">
        <ele>140</ele>
        <time>2025-06-12T04:49:53Z</time>
      </trkpt>
      <trkpt lat="43.6297" lon="1.40066">
        <ele>140</ele>
        <time>2025-06-12T04:49:54Z</time>
      </trkpt>
      <trkpt lat="43.62972" lon="1.40066">
        <ele>140</ele>
        <time>2025-06-12T04:49:55Z</time>
      </trkpt>
      <trkpt lat="43.62975" lon="1.40067">
        <ele>140</ele>
        <time>2025-06-12T04:49:56Z</time>
      </trkpt>
      <trkpt lat="43.6298" lon="1.40069">
        <ele>140</ele>
        <time>2025-06-12T04:49:57Z</time>
      </trkpt>
      <trkpt lat="43.6298" lon="1.40069">
        <ele>140</ele>
        <time>2025-06-12T04:49:58Z</time>
      </trkpt>
      <trkpt lat="43.62983" lon="1.40069">
        <ele>140</ele>
        <time>2025-06-12T04:49:59Z</time>
      </trkpt>
      <trkpt lat="43.62986" lon="1.4007">
        <ele>139</ele>
        <time>2025-06-12T04:50:00Z</time>
      </trkpt>
      <trkpt lat="43.62989" lon="1.4007">
        <ele>139</ele>
        <time>2025-06-12T04:50:01Z</time>
      </trkpt>
      <trkpt lat="43.62992" lon="1.4007">
        <ele>139</ele>
        <time>2025-06-12T04:50:02Z</time>
      </trkpt>
      <trkpt lat="43.62995" lon="1.40071">
        <ele>139</ele>
        <time>2025-06-12T04:50:03Z</time>
      </trkpt>
      <trkpt lat="43.62998" lon="1.40072">
        <ele>139</ele>
        <time>2025-06-12T04:50:04Z</time>
      </trkpt>
      <trkpt lat="43.63001" lon="1.40073">
        <ele>139</ele>
        <time>2025-06-12T04:50:05Z</time>
      </trkpt>
      <trkpt lat="43.63004" lon="1.40074">
        <ele>139</ele>
        <time>2025-06-12T04:50:06Z</time>
      </trkpt>
      <trkpt lat="43.63007" lon="1.40075">
        <ele>139</ele>
        <time>2025-06-12T04:50:07Z</time>
      </trkpt>
      <trkpt lat="43.6301" lon="1.40076">
        <ele>139</ele>
        <time>2025-06-12T04:50:08Z</time>
      </trkpt>
      <trkpt lat="43.63012" lon="1.40076">
        <ele>139</ele>
        <time>2025-06-12T04:50:09Z</time>
      </trkpt>
      <trkpt lat="43.63015" lon="1.40077">
        <ele>139</ele>
        <time>2025-06-12T04:50:10Z</time>
      </trkpt>
      <trkpt lat="43.63017" lon="1.40077">
        <ele>139</ele>
        <time>2025-06-12T04:50:11Z</time>
      </trkpt>
      <trkpt lat="43.6302" lon="1.40078">
        <ele>139</ele>
        <time>2025-06-12T04:50:12Z</time>
      </trkpt>
      <trkpt lat="43.63026" lon="1.40079">
        <ele>139</ele>
        <time>2025-06-12T04:50:13Z</time>
      </trkpt>
      <trkpt lat="43.63026" lon="1.40079">
        <ele>139</ele>
        <time>2025-06-12T04:50:14Z</time>
      </trkpt>
      <trkpt lat="43.6303" lon="1.40079">
        <ele>139</ele>
        <time>2025-06-12T04:50:15Z</time>
      </trkpt>
      <trkpt lat="43.63033" lon="1.40079">
        <ele>139</ele>
        <time>2025-06-12T04:50:16Z</time>
      </trkpt>
      <trkpt lat="43.63036" lon="1.40079">
        <ele>139</ele>
        <time>2025-06-12T04:50:17Z</time>
      </trkpt>
      <trkpt lat="43.63039" lon="1.40081">
        <ele>140</ele>
        <time>2025-06-12T04:50:18Z</time>
      </trkpt>
      <trkpt lat="43.63042" lon="1.40083">
        <ele>140</ele>
        <time>2025-06-12T04:50:19Z</time>
      </trkpt>
      <trkpt lat="43.63044" lon="1.40084">
        <ele>140</ele>
        <time>2025-06-12T04:50:20Z</time>
      </trkpt>
      <trkpt lat="43.63046" lon="1.40084">
        <ele>139</ele>
        <time>2025-06-12T04:50:21Z</time>
      </trkpt>
      <trkpt lat="43.63048" lon="1.40085">
        <ele>139</ele>
        <time>2025-06-12T04:50:22Z</time>
      </trkpt>
      <trkpt lat="43.63051" lon="1.40086">
        <ele>139</ele>
        <time>2025-06-12T04:50:23Z</time>
      </trkpt>
      <trkpt lat="43.63053" lon="1.40087">
        <ele>139</ele>
        <time>2025-06-12T04:50:24Z</time>
      </trkpt>
      <trkpt lat="43.63055" lon="1.40088">
        <ele>139</ele>
        <time>2025-06-12T04:50:25Z</time>
      </trkpt>
      <trkpt lat="43.63057" lon="1.40089">
        <ele>139</ele>
        <time>2025-06-12T04:50:26Z</time>
      </trkpt>
      <trkpt lat="43.63059" lon="1.4009">
        <ele>139</ele>
        <time>2025-06-12T04:50:27Z</time>
      </trkpt>
      <trkpt lat="43.63061" lon="1.40092">
        <ele>140</ele>
        <time>2025-06-12T04:50:28Z</time>
      </trkpt>
      <trkpt lat="43.63064" lon="1.40092">
        <ele>140</ele>
        <time>2025-06-12T04:50:29Z</time>
      </trkpt>
      <trkpt lat="43.63067" lon="1.40092">
        <ele>140</ele>
        <time>2025-06-12T04:50:30Z</time>
      </trkpt>
      <trkpt lat="43.63069" lon="1.40092">
        <ele>140</ele>
        <time>2025-06-12T04:50:31Z</time>
      </trkpt>
      <trkpt lat="43.63072" lon="1.40093">
        <ele>140</ele>
        <time>2025-06-12T04:50:32Z</time>
      </trkpt>
      <trkpt lat="43.63075" lon="1.40094">
        <ele>139</ele>
        <time>2025-06-12T04:50:33Z</time>
      </trkpt>
      <trkpt lat="43.63078" lon="1.40095">
        <ele>139</ele>
        <time>2025-06-12T04:50:34Z</time>
      </trkpt>
      <trkpt lat="43.63081" lon="1.40096">
        <ele>139</ele>
        <time>2025-06-12T04:50:35Z</time>
      </trkpt>
      <trkpt lat="43.63085" lon="1.40097">
        <ele>139</ele>
        <time>2025-06-12T04:50:36Z</time>
      </trkpt>
      <trkpt lat="43.63088" lon="1.40098">
        <ele>139</ele>
        <time>2025-06-12T04:50:37Z</time>
      </trkpt>
      <trkpt lat="43.63091" lon="1.40099">
        <ele>140</ele>
        <time>2025-06-12T04:50:38Z</time>
      </trkpt>
      <trkpt lat="43.63094" lon="1.40099">
        <ele>140</ele>
        <time>2025-06-12T04:50:39Z</time>
      </trkpt>
      <trkpt lat="43.63098" lon="1.401">
        <ele>139</ele>
        <time>2025-06-12T04:50:40Z</time>
      </trkpt>
      <trkpt lat="43.63101" lon="1.401">
        <ele>140</ele>
        <time>2025-06-12T04:50:41Z</time>
      </trkpt>
      <trkpt lat="43.63105" lon="1.40101">
        <ele>140</ele>
        <time>2025-06-12T04:50:42Z</time>
      </trkpt>
      <trkpt lat="43.63108" lon="1.40102">
        <ele>140</ele>
        <time>2025-06-12T04:50:43Z</time>
      </trkpt>
      <trkpt lat="43.63111" lon="1.40102">
        <ele>140</ele>
        <time>2025-06-12T04:50:44Z</time>
      </trkpt>
      <trkpt lat="43.63114" lon="1.40102">
        <ele>140</ele>
        <time>2025-06-12T04:50:45Z</time>
      </trkpt>
      <trkpt lat="43.63116" lon="1.40103">
        <ele>140</ele>
        <time>2025-06-12T04:50:46Z</time>
      </trkpt>
      <trkpt lat="43.63119" lon="1.40103">
        <ele>139</ele>
        <time>2025-06-12T04:50:47Z</time>
      </trkpt>
      <trkpt lat="43.63122" lon="1.40104">
        <ele>139</ele>
        <time>2025-06-12T04:50:48Z</time>
      </trkpt>
      <trkpt lat="43.63124" lon="1.40105">
        <ele>139</ele>
        <time>2025-06-12T04:50:49Z</time>
      </trkpt>
      <trkpt lat="43.63127" lon="1.40106">
        <ele>139</ele>
        <time>2025-06-12T04:50:50Z</time>
      </trkpt>
      <trkpt lat="43.63129" lon="1.40106">
        <ele>139</ele>
        <time>2025-06-12T04:50:51Z</time>
      </trkpt>
      <trkpt lat="43.63131" lon="1.40107">
        <ele>139</ele>
        <time>2025-06-12T04:50:52Z</time>
      </trkpt>
      <trkpt lat="43.63134" lon="1.40108">
        <ele>139</ele>
        <time>2025-06-12T04:50:53Z</time>
      </trkpt>
      <trkpt lat="43.63136" lon="1.40108">
        <ele>140</ele>
        <time>2025-06-12T04:50:54Z</time>
      </trkpt>
      <trkpt lat="43.63136" lon="1.40108">
        <ele>140</ele>
        <time>2025-06-12T04:50:55Z</time>
      </trkpt>
      <trkpt lat="43.6314" lon="1.4011">
        <ele>140</ele>
        <time>2025-06-12T04:50:56Z</time>
      </trkpt>
      <trkpt lat="43.63142" lon="1.40111">
        <ele>139</ele>
        <time>2025-06-12T04:50:57Z</time>
      </trkpt>
      <trkpt lat="43.63144" lon="1.40112">
        <ele>139</ele>
        <time>2025-06-12T04:50:58Z</time>
      </trkpt>
      <trkpt lat="43.63147" lon="1.40113">
        <ele>139</ele>
        <time>2025-06-12T04:50:59Z</time>
      </trkpt>
      <trkpt lat="43.63149" lon="1.40114">
        <ele>139</ele>
        <time>2025-06-12T04:51:00Z</time>
      </trkpt>
      <trkpt lat="43.63151" lon="1.40115">
        <ele>139</ele>
        <time>2025-06-12T04:51:01Z</time>
      </trkpt>
      <trkpt lat="43.63154" lon="1.40116">
        <ele>139</ele>
        <time>2025-06-12T04:51:02Z</time>
      </trkpt>
      <trkpt lat="43.63157" lon="1.40117">
        <ele>139</ele>
        <time>2025-06-12T04:51:03Z</time>
      </trkpt>
      <trkpt lat="43.6316" lon="1.40119">
        <ele>139</ele>
        <time>2025-06-12T04:51:04Z</time>
      </trkpt>
      <trkpt lat="43.63163" lon="1.4012">
        <ele>139</ele>
        <time>2025-06-12T04:51:05Z</time>
      </trkpt>
      <trkpt lat="43.63165" lon="1.40122">
        <ele>139</ele>
        <time>2025-06-12T04:51:06Z</time>
      </trkpt>
      <trkpt lat="43.63169" lon="1.40123">
        <ele>139</ele>
        <time>2025-06-12T04:51:07Z</time>
      </trkpt>
      <trkpt lat="43.63171" lon="1.40124">
        <ele>139</ele>
        <time>2025-06-12T04:51:08Z</time>
      </trkpt>
      <trkpt lat="43.63174" lon="1.40125">
        <ele>139</ele>
        <time>2025-06-12T04:51:09Z</time>
      </trkpt>
      <trkpt lat="43.63177" lon="1.40126">
        <ele>139</ele>
        <time>2025-06-12T04:51:10Z</time>
      </trkpt>
      <trkpt lat="43.6318" lon="1.40127">
        <ele>139</ele>
        <time>2025-06-12T04:51:11Z</time>
      </trkpt>
      <trkpt lat="43.63183" lon="1.40127">
        <ele>139</ele>
        <time>2025-06-12T04:51:12Z</time>
      </trkpt>
      <trkpt lat="43.63186" lon="1.40128">
        <ele>139</ele>
        <time>2025-06-12T04:51:13Z</time>
      </trkpt>
      <trkpt lat="43.63188" lon="1.40129">
        <ele>139</ele>
        <time>2025-06-12T04:51:14Z</time>
      </trkpt>
      <trkpt lat="43.63191" lon="1.40129">
        <ele>139</ele>
        <time>2025-06-12T04:51:15Z</time>
      </trkpt>
      <trkpt lat="43.63194" lon="1.40131">
        <ele>139</ele>
        <time>2025-06-12T04:51:16Z</time>
      </trkpt>
      <trkpt lat="43.63196" lon="1.40132">
        <ele>139</ele>
        <time>2025-06-12T04:51:17Z</time>
      </trkpt>
      <trkpt lat="43.63199" lon="1.40133">
        <ele>139</ele>
        <time>2025-06-12T04:51:18Z</time>
      </trkpt>
      <trkpt lat="43.63202" lon="1.40135">
        <ele>139</ele>
        <time>2025-06-12T04:51:19Z</time>
      </trkpt>
      <trkpt lat="43.63204" lon="1.40135">
        <ele>139</ele>
        <time>2025-06-12T04:51:20Z</time>
      </trkpt>
      <trkpt lat="43.63207" lon="1.40136">
        <ele>139</ele>
        <time>2025-06-12T04:51:21Z</time>
      </trkpt>
      <trkpt lat="43.63209" lon="1.40137">
        <ele>139</ele>
        <time>2025-06-12T04:51:22Z</time>
      </trkpt>
      <trkpt lat="43.63211" lon="1.40138">
        <ele>139</ele>
        <time>2025-06-12T04:51:23Z</time>
      </trkpt>
      <trkpt lat="43.63214" lon="1.40139">
        <ele>139</ele>
        <time>2025-06-12T04:51:24Z</time>
      </trkpt>
      <trkpt lat="43.63216" lon="1.4014">
        <ele>139</ele>
        <time>2025-06-12T04:51:25Z</time>
      </trkpt>
      <trkpt lat="43.6322" lon="1.40142">
        <ele>139</ele>
        <time>2025-06-12T04:51:26Z</time>
      </trkpt>
      <trkpt lat="43.63222" lon="1.40143">
        <ele>139</ele>
        <time>2025-06-12T04:51:27Z</time>
      </trkpt>
      <trkpt lat="43.63225" lon="1.40144">
        <ele>139</ele>
        <time>2025-06-12T04:51:28Z</time>
      </trkpt>
      <trkpt lat="43.63228" lon="1.40144">
        <ele>139</ele>
        <time>2025-06-12T04:51:29Z</time>
      </trkpt>
      <trkpt lat="43.63231" lon="1.40145">
        <ele>139</ele>
        <time>2025-06-12T04:51:30Z</time>
      </trkpt>
      <trkpt lat="43.63234" lon="1.40146">
        <ele>139</ele>
        <time>2025-06-12T04:51:31Z</time>
      </trkpt>
      <trkpt lat="43.63237" lon="1.40146">
        <ele>139</ele>
        <time>2025-06-12T04:51:32Z</time>
      </trkpt>
      <trkpt lat="43.63239" lon="1.40147">
        <ele>139</ele>
        <time>2025-06-12T04:51:33Z</time>
      </trkpt>
      <trkpt lat="43.63242" lon="1.40148">
        <ele>139</ele>
        <time>2025-06-12T04:51:34Z</time>
      </trkpt>
      <trkpt lat="43.63244" lon="1.40148">
        <ele>139</ele>
        <time>2025-06-12T04:51:35Z</time>
      </trkpt>
      <trkpt lat="43.63247" lon="1.40148">
        <ele>139</ele>
        <time>2025-06-12T04:51:36Z</time>
      </trkpt>
      <trkpt lat="43.6325" lon="1.4015">
        <ele>139</ele>
        <time>2025-06-12T04:51:37Z</time>
      </trkpt>
      <trkpt lat="43.63252" lon="1.40151">
        <ele>139</ele>
        <time>2025-06-12T04:51:38Z</time>
      </trkpt>
      <trkpt lat="43.63255" lon="1.40151">
        <ele>139</ele>
        <time>2025-06-12T04:51:39Z</time>
      </trkpt>
      <trkpt lat="43.63257" lon="1.40152">
        <ele>139</ele>
        <time>2025-06-12T04:51:40Z</time>
      </trkpt>
      <trkpt lat="43.6326" lon="1.40153">
        <ele>139</ele>
        <time>2025-06-12T04:51:41Z</time>
      </trkpt>
      <trkpt lat="43.63262" lon="1.40154">
        <ele>139</ele>
        <time>2025-06-12T04:51:42Z</time>
      </trkpt>
      <trkpt lat="43.63265" lon="1.40155">
        <ele>139</ele>
        <time>2025-06-12T04:51:43Z</time>
      </trkpt>
      <trkpt lat="43.63267" lon="1.40156">
        <ele>139</ele>
        <time>2025-06-12T04:51:44Z</time>
      </trkpt>
      <trkpt lat="43.63271" lon="1.40157">
        <ele>139</ele>
        <time>2025-06-12T04:51:45Z</time>
      </trkpt>
      <trkpt lat="43.63274" lon="1.40158">
        <ele>139</ele>
        <time>2025-06-12T04:51:46Z</time>
      </trkpt>
      <trkpt lat="43.63277" lon="1.40159">
        <ele>139</ele>
        <time>2025-06-12T04:51:47Z</time>
      </trkpt>
      <trkpt lat="43.63279" lon="1.4016">
        <ele>139</ele>
        <time>2025-06-12T04:51:48Z</time>
      </trkpt>
      <trkpt lat="43.63282" lon="1.4016">
        <ele>139</ele>
        <time>2025-06-12T04:51:49Z</time>
      </trkpt>
      <trkpt lat="43.63284" lon="1.40161">
        <ele>139</ele>
        <time>2025-06-12T04:51:50Z</time>
      </trkpt>
      <trkpt lat="43.63286" lon="1.40161">
        <ele>139</ele>
        <time>2025-06-12T04:51:51Z</time>
      </trkpt>
      <trkpt lat="43.63288" lon="1.40162">
        <ele>139</ele>
        <time>2025-06-12T04:51:52Z</time>
      </trkpt>
      <trkpt lat="43.6329" lon="1.40163">
        <ele>139</ele>
        <time>2025-06-12T04:51:53Z</time>
      </trkpt>
      <trkpt lat="43.63292" lon="1.40164">
        <ele>139</ele>
        <time>2025-06-12T04:51:54Z</time>
      </trkpt>
      <trkpt lat="43.63295" lon="1.40166">
        <ele>139</ele>
        <time>2025-06-12T04:51:55Z</time>
      </trkpt>
      <trkpt lat="43.63297" lon="1.40167">
        <ele>139</ele>
        <time>2025-06-12T04:51:56Z</time>
      </trkpt>
      <trkpt lat="43.633" lon="1.40168">
        <ele>139</ele>
        <time>2025-06-12T04:51:57Z</time>
      </trkpt>
      <trkpt lat="43.63303" lon="1.40169">
        <ele>139</ele>
        <time>2025-06-12T04:51:58Z</time>
      </trkpt>
      <trkpt lat="43.63305" lon="1.4017">
        <ele>139</ele>
        <time>2025-06-12T04:51:59Z</time>
      </trkpt>
      <trkpt lat="43.63308" lon="1.40171">
        <ele>139</ele>
        <time>2025-06-12T04:52:00Z</time>
      </trkpt>
      <trkpt lat="43.6331" lon="1.40172">
        <ele>139</ele>
        <time>2025-06-12T04:52:01Z</time>
      </trkpt>
      <trkpt lat="43.63312" lon="1.40174">
        <ele>139</ele>
        <time>2025-06-12T04:52:02Z</time>
      </trkpt>
      <trkpt lat="43.63315" lon="1.40175">
        <ele>139</ele>
        <time>2025-06-12T04:52:03Z</time>
      </trkpt>
      <trkpt lat="43.63317" lon="1.40177">
        <ele>139</ele>
        <time>2025-06-12T04:52:04Z</time>
      </trkpt>
      <trkpt lat="43.6332" lon="1.40178">
        <ele>139</ele>
        <time>2025-06-12T04:52:05Z</time>
      </trkpt>
      <trkpt lat="43.63322" lon="1.40179">
        <ele>139</ele>
        <time>2025-06-12T04:52:06Z</time>
      </trkpt>
      <trkpt lat="43.63325" lon="1.4018">
        <ele>139</ele>
        <time>2025-06-12T04:52:07Z</time>
      </trkpt>
      <trkpt lat="43.63327" lon="1.40181">
        <ele>139</ele>
        <time>2025-06-12T04:52:08Z</time>
      </trkpt>
      <trkpt lat="43.6333" lon="1.40182">
        <ele>139</ele>
        <time>2025-06-12T04:52:09Z</time>
      </trkpt>
      <trkpt lat="43.63333" lon="1.40183">
        <ele>139</ele>
        <time>2025-06-12T04:52:10Z</time>
      </trkpt>
      <trkpt lat="43.63336" lon="1.40183">
        <ele>140</ele>
        <time>2025-06-12T04:52:11Z</time>
      </trkpt>
      <trkpt lat="43.63338" lon="1.40184">
        <ele>140</ele>
        <time>2025-06-12T04:52:12Z</time>
      </trkpt>
      <trkpt lat="43.63341" lon="1.40185">
        <ele>140</ele>
        <time>2025-06-12T04:52:13Z</time>
      </trkpt>
      <trkpt lat="43.63344" lon="1.40186">
        <ele>140</ele>
        <time>2025-06-12T04:52:14Z</time>
      </trkpt>
      <trkpt lat="43.63346" lon="1.40187">
        <ele>140</ele>
        <time>2025-06-12T04:52:15Z</time>
      </trkpt>
      <trkpt lat="43.63349" lon="1.40189">
        <ele>139</ele>
        <time>2025-06-12T04:52:16Z</time>
      </trkpt>
      <trkpt lat="43.63351" lon="1.4019">
        <ele>139</ele>
        <time>2025-06-12T04:52:17Z</time>
      </trkpt>
      <trkpt lat="43.63354" lon="1.40191">
        <ele>139</ele>
        <time>2025-06-12T04:52:18Z</time>
      </trkpt>
      <trkpt lat="43.63356" lon="1.40192">
        <ele>139</ele>
        <time>2025-06-12T04:52:19Z</time>
      </trkpt>
      <trkpt lat="43.63359" lon="1.40193">
        <ele>139</ele>
        <time>2025-06-12T04:52:20Z</time>
      </trkpt>
      <trkpt lat="43.63362" lon="1.40194">
        <ele>139</ele>
        <time>2025-06-12T04:52:21Z</time>
      </trkpt>
      <trkpt lat="43.63366" lon="1.40195">
        <ele>139</ele>
        <time>2025-06-12T04:52:22Z</time>
      </trkpt>
      <trkpt lat="43.63368" lon="1.40196">
        <ele>139</ele>
        <time>2025-06-12T04:52:23Z</time>
      </trkpt>
      <trkpt lat="43.63371" lon="1.40198">
        <ele>139</ele>
        <time>2025-06-12T04:52:24Z</time>
      </trkpt>
      <trkpt lat="43.63374" lon="1.40199">
        <ele>139</ele>
        <time>2025-06-12T04:52:25Z</time>
      </trkpt>
      <trkpt lat="43.63376" lon="1.40201">
        <ele>139</ele>
        <time>2025-06-12T04:52:26Z</time>
      </trkpt>
      <trkpt lat="43.63378" lon="1.40202">
        <ele>139</ele>
        <time>2025-06-12T04:52:27Z</time>
      </trkpt>
      <trkpt lat="43.6338" lon="1.40203">
        <ele>139</ele>
        <time>2025-06-12T04:52:28Z</time>
      </trkpt>
      <trkpt lat="43.63382" lon="1.40204">
        <ele>139</ele>
        <time>2025-06-12T04:52:29Z</time>
      </trkpt>
      <trkpt lat="43.63385" lon="1.40205">
        <ele>139</ele>
        <time>2025-06-12T04:52:30Z</time>
      </trkpt>
      <trkpt lat="43.63388" lon="1.40205">
        <ele>139</ele>
        <time>2025-06-12T04:52:31Z</time>
      </trkpt>
      <trkpt lat="43.6339" lon="1.40206">
        <ele>139</ele>
        <time>2025-06-12T04:52:32Z</time>
      </trkpt>
      <trkpt lat="43.63393" lon="1.40207">
        <ele>139</ele>
        <time>2025-06-12T04:52:33Z</time>
      </trkpt>
      <trkpt lat="43.63396" lon="1.40209">
        <ele>139</ele>
        <time>2025-06-12T04:52:34Z</time>
      </trkpt>
      <trkpt lat="43.63399" lon="1.4021">
        <ele>139</ele>
        <time>2025-06-12T04:52:35Z</time>
      </trkpt>
      <trkpt lat="43.63402" lon="1.40211">
        <ele>139</ele>
        <time>2025-06-12T04:52:36Z</time>
      </trkpt>
      <trkpt lat="43.63405" lon="1.40212">
        <ele>139</ele>
        <time>2025-06-12T04:52:37Z</time>
      </trkpt>
      <trkpt lat="43.63409" lon="1.40214">
        <ele>139</ele>
        <time>2025-06-12T04:52:38Z</time>
      </trkpt>
      <trkpt lat="43.63411" lon="1.40215">
        <ele>139</ele>
        <time>2025-06-12T04:52:39Z</time>
      </trkpt>
      <trkpt lat="43.63414" lon="1.40216">
        <ele>139</ele>
        <time>2025-06-12T04:52:40Z</time>
      </trkpt>
      <trkpt lat="43.63417" lon="1.40218">
        <ele>139</ele>
        <time>2025-06-12T04:52:41Z</time>
      </trkpt>
      <trkpt lat="43.6342" lon="1.40219">
        <ele>139</ele>
        <time>2025-06-12T04:52:42Z</time>
      </trkpt>
      <trkpt lat="43.63423" lon="1.4022">
        <ele>139</ele>
        <time>2025-06-12T04:52:43Z</time>
      </trkpt>
      <trkpt lat="43.63426" lon="1.40222">
        <ele>139</ele>
        <time>2025-06-12T04:52:44Z</time>
      </trkpt>
      <trkpt lat="43.63429" lon="1.40223">
        <ele>139</ele>
        <time>2025-06-12T04:52:45Z</time>
      </trkpt>
      <trkpt lat="43.63431" lon="1.40223">
        <ele>139</ele>
        <time>2025-06-12T04:52:46Z</time>
      </trkpt>
      <trkpt lat="43.63434" lon="1.40224">
        <ele>139</ele>
        <time>2025-06-12T04:52:47Z</time>
      </trkpt>
      <trkpt lat="43.63436" lon="1.40225">
        <ele>139</ele>
        <time>2025-06-12T04:52:48Z</time>
      </trkpt>
      <trkpt lat="43.63438" lon="1.40226">
        <ele>139</ele>
        <time>2025-06-12T04:52:49Z</time>
      </trkpt>
      <trkpt lat="43.6344" lon="1.40227">
        <ele>139</ele>
        <time>2025-06-12T04:52:50Z</time>
      </trkpt>
      <trkpt lat="43.63442" lon="1.40228">
        <ele>139</ele>
        <time>2025-06-12T04:52:51Z</time>
      </trkpt>
      <trkpt lat="43.63445" lon="1.40229">
        <ele>139</ele>
        <time>2025-06-12T04:52:52Z</time>
      </trkpt>
      <trkpt lat="43.63447" lon="1.4023">
        <ele>139</ele>
        <time>2025-06-12T04:52:53Z</time>
      </trkpt>
      <trkpt lat="43.6345" lon="1.40231">
        <ele>139</ele>
        <time>2025-06-12T04:52:54Z</time>
      </trkpt>
      <trkpt lat="43.63452" lon="1.40232">
        <ele>139</ele>
        <time>2025-06-12T04:52:55Z</time>
      </trkpt>
      <trkpt lat="43.63454" lon="1.40233">
        <ele>139</ele>
        <time>2025-06-12T04:52:56Z</time>
      </trkpt>
      <trkpt lat="43.63457" lon="1.40234">
        <ele>139</ele>
        <time>2025-06-12T04:52:57Z</time>
      </trkpt>
      <trkpt lat="43.63459" lon="1.40234">
        <ele>139</ele>
        <time>2025-06-12T04:52:58Z</time>
      </trkpt>
      <trkpt lat="43.63461" lon="1.40235">
        <ele>139</ele>
        <time>2025-06-12T04:52:59Z</time>
      </trkpt>
      <trkpt lat="43.63463" lon="1.40236">
        <ele>139</ele>
        <time>2025-06-12T04:53:00Z</time>
      </trkpt>
      <trkpt lat="43.63466" lon="1.40237">
        <ele>139</ele>
        <time>2025-06-12T04:53:01Z</time>
      </trkpt>
      <trkpt lat="43.63468" lon="1.40238">
        <ele>139</ele>
        <time>2025-06-12T04:53:02Z</time>
      </trkpt>
      <trkpt lat="43.6347" lon="1.4024">
        <ele>139</ele>
        <time>2025-06-12T04:53:03Z</time>
      </trkpt>
      <trkpt lat="43.63473" lon="1.40241">
        <ele>139</ele>
        <time>2025-06-12T04:53:04Z</time>
      </trkpt>
      <trkpt lat="43.63475" lon="1.40241">
        <ele>139</ele>
        <time>2025-06-12T04:53:05Z</time>
      </trkpt>
      <trkpt lat="43.63477" lon="1.40241">
        <ele>139</ele>
        <time>2025-06-12T04:53:06Z</time>
      </trkpt>
      <trkpt lat="43.63479" lon="1.40242">
        <ele>139</ele>
        <time>2025-06-12T04:53:07Z</time>
      </trkpt>
      <trkpt lat="43.63481" lon="1.40242">
        <ele>139</ele>
        <time>2025-06-12T04:53:08Z</time>
      </trkpt>
      <trkpt lat="43.63484" lon="1.40242">
        <ele>139</ele>
        <time>2025-06-12T04:53:09Z</time>
      </trkpt>
      <trkpt lat="43.63486" lon="1.40242">
        <ele>139</ele>
        <time>2025-06-12T04:53:10Z</time>
      </trkpt>
      <trkpt lat="43.63488" lon="1.40243">
        <ele>139</ele>
        <time>2025-06-12T04:53:11Z</time>
      </trkpt>
      <trkpt lat="43.63491" lon="1.40243">
        <ele>139</ele>
        <time>2025-06-12T04:53:12Z</time>
      </trkpt>
      <trkpt lat="43.63494" lon="1.40243">
        <ele>139</ele>
        <time>2025-06-12T04:53:13Z</time>
      </trkpt>
      <trkpt lat="43.63496" lon="1.40243">
        <ele>139</ele>
        <time>2025-06-12T04:53:14Z</time>
      </trkpt>
      <trkpt lat="43.63499" lon="1.40243">
        <ele>139</ele>
        <time>2025-06-12T04:53:15Z</time>
      </trkpt>
      <trkpt lat="43.63502" lon="1.40243">
        <ele>139</ele>
        <time>2025-06-12T04:53:16Z</time>
      </trkpt>
      <trkpt lat="43.63504" lon="1.40243">
        <ele>139</ele>
        <time>2025-06-12T04:53:17Z</time>
      </trkpt>
      <trkpt lat="43.63507" lon="1.40243">
        <ele>139</ele>
        <time>2025-06-12T04:53:18Z</time>
      </trkpt>
      <trkpt lat="43.63509" lon="1.40244">
        <ele>139</ele>
        <time>2025-06-12T04:53:19Z</time>
      </trkpt>
      <trkpt lat="43.63512" lon="1.40245">
        <ele>139</ele>
        <time>2025-06-12T04:53:20Z</time>
      </trkpt>
      <trkpt lat="43.63515" lon="1.40245">
        <ele>139</ele>
        <time>2025-06-12T04:53:21Z</time>
      </trkpt>
      <trkpt lat="43.63517" lon="1.40245">
        <ele>139</ele>
        <time>2025-06-12T04:53:22Z</time>
      </trkpt>
      <trkpt lat="43.63519" lon="1.40245">
        <ele>139</ele>
        <time>2025-06-12T04:53:23Z</time>
      </trkpt>
      <trkpt lat="43.63521" lon="1.40246">
        <ele>139</ele>
        <time>2025-06-12T04:53:24Z</time>
      </trkpt>
      <trkpt lat="43.63524" lon="1.40247">
        <ele>139</ele>
        <time>2025-06-12T04:53:25Z</time>
      </trkpt>
      <trkpt lat="43.63525" lon="1.40247">
        <ele>139</ele>
        <time>2025-06-12T04:53:26Z</time>
      </trkpt>
      <trkpt lat="43.63528" lon="1.40248">
        <ele>139</ele>
        <time>2025-06-12T04:53:27Z</time>
      </trkpt>
      <trkpt lat="43.63531" lon="1.40248">
        <ele>139</ele>
        <time>2025-06-12T04:53:28Z</time>
      </trkpt>
      <trkpt lat="43.63534" lon="1.40248">
        <ele>139</ele>
        <time>2025-06-12T04:53:29Z</time>
      </trkpt>
      <trkpt lat="43.63537" lon="1.40249">
        <ele>139</ele>
        <time>2025-06-12T04:53:30Z</time>
      </trkpt>
      <trkpt lat="43.63539" lon="1.40249">
        <ele>139</ele>
        <time>2025-06-12T04:53:31Z</time>
      </trkpt>
      <trkpt lat="43.63542" lon="1.4025">
        <ele>139</ele>
        <time>2025-06-12T04:53:32Z</time>
      </trkpt>
      <trkpt lat="43.63545" lon="1.4025">
        <ele>139</ele>
        <time>2025-06-12T04:53:33Z</time>
      </trkpt>
      <trkpt lat="43.63548" lon="1.4025">
        <ele>139</ele>
        <time>2025-06-12T04:53:34Z</time>
      </trkpt>
      <trkpt lat="43.63551" lon="1.4025">
        <ele>139</ele>
        <time>2025-06-12T04:53:35Z</time>
      </trkpt>
      <trkpt lat="43.63554" lon="1.4025">
        <ele>139</ele>
        <time>2025-06-12T04:53:36Z</time>
      </trkpt>
      <trkpt lat="43.63557" lon="1.4025">
        <ele>139</ele>
        <time>2025-06-12T04:53:37Z</time>
      </trkpt>
      <trkpt lat="43.6356" lon="1.4025">
        <ele>139</ele>
        <time>2025-06-12T04:53:38Z</time>
      </trkpt>
      <trkpt lat="43.63563" lon="1.4025">
        <ele>139</ele>
        <time>2025-06-12T04:53:39Z</time>
      </trkpt>
      <trkpt lat="43.63564" lon="1.40251">
        <ele>139</ele>
        <time>2025-06-12T04:53:40Z</time>
      </trkpt>
      <trkpt lat="43.63566" lon="1.40251">
        <ele>139</ele>
        <time>2025-06-12T04:53:41Z</time>
      </trkpt>
      <trkpt lat="43.63567" lon="1.40251">
        <ele>139</ele>
        <time>2025-06-12T04:53:42Z</time>
      </trkpt>
      <trkpt lat="43.63569" lon="1.40252">
        <ele>139</ele>
        <time>2025-06-12T04:53:43Z</time>
      </trkpt>
      <trkpt lat="43.63576" lon="1.40253">
        <ele>139</ele>
        <time>2025-06-12T04:53:44Z</time>
      </trkpt>
      <trkpt lat="43.63578" lon="1.40253">
        <ele>139</ele>
        <time>2025-06-12T04:53:45Z</time>
      </trkpt>
      <trkpt lat="43.6358" lon="1.40253">
        <ele>139</ele>
        <time>2025-06-12T04:53:46Z</time>
      </trkpt>
      <trkpt lat="43.63587" lon="1.40253">
        <ele>139</ele>
        <time>2025-06-12T04:53:47Z</time>
      </trkpt>
      <trkpt lat="43.6359" lon="1.40254">
        <ele>139</ele>
        <time>2025-06-12T04:53:48Z</time>
      </trkpt>
      <trkpt lat="43.63593" lon="1.40254">
        <ele>139</ele>
        <time>2025-06-12T04:53:49Z</time>
      </trkpt>
      <trkpt lat="43.63595" lon="1.40254">
        <ele>139</ele>
        <time>2025-06-12T04:53:50Z</time>
      </trkpt>
      <trkpt lat="43.63597" lon="1.40254">
        <ele>139</ele>
        <time>2025-06-12T04:53:51Z</time>
      </trkpt>
      <trkpt lat="43.63598" lon="1.40254">
        <ele>139</ele>
        <time>2025-06-12T04:53:52Z</time>
      </trkpt>
      <trkpt lat="43.636" lon="1.40254">
        <ele>139</ele>
        <time>2025-06-12T04:53:53Z</time>
      </trkpt>
      <trkpt lat="43.63601" lon="1.40254">
        <ele>139</ele>
        <time>2025-06-12T04:53:54Z</time>
      </trkpt>
      <trkpt lat="43.6361" lon="1.40255">
        <ele>139</ele>
        <time>2025-06-12T04:53:55Z</time>
      </trkpt>
      <trkpt lat="43.63613" lon="1.40255">
        <ele>139</ele>
        <time>2025-06-12T04:53:56Z</time>
      </trkpt>
      <trkpt lat="43.63616" lon="1.40255">
        <ele>139</ele>
        <time>2025-06-12T04:53:57Z</time>
      </trkpt>
      <trkpt lat="43.63618" lon="1.40255">
        <ele>139</ele>
        <time>2025-06-12T04:53:58Z</time>
      </trkpt>
      <trkpt lat="43.63621" lon="1.40256">
        <ele>139</ele>
        <time>2025-06-12T04:53:59Z</time>
      </trkpt>
      <trkpt lat="43.63624" lon="1.40257">
        <ele>139</ele>
        <time>2025-06-12T04:54:00Z</time>
      </trkpt>
      <trkpt lat="43.63626" lon="1.40257">
        <ele>139</ele>
        <time>2025-06-12T04:54:01Z</time>
      </trkpt>
      <trkpt lat="43.63628" lon="1.40257">
        <ele>139</ele>
        <time>2025-06-12T04:54:02Z</time>
      </trkpt>
      <trkpt lat="43.63631" lon="1.40257">
        <ele>139</ele>
        <time>2025-06-12T04:54:03Z</time>
      </trkpt>
      <trkpt lat="43.63633" lon="1.40257">
        <ele>139</ele>
        <time>2025-06-12T04:54:04Z</time>
      </trkpt>
      <trkpt lat="43.63633" lon="1.40257">
        <ele>139</ele>
        <time>2025-06-12T04:54:05Z</time>
      </trkpt>
      <trkpt lat="43.63637" lon="1.40257">
        <ele>139</ele>
        <time>2025-06-12T04:54:06Z</time>
      </trkpt>
      <trkpt lat="43.63639" lon="1.40257">
        <ele>139</ele>
        <time>2025-06-12T04:54:07Z</time>
      </trkpt>
      <trkpt lat="43.63642" lon="1.40257">
        <ele>139</ele>
        <time>2025-06-12T04:54:08Z</time>
      </trkpt>
      <trkpt lat="43.63645" lon="1.40258">
        <ele>139</ele>
        <time>2025-06-12T04:54:09Z</time>
      </trkpt>
      <trkpt lat="43.63648" lon="1.40258">
        <ele>139</ele>
        <time>2025-06-12T04:54:10Z</time>
      </trkpt>
      <trkpt lat="43.6365" lon="1.40257">
        <ele>139</ele>
        <time>2025-06-12T04:54:11Z</time>
      </trkpt>
      <trkpt lat="43.63653" lon="1.40257">
        <ele>139</ele>
        <time>2025-06-12T04:54:12Z</time>
      </trkpt>
      <trkpt lat="43.63655" lon="1.40257">
        <ele>139</ele>
        <time>2025-06-12T04:54:13Z</time>
      </trkpt>
      <trkpt lat="43.63658" lon="1.40256">
        <ele>139</ele>
        <time>2025-06-12T04:54:14Z</time>
      </trkpt>
      <trkpt lat="43.63661" lon="1.40256">
        <ele>139</ele>
        <time>2025-06-12T04:54:15Z</time>
      </trkpt>
      <trkpt lat="43.63663" lon="1.40255">
        <ele>139</ele>
        <time>2025-06-12T04:54:16Z</time>
      </trkpt>
      <trkpt lat="43.63666" lon="1.40255">
        <ele>139</ele>
        <time>2025-06-12T04:54:17Z</time>
      </trkpt>
      <trkpt lat="43.63669" lon="1.40254">
        <ele>139</ele>
        <time>2025-06-12T04:54:18Z</time>
      </trkpt>
      <trkpt lat="43.63672" lon="1.40254">
        <ele>139</ele>
        <time>2025-06-12T04:54:19Z</time>
      </trkpt>
      <trkpt lat="43.63674" lon="1.40253">
        <ele>139</ele>
        <time>2025-06-12T04:54:20Z</time>
      </trkpt>
      <trkpt lat="43.63678" lon="1.40252">
        <ele>139</ele>
        <time>2025-06-12T04:54:21Z</time>
      </trkpt>
      <trkpt lat="43.63681" lon="1.40251">
        <ele>139</ele>
        <time>2025-06-12T04:54:22Z</time>
      </trkpt>
      <trkpt lat="43.63684" lon="1.4025">
        <ele>139</ele>
        <time>2025-06-12T04:54:23Z</time>
      </trkpt>
      <trkpt lat="43.63686" lon="1.40248">
        <ele>139</ele>
        <time>2025-06-12T04:54:24Z</time>
      </trkpt>
      <trkpt lat="43.63689" lon="1.40248">
        <ele>139</ele>
        <time>2025-06-12T04:54:25Z</time>
      </trkpt>
      <trkpt lat="43.63692" lon="1.40247">
        <ele>139</ele>
        <time>2025-06-12T04:54:26Z</time>
      </trkpt>
      <trkpt lat="43.63694" lon="1.40247">
        <ele>139</ele>
        <time>2025-06-12T04:54:27Z</time>
      </trkpt>
      <trkpt lat="43.63697" lon="1.40247">
        <ele>139</ele>
        <time>2025-06-12T04:54:28Z</time>
      </trkpt>
      <trkpt lat="43.637" lon="1.40247">
        <ele>139</ele>
        <time>2025-06-12T04:54:29Z</time>
      </trkpt>
      <trkpt lat="43.63703" lon="1.40247">
        <ele>139</ele>
        <time>2025-06-12T04:54:30Z</time>
      </trkpt>
      <trkpt lat="43.63706" lon="1.40247">
        <ele>139</ele>
        <time>2025-06-12T04:54:31Z</time>
      </trkpt>
      <trkpt lat="43.63709" lon="1.40248">
        <ele>139</ele>
        <time>2025-06-12T04:54:32Z</time>
      </trkpt>
      <trkpt lat="43.63712" lon="1.40248">
        <ele>139</ele>
        <time>2025-06-12T04:54:33Z</time>
      </trkpt>
      <trkpt lat="43.63715" lon="1.40248">
        <ele>139</ele>
        <time>2025-06-12T04:54:34Z</time>
      </trkpt>
      <trkpt lat="43.63718" lon="1.40248">
        <ele>139</ele>
        <time>2025-06-12T04:54:35Z</time>
      </trkpt>
      <trkpt lat="43.63721" lon="1.40247">
        <ele>139</ele>
        <time>2025-06-12T04:54:36Z</time>
      </trkpt>
      <trkpt lat="43.63724" lon="1.40247">
        <ele>139</ele>
        <time>2025-06-12T04:54:37Z</time>
      </trkpt>
      <trkpt lat="43.63727" lon="1.40247">
        <ele>139</ele>
        <time>2025-06-12T04:54:38Z</time>
      </trkpt>
      <trkpt lat="43.6373" lon="1.40246">
        <ele>139</ele>
        <time>2025-06-12T04:54:39Z</time>
      </trkpt>
      <trkpt lat="43.63733" lon="1.40246">
        <ele>139</ele>
        <time>2025-06-12T04:54:40Z</time>
      </trkpt>
      <trkpt lat="43.63736" lon="1.40246">
        <ele>139</ele>
        <time>2025-06-12T04:54:41Z</time>
      </trkpt>
      <trkpt lat="43.63738" lon="1.40246">
        <ele>139</ele>
        <time>2025-06-12T04:54:42Z</time>
      </trkpt>
      <trkpt lat="43.63742" lon="1.40246">
        <ele>139</ele>
        <time>2025-06-12T04:54:43Z</time>
      </trkpt>
      <trkpt lat="43.63745" lon="1.40246">
        <ele>139</ele>
        <time>2025-06-12T04:54:44Z</time>
      </trkpt>
      <trkpt lat="43.63747" lon="1.40247">
        <ele>139</ele>
        <time>2025-06-12T04:54:45Z</time>
      </trkpt>
      <trkpt lat="43.6375" lon="1.40247">
        <ele>139</ele>
        <time>2025-06-12T04:54:46Z</time>
      </trkpt>
      <trkpt lat="43.63753" lon="1.40247">
        <ele>139</ele>
        <time>2025-06-12T04:54:47Z</time>
      </trkpt>
      <trkpt lat="43.63756" lon="1.40247">
        <ele>139</ele>
        <time>2025-06-12T04:54:48Z</time>
      </trkpt>
      <trkpt lat="43.63759" lon="1.40247">
        <ele>139</ele>
        <time>2025-06-12T04:54:49Z</time>
      </trkpt>
      <trkpt lat="43.63762" lon="1.40246">
        <ele>139</ele>
        <time>2025-06-12T04:54:50Z</time>
      </trkpt>
      <trkpt lat="43.63765" lon="1.40245">
        <ele>139</ele>
        <time>2025-06-12T04:54:51Z</time>
      </trkpt>
      <trkpt lat="43.63767" lon="1.40245">
        <ele>139</ele>
        <time>2025-06-12T04:54:52Z</time>
      </trkpt>
      <trkpt lat="43.63769" lon="1.40243">
        <ele>139</ele>
        <time>2025-06-12T04:54:53Z</time>
      </trkpt>
      <trkpt lat="43.63772" lon="1.40241">
        <ele>139</ele>
        <time>2025-06-12T04:54:54Z</time>
      </trkpt>
      <trkpt lat="43.63774" lon="1.4024">
        <ele>139</ele>
        <time>2025-06-12T04:54:55Z</time>
      </trkpt>
      <trkpt lat="43.63777" lon="1.40238">
        <ele>139</ele>
        <time>2025-06-12T04:54:56Z</time>
      </trkpt>
      <trkpt lat="43.63779" lon="1.40237">
        <ele>139</ele>
        <time>2025-06-12T04:54:57Z</time>
      </trkpt>
      <trkpt lat="43.63782" lon="1.40236">
        <ele>139</ele>
        <time>2025-06-12T04:54:58Z</time>
      </trkpt>
      <trkpt lat="43.63784" lon="1.40236">
        <ele>139</ele>
        <time>2025-06-12T04:54:59Z</time>
      </trkpt>
      <trkpt lat="43.63786" lon="1.40235">
        <ele>139</ele>
        <time>2025-06-12T04:55:00Z</time>
      </trkpt>
      <trkpt lat="43.63792" lon="1.40235">
        <ele>139</ele>
        <time>2025-06-12T04:55:01Z</time>
      </trkpt>
      <trkpt lat="43.63792" lon="1.40235">
        <ele>139</ele>
        <time>2025-06-12T04:55:02Z</time>
      </trkpt>
      <trkpt lat="43.63794" lon="1.40234">
        <ele>139</ele>
        <time>2025-06-12T04:55:03Z</time>
      </trkpt>
      <trkpt lat="43.63796" lon="1.40234">
        <ele>139</ele>
        <time>2025-06-12T04:55:04Z</time>
      </trkpt>
      <trkpt lat="43.63799" lon="1.40234">
        <ele>139</ele>
        <time>2025-06-12T04:55:05Z</time>
      </trkpt>
      <trkpt lat="43.63801" lon="1.40234">
        <ele>139</ele>
        <time>2025-06-12T04:55:06Z</time>
      </trkpt>
      <trkpt lat="43.63804" lon="1.40233">
        <ele>139</ele>
        <time>2025-06-12T04:55:07Z</time>
      </trkpt>
      <trkpt lat="43.63807" lon="1.40234">
        <ele>139</ele>
        <time>2025-06-12T04:55:08Z</time>
      </trkpt>
      <trkpt lat="43.63811" lon="1.40234">
        <ele>139</ele>
        <time>2025-06-12T04:55:09Z</time>
      </trkpt>
      <trkpt lat="43.63814" lon="1.40234">
        <ele>139</ele>
        <time>2025-06-12T04:55:10Z</time>
      </trkpt>
      <trkpt lat="43.63817" lon="1.40234">
        <ele>139</ele>
        <time>2025-06-12T04:55:11Z</time>
      </trkpt>
      <trkpt lat="43.6382" lon="1.40234">
        <ele>139</ele>
        <time>2025-06-12T04:55:12Z</time>
      </trkpt>
      <trkpt lat="43.63824" lon="1.40235">
        <ele>139</ele>
        <time>2025-06-12T04:55:13Z</time>
      </trkpt>
      <trkpt lat="43.63826" lon="1.40234">
        <ele>139</ele>
        <time>2025-06-12T04:55:14Z</time>
      </trkpt>
      <trkpt lat="43.63829" lon="1.40233">
        <ele>139</ele>
        <time>2025-06-12T04:55:15Z</time>
      </trkpt>
      <trkpt lat="43.63832" lon="1.40233">
        <ele>139</ele>
        <time>2025-06-12T04:55:16Z</time>
      </trkpt>
      <trkpt lat="43.63834" lon="1.40232">
        <ele>139</ele>
        <time>2025-06-12T04:55:17Z</time>
      </trkpt>
      <trkpt lat="43.63837" lon="1.40232">
        <ele>139</ele>
        <time>2025-06-12T04:55:18Z</time>
      </trkpt>
      <trkpt lat="43.6384" lon="1.40232">
        <ele>139</ele>
        <time>2025-06-12T04:55:19Z</time>
      </trkpt>
      <trkpt lat="43.63846" lon="1.40231">
        <ele>139</ele>
        <time>2025-06-12T04:55:20Z</time>
      </trkpt>
      <trkpt lat="43.63846" lon="1.40231">
        <ele>139</ele>
        <time>2025-06-12T04:55:21Z</time>
      </trkpt>
      <trkpt lat="43.63848" lon="1.4023">
        <ele>139</ele>
        <time>2025-06-12T04:55:22Z</time>
      </trkpt>
      <trkpt lat="43.6385" lon="1.40229">
        <ele>139</ele>
        <time>2025-06-12T04:55:23Z</time>
      </trkpt>
      <trkpt lat="43.63853" lon="1.40228">
        <ele>140</ele>
        <time>2025-06-12T04:55:24Z</time>
      </trkpt>
      <trkpt lat="43.63855" lon="1.40227">
        <ele>140</ele>
        <time>2025-06-12T04:55:25Z</time>
      </trkpt>
      <trkpt lat="43.63857" lon="1.40226">
        <ele>140</ele>
        <time>2025-06-12T04:55:26Z</time>
      </trkpt>
      <trkpt lat="43.6386" lon="1.40226">
        <ele>140</ele>
        <time>2025-06-12T04:55:27Z</time>
      </trkpt>
      <trkpt lat="43.63862" lon="1.40225">
        <ele>140</ele>
        <time>2025-06-12T04:55:28Z</time>
      </trkpt>
      <trkpt lat="43.63865" lon="1.40224">
        <ele>140</ele>
        <time>2025-06-12T04:55:29Z</time>
      </trkpt>
      <trkpt lat="43.63868" lon="1.40223">
        <ele>140</ele>
        <time>2025-06-12T04:55:30Z</time>
      </trkpt>
      <trkpt lat="43.63871" lon="1.40223">
        <ele>140</ele>
        <time>2025-06-12T04:55:31Z</time>
      </trkpt>
      <trkpt lat="43.63874" lon="1.40222">
        <ele>141</ele>
        <time>2025-06-12T04:55:32Z</time>
      </trkpt>
      <trkpt lat="43.63877" lon="1.40222">
        <ele>141</ele>
        <time>2025-06-12T04:55:33Z</time>
      </trkpt>
      <trkpt lat="43.6388" lon="1.40221">
        <ele>140</ele>
        <time>2025-06-12T04:55:34Z</time>
      </trkpt>
      <trkpt lat="43.63883" lon="1.40221">
        <ele>140</ele>
        <time>2025-06-12T04:55:35Z</time>
      </trkpt>
      <trkpt lat="43.63886" lon="1.4022">
        <ele>140</ele>
        <time>2025-06-12T04:55:36Z</time>
      </trkpt>
      <trkpt lat="43.63889" lon="1.4022">
        <ele>140</ele>
        <time>2025-06-12T04:55:37Z</time>
      </trkpt>
      <trkpt lat="43.63892" lon="1.4022">
        <ele>140</ele>
        <time>2025-06-12T04:55:38Z</time>
      </trkpt>
      <trkpt lat="43.63895" lon="1.40219">
        <ele>140</ele>
        <time>2025-06-12T04:55:39Z</time>
      </trkpt>
      <trkpt lat="43.63898" lon="1.40219">
        <ele>140</ele>
        <time>2025-06-12T04:55:40Z</time>
      </trkpt>
      <trkpt lat="43.63903" lon="1.40216">
        <ele>140</ele>
        <time>2025-06-12T04:55:41Z</time>
      </trkpt>
      <trkpt lat="43.63903" lon="1.40216">
        <ele>140</ele>
        <time>2025-06-12T04:55:42Z</time>
      </trkpt>
      <trkpt lat="43.63906" lon="1.40215">
        <ele>140</ele>
        <time>2025-06-12T04:55:43Z</time>
      </trkpt>
      <trkpt lat="43.63908" lon="1.40213">
        <ele>140</ele>
        <time>2025-06-12T04:55:44Z</time>
      </trkpt>
      <trkpt lat="43.6391" lon="1.40212">
        <ele>140</ele>
        <time>2025-06-12T04:55:45Z</time>
      </trkpt>
      <trkpt lat="43.63913" lon="1.4021">
        <ele>140</ele>
        <time>2025-06-12T04:55:46Z</time>
      </trkpt>
      <trkpt lat="43.63915" lon="1.40208">
        <ele>140</ele>
        <time>2025-06-12T04:55:47Z</time>
      </trkpt>
      <trkpt lat="43.63917" lon="1.40207">
        <ele>140</ele>
        <time>2025-06-12T04:55:48Z</time>
      </trkpt>
      <trkpt lat="43.6392" lon="1.40206">
        <ele>140</ele>
        <time>2025-06-12T04:55:49Z</time>
      </trkpt>
      <trkpt lat="43.63922" lon="1.40205">
        <ele>140</ele>
        <time>2025-06-12T04:55:50Z</time>
      </trkpt>
      <trkpt lat="43.63925" lon="1.40203">
        <ele>140</ele>
        <time>2025-06-12T04:55:51Z</time>
      </trkpt>
      <trkpt lat="43.63928" lon="1.40202">
        <ele>141</ele>
        <time>2025-06-12T04:55:52Z</time>
      </trkpt>
      <trkpt lat="43.6393" lon="1.40201">
        <ele>141</ele>
        <time>2025-06-12T04:55:53Z</time>
      </trkpt>
      <trkpt lat="43.63932" lon="1.40199">
        <ele>140</ele>
        <time>2025-06-12T04:55:54Z</time>
      </trkpt>
      <trkpt lat="43.63934" lon="1.40197">
        <ele>140</ele>
        <time>2025-06-12T04:55:55Z</time>
      </trkpt>
      <trkpt lat="43.63937" lon="1.40195">
        <ele>140</ele>
        <time>2025-06-12T04:55:56Z</time>
      </trkpt>
      <trkpt lat="43.63939" lon="1.40194">
        <ele>140</ele>
        <time>2025-06-12T04:55:57Z</time>
      </trkpt>
      <trkpt lat="43.63944" lon="1.4019">
        <ele>140</ele>
        <time>2025-06-12T04:55:58Z</time>
      </trkpt>
      <trkpt lat="43.63944" lon="1.4019">
        <ele>140</ele>
        <time>2025-06-12T04:55:59Z</time>
      </trkpt>
      <trkpt lat="43.63947" lon="1.40188">
        <ele>140</ele>
        <time>2025-06-12T04:56:00Z</time>
      </trkpt>
      <trkpt lat="43.63949" lon="1.40186">
        <ele>140</ele>
        <time>2025-06-12T04:56:01Z</time>
      </trkpt>
      <trkpt lat="43.63951" lon="1.40184">
        <ele>140</ele>
        <time>2025-06-12T04:56:02Z</time>
      </trkpt>
      <trkpt lat="43.63954" lon="1.40183">
        <ele>140</ele>
        <time>2025-06-12T04:56:03Z</time>
      </trkpt>
      <trkpt lat="43.63956" lon="1.40181">
        <ele>140</ele>
        <time>2025-06-12T04:56:04Z</time>
      </trkpt>
      <trkpt lat="43.63958" lon="1.40179">
        <ele>140</ele>
        <time>2025-06-12T04:56:05Z</time>
      </trkpt>
      <trkpt lat="43.6396" lon="1.40177">
        <ele>140</ele>
        <time>2025-06-12T04:56:06Z</time>
      </trkpt>
      <trkpt lat="43.63963" lon="1.40175">
        <ele>140</ele>
        <time>2025-06-12T04:56:07Z</time>
      </trkpt>
      <trkpt lat="43.63965" lon="1.40174">
        <ele>140</ele>
        <time>2025-06-12T04:56:08Z</time>
      </trkpt>
      <trkpt lat="43.63967" lon="1.40172">
        <ele>140</ele>
        <time>2025-06-12T04:56:09Z</time>
      </trkpt>
      <trkpt lat="43.63969" lon="1.4017">
        <ele>140</ele>
        <time>2025-06-12T04:56:10Z</time>
      </trkpt>
      <trkpt lat="43.63971" lon="1.40169">
        <ele>140</ele>
        <time>2025-06-12T04:56:11Z</time>
      </trkpt>
      <trkpt lat="43.63974" lon="1.40167">
        <ele>140</ele>
        <time>2025-06-12T04:56:12Z</time>
      </trkpt>
      <trkpt lat="43.63977" lon="1.40165">
        <ele>140</ele>
        <time>2025-06-12T04:56:13Z</time>
      </trkpt>
      <trkpt lat="43.63979" lon="1.40163">
        <ele>140</ele>
        <time>2025-06-12T04:56:14Z</time>
      </trkpt>
      <trkpt lat="43.63982" lon="1.40161">
        <ele>140</ele>
        <time>2025-06-12T04:56:15Z</time>
      </trkpt>
      <trkpt lat="43.63984" lon="1.40159">
        <ele>140</ele>
        <time>2025-06-12T04:56:16Z</time>
      </trkpt>
      <trkpt lat="43.63988" lon="1.40155">
        <ele>140</ele>
        <time>2025-06-12T04:56:17Z</time>
      </trkpt>
      <trkpt lat="43.63988" lon="1.40155">
        <ele>140</ele>
        <time>2025-06-12T04:56:18Z</time>
      </trkpt>
      <trkpt lat="43.63991" lon="1.40152">
        <ele>140</ele>
        <time>2025-06-12T04:56:19Z</time>
      </trkpt>
      <trkpt lat="43.63993" lon="1.4015">
        <ele>140</ele>
        <time>2025-06-12T04:56:20Z</time>
      </trkpt>
      <trkpt lat="43.63996" lon="1.40148">
        <ele>139</ele>
        <time>2025-06-12T04:56:21Z</time>
      </trkpt>
      <trkpt lat="43.63998" lon="1.40146">
        <ele>140</ele>
        <time>2025-06-12T04:56:22Z</time>
      </trkpt>
      <trkpt lat="43.64001" lon="1.40144">
        <ele>140</ele>
        <time>2025-06-12T04:56:23Z</time>
      </trkpt>
      <trkpt lat="43.64003" lon="1.40142">
        <ele>140</ele>
        <time>2025-06-12T04:56:24Z</time>
      </trkpt>
      <trkpt lat="43.64005" lon="1.4014">
        <ele>140</ele>
        <time>2025-06-12T04:56:25Z</time>
      </trkpt>
      <trkpt lat="43.64007" lon="1.40138">
        <ele>140</ele>
        <time>2025-06-12T04:56:26Z</time>
      </trkpt>
      <trkpt lat="43.64009" lon="1.40135">
        <ele>140</ele>
        <time>2025-06-12T04:56:27Z</time>
      </trkpt>
      <trkpt lat="43.64011" lon="1.40133">
        <ele>140</ele>
        <time>2025-06-12T04:56:28Z</time>
      </trkpt>
      <trkpt lat="43.64013" lon="1.40131">
        <ele>140</ele>
        <time>2025-06-12T04:56:29Z</time>
      </trkpt>
      <trkpt lat="43.64016" lon="1.40129">
        <ele>140</ele>
        <time>2025-06-12T04:56:30Z</time>
      </trkpt>
      <trkpt lat="43.64018" lon="1.40126">
        <ele>140</ele>
        <time>2025-06-12T04:56:31Z</time>
      </trkpt>
      <trkpt lat="43.6402" lon="1.40124">
        <ele>140</ele>
        <time>2025-06-12T04:56:32Z</time>
      </trkpt>
      <trkpt lat="43.64022" lon="1.40121">
        <ele>140</ele>
        <time>2025-06-12T04:56:33Z</time>
      </trkpt>
      <trkpt lat="43.64024" lon="1.40119">
        <ele>140</ele>
        <time>2025-06-12T04:56:34Z</time>
      </trkpt>
      <trkpt lat="43.64026" lon="1.40117">
        <ele>140</ele>
        <time>2025-06-12T04:56:35Z</time>
      </trkpt>
      <trkpt lat="43.6403" lon="1.40113">
        <ele>140</ele>
        <time>2025-06-12T04:56:36Z</time>
      </trkpt>
      <trkpt lat="43.64031" lon="1.40112">
        <ele>140</ele>
        <time>2025-06-12T04:56:37Z</time>
      </trkpt>
      <trkpt lat="43.64033" lon="1.4011">
        <ele>140</ele>
        <time>2025-06-12T04:56:38Z</time>
      </trkpt>
      <trkpt lat="43.64035" lon="1.40108">
        <ele>140</ele>
        <time>2025-06-12T04:56:39Z</time>
      </trkpt>
      <trkpt lat="43.64037" lon="1.40106">
        <ele>140</ele>
        <time>2025-06-12T04:56:40Z</time>
      </trkpt>
      <trkpt lat="43.64039" lon="1.40103">
        <ele>140</ele>
        <time>2025-06-12T04:56:41Z</time>
      </trkpt>
      <trkpt lat="43.64041" lon="1.40101">
        <ele>140</ele>
        <time>2025-06-12T04:56:42Z</time>
      </trkpt>
      <trkpt lat="43.64044" lon="1.40099">
        <ele>140</ele>
        <time>2025-06-12T04:56:43Z</time>
      </trkpt>
      <trkpt lat="43.64046" lon="1.40097">
        <ele>140</ele>
        <time>2025-06-12T04:56:44Z</time>
      </trkpt>
      <trkpt lat="43.64048" lon="1.40094">
        <ele>140</ele>
        <time>2025-06-12T04:56:45Z</time>
      </trkpt>
      <trkpt lat="43.6405" lon="1.40092">
        <ele>140</ele>
        <time>2025-06-12T04:56:46Z</time>
      </trkpt>
      <trkpt lat="43.64052" lon="1.40091">
        <ele>140</ele>
        <time>2025-06-12T04:56:47Z</time>
      </trkpt>
      <trkpt lat="43.64054" lon="1.40089">
        <ele>140</ele>
        <time>2025-06-12T04:56:48Z</time>
      </trkpt>
      <trkpt lat="43.64057" lon="1.40087">
        <ele>140</ele>
        <time>2025-06-12T04:56:49Z</time>
      </trkpt>
      <trkpt lat="43.64059" lon="1.40086">
        <ele>140</ele>
        <time>2025-06-12T04:56:50Z</time>
      </trkpt>
      <trkpt lat="43.64062" lon="1.40084">
        <ele>140</ele>
        <time>2025-06-12T04:56:51Z</time>
      </trkpt>
      <trkpt lat="43.64064" lon="1.40082">
        <ele>140</ele>
        <time>2025-06-12T04:56:52Z</time>
      </trkpt>
      <trkpt lat="43.64067" lon="1.4008">
        <ele>140</ele>
        <time>2025-06-12T04:56:53Z</time>
      </trkpt>
      <trkpt lat="43.64069" lon="1.40078">
        <ele>140</ele>
        <time>2025-06-12T04:56:54Z</time>
      </trkpt>
      <trkpt lat="43.64072" lon="1.40074">
        <ele>140</ele>
        <time>2025-06-12T04:56:55Z</time>
      </trkpt>
      <trkpt lat="43.64073" lon="1.40072">
        <ele>140</ele>
        <time>2025-06-12T04:56:56Z</time>
      </trkpt>
      <trkpt lat="43.64075" lon="1.4007">
        <ele>140</ele>
        <time>2025-06-12T04:56:57Z</time>
      </trkpt>
      <trkpt lat="43.64078" lon="1.40067">
        <ele>140</ele>
        <time>2025-06-12T04:56:58Z</time>
      </trkpt>
      <trkpt lat="43.6408" lon="1.40065">
        <ele>140</ele>
        <time>2025-06-12T04:56:59Z</time>
      </trkpt>
      <trkpt lat="43.64082" lon="1.40062">
        <ele>140</ele>
        <time>2025-06-12T04:57:00Z</time>
      </trkpt>
      <trkpt lat="43.64084" lon="1.40059">
        <ele>140</ele>
        <time>2025-06-12T04:57:01Z</time>
      </trkpt>
      <trkpt lat="43.64087" lon="1.40057">
        <ele>140</ele>
        <time>2025-06-12T04:57:02Z</time>
      </trkpt>
      <trkpt lat="43.64089" lon="1.40054">
        <ele>140</ele>
        <time>2025-06-12T04:57:03Z</time>
      </trkpt>
      <trkpt lat="43.64091" lon="1.40051">
        <ele>140</ele>
        <time>2025-06-12T04:57:04Z</time>
      </trkpt>
      <trkpt lat="43.64093" lon="1.40048">
        <ele>140</ele>
        <time>2025-06-12T04:57:05Z</time>
      </trkpt>
      <trkpt lat="43.64094" lon="1.40045">
        <ele>140</ele>
        <time>2025-06-12T04:57:06Z</time>
      </trkpt>
      <trkpt lat="43.64096" lon="1.40042">
        <ele>140</ele>
        <time>2025-06-12T04:57:07Z</time>
      </trkpt>
      <trkpt lat="43.64097" lon="1.40039">
        <ele>140</ele>
        <time>2025-06-12T04:57:08Z</time>
      </trkpt>
      <trkpt lat="43.64099" lon="1.40035">
        <ele>140</ele>
        <time>2025-06-12T04:57:09Z</time>
      </trkpt>
      <trkpt lat="43.641" lon="1.40032">
        <ele>140</ele>
        <time>2025-06-12T04:57:10Z</time>
      </trkpt>
      <trkpt lat="43.64101" lon="1.40028">
        <ele>140</ele>
        <time>2025-06-12T04:57:11Z</time>
      </trkpt>
      <trkpt lat="43.64103" lon="1.40025">
        <ele>140</ele>
        <time>2025-06-12T04:57:12Z</time>
      </trkpt>
      <trkpt lat="43.64104" lon="1.40022">
        <ele>140</ele>
        <time>2025-06-12T04:57:13Z</time>
      </trkpt>
      <trkpt lat="43.64105" lon="1.40019">
        <ele>140</ele>
        <time>2025-06-12T04:57:14Z</time>
      </trkpt>
      <trkpt lat="43.64107" lon="1.40015">
        <ele>140</ele>
        <time>2025-06-12T04:57:15Z</time>
      </trkpt>
      <trkpt lat="43.64108" lon="1.40012">
        <ele>140</ele>
        <time>2025-06-12T04:57:16Z</time>
      </trkpt>
      <trkpt lat="43.64109" lon="1.40008">
        <ele>140</ele>
        <time>2025-06-12T04:57:17Z</time>
      </trkpt>
      <trkpt lat="43.6411" lon="1.40005">
        <ele>139</ele>
        <time>2025-06-12T04:57:18Z</time>
      </trkpt>
      <trkpt lat="43.64112" lon="1.40002">
        <ele>140</ele>
        <time>2025-06-12T04:57:19Z</time>
      </trkpt>
      <trkpt lat="43.64113" lon="1.39998">
        <ele>140</ele>
        <time>2025-06-12T04:57:20Z</time>
      </trkpt>
      <trkpt lat="43.64115" lon="1.39995">
        <ele>139</ele>
        <time>2025-06-12T04:57:21Z</time>
      </trkpt>
      <trkpt lat="43.64116" lon="1.39992">
        <ele>139</ele>
        <time>2025-06-12T04:57:22Z</time>
      </trkpt>
      <trkpt lat="43.64119" lon="1.39988">
        <ele>139</ele>
        <time>2025-06-12T04:57:23Z</time>
      </trkpt>
      <trkpt lat="43.64121" lon="1.39986">
        <ele>139</ele>
        <time>2025-06-12T04:57:24Z</time>
      </trkpt>
      <trkpt lat="43.64124" lon="1.39984">
        <ele>139</ele>
        <time>2025-06-12T04:57:25Z</time>
      </trkpt>
      <trkpt lat="43.64127" lon="1.39982">
        <ele>139</ele>
        <time>2025-06-12T04:57:26Z</time>
      </trkpt>
      <trkpt lat="43.6413" lon="1.39981">
        <ele>139</ele>
        <time>2025-06-12T04:57:27Z</time>
      </trkpt>
      <trkpt lat="43.64133" lon="1.3998">
        <ele>139</ele>
        <time>2025-06-12T04:57:28Z</time>
      </trkpt>
      <trkpt lat="43.64136" lon="1.3998">
        <ele>139</ele>
        <time>2025-06-12T04:57:29Z</time>
      </trkpt>
      <trkpt lat="43.64138" lon="1.39979">
        <ele>139</ele>
        <time>2025-06-12T04:57:30Z</time>
      </trkpt>
      <trkpt lat="43.64141" lon="1.39978">
        <ele>139</ele>
        <time>2025-06-12T04:57:31Z</time>
      </trkpt>
      <trkpt lat="43.64143" lon="1.39976">
        <ele>139</ele>
        <time>2025-06-12T04:57:32Z</time>
      </trkpt>
      <trkpt lat="43.64146" lon="1.39975">
        <ele>139</ele>
        <time>2025-06-12T04:57:33Z</time>
      </trkpt>
      <trkpt lat="43.64149" lon="1.39974">
        <ele>139</ele>
        <time>2025-06-12T04:57:34Z</time>
      </trkpt>
      <trkpt lat="43.64151" lon="1.39974">
        <ele>139</ele>
        <time>2025-06-12T04:57:35Z</time>
      </trkpt>
      <trkpt lat="43.64154" lon="1.39972">
        <ele>139</ele>
        <time>2025-06-12T04:57:36Z</time>
      </trkpt>
      <trkpt lat="43.64157" lon="1.39972">
        <ele>139</ele>
        <time>2025-06-12T04:57:37Z</time>
      </trkpt>
      <trkpt lat="43.6416" lon="1.39971">
        <ele>139</ele>
        <time>2025-06-12T04:57:38Z</time>
      </trkpt>
      <trkpt lat="43.64163" lon="1.3997">
        <ele>138</ele>
        <time>2025-06-12T04:57:39Z</time>
      </trkpt>
      <trkpt lat="43.64166" lon="1.39969">
        <ele>138</ele>
        <time>2025-06-12T04:57:40Z</time>
      </trkpt>
      <trkpt lat="43.64169" lon="1.39968">
        <ele>138</ele>
        <time>2025-06-12T04:57:41Z</time>
      </trkpt>
      <trkpt lat="43.64172" lon="1.39967">
        <ele>138</ele>
        <time>2025-06-12T04:57:42Z</time>
      </trkpt>
      <trkpt lat="43.64175" lon="1.39966">
        <ele>138</ele>
        <time>2025-06-12T04:57:43Z</time>
      </trkpt>
      <trkpt lat="43.64179" lon="1.39966">
        <ele>138</ele>
        <time>2025-06-12T04:57:44Z</time>
      </trkpt>
      <trkpt lat="43.64182" lon="1.39965">
        <ele>138</ele>
        <time>2025-06-12T04:57:45Z</time>
      </trkpt>
      <trkpt lat="43.64185" lon="1.39964">
        <ele>138</ele>
        <time>2025-06-12T04:57:46Z</time>
      </trkpt>
      <trkpt lat="43.64188" lon="1.39963">
        <ele>137</ele>
        <time>2025-06-12T04:57:47Z</time>
      </trkpt>
      <trkpt lat="43.64191" lon="1.39962">
        <ele>137</ele>
        <time>2025-06-12T04:57:48Z</time>
      </trkpt>
      <trkpt lat="43.64193" lon="1.39961">
        <ele>137</ele>
        <time>2025-06-12T04:57:49Z</time>
      </trkpt>
      <trkpt lat="43.64196" lon="1.39959">
        <ele>137</ele>
        <time>2025-06-12T04:57:50Z</time>
      </trkpt>
      <trkpt lat="43.64199" lon="1.39958">
        <ele>137</ele>
        <time>2025-06-12T04:57:51Z</time>
      </trkpt>
      <trkpt lat="43.64204" lon="1.39954">
        <ele>137</ele>
        <time>2025-06-12T04:57:52Z</time>
      </trkpt>
      <trkpt lat="43.64204" lon="1.39954">
        <ele>137</ele>
        <time>2025-06-12T04:57:53Z</time>
      </trkpt>
      <trkpt lat="43.64206" lon="1.39952">
        <ele>137</ele>
        <time>2025-06-12T04:57:54Z</time>
      </trkpt>
      <trkpt lat="43.64209" lon="1.39951">
        <ele>137</ele>
        <time>2025-06-12T04:57:55Z</time>
      </trkpt>
      <trkpt lat="43.64211" lon="1.39948">
        <ele>137</ele>
        <time>2025-06-12T04:57:56Z</time>
      </trkpt>
      <trkpt lat="43.64214" lon="1.39946">
        <ele>137</ele>
        <time>2025-06-12T04:57:57Z</time>
      </trkpt>
      <trkpt lat="43.64216" lon="1.39943">
        <ele>137</ele>
        <time>2025-06-12T04:57:58Z</time>
      </trkpt>
      <trkpt lat="43.64219" lon="1.39941">
        <ele>137</ele>
        <time>2025-06-12T04:57:59Z</time>
      </trkpt>
      <trkpt lat="43.64222" lon="1.39939">
        <ele>137</ele>
        <time>2025-06-12T04:58:00Z</time>
      </trkpt>
      <trkpt lat="43.64224" lon="1.39936">
        <ele>137</ele>
        <time>2025-06-12T04:58:01Z</time>
      </trkpt>
      <trkpt lat="43.64226" lon="1.39933">
        <ele>137</ele>
        <time>2025-06-12T04:58:02Z</time>
      </trkpt>
      <trkpt lat="43.64229" lon="1.39931">
        <ele>137</ele>
        <time>2025-06-12T04:58:03Z</time>
      </trkpt>
      <trkpt lat="43.64231" lon="1.39929">
        <ele>137</ele>
        <time>2025-06-12T04:58:04Z</time>
      </trkpt>
      <trkpt lat="43.64233" lon="1.39928">
        <ele>137</ele>
        <time>2025-06-12T04:58:05Z</time>
      </trkpt>
      <trkpt lat="43.64236" lon="1.39926">
        <ele>137</ele>
        <time>2025-06-12T04:58:06Z</time>
      </trkpt>
      <trkpt lat="43.64238" lon="1.39924">
        <ele>137</ele>
        <time>2025-06-12T04:58:07Z</time>
      </trkpt>
      <trkpt lat="43.64241" lon="1.39922">
        <ele>137</ele>
        <time>2025-06-12T04:58:08Z</time>
      </trkpt>
      <trkpt lat="43.64243" lon="1.39921">
        <ele>137</ele>
        <time>2025-06-12T04:58:09Z</time>
      </trkpt>
      <trkpt lat="43.64246" lon="1.3992">
        <ele>137</ele>
        <time>2025-06-12T04:58:10Z</time>
      </trkpt>
      <trkpt lat="43.6425" lon="1.39919">
        <ele>137</ele>
        <time>2025-06-12T04:58:11Z</time>
      </trkpt>
      <trkpt lat="43.64253" lon="1.39918">
        <ele>137</ele>
        <time>2025-06-12T04:58:12Z</time>
      </trkpt>
      <trkpt lat="43.64256" lon="1.39918">
        <ele>137</ele>
        <time>2025-06-12T04:58:13Z</time>
      </trkpt>
      <trkpt lat="43.64259" lon="1.39918">
        <ele>137</ele>
        <time>2025-06-12T04:58:14Z</time>
      </trkpt>
      <trkpt lat="43.64262" lon="1.39918">
        <ele>137</ele>
        <time>2025-06-12T04:58:15Z</time>
      </trkpt>
      <trkpt lat="43.64265" lon="1.39918">
        <ele>137</ele>
        <time>2025-06-12T04:58:16Z</time>
      </trkpt>
      <trkpt lat="43.64268" lon="1.39919">
        <ele>137</ele>
        <time>2025-06-12T04:58:17Z</time>
      </trkpt>
      <trkpt lat="43.64271" lon="1.39919">
        <ele>137</ele>
        <time>2025-06-12T04:58:18Z</time>
      </trkpt>
      <trkpt lat="43.64274" lon="1.3992">
        <ele>137</ele>
        <time>2025-06-12T04:58:19Z</time>
      </trkpt>
      <trkpt lat="43.64277" lon="1.3992">
        <ele>137</ele>
        <time>2025-06-12T04:58:20Z</time>
      </trkpt>
      <trkpt lat="43.64279" lon="1.3992">
        <ele>137</ele>
        <time>2025-06-12T04:58:21Z</time>
      </trkpt>
      <trkpt lat="43.64282" lon="1.39921">
        <ele>137</ele>
        <time>2025-06-12T04:58:22Z</time>
      </trkpt>
      <trkpt lat="43.64285" lon="1.39922">
        <ele>137</ele>
        <time>2025-06-12T04:58:23Z</time>
      </trkpt>
      <trkpt lat="43.64287" lon="1.39923">
        <ele>137</ele>
        <time>2025-06-12T04:58:24Z</time>
      </trkpt>
      <trkpt lat="43.64289" lon="1.39924">
        <ele>137</ele>
        <time>2025-06-12T04:58:25Z</time>
      </trkpt>
      <trkpt lat="43.64292" lon="1.39925">
        <ele>137</ele>
        <time>2025-06-12T04:58:26Z</time>
      </trkpt>
      <trkpt lat="43.64294" lon="1.39926">
        <ele>137</ele>
        <time>2025-06-12T04:58:27Z</time>
      </trkpt>
      <trkpt lat="43.64297" lon="1.39928">
        <ele>137</ele>
        <time>2025-06-12T04:58:28Z</time>
      </trkpt>
      <trkpt lat="43.64299" lon="1.39928">
        <ele>137</ele>
        <time>2025-06-12T04:58:29Z</time>
      </trkpt>
      <trkpt lat="43.64302" lon="1.39929">
        <ele>137</ele>
        <time>2025-06-12T04:58:30Z</time>
      </trkpt>
      <trkpt lat="43.64305" lon="1.3993">
        <ele>137</ele>
        <time>2025-06-12T04:58:31Z</time>
      </trkpt>
      <trkpt lat="43.64308" lon="1.39931">
        <ele>137</ele>
        <time>2025-06-12T04:58:32Z</time>
      </trkpt>
      <trkpt lat="43.64311" lon="1.39932">
        <ele>137</ele>
        <time>2025-06-12T04:58:33Z</time>
      </trkpt>
      <trkpt lat="43.64314" lon="1.39933">
        <ele>137</ele>
        <time>2025-06-12T04:58:34Z</time>
      </trkpt>
      <trkpt lat="43.6432" lon="1.39935">
        <ele>137</ele>
        <time>2025-06-12T04:58:35Z</time>
      </trkpt>
      <trkpt lat="43.6432" lon="1.39935">
        <ele>137</ele>
        <time>2025-06-12T04:58:36Z</time>
      </trkpt>
      <trkpt lat="43.64324" lon="1.39937">
        <ele>137</ele>
        <time>2025-06-12T04:58:37Z</time>
      </trkpt>
      <trkpt lat="43.64327" lon="1.39937">
        <ele>137</ele>
        <time>2025-06-12T04:58:38Z</time>
      </trkpt>
      <trkpt lat="43.6433" lon="1.39938">
        <ele>137</ele>
        <time>2025-06-12T04:58:39Z</time>
      </trkpt>
      <trkpt lat="43.64333" lon="1.39938">
        <ele>137</ele>
        <time>2025-06-12T04:58:40Z</time>
      </trkpt>
      <trkpt lat="43.64335" lon="1.39939">
        <ele>137</ele>
        <time>2025-06-12T04:58:41Z</time>
      </trkpt>
      <trkpt lat="43.64338" lon="1.3994">
        <ele>137</ele>
        <time>2025-06-12T04:58:42Z</time>
      </trkpt>
      <trkpt lat="43.64342" lon="1.39941">
        <ele>137</ele>
        <time>2025-06-12T04:58:43Z</time>
      </trkpt>
      <trkpt lat="43.64344" lon="1.39941">
        <ele>137</ele>
        <time>2025-06-12T04:58:44Z</time>
      </trkpt>
      <trkpt lat="43.64347" lon="1.39942">
        <ele>137</ele>
        <time>2025-06-12T04:58:45Z</time>
      </trkpt>
      <trkpt lat="43.6435" lon="1.39943">
        <ele>137</ele>
        <time>2025-06-12T04:58:46Z</time>
      </trkpt>
      <trkpt lat="43.64353" lon="1.39943">
        <ele>137</ele>
        <time>2025-06-12T04:58:47Z</time>
      </trkpt>
      <trkpt lat="43.64355" lon="1.39944">
        <ele>137</ele>
        <time>2025-06-12T04:58:48Z</time>
      </trkpt>
      <trkpt lat="43.64358" lon="1.39945">
        <ele>137</ele>
        <time>2025-06-12T04:58:49Z</time>
      </trkpt>
      <trkpt lat="43.64361" lon="1.39946">
        <ele>137</ele>
        <time>2025-06-12T04:58:50Z</time>
      </trkpt>
      <trkpt lat="43.64364" lon="1.39946">
        <ele>137</ele>
        <time>2025-06-12T04:58:51Z</time>
      </trkpt>
      <trkpt lat="43.64366" lon="1.39946">
        <ele>137</ele>
        <time>2025-06-12T04:58:52Z</time>
      </trkpt>
      <trkpt lat="43.64369" lon="1.39946">
        <ele>137</ele>
        <time>2025-06-12T04:58:53Z</time>
      </trkpt>
      <trkpt lat="43.64372" lon="1.39945">
        <ele>137</ele>
        <time>2025-06-12T04:58:54Z</time>
      </trkpt>
      <trkpt lat="43.64375" lon="1.39946">
        <ele>137</ele>
        <time>2025-06-12T04:58:55Z</time>
      </trkpt>
      <trkpt lat="43.64378" lon="1.39946">
        <ele>137</ele>
        <time>2025-06-12T04:58:56Z</time>
      </trkpt>
      <trkpt lat="43.64381" lon="1.39947">
        <ele>137</ele>
        <time>2025-06-12T04:58:57Z</time>
      </trkpt>
      <trkpt lat="43.64385" lon="1.39947">
        <ele>137</ele>
        <time>2025-06-12T04:58:58Z</time>
      </trkpt>
      <trkpt lat="43.64388" lon="1.39948">
        <ele>137</ele>
        <time>2025-06-12T04:58:59Z</time>
      </trkpt>
      <trkpt lat="43.64391" lon="1.39948">
        <ele>137</ele>
        <time>2025-06-12T04:59:00Z</time>
      </trkpt>
      <trkpt lat="43.64395" lon="1.39949">
        <ele>137</ele>
        <time>2025-06-12T04:59:01Z</time>
      </trkpt>
      <trkpt lat="43.64398" lon="1.39949">
        <ele>137</ele>
        <time>2025-06-12T04:59:02Z</time>
      </trkpt>
      <trkpt lat="43.64402" lon="1.39951">
        <ele>137</ele>
        <time>2025-06-12T04:59:03Z</time>
      </trkpt>
      <trkpt lat="43.64405" lon="1.39952">
        <ele>137</ele>
        <time>2025-06-12T04:59:04Z</time>
      </trkpt>
      <trkpt lat="43.64408" lon="1.39953">
        <ele>137</ele>
        <time>2025-06-12T04:59:05Z</time>
      </trkpt>
      <trkpt lat="43.64411" lon="1.39954">
        <ele>137</ele>
        <time>2025-06-12T04:59:06Z</time>
      </trkpt>
      <trkpt lat="43.64415" lon="1.39954">
        <ele>137</ele>
        <time>2025-06-12T04:59:07Z</time>
      </trkpt>
      <trkpt lat="43.64418" lon="1.39954">
        <ele>137</ele>
        <time>2025-06-12T04:59:08Z</time>
      </trkpt>
      <trkpt lat="43.6442" lon="1.39954">
        <ele>137</ele>
        <time>2025-06-12T04:59:09Z</time>
      </trkpt>
      <trkpt lat="43.64423" lon="1.39954">
        <ele>137</ele>
        <time>2025-06-12T04:59:10Z</time>
      </trkpt>
      <trkpt lat="43.64426" lon="1.39954">
        <ele>137</ele>
        <time>2025-06-12T04:59:11Z</time>
      </trkpt>
      <trkpt lat="43.64429" lon="1.39954">
        <ele>137</ele>
        <time>2025-06-12T04:59:12Z</time>
      </trkpt>
      <trkpt lat="43.64432" lon="1.39955">
        <ele>137</ele>
        <time>2025-06-12T04:59:13Z</time>
      </trkpt>
      <trkpt lat="43.64434" lon="1.39955">
        <ele>137</ele>
        <time>2025-06-12T04:59:14Z</time>
      </trkpt>
      <trkpt lat="43.64435" lon="1.39955">
        <ele>137</ele>
        <time>2025-06-12T04:59:15Z</time>
      </trkpt>
      <trkpt lat="43.64436" lon="1.39955">
        <ele>137</ele>
        <time>2025-06-12T04:59:16Z</time>
      </trkpt>
      <trkpt lat="43.64438" lon="1.39955">
        <ele>137</ele>
        <time>2025-06-12T04:59:17Z</time>
      </trkpt>
      <trkpt lat="43.64446" lon="1.39955">
        <ele>137</ele>
        <time>2025-06-12T04:59:18Z</time>
      </trkpt>
      <trkpt lat="43.64449" lon="1.39955">
        <ele>137</ele>
        <time>2025-06-12T04:59:19Z</time>
      </trkpt>
      <trkpt lat="43.64453" lon="1.39955">
        <ele>137</ele>
        <time>2025-06-12T04:59:20Z</time>
      </trkpt>
      <trkpt lat="43.64456" lon="1.39956">
        <ele>137</ele>
        <time>2025-06-12T04:59:21Z</time>
      </trkpt>
      <trkpt lat="43.64459" lon="1.39957">
        <ele>137</ele>
        <time>2025-06-12T04:59:22Z</time>
      </trkpt>
      <trkpt lat="43.64462" lon="1.39957">
        <ele>137</ele>
        <time>2025-06-12T04:59:23Z</time>
      </trkpt>
      <trkpt lat="43.64463" lon="1.39957">
        <ele>137</ele>
        <time>2025-06-12T04:59:24Z</time>
      </trkpt>
      <trkpt lat="43.64465" lon="1.39957">
        <ele>137</ele>
        <time>2025-06-12T04:59:25Z</time>
      </trkpt>
      <trkpt lat="43.64467" lon="1.39957">
        <ele>137</ele>
        <time>2025-06-12T04:59:26Z</time>
      </trkpt>
      <trkpt lat="43.64473" lon="1.39957">
        <ele>137</ele>
        <time>2025-06-12T04:59:27Z</time>
      </trkpt>
      <trkpt lat="43.64475" lon="1.39957">
        <ele>137</ele>
        <time>2025-06-12T04:59:28Z</time>
      </trkpt>
      <trkpt lat="43.64476" lon="1.39957">
        <ele>137</ele>
        <time>2025-06-12T04:59:29Z</time>
      </trkpt>
      <trkpt lat="43.64478" lon="1.39956">
        <ele>137</ele>
        <time>2025-06-12T04:59:30Z</time>
      </trkpt>
      <trkpt lat="43.64485" lon="1.39955">
        <ele>137</ele>
        <time>2025-06-12T04:59:31Z</time>
      </trkpt>
      <trkpt lat="43.64486" lon="1.39955">
        <ele>138</ele>
        <time>2025-06-12T04:59:32Z</time>
      </trkpt>
      <trkpt lat="43.64487" lon="1.39954">
        <ele>138</ele>
        <time>2025-06-12T04:59:33Z</time>
      </trkpt>
      <trkpt lat="43.64489" lon="1.39954">
        <ele>139</ele>
        <time>2025-06-12T04:59:34Z</time>
      </trkpt>
      <trkpt lat="43.64495" lon="1.39952">
        <ele>139</ele>
        <time>2025-06-12T04:59:35Z</time>
      </trkpt>
      <trkpt lat="43.64497" lon="1.39951">
        <ele>139</ele>
        <time>2025-06-12T04:59:36Z</time>
      </trkpt>
      <trkpt lat="43.64498" lon="1.3995">
        <ele>139</ele>
        <time>2025-06-12T04:59:37Z</time>
      </trkpt>
      <trkpt lat="43.64499" lon="1.3995">
        <ele>139</ele>
        <time>2025-06-12T04:59:38Z</time>
      </trkpt>
      <trkpt lat="43.64505" lon="1.39944">
        <ele>139</ele>
        <time>2025-06-12T04:59:39Z</time>
      </trkpt>
      <trkpt lat="43.64507" lon="1.39941">
        <ele>139</ele>
        <time>2025-06-12T04:59:40Z</time>
      </trkpt>
      <trkpt lat="43.64508" lon="1.39937">
        <ele>139</ele>
        <time>2025-06-12T04:59:41Z</time>
      </trkpt>
      <trkpt lat="43.64509" lon="1.39934">
        <ele>139</ele>
        <time>2025-06-12T04:59:42Z</time>
      </trkpt>
      <trkpt lat="43.64507" lon="1.39931">
        <ele>139</ele>
        <time>2025-06-12T04:59:43Z</time>
      </trkpt>
      <trkpt lat="43.64505" lon="1.39928">
        <ele>139</ele>
        <time>2025-06-12T04:59:44Z</time>
      </trkpt>
      <trkpt lat="43.64504" lon="1.39924">
        <ele>139</ele>
        <time>2025-06-12T04:59:45Z</time>
      </trkpt>
      <trkpt lat="43.64499" lon="1.39919">
        <ele>139</ele>
        <time>2025-06-12T04:59:46Z</time>
      </trkpt>
      <trkpt lat="43.64499" lon="1.39919">
        <ele>139</ele>
        <time>2025-06-12T04:59:47Z</time>
      </trkpt>
      <trkpt lat="43.64498" lon="1.39915">
        <ele>139</ele>
        <time>2025-06-12T04:59:48Z</time>
      </trkpt>
      <trkpt lat="43.64498" lon="1.39911">
        <ele>139</ele>
        <time>2025-06-12T04:59:49Z</time>
      </trkpt>
      <trkpt lat="43.64497" lon="1.39907">
        <ele>139</ele>
        <time>2025-06-12T04:59:50Z</time>
      </trkpt>
      <trkpt lat="43.64498" lon="1.39902">
        <ele>139</ele>
        <time>2025-06-12T04:59:51Z</time>
      </trkpt>
      <trkpt lat="43.64498" lon="1.39899">
        <ele>139</ele>
        <time>2025-06-12T04:59:52Z</time>
      </trkpt>
      <trkpt lat="43.64497" lon="1.39895">
        <ele>139</ele>
        <time>2025-06-12T04:59:53Z</time>
      </trkpt>
      <trkpt lat="43.64497" lon="1.3989">
        <ele>139</ele>
        <time>2025-06-12T04:59:54Z</time>
      </trkpt>
      <trkpt lat="43.64497" lon="1.39886">
        <ele>139</ele>
        <time>2025-06-12T04:59:55Z</time>
      </trkpt>
      <trkpt lat="43.64498" lon="1.39883">
        <ele>139</ele>
        <time>2025-06-12T04:59:56Z</time>
      </trkpt>
      <trkpt lat="43.64498" lon="1.39879">
        <ele>139</ele>
        <time>2025-06-12T04:59:57Z</time>
      </trkpt>
      <trkpt lat="43.64498" lon="1.39876">
        <ele>139</ele>
        <time>2025-06-12T04:59:58Z</time>
      </trkpt>
      <trkpt lat="43.64498" lon="1.39871">
        <ele>139</ele>
        <time>2025-06-12T04:59:59Z</time>
      </trkpt>
      <trkpt lat="43.64498" lon="1.39867">
        <ele>139</ele>
        <time>2025-06-12T05:00:00Z</time>
      </trkpt>
      <trkpt lat="43.64498" lon="1.39863">
        <ele>139</ele>
        <time>2025-06-12T05:00:01Z</time>
      </trkpt>
      <trkpt lat="43.64498" lon="1.39859">
        <ele>139</ele>
        <time>2025-06-12T05:00:02Z</time>
      </trkpt>
      <trkpt lat="43.64498" lon="1.39855">
        <ele>139</ele>
        <time>2025-06-12T05:00:03Z</time>
      </trkpt>
      <trkpt lat="43.64498" lon="1.39851">
        <ele>139</ele>
        <time>2025-06-12T05:00:04Z</time>
      </trkpt>
      <trkpt lat="43.64498" lon="1.39843">
        <ele>139</ele>
        <time>2025-06-12T05:00:05Z</time>
      </trkpt>
      <trkpt lat="43.64498" lon="1.39843">
        <ele>139</ele>
        <time>2025-06-12T05:00:06Z</time>
      </trkpt>
      <trkpt lat="43.64498" lon="1.39839">
        <ele>139</ele>
        <time>2025-06-12T05:00:07Z</time>
      </trkpt>
      <trkpt lat="43.64498" lon="1.39835">
        <ele>139</ele>
        <time>2025-06-12T05:00:08Z</time>
      </trkpt>
      <trkpt lat="43.64497" lon="1.39831">
        <ele>139</ele>
        <time>2025-06-12T05:00:09Z</time>
      </trkpt>
      <trkpt lat="43.64497" lon="1.39827">
        <ele>139</ele>
        <time>2025-06-12T05:00:10Z</time>
      </trkpt>
      <trkpt lat="43.64498" lon="1.39823">
        <ele>139</ele>
        <time>2025-06-12T05:00:11Z</time>
      </trkpt>
      <trkpt lat="43.64498" lon="1.39818">
        <ele>139</ele>
        <time>2025-06-12T05:00:12Z</time>
      </trkpt>
      <trkpt lat="43.64497" lon="1.39814">
        <ele>139</ele>
        <time>2025-06-12T05:00:13Z</time>
      </trkpt>
      <trkpt lat="43.64497" lon="1.3981">
        <ele>139</ele>
        <time>2025-06-12T05:00:14Z</time>
      </trkpt>
      <trkpt lat="43.64497" lon="1.39806">
        <ele>139</ele>
        <time>2025-06-12T05:00:15Z</time>
      </trkpt>
      <trkpt lat="43.64497" lon="1.39802">
        <ele>139</ele>
        <time>2025-06-12T05:00:16Z</time>
      </trkpt>
      <trkpt lat="43.64498" lon="1.39798">
        <ele>139</ele>
        <time>2025-06-12T05:00:17Z</time>
      </trkpt>
      <trkpt lat="43.64498" lon="1.39793">
        <ele>139</ele>
        <time>2025-06-12T05:00:18Z</time>
      </trkpt>
      <trkpt lat="43.64498" lon="1.39789">
        <ele>139</ele>
        <time>2025-06-12T05:00:19Z</time>
      </trkpt>
      <trkpt lat="43.64498" lon="1.39785">
        <ele>139</ele>
        <time>2025-06-12T05:00:20Z</time>
      </trkpt>
      <trkpt lat="43.64499" lon="1.39781">
        <ele>139</ele>
        <time>2025-06-12T05:00:21Z</time>
      </trkpt>
      <trkpt lat="43.64499" lon="1.39777">
        <ele>139</ele>
        <time>2025-06-12T05:00:22Z</time>
      </trkpt>
      <trkpt lat="43.64499" lon="1.39772">
        <ele>139</ele>
        <time>2025-06-12T05:00:23Z</time>
      </trkpt>
      <trkpt lat="43.645" lon="1.39764">
        <ele>139</ele>
        <time>2025-06-12T05:00:24Z</time>
      </trkpt>
      <trkpt lat="43.645" lon="1.39764">
        <ele>139</ele>
        <time>2025-06-12T05:00:25Z</time>
      </trkpt>
      <trkpt lat="43.645" lon="1.3976">
        <ele>139</ele>
        <time>2025-06-12T05:00:26Z</time>
      </trkpt>
      <trkpt lat="43.645" lon="1.39756">
        <ele>139</ele>
        <time>2025-06-12T05:00:27Z</time>
      </trkpt>
      <trkpt lat="43.645" lon="1.39752">
        <ele>139</ele>
        <time>2025-06-12T05:00:28Z</time>
      </trkpt>
      <trkpt lat="43.64501" lon="1.39748">
        <ele>139</ele>
        <time>2025-06-12T05:00:29Z</time>
      </trkpt>
      <trkpt lat="43.64501" lon="1.39744">
        <ele>139</ele>
        <time>2025-06-12T05:00:30Z</time>
      </trkpt>
      <trkpt lat="43.645" lon="1.3974">
        <ele>139</ele>
        <time>2025-06-12T05:00:31Z</time>
      </trkpt>
      <trkpt lat="43.64501" lon="1.39736">
        <ele>139</ele>
        <time>2025-06-12T05:00:32Z</time>
      </trkpt>
      <trkpt lat="43.64501" lon="1.39732">
        <ele>139</ele>
        <time>2025-06-12T05:00:33Z</time>
      </trkpt>
      <trkpt lat="43.64501" lon="1.39728">
        <ele>139</ele>
        <time>2025-06-12T05:00:34Z</time>
      </trkpt>
      <trkpt lat="43.64501" lon="1.39724">
        <ele>139</ele>
        <time>2025-06-12T05:00:35Z</time>
      </trkpt>
      <trkpt lat="43.64501" lon="1.3972">
        <ele>139</ele>
        <time>2025-06-12T05:00:36Z</time>
      </trkpt>
      <trkpt lat="43.645" lon="1.39716">
        <ele>139</ele>
        <time>2025-06-12T05:00:37Z</time>
      </trkpt>
      <trkpt lat="43.645" lon="1.39712">
        <ele>139</ele>
        <time>2025-06-12T05:00:38Z</time>
      </trkpt>
      <trkpt lat="43.645" lon="1.39708">
        <ele>139</ele>
        <time>2025-06-12T05:00:39Z</time>
      </trkpt>
      <trkpt lat="43.645" lon="1.39704">
        <ele>139</ele>
        <time>2025-06-12T05:00:40Z</time>
      </trkpt>
      <trkpt lat="43.645" lon="1.397">
        <ele>139</ele>
        <time>2025-06-12T05:00:41Z</time>
      </trkpt>
      <trkpt lat="43.645" lon="1.39696">
        <ele>139</ele>
        <time>2025-06-12T05:00:42Z</time>
      </trkpt>
      <trkpt lat="43.64501" lon="1.39687">
        <ele>139</ele>
        <time>2025-06-12T05:00:43Z</time>
      </trkpt>
      <trkpt lat="43.64501" lon="1.39687">
        <ele>140</ele>
        <time>2025-06-12T05:00:44Z</time>
      </trkpt>
      <trkpt lat="43.645" lon="1.39683">
        <ele>140</ele>
        <time>2025-06-12T05:00:45Z</time>
      </trkpt>
      <trkpt lat="43.64501" lon="1.39679">
        <ele>140</ele>
        <time>2025-06-12T05:00:46Z</time>
      </trkpt>
      <trkpt lat="43.645" lon="1.39675">
        <ele>140</ele>
        <time>2025-06-12T05:00:47Z</time>
      </trkpt>
      <trkpt lat="43.645" lon="1.3967">
        <ele>140</ele>
        <time>2025-06-12T05:00:48Z</time>
      </trkpt>
      <trkpt lat="43.645" lon="1.39666">
        <ele>140</ele>
        <time>2025-06-12T05:00:49Z</time>
      </trkpt>
      <trkpt lat="43.64499" lon="1.39662">
        <ele>140</ele>
        <time>2025-06-12T05:00:50Z</time>
      </trkpt>
      <trkpt lat="43.645" lon="1.39658">
        <ele>140</ele>
        <time>2025-06-12T05:00:51Z</time>
      </trkpt>
      <trkpt lat="43.645" lon="1.39655">
        <ele>140</ele>
        <time>2025-06-12T05:00:52Z</time>
      </trkpt>
      <trkpt lat="43.64499" lon="1.39651">
        <ele>140</ele>
        <time>2025-06-12T05:00:53Z</time>
      </trkpt>
      <trkpt lat="43.64499" lon="1.39647">
        <ele>140</ele>
        <time>2025-06-12T05:00:54Z</time>
      </trkpt>
      <trkpt lat="43.64499" lon="1.39643">
        <ele>140</ele>
        <time>2025-06-12T05:00:55Z</time>
      </trkpt>
      <trkpt lat="43.64499" lon="1.3964">
        <ele>139</ele>
        <time>2025-06-12T05:00:56Z</time>
      </trkpt>
      <trkpt lat="43.64499" lon="1.39636">
        <ele>139</ele>
        <time>2025-06-12T05:00:57Z</time>
      </trkpt>
      <trkpt lat="43.64499" lon="1.39632">
        <ele>139</ele>
        <time>2025-06-12T05:00:58Z</time>
      </trkpt>
      <trkpt lat="43.64499" lon="1.39628">
        <ele>139</ele>
        <time>2025-06-12T05:00:59Z</time>
      </trkpt>
      <trkpt lat="43.64499" lon="1.39624">
        <ele>139</ele>
        <time>2025-06-12T05:01:00Z</time>
      </trkpt>
      <trkpt lat="43.64499" lon="1.39619">
        <ele>139</ele>
        <time>2025-06-12T05:01:01Z</time>
      </trkpt>
      <trkpt lat="43.64499" lon="1.39614">
        <ele>139</ele>
        <time>2025-06-12T05:01:02Z</time>
      </trkpt>
      <trkpt lat="43.64499" lon="1.3961">
        <ele>139</ele>
        <time>2025-06-12T05:01:03Z</time>
      </trkpt>
      <trkpt lat="43.645" lon="1.39606">
        <ele>139</ele>
        <time>2025-06-12T05:01:04Z</time>
      </trkpt>
      <trkpt lat="43.64499" lon="1.39602">
        <ele>139</ele>
        <time>2025-06-12T05:01:05Z</time>
      </trkpt>
      <trkpt lat="43.64499" lon="1.39598">
        <ele>139</ele>
        <time>2025-06-12T05:01:06Z</time>
      </trkpt>
      <trkpt lat="43.64498" lon="1.39593">
        <ele>139</ele>
        <time>2025-06-12T05:01:07Z</time>
      </trkpt>
      <trkpt lat="43.64498" lon="1.39589">
        <ele>139</ele>
        <time>2025-06-12T05:01:08Z</time>
      </trkpt>
      <trkpt lat="43.64498" lon="1.39585">
        <ele>139</ele>
        <time>2025-06-12T05:01:09Z</time>
      </trkpt>
      <trkpt lat="43.64498" lon="1.39581">
        <ele>139</ele>
        <time>2025-06-12T05:01:10Z</time>
      </trkpt>
      <trkpt lat="43.64498" lon="1.39577">
        <ele>139</ele>
        <time>2025-06-12T05:01:11Z</time>
      </trkpt>
      <trkpt lat="43.64497" lon="1.39572">
        <ele>139</ele>
        <time>2025-06-12T05:01:12Z</time>
      </trkpt>
      <trkpt lat="43.64497" lon="1.39568">
        <ele>139</ele>
        <time>2025-06-12T05:01:13Z</time>
      </trkpt>
      <trkpt lat="43.64497" lon="1.39564">
        <ele>139</ele>
        <time>2025-06-12T05:01:14Z</time>
      </trkpt>
      <trkpt lat="43.64497" lon="1.3956">
        <ele>139</ele>
        <time>2025-06-12T05:01:15Z</time>
      </trkpt>
      <trkpt lat="43.64497" lon="1.39556">
        <ele>139</ele>
        <time>2025-06-12T05:01:16Z</time>
      </trkpt>
      <trkpt lat="43.64496" lon="1.39552">
        <ele>139</ele>
        <time>2025-06-12T05:01:17Z</time>
      </trkpt>
      <trkpt lat="43.64496" lon="1.39548">
        <ele>139</ele>
        <time>2025-06-12T05:01:18Z</time>
      </trkpt>
      <trkpt lat="43.64495" lon="1.39543">
        <ele>139</ele>
        <time>2025-06-12T05:01:19Z</time>
      </trkpt>
      <trkpt lat="43.64495" lon="1.39539">
        <ele>139</ele>
        <time>2025-06-12T05:01:20Z</time>
      </trkpt>
      <trkpt lat="43.64495" lon="1.39535">
        <ele>139</ele>
        <time>2025-06-12T05:01:21Z</time>
      </trkpt>
      <trkpt lat="43.64495" lon="1.39531">
        <ele>139</ele>
        <time>2025-06-12T05:01:22Z</time>
      </trkpt>
      <trkpt lat="43.64495" lon="1.39527">
        <ele>139</ele>
        <time>2025-06-12T05:01:23Z</time>
      </trkpt>
      <trkpt lat="43.64494" lon="1.39522">
        <ele>139</ele>
        <time>2025-06-12T05:01:24Z</time>
      </trkpt>
      <trkpt lat="43.64494" lon="1.39519">
        <ele>138</ele>
        <time>2025-06-12T05:01:25Z</time>
      </trkpt>
      <trkpt lat="43.64494" lon="1.39515">
        <ele>138</ele>
        <time>2025-06-12T05:01:26Z</time>
      </trkpt>
      <trkpt lat="43.64493" lon="1.39511">
        <ele>138</ele>
        <time>2025-06-12T05:01:27Z</time>
      </trkpt>
      <trkpt lat="43.64492" lon="1.39507">
        <ele>138</ele>
        <time>2025-06-12T05:01:28Z</time>
      </trkpt>
      <trkpt lat="43.64492" lon="1.39503">
        <ele>138</ele>
        <time>2025-06-12T05:01:29Z</time>
      </trkpt>
      <trkpt lat="43.64491" lon="1.39499">
        <ele>138</ele>
        <time>2025-06-12T05:01:30Z</time>
      </trkpt>
      <trkpt lat="43.6449" lon="1.39495">
        <ele>138</ele>
        <time>2025-06-12T05:01:31Z</time>
      </trkpt>
      <trkpt lat="43.64489" lon="1.39491">
        <ele>138</ele>
        <time>2025-06-12T05:01:32Z</time>
      </trkpt>
      <trkpt lat="43.64488" lon="1.39486">
        <ele>138</ele>
        <time>2025-06-12T05:01:33Z</time>
      </trkpt>
      <trkpt lat="43.64488" lon="1.39483">
        <ele>139</ele>
        <time>2025-06-12T05:01:34Z</time>
      </trkpt>
      <trkpt lat="43.64487" lon="1.39479">
        <ele>139</ele>
        <time>2025-06-12T05:01:35Z</time>
      </trkpt>
      <trkpt lat="43.64486" lon="1.39475">
        <ele>139</ele>
        <time>2025-06-12T05:01:36Z</time>
      </trkpt>
      <trkpt lat="43.64485" lon="1.39471">
        <ele>139</ele>
        <time>2025-06-12T05:01:37Z</time>
      </trkpt>
      <trkpt lat="43.64485" lon="1.39467">
        <ele>139</ele>
        <time>2025-06-12T05:01:38Z</time>
      </trkpt>
      <trkpt lat="43.64484" lon="1.39463">
        <ele>139</ele>
        <time>2025-06-12T05:01:39Z</time>
      </trkpt>
      <trkpt lat="43.64482" lon="1.39456">
        <ele>139</ele>
        <time>2025-06-12T05:01:40Z</time>
      </trkpt>
      <trkpt lat="43.64482" lon="1.39456">
        <ele>139</ele>
        <time>2025-06-12T05:01:41Z</time>
      </trkpt>
      <trkpt lat="43.64482" lon="1.39452">
        <ele>139</ele>
        <time>2025-06-12T05:01:42Z</time>
      </trkpt>
      <trkpt lat="43.64481" lon="1.39448">
        <ele>139</ele>
        <time>2025-06-12T05:01:43Z</time>
      </trkpt>
      <trkpt lat="43.6448" lon="1.39445">
        <ele>139</ele>
        <time>2025-06-12T05:01:44Z</time>
      </trkpt>
      <trkpt lat="43.64479" lon="1.39441">
        <ele>139</ele>
        <time>2025-06-12T05:01:45Z</time>
      </trkpt>
      <trkpt lat="43.64478" lon="1.39437">
        <ele>139</ele>
        <time>2025-06-12T05:01:46Z</time>
      </trkpt>
      <trkpt lat="43.64478" lon="1.39434">
        <ele>139</ele>
        <time>2025-06-12T05:01:47Z</time>
      </trkpt>
      <trkpt lat="43.64477" lon="1.3943">
        <ele>138</ele>
        <time>2025-06-12T05:01:48Z</time>
      </trkpt>
      <trkpt lat="43.64476" lon="1.39426">
        <ele>138</ele>
        <time>2025-06-12T05:01:49Z</time>
      </trkpt>
      <trkpt lat="43.64475" lon="1.39422">
        <ele>138</ele>
        <time>2025-06-12T05:01:50Z</time>
      </trkpt>
      <trkpt lat="43.64475" lon="1.39418">
        <ele>138</ele>
        <time>2025-06-12T05:01:51Z</time>
      </trkpt>
      <trkpt lat="43.64474" lon="1.39414">
        <ele>138</ele>
        <time>2025-06-12T05:01:52Z</time>
      </trkpt>
      <trkpt lat="43.64473" lon="1.39409">
        <ele>138</ele>
        <time>2025-06-12T05:01:53Z</time>
      </trkpt>
      <trkpt lat="43.64473" lon="1.39406">
        <ele>138</ele>
        <time>2025-06-12T05:01:54Z</time>
      </trkpt>
      <trkpt lat="43.64472" lon="1.39402">
        <ele>138</ele>
        <time>2025-06-12T05:01:55Z</time>
      </trkpt>
      <trkpt lat="43.64471" lon="1.39399">
        <ele>138</ele>
        <time>2025-06-12T05:01:56Z</time>
      </trkpt>
      <trkpt lat="43.64471" lon="1.39395">
        <ele>138</ele>
        <time>2025-06-12T05:01:57Z</time>
      </trkpt>
      <trkpt lat="43.6447" lon="1.39391">
        <ele>139</ele>
        <time>2025-06-12T05:01:58Z</time>
      </trkpt>
      <trkpt lat="43.6447" lon="1.39387">
        <ele>139</ele>
        <time>2025-06-12T05:01:59Z</time>
      </trkpt>
      <trkpt lat="43.64469" lon="1.39381">
        <ele>139</ele>
        <time>2025-06-12T05:02:00Z</time>
      </trkpt>
      <trkpt lat="43.64469" lon="1.39379">
        <ele>139</ele>
        <time>2025-06-12T05:02:01Z</time>
      </trkpt>
      <trkpt lat="43.64468" lon="1.39376">
        <ele>139</ele>
        <time>2025-06-12T05:02:02Z</time>
      </trkpt>
      <trkpt lat="43.64467" lon="1.39372">
        <ele>139</ele>
        <time>2025-06-12T05:02:03Z</time>
      </trkpt>
      <trkpt lat="43.64467" lon="1.39369">
        <ele>139</ele>
        <time>2025-06-12T05:02:04Z</time>
      </trkpt>
      <trkpt lat="43.64466" lon="1.39365">
        <ele>139</ele>
        <time>2025-06-12T05:02:05Z</time>
      </trkpt>
      <trkpt lat="43.64465" lon="1.39361">
        <ele>139</ele>
        <time>2025-06-12T05:02:06Z</time>
      </trkpt>
      <trkpt lat="43.64464" lon="1.39358">
        <ele>139</ele>
        <time>2025-06-12T05:02:07Z</time>
      </trkpt>
      <trkpt lat="43.64463" lon="1.39354">
        <ele>139</ele>
        <time>2025-06-12T05:02:08Z</time>
      </trkpt>
      <trkpt lat="43.64463" lon="1.3935">
        <ele>139</ele>
        <time>2025-06-12T05:02:09Z</time>
      </trkpt>
      <trkpt lat="43.64462" lon="1.39347">
        <ele>139</ele>
        <time>2025-06-12T05:02:10Z</time>
      </trkpt>
      <trkpt lat="43.64461" lon="1.39343">
        <ele>139</ele>
        <time>2025-06-12T05:02:11Z</time>
      </trkpt>
      <trkpt lat="43.6446" lon="1.39338">
        <ele>139</ele>
        <time>2025-06-12T05:02:12Z</time>
      </trkpt>
      <trkpt lat="43.6446" lon="1.39335">
        <ele>139</ele>
        <time>2025-06-12T05:02:13Z</time>
      </trkpt>
      <trkpt lat="43.64459" lon="1.39331">
        <ele>139</ele>
        <time>2025-06-12T05:02:14Z</time>
      </trkpt>
      <trkpt lat="43.64458" lon="1.39327">
        <ele>139</ele>
        <time>2025-06-12T05:02:15Z</time>
      </trkpt>
      <trkpt lat="43.64458" lon="1.39323">
        <ele>139</ele>
        <time>2025-06-12T05:02:16Z</time>
      </trkpt>
      <trkpt lat="43.64457" lon="1.39318">
        <ele>139</ele>
        <time>2025-06-12T05:02:17Z</time>
      </trkpt>
      <trkpt lat="43.64456" lon="1.3931">
        <ele>139</ele>
        <time>2025-06-12T05:02:18Z</time>
      </trkpt>
      <trkpt lat="43.64456" lon="1.3931">
        <ele>139</ele>
        <time>2025-06-12T05:02:19Z</time>
      </trkpt>
      <trkpt lat="43.64456" lon="1.39306">
        <ele>139</ele>
        <time>2025-06-12T05:02:20Z</time>
      </trkpt>
      <trkpt lat="43.64455" lon="1.39302">
        <ele>139</ele>
        <time>2025-06-12T05:02:21Z</time>
      </trkpt>
      <trkpt lat="43.64454" lon="1.39297">
        <ele>139</ele>
        <time>2025-06-12T05:02:22Z</time>
      </trkpt>
      <trkpt lat="43.64454" lon="1.39293">
        <ele>139</ele>
        <time>2025-06-12T05:02:23Z</time>
      </trkpt>
      <trkpt lat="43.64453" lon="1.39289">
        <ele>139</ele>
        <time>2025-06-12T05:02:24Z</time>
      </trkpt>
      <trkpt lat="43.64452" lon="1.39285">
        <ele>139</ele>
        <time>2025-06-12T05:02:25Z</time>
      </trkpt>
      <trkpt lat="43.64451" lon="1.39281">
        <ele>139</ele>
        <time>2025-06-12T05:02:26Z</time>
      </trkpt>
      <trkpt lat="43.6445" lon="1.39277">
        <ele>139</ele>
        <time>2025-06-12T05:02:27Z</time>
      </trkpt>
      <trkpt lat="43.64449" lon="1.39273">
        <ele>139</ele>
        <time>2025-06-12T05:02:28Z</time>
      </trkpt>
      <trkpt lat="43.64448" lon="1.39268">
        <ele>140</ele>
        <time>2025-06-12T05:02:29Z</time>
      </trkpt>
      <trkpt lat="43.64447" lon="1.39265">
        <ele>140</ele>
        <time>2025-06-12T05:02:30Z</time>
      </trkpt>
      <trkpt lat="43.64446" lon="1.39261">
        <ele>140</ele>
        <time>2025-06-12T05:02:31Z</time>
      </trkpt>
      <trkpt lat="43.64445" lon="1.39257">
        <ele>140</ele>
        <time>2025-06-12T05:02:32Z</time>
      </trkpt>
      <trkpt lat="43.64443" lon="1.39254">
        <ele>140</ele>
        <time>2025-06-12T05:02:33Z</time>
      </trkpt>
      <trkpt lat="43.64441" lon="1.3925">
        <ele>140</ele>
        <time>2025-06-12T05:02:34Z</time>
      </trkpt>
      <trkpt lat="43.6444" lon="1.39247">
        <ele>140</ele>
        <time>2025-06-12T05:02:35Z</time>
      </trkpt>
      <trkpt lat="43.64439" lon="1.39244">
        <ele>140</ele>
        <time>2025-06-12T05:02:36Z</time>
      </trkpt>
      <trkpt lat="43.64437" lon="1.39241">
        <ele>140</ele>
        <time>2025-06-12T05:02:37Z</time>
      </trkpt>
      <trkpt lat="43.64436" lon="1.39239">
        <ele>140</ele>
        <time>2025-06-12T05:02:38Z</time>
      </trkpt>
      <trkpt lat="43.64436" lon="1.39237">
        <ele>140</ele>
        <time>2025-06-12T05:02:39Z</time>
      </trkpt>
      <trkpt lat="43.64435" lon="1.39236">
        <ele>140</ele>
        <time>2025-06-12T05:02:40Z</time>
      </trkpt>
      <trkpt lat="43.64434" lon="1.39234">
        <ele>140</ele>
        <time>2025-06-12T05:02:41Z</time>
      </trkpt>
      <trkpt lat="43.6443" lon="1.39226">
        <ele>140</ele>
        <time>2025-06-12T05:02:42Z</time>
      </trkpt>
      <trkpt lat="43.64429" lon="1.39225">
        <ele>140</ele>
        <time>2025-06-12T05:02:43Z</time>
      </trkpt>
      <trkpt lat="43.64428" lon="1.39223">
        <ele>140</ele>
        <time>2025-06-12T05:02:44Z</time>
      </trkpt>
      <trkpt lat="43.64427" lon="1.39222">
        <ele>140</ele>
        <time>2025-06-12T05:02:45Z</time>
      </trkpt>
      <trkpt lat="43.64422" lon="1.39212">
        <ele>140</ele>
        <time>2025-06-12T05:02:46Z</time>
      </trkpt>
      <trkpt lat="43.64421" lon="1.39208">
        <ele>140</ele>
        <time>2025-06-12T05:02:47Z</time>
      </trkpt>
      <trkpt lat="43.64419" lon="1.39204">
        <ele>141</ele>
        <time>2025-06-12T05:02:48Z</time>
      </trkpt>
      <trkpt lat="43.64417" lon="1.392">
        <ele>142</ele>
        <time>2025-06-12T05:02:49Z</time>
      </trkpt>
      <trkpt lat="43.64416" lon="1.39196">
        <ele>142</ele>
        <time>2025-06-12T05:02:50Z</time>
      </trkpt>
      <trkpt lat="43.64414" lon="1.39193">
        <ele>142</ele>
        <time>2025-06-12T05:02:51Z</time>
      </trkpt>
      <trkpt lat="43.64413" lon="1.39191">
        <ele>142</ele>
        <time>2025-06-12T05:02:52Z</time>
      </trkpt>
      <trkpt lat="43.64413" lon="1.39189">
        <ele>142</ele>
        <time>2025-06-12T05:02:53Z</time>
      </trkpt>
      <trkpt lat="43.64412" lon="1.39187">
        <ele>142</ele>
        <time>2025-06-12T05:02:54Z</time>
      </trkpt>
      <trkpt lat="43.64412" lon="1.39185">
        <ele>143</ele>
        <time>2025-06-12T05:02:55Z</time>
      </trkpt>
      <trkpt lat="43.6441" lon="1.39176">
        <ele>143</ele>
        <time>2025-06-12T05:02:56Z</time>
      </trkpt>
      <trkpt lat="43.6441" lon="1.39175">
        <ele>143</ele>
        <time>2025-06-12T05:02:57Z</time>
      </trkpt>
      <trkpt lat="43.6441" lon="1.39173">
        <ele>143</ele>
        <time>2025-06-12T05:02:58Z</time>
      </trkpt>
      <trkpt lat="43.64409" lon="1.39171">
        <ele>143</ele>
        <time>2025-06-12T05:02:59Z</time>
      </trkpt>
      <trkpt lat="43.64409" lon="1.39162">
        <ele>144</ele>
        <time>2025-06-12T05:03:00Z</time>
      </trkpt>
      <trkpt lat="43.64409" lon="1.3916">
        <ele>144</ele>
        <time>2025-06-12T05:03:01Z</time>
      </trkpt>
      <trkpt lat="43.64409" lon="1.39158">
        <ele>145</ele>
        <time>2025-06-12T05:03:02Z</time>
      </trkpt>
      <trkpt lat="43.6441" lon="1.39156">
        <ele>145</ele>
        <time>2025-06-12T05:03:03Z</time>
      </trkpt>
      <trkpt lat="43.64411" lon="1.39146">
        <ele>145</ele>
        <time>2025-06-12T05:03:04Z</time>
      </trkpt>
      <trkpt lat="43.64412" lon="1.39143">
        <ele>145</ele>
        <time>2025-06-12T05:03:05Z</time>
      </trkpt>
      <trkpt lat="43.64412" lon="1.3914">
        <ele>146</ele>
        <time>2025-06-12T05:03:06Z</time>
      </trkpt>
      <trkpt lat="43.64413" lon="1.39138">
        <ele>146</ele>
        <time>2025-06-12T05:03:07Z</time>
      </trkpt>
      <trkpt lat="43.64413" lon="1.39135">
        <ele>147</ele>
        <time>2025-06-12T05:03:08Z</time>
      </trkpt>
      <trkpt lat="43.64414" lon="1.39132">
        <ele>147</ele>
        <time>2025-06-12T05:03:09Z</time>
      </trkpt>
      <trkpt lat="43.64415" lon="1.39129">
        <ele>147</ele>
        <time>2025-06-12T05:03:10Z</time>
      </trkpt>
      <trkpt lat="43.64415" lon="1.39126">
        <ele>147</ele>
        <time>2025-06-12T05:03:11Z</time>
      </trkpt>
      <trkpt lat="43.64416" lon="1.39123">
        <ele>148</ele>
        <time>2025-06-12T05:03:12Z</time>
      </trkpt>
      <trkpt lat="43.64417" lon="1.3912">
        <ele>148</ele>
        <time>2025-06-12T05:03:13Z</time>
      </trkpt>
      <trkpt lat="43.64418" lon="1.39117">
        <ele>149</ele>
        <time>2025-06-12T05:03:14Z</time>
      </trkpt>
      <trkpt lat="43.64419" lon="1.39115">
        <ele>149</ele>
        <time>2025-06-12T05:03:15Z</time>
      </trkpt>
      <trkpt lat="43.6442" lon="1.39112">
        <ele>149</ele>
        <time>2025-06-12T05:03:16Z</time>
      </trkpt>
      <trkpt lat="43.64421" lon="1.39109">
        <ele>149</ele>
        <time>2025-06-12T05:03:17Z</time>
      </trkpt>
      <trkpt lat="43.64423" lon="1.39107">
        <ele>149</ele>
        <time>2025-06-12T05:03:18Z</time>
      </trkpt>
      <trkpt lat="43.64425" lon="1.39105">
        <ele>149</ele>
        <time>2025-06-12T05:03:19Z</time>
      </trkpt>
      <trkpt lat="43.64427" lon="1.39104">
        <ele>150</ele>
        <time>2025-06-12T05:03:20Z</time>
      </trkpt>
      <trkpt lat="43.64428" lon="1.39102">
        <ele>151</ele>
        <time>2025-06-12T05:03:21Z</time>
      </trkpt>
      <trkpt lat="43.6443" lon="1.391">
        <ele>151</ele>
        <time>2025-06-12T05:03:22Z</time>
      </trkpt>
      <trkpt lat="43.64431" lon="1.39097">
        <ele>151</ele>
        <time>2025-06-12T05:03:23Z</time>
      </trkpt>
      <trkpt lat="43.64432" lon="1.39095">
        <ele>151</ele>
        <time>2025-06-12T05:03:24Z</time>
      </trkpt>
      <trkpt lat="43.64434" lon="1.39092">
        <ele>151</ele>
        <time>2025-06-12T05:03:25Z</time>
      </trkpt>
      <trkpt lat="43.64434" lon="1.39092">
        <ele>151</ele>
        <time>2025-06-12T05:03:26Z</time>
      </trkpt>
      <trkpt lat="43.64436" lon="1.39088">
        <ele>151</ele>
        <time>2025-06-12T05:03:27Z</time>
      </trkpt>
      <trkpt lat="43.64437" lon="1.39085">
        <ele>151</ele>
        <time>2025-06-12T05:03:28Z</time>
      </trkpt>
      <trkpt lat="43.64438" lon="1.39082">
        <ele>151</ele>
        <time>2025-06-12T05:03:29Z</time>
      </trkpt>
      <trkpt lat="43.64439" lon="1.39079">
        <ele>151</ele>
        <time>2025-06-12T05:03:30Z</time>
      </trkpt>
      <trkpt lat="43.64441" lon="1.39077">
        <ele>152</ele>
        <time>2025-06-12T05:03:31Z</time>
      </trkpt>
      <trkpt lat="43.64442" lon="1.39073">
        <ele>152</ele>
        <time>2025-06-12T05:03:32Z</time>
      </trkpt>
      <trkpt lat="43.64443" lon="1.3907">
        <ele>152</ele>
        <time>2025-06-12T05:03:33Z</time>
      </trkpt>
      <trkpt lat="43.64444" lon="1.39067">
        <ele>152</ele>
        <time>2025-06-12T05:03:34Z</time>
      </trkpt>
      <trkpt lat="43.64445" lon="1.39066">
        <ele>152</ele>
        <time>2025-06-12T05:03:35Z</time>
      </trkpt>
      <trkpt lat="43.64446" lon="1.39064">
        <ele>152</ele>
        <time>2025-06-12T05:03:36Z</time>
      </trkpt>
      <trkpt lat="43.64447" lon="1.39063">
        <ele>152</ele>
        <time>2025-06-12T05:03:37Z</time>
      </trkpt>
      <trkpt lat="43.64448" lon="1.39061">
        <ele>152</ele>
        <time>2025-06-12T05:03:38Z</time>
      </trkpt>
      <trkpt lat="43.64453" lon="1.39053">
        <ele>152</ele>
        <time>2025-06-12T05:03:39Z</time>
      </trkpt>
      <trkpt lat="43.64456" lon="1.39051">
        <ele>152</ele>
        <time>2025-06-12T05:03:40Z</time>
      </trkpt>
      <trkpt lat="43.64458" lon="1.39049">
        <ele>152</ele>
        <time>2025-06-12T05:03:41Z</time>
      </trkpt>
      <trkpt lat="43.64461" lon="1.39048">
        <ele>152</ele>
        <time>2025-06-12T05:03:42Z</time>
      </trkpt>
      <trkpt lat="43.64463" lon="1.39046">
        <ele>152</ele>
        <time>2025-06-12T05:03:43Z</time>
      </trkpt>
      <trkpt lat="43.64465" lon="1.39045">
        <ele>152</ele>
        <time>2025-06-12T05:03:44Z</time>
      </trkpt>
      <trkpt lat="43.64466" lon="1.39044">
        <ele>152</ele>
        <time>2025-06-12T05:03:45Z</time>
      </trkpt>
      <trkpt lat="43.64467" lon="1.39043">
        <ele>152</ele>
        <time>2025-06-12T05:03:46Z</time>
      </trkpt>
      <trkpt lat="43.64468" lon="1.39042">
        <ele>152</ele>
        <time>2025-06-12T05:03:47Z</time>
      </trkpt>
      <trkpt lat="43.64469" lon="1.39041">
        <ele>152</ele>
        <time>2025-06-12T05:03:48Z</time>
      </trkpt>
      <trkpt lat="43.64469" lon="1.3904">
        <ele>152</ele>
        <time>2025-06-12T05:03:49Z</time>
      </trkpt>
      <trkpt lat="43.64476" lon="1.39033">
        <ele>152</ele>
        <time>2025-06-12T05:03:50Z</time>
      </trkpt>
      <trkpt lat="43.64477" lon="1.3903">
        <ele>152</ele>
        <time>2025-06-12T05:03:51Z</time>
      </trkpt>
      <trkpt lat="43.64479" lon="1.39027">
        <ele>152</ele>
        <time>2025-06-12T05:03:52Z</time>
      </trkpt>
      <trkpt lat="43.6448" lon="1.39024">
        <ele>152</ele>
        <time>2025-06-12T05:03:53Z</time>
      </trkpt>
      <trkpt lat="43.64481" lon="1.39021">
        <ele>152</ele>
        <time>2025-06-12T05:03:54Z</time>
      </trkpt>
      <trkpt lat="43.64482" lon="1.39017">
        <ele>152</ele>
        <time>2025-06-12T05:03:55Z</time>
      </trkpt>
      <trkpt lat="43.64485" lon="1.39014">
        <ele>152</ele>
        <time>2025-06-12T05:03:56Z</time>
      </trkpt>
      <trkpt lat="43.64486" lon="1.3901">
        <ele>152</ele>
        <time>2025-06-12T05:03:57Z</time>
      </trkpt>
      <trkpt lat="43.64487" lon="1.39007">
        <ele>152</ele>
        <time>2025-06-12T05:03:58Z</time>
      </trkpt>
      <trkpt lat="43.64488" lon="1.39003">
        <ele>152</ele>
        <time>2025-06-12T05:03:59Z</time>
      </trkpt>
      <trkpt lat="43.6449" lon="1.39">
        <ele>151</ele>
        <time>2025-06-12T05:04:00Z</time>
      </trkpt>
      <trkpt lat="43.64491" lon="1.38996">
        <ele>152</ele>
        <time>2025-06-12T05:04:01Z</time>
      </trkpt>
      <trkpt lat="43.64492" lon="1.38992">
        <ele>152</ele>
        <time>2025-06-12T05:04:02Z</time>
      </trkpt>
      <trkpt lat="43.64493" lon="1.38989">
        <ele>152</ele>
        <time>2025-06-12T05:04:03Z</time>
      </trkpt>
      <trkpt lat="43.64495" lon="1.38986">
        <ele>152</ele>
        <time>2025-06-12T05:04:04Z</time>
      </trkpt>
      <trkpt lat="43.64496" lon="1.38982">
        <ele>152</ele>
        <time>2025-06-12T05:04:05Z</time>
      </trkpt>
      <trkpt lat="43.64497" lon="1.38978">
        <ele>152</ele>
        <time>2025-06-12T05:04:06Z</time>
      </trkpt>
      <trkpt lat="43.64497" lon="1.38974">
        <ele>152</ele>
        <time>2025-06-12T05:04:07Z</time>
      </trkpt>
      <trkpt lat="43.64498" lon="1.3897">
        <ele>152</ele>
        <time>2025-06-12T05:04:08Z</time>
      </trkpt>
      <trkpt lat="43.645" lon="1.38966">
        <ele>152</ele>
        <time>2025-06-12T05:04:09Z</time>
      </trkpt>
      <trkpt lat="43.64501" lon="1.38962">
        <ele>152</ele>
        <time>2025-06-12T05:04:10Z</time>
      </trkpt>
      <trkpt lat="43.64502" lon="1.38958">
        <ele>152</ele>
        <time>2025-06-12T05:04:11Z</time>
      </trkpt>
      <trkpt lat="43.64504" lon="1.38951">
        <ele>152</ele>
        <time>2025-06-12T05:04:12Z</time>
      </trkpt>
      <trkpt lat="43.64504" lon="1.38951">
        <ele>152</ele>
        <time>2025-06-12T05:04:13Z</time>
      </trkpt>
      <trkpt lat="43.64505" lon="1.38948">
        <ele>152</ele>
        <time>2025-06-12T05:04:14Z</time>
      </trkpt>
      <trkpt lat="43.64507" lon="1.38944">
        <ele>153</ele>
        <time>2025-06-12T05:04:15Z</time>
      </trkpt>
      <trkpt lat="43.64508" lon="1.38941">
        <ele>153</ele>
        <time>2025-06-12T05:04:16Z</time>
      </trkpt>
      <trkpt lat="43.6451" lon="1.38938">
        <ele>153</ele>
        <time>2025-06-12T05:04:17Z</time>
      </trkpt>
      <trkpt lat="43.64511" lon="1.38935">
        <ele>153</ele>
        <time>2025-06-12T05:04:18Z</time>
      </trkpt>
      <trkpt lat="43.64512" lon="1.38931">
        <ele>153</ele>
        <time>2025-06-12T05:04:19Z</time>
      </trkpt>
      <trkpt lat="43.64513" lon="1.38928">
        <ele>153</ele>
        <time>2025-06-12T05:04:20Z</time>
      </trkpt>
      <trkpt lat="43.64514" lon="1.38925">
        <ele>153</ele>
        <time>2025-06-12T05:04:21Z</time>
      </trkpt>
      <trkpt lat="43.64514" lon="1.38922">
        <ele>153</ele>
        <time>2025-06-12T05:04:22Z</time>
      </trkpt>
      <trkpt lat="43.64513" lon="1.38917">
        <ele>153</ele>
        <time>2025-06-12T05:04:23Z</time>
      </trkpt>
      <trkpt lat="43.64511" lon="1.38913">
        <ele>153</ele>
        <time>2025-06-12T05:04:24Z</time>
      </trkpt>
      <trkpt lat="43.6451" lon="1.38909">
        <ele>153</ele>
        <time>2025-06-12T05:04:25Z</time>
      </trkpt>
      <trkpt lat="43.6451" lon="1.38905">
        <ele>153</ele>
        <time>2025-06-12T05:04:26Z</time>
      </trkpt>
      <trkpt lat="43.64509" lon="1.38902">
        <ele>153</ele>
        <time>2025-06-12T05:04:27Z</time>
      </trkpt>
      <trkpt lat="43.64508" lon="1.38898">
        <ele>153</ele>
        <time>2025-06-12T05:04:28Z</time>
      </trkpt>
      <trkpt lat="43.64508" lon="1.38895">
        <ele>153</ele>
        <time>2025-06-12T05:04:29Z</time>
      </trkpt>
      <trkpt lat="43.64507" lon="1.38891">
        <ele>153</ele>
        <time>2025-06-12T05:04:30Z</time>
      </trkpt>
      <trkpt lat="43.64506" lon="1.38883">
        <ele>153</ele>
        <time>2025-06-12T05:04:31Z</time>
      </trkpt>
      <trkpt lat="43.64506" lon="1.38883">
        <ele>153</ele>
        <time>2025-06-12T05:04:32Z</time>
      </trkpt>
      <trkpt lat="43.64505" lon="1.38879">
        <ele>153</ele>
        <time>2025-06-12T05:04:33Z</time>
      </trkpt>
      <trkpt lat="43.64505" lon="1.38875">
        <ele>153</ele>
        <time>2025-06-12T05:04:34Z</time>
      </trkpt>
      <trkpt lat="43.64505" lon="1.38871">
        <ele>153</ele>
        <time>2025-06-12T05:04:35Z</time>
      </trkpt>
      <trkpt lat="43.64505" lon="1.38868">
        <ele>153</ele>
        <time>2025-06-12T05:04:36Z</time>
      </trkpt>
      <trkpt lat="43.64507" lon="1.38865">
        <ele>153</ele>
        <time>2025-06-12T05:04:37Z</time>
      </trkpt>
      <trkpt lat="43.64509" lon="1.38862">
        <ele>153</ele>
        <time>2025-06-12T05:04:38Z</time>
      </trkpt>
      <trkpt lat="43.64512" lon="1.3886">
        <ele>153</ele>
        <time>2025-06-12T05:04:39Z</time>
      </trkpt>
      <trkpt lat="43.64515" lon="1.38858">
        <ele>153</ele>
        <time>2025-06-12T05:04:40Z</time>
      </trkpt>
      <trkpt lat="43.64517" lon="1.38856">
        <ele>153</ele>
        <time>2025-06-12T05:04:41Z</time>
      </trkpt>
      <trkpt lat="43.6452" lon="1.38853">
        <ele>153</ele>
        <time>2025-06-12T05:04:42Z</time>
      </trkpt>
      <trkpt lat="43.64523" lon="1.38851">
        <ele>153</ele>
        <time>2025-06-12T05:04:43Z</time>
      </trkpt>
      <trkpt lat="43.64526" lon="1.38849">
        <ele>153</ele>
        <time>2025-06-12T05:04:44Z</time>
      </trkpt>
      <trkpt lat="43.64528" lon="1.38848">
        <ele>153</ele>
        <time>2025-06-12T05:04:45Z</time>
      </trkpt>
      <trkpt lat="43.64531" lon="1.38845">
        <ele>153</ele>
        <time>2025-06-12T05:04:46Z</time>
      </trkpt>
      <trkpt lat="43.64534" lon="1.38844">
        <ele>153</ele>
        <time>2025-06-12T05:04:47Z</time>
      </trkpt>
      <trkpt lat="43.64537" lon="1.38843">
        <ele>153</ele>
        <time>2025-06-12T05:04:48Z</time>
      </trkpt>
      <trkpt lat="43.64539" lon="1.38842">
        <ele>153</ele>
        <time>2025-06-12T05:04:49Z</time>
      </trkpt>
      <trkpt lat="43.64544" lon="1.3884">
        <ele>153</ele>
        <time>2025-06-12T05:04:50Z</time>
      </trkpt>
      <trkpt lat="43.64544" lon="1.3884">
        <ele>153</ele>
        <time>2025-06-12T05:04:51Z</time>
      </trkpt>
      <trkpt lat="43.64546" lon="1.3884">
        <ele>153</ele>
        <time>2025-06-12T05:04:52Z</time>
      </trkpt>
      <trkpt lat="43.64549" lon="1.38839">
        <ele>153</ele>
        <time>2025-06-12T05:04:53Z</time>
      </trkpt>
      <trkpt lat="43.64551" lon="1.38838">
        <ele>153</ele>
        <time>2025-06-12T05:04:54Z</time>
      </trkpt>
      <trkpt lat="43.64554" lon="1.38838">
        <ele>153</ele>
        <time>2025-06-12T05:04:55Z</time>
      </trkpt>
      <trkpt lat="43.64557" lon="1.38838">
        <ele>153</ele>
        <time>2025-06-12T05:04:56Z</time>
      </trkpt>
      <trkpt lat="43.6456" lon="1.38837">
        <ele>153</ele>
        <time>2025-06-12T05:04:57Z</time>
      </trkpt>
      <trkpt lat="43.64563" lon="1.38838">
        <ele>153</ele>
        <time>2025-06-12T05:04:58Z</time>
      </trkpt>
      <trkpt lat="43.64566" lon="1.38838">
        <ele>153</ele>
        <time>2025-06-12T05:04:59Z</time>
      </trkpt>
      <trkpt lat="43.64569" lon="1.38837">
        <ele>153</ele>
        <time>2025-06-12T05:05:00Z</time>
      </trkpt>
      <trkpt lat="43.64572" lon="1.38837">
        <ele>153</ele>
        <time>2025-06-12T05:05:01Z</time>
      </trkpt>
      <trkpt lat="43.64574" lon="1.38837">
        <ele>153</ele>
        <time>2025-06-12T05:05:02Z</time>
      </trkpt>
      <trkpt lat="43.64577" lon="1.38836">
        <ele>153</ele>
        <time>2025-06-12T05:05:03Z</time>
      </trkpt>
      <trkpt lat="43.6458" lon="1.38836">
        <ele>153</ele>
        <time>2025-06-12T05:05:04Z</time>
      </trkpt>
      <trkpt lat="43.64583" lon="1.38836">
        <ele>153</ele>
        <time>2025-06-12T05:05:05Z</time>
      </trkpt>
      <trkpt lat="43.64586" lon="1.38835">
        <ele>153</ele>
        <time>2025-06-12T05:05:06Z</time>
      </trkpt>
      <trkpt lat="43.64589" lon="1.38835">
        <ele>153</ele>
        <time>2025-06-12T05:05:07Z</time>
      </trkpt>
      <trkpt lat="43.64592" lon="1.38835">
        <ele>153</ele>
        <time>2025-06-12T05:05:08Z</time>
      </trkpt>
      <trkpt lat="43.64597" lon="1.38834">
        <ele>153</ele>
        <time>2025-06-12T05:05:09Z</time>
      </trkpt>
      <trkpt lat="43.64597" lon="1.38834">
        <ele>153</ele>
        <time>2025-06-12T05:05:10Z</time>
      </trkpt>
      <trkpt lat="43.646" lon="1.38834">
        <ele>153</ele>
        <time>2025-06-12T05:05:11Z</time>
      </trkpt>
      <trkpt lat="43.64603" lon="1.38834">
        <ele>153</ele>
        <time>2025-06-12T05:05:12Z</time>
      </trkpt>
      <trkpt lat="43.64607" lon="1.38833">
        <ele>153</ele>
        <time>2025-06-12T05:05:13Z</time>
      </trkpt>
      <trkpt lat="43.64609" lon="1.38833">
        <ele>153</ele>
        <time>2025-06-12T05:05:14Z</time>
      </trkpt>
      <trkpt lat="43.64612" lon="1.38832">
        <ele>153</ele>
        <time>2025-06-12T05:05:15Z</time>
      </trkpt>
      <trkpt lat="43.64615" lon="1.38831">
        <ele>153</ele>
        <time>2025-06-12T05:05:16Z</time>
      </trkpt>
      <trkpt lat="43.64617" lon="1.3883">
        <ele>153</ele>
        <time>2025-06-12T05:05:17Z</time>
      </trkpt>
      <trkpt lat="43.6462" lon="1.38829">
        <ele>154</ele>
        <time>2025-06-12T05:05:18Z</time>
      </trkpt>
      <trkpt lat="43.64623" lon="1.38828">
        <ele>154</ele>
        <time>2025-06-12T05:05:19Z</time>
      </trkpt>
      <trkpt lat="43.64625" lon="1.38828">
        <ele>153</ele>
        <time>2025-06-12T05:05:20Z</time>
      </trkpt>
      <trkpt lat="43.64628" lon="1.38828">
        <ele>153</ele>
        <time>2025-06-12T05:05:21Z</time>
      </trkpt>
      <trkpt lat="43.64631" lon="1.38828">
        <ele>153</ele>
        <time>2025-06-12T05:05:22Z</time>
      </trkpt>
      <trkpt lat="43.64634" lon="1.38828">
        <ele>153</ele>
        <time>2025-06-12T05:05:23Z</time>
      </trkpt>
      <trkpt lat="43.64637" lon="1.38827">
        <ele>153</ele>
        <time>2025-06-12T05:05:24Z</time>
      </trkpt>
      <trkpt lat="43.6464" lon="1.38826">
        <ele>153</ele>
        <time>2025-06-12T05:05:25Z</time>
      </trkpt>
      <trkpt lat="43.64643" lon="1.38825">
        <ele>153</ele>
        <time>2025-06-12T05:05:26Z</time>
      </trkpt>
      <trkpt lat="43.64645" lon="1.38823">
        <ele>153</ele>
        <time>2025-06-12T05:05:27Z</time>
      </trkpt>
      <trkpt lat="43.64648" lon="1.38822">
        <ele>153</ele>
        <time>2025-06-12T05:05:28Z</time>
      </trkpt>
      <trkpt lat="43.64651" lon="1.3882">
        <ele>153</ele>
        <time>2025-06-12T05:05:29Z</time>
      </trkpt>
      <trkpt lat="43.64654" lon="1.38819">
        <ele>153</ele>
        <time>2025-06-12T05:05:30Z</time>
      </trkpt>
      <trkpt lat="43.64657" lon="1.38818">
        <ele>153</ele>
        <time>2025-06-12T05:05:31Z</time>
      </trkpt>
      <trkpt lat="43.6466" lon="1.38817">
        <ele>153</ele>
        <time>2025-06-12T05:05:32Z</time>
      </trkpt>
      <trkpt lat="43.64663" lon="1.38816">
        <ele>153</ele>
        <time>2025-06-12T05:05:33Z</time>
      </trkpt>
      <trkpt lat="43.64665" lon="1.38814">
        <ele>153</ele>
        <time>2025-06-12T05:05:34Z</time>
      </trkpt>
      <trkpt lat="43.64668" lon="1.38813">
        <ele>153</ele>
        <time>2025-06-12T05:05:35Z</time>
      </trkpt>
      <trkpt lat="43.64671" lon="1.38812">
        <ele>153</ele>
        <time>2025-06-12T05:05:36Z</time>
      </trkpt>
      <trkpt lat="43.64674" lon="1.38811">
        <ele>153</ele>
        <time>2025-06-12T05:05:37Z</time>
      </trkpt>
      <trkpt lat="43.64677" lon="1.38809">
        <ele>153</ele>
        <time>2025-06-12T05:05:38Z</time>
      </trkpt>
      <trkpt lat="43.6468" lon="1.38808">
        <ele>153</ele>
        <time>2025-06-12T05:05:39Z</time>
      </trkpt>
      <trkpt lat="43.64683" lon="1.38806">
        <ele>153</ele>
        <time>2025-06-12T05:05:40Z</time>
      </trkpt>
      <trkpt lat="43.64685" lon="1.38805">
        <ele>153</ele>
        <time>2025-06-12T05:05:41Z</time>
      </trkpt>
      <trkpt lat="43.64688" lon="1.38803">
        <ele>153</ele>
        <time>2025-06-12T05:05:42Z</time>
      </trkpt>
      <trkpt lat="43.64691" lon="1.38802">
        <ele>153</ele>
        <time>2025-06-12T05:05:43Z</time>
      </trkpt>
      <trkpt lat="43.64693" lon="1.388">
        <ele>153</ele>
        <time>2025-06-12T05:05:44Z</time>
      </trkpt>
      <trkpt lat="43.64696" lon="1.38798">
        <ele>153</ele>
        <time>2025-06-12T05:05:45Z</time>
      </trkpt>
      <trkpt lat="43.64698" lon="1.38797">
        <ele>153</ele>
        <time>2025-06-12T05:05:46Z</time>
      </trkpt>
      <trkpt lat="43.64701" lon="1.38796">
        <ele>153</ele>
        <time>2025-06-12T05:05:47Z</time>
      </trkpt>
      <trkpt lat="43.64704" lon="1.38795">
        <ele>153</ele>
        <time>2025-06-12T05:05:48Z</time>
      </trkpt>
      <trkpt lat="43.64707" lon="1.38794">
        <ele>153</ele>
        <time>2025-06-12T05:05:49Z</time>
      </trkpt>
      <trkpt lat="43.6471" lon="1.38792">
        <ele>153</ele>
        <time>2025-06-12T05:05:50Z</time>
      </trkpt>
      <trkpt lat="43.64712" lon="1.38791">
        <ele>153</ele>
        <time>2025-06-12T05:05:51Z</time>
      </trkpt>
      <trkpt lat="43.64715" lon="1.3879">
        <ele>153</ele>
        <time>2025-06-12T05:05:52Z</time>
      </trkpt>
      <trkpt lat="43.64718" lon="1.38788">
        <ele>153</ele>
        <time>2025-06-12T05:05:53Z</time>
      </trkpt>
      <trkpt lat="43.64721" lon="1.38786">
        <ele>153</ele>
        <time>2025-06-12T05:05:54Z</time>
      </trkpt>
      <trkpt lat="43.64723" lon="1.38783">
        <ele>153</ele>
        <time>2025-06-12T05:05:55Z</time>
      </trkpt>
      <trkpt lat="43.64725" lon="1.3878">
        <ele>153</ele>
        <time>2025-06-12T05:05:56Z</time>
      </trkpt>
      <trkpt lat="43.64728" lon="1.38779">
        <ele>153</ele>
        <time>2025-06-12T05:05:57Z</time>
      </trkpt>
      <trkpt lat="43.6473" lon="1.38777">
        <ele>153</ele>
        <time>2025-06-12T05:05:58Z</time>
      </trkpt>
      <trkpt lat="43.64733" lon="1.38775">
        <ele>153</ele>
        <time>2025-06-12T05:05:59Z</time>
      </trkpt>
      <trkpt lat="43.64735" lon="1.38773">
        <ele>153</ele>
        <time>2025-06-12T05:06:00Z</time>
      </trkpt>
      <trkpt lat="43.64738" lon="1.38771">
        <ele>153</ele>
        <time>2025-06-12T05:06:01Z</time>
      </trkpt>
      <trkpt lat="43.6474" lon="1.38769">
        <ele>153</ele>
        <time>2025-06-12T05:06:02Z</time>
      </trkpt>
      <trkpt lat="43.64742" lon="1.38768">
        <ele>153</ele>
        <time>2025-06-12T05:06:03Z</time>
      </trkpt>
      <trkpt lat="43.64745" lon="1.38767">
        <ele>153</ele>
        <time>2025-06-12T05:06:04Z</time>
      </trkpt>
      <trkpt lat="43.64748" lon="1.38765">
        <ele>153</ele>
        <time>2025-06-12T05:06:05Z</time>
      </trkpt>
      <trkpt lat="43.64751" lon="1.38763">
        <ele>153</ele>
        <time>2025-06-12T05:06:06Z</time>
      </trkpt>
      <trkpt lat="43.64754" lon="1.38762">
        <ele>153</ele>
        <time>2025-06-12T05:06:07Z</time>
      </trkpt>
      <trkpt lat="43.64756" lon="1.3876">
        <ele>153</ele>
        <time>2025-06-12T05:06:08Z</time>
      </trkpt>
      <trkpt lat="43.64759" lon="1.38758">
        <ele>153</ele>
        <time>2025-06-12T05:06:09Z</time>
      </trkpt>
      <trkpt lat="43.64764" lon="1.38754">
        <ele>153</ele>
        <time>2025-06-12T05:06:10Z</time>
      </trkpt>
      <trkpt lat="43.64764" lon="1.38754">
        <ele>153</ele>
        <time>2025-06-12T05:06:11Z</time>
      </trkpt>
      <trkpt lat="43.64767" lon="1.38753">
        <ele>153</ele>
        <time>2025-06-12T05:06:12Z</time>
      </trkpt>
      <trkpt lat="43.6477" lon="1.38751">
        <ele>153</ele>
        <time>2025-06-12T05:06:13Z</time>
      </trkpt>
      <trkpt lat="43.64772" lon="1.38749">
        <ele>153</ele>
        <time>2025-06-12T05:06:14Z</time>
      </trkpt>
      <trkpt lat="43.64775" lon="1.38746">
        <ele>153</ele>
        <time>2025-06-12T05:06:15Z</time>
      </trkpt>
      <trkpt lat="43.64778" lon="1.38745">
        <ele>153</ele>
        <time>2025-06-12T05:06:16Z</time>
      </trkpt>
      <trkpt lat="43.6478" lon="1.38741">
        <ele>153</ele>
        <time>2025-06-12T05:06:17Z</time>
      </trkpt>
      <trkpt lat="43.64782" lon="1.38739">
        <ele>153</ele>
        <time>2025-06-12T05:06:18Z</time>
      </trkpt>
      <trkpt lat="43.64785" lon="1.38738">
        <ele>153</ele>
        <time>2025-06-12T05:06:19Z</time>
      </trkpt>
      <trkpt lat="43.64787" lon="1.38735">
        <ele>153</ele>
        <time>2025-06-12T05:06:20Z</time>
      </trkpt>
      <trkpt lat="43.6479" lon="1.38733">
        <ele>153</ele>
        <time>2025-06-12T05:06:21Z</time>
      </trkpt>
      <trkpt lat="43.64792" lon="1.3873">
        <ele>153</ele>
        <time>2025-06-12T05:06:22Z</time>
      </trkpt>
      <trkpt lat="43.64795" lon="1.38727">
        <ele>153</ele>
        <time>2025-06-12T05:06:23Z</time>
      </trkpt>
      <trkpt lat="43.64798" lon="1.38725">
        <ele>153</ele>
        <time>2025-06-12T05:06:24Z</time>
      </trkpt>
      <trkpt lat="43.64803" lon="1.38722">
        <ele>153</ele>
        <time>2025-06-12T05:06:25Z</time>
      </trkpt>
      <trkpt lat="43.64803" lon="1.38722">
        <ele>153</ele>
        <time>2025-06-12T05:06:26Z</time>
      </trkpt>
      <trkpt lat="43.64806" lon="1.3872">
        <ele>153</ele>
        <time>2025-06-12T05:06:27Z</time>
      </trkpt>
      <trkpt lat="43.64808" lon="1.38719">
        <ele>153</ele>
        <time>2025-06-12T05:06:28Z</time>
      </trkpt>
      <trkpt lat="43.64811" lon="1.38718">
        <ele>153</ele>
        <time>2025-06-12T05:06:29Z</time>
      </trkpt>
      <trkpt lat="43.64814" lon="1.38716">
        <ele>153</ele>
        <time>2025-06-12T05:06:30Z</time>
      </trkpt>
      <trkpt lat="43.64816" lon="1.38714">
        <ele>153</ele>
        <time>2025-06-12T05:06:31Z</time>
      </trkpt>
      <trkpt lat="43.64818" lon="1.38713">
        <ele>152</ele>
        <time>2025-06-12T05:06:32Z</time>
      </trkpt>
      <trkpt lat="43.64821" lon="1.38711">
        <ele>152</ele>
        <time>2025-06-12T05:06:33Z</time>
      </trkpt>
      <trkpt lat="43.64824" lon="1.38709">
        <ele>153</ele>
        <time>2025-06-12T05:06:34Z</time>
      </trkpt>
      <trkpt lat="43.64826" lon="1.38707">
        <ele>153</ele>
        <time>2025-06-12T05:06:35Z</time>
      </trkpt>
      <trkpt lat="43.64829" lon="1.38705">
        <ele>153</ele>
        <time>2025-06-12T05:06:36Z</time>
      </trkpt>
      <trkpt lat="43.64832" lon="1.38704">
        <ele>153</ele>
        <time>2025-06-12T05:06:37Z</time>
      </trkpt>
      <trkpt lat="43.64835" lon="1.38702">
        <ele>153</ele>
        <time>2025-06-12T05:06:38Z</time>
      </trkpt>
      <trkpt lat="43.64838" lon="1.38701">
        <ele>153</ele>
        <time>2025-06-12T05:06:39Z</time>
      </trkpt>
      <trkpt lat="43.64841" lon="1.38699">
        <ele>153</ele>
        <time>2025-06-12T05:06:40Z</time>
      </trkpt>
      <trkpt lat="43.64843" lon="1.38698">
        <ele>152</ele>
        <time>2025-06-12T05:06:41Z</time>
      </trkpt>
      <trkpt lat="43.64846" lon="1.38696">
        <ele>152</ele>
        <time>2025-06-12T05:06:42Z</time>
      </trkpt>
      <trkpt lat="43.64849" lon="1.38694">
        <ele>153</ele>
        <time>2025-06-12T05:06:43Z</time>
      </trkpt>
      <trkpt lat="43.64853" lon="1.38692">
        <ele>153</ele>
        <time>2025-06-12T05:06:44Z</time>
      </trkpt>
      <trkpt lat="43.64854" lon="1.38691">
        <ele>153</ele>
        <time>2025-06-12T05:06:45Z</time>
      </trkpt>
      <trkpt lat="43.64857" lon="1.38689">
        <ele>153</ele>
        <time>2025-06-12T05:06:46Z</time>
      </trkpt>
      <trkpt lat="43.6486" lon="1.38688">
        <ele>153</ele>
        <time>2025-06-12T05:06:47Z</time>
      </trkpt>
      <trkpt lat="43.64862" lon="1.38686">
        <ele>153</ele>
        <time>2025-06-12T05:06:48Z</time>
      </trkpt>
      <trkpt lat="43.64865" lon="1.38684">
        <ele>153</ele>
        <time>2025-06-12T05:06:49Z</time>
      </trkpt>
      <trkpt lat="43.64867" lon="1.38682">
        <ele>153</ele>
        <time>2025-06-12T05:06:50Z</time>
      </trkpt>
      <trkpt lat="43.6487" lon="1.3868">
        <ele>153</ele>
        <time>2025-06-12T05:06:51Z</time>
      </trkpt>
      <trkpt lat="43.64873" lon="1.38678">
        <ele>153</ele>
        <time>2025-06-12T05:06:52Z</time>
      </trkpt>
      <trkpt lat="43.64875" lon="1.38676">
        <ele>153</ele>
        <time>2025-06-12T05:06:53Z</time>
      </trkpt>
      <trkpt lat="43.64878" lon="1.38674">
        <ele>153</ele>
        <time>2025-06-12T05:06:54Z</time>
      </trkpt>
      <trkpt lat="43.64881" lon="1.38672">
        <ele>153</ele>
        <time>2025-06-12T05:06:55Z</time>
      </trkpt>
      <trkpt lat="43.64883" lon="1.3867">
        <ele>153</ele>
        <time>2025-06-12T05:06:56Z</time>
      </trkpt>
      <trkpt lat="43.64886" lon="1.38668">
        <ele>153</ele>
        <time>2025-06-12T05:06:57Z</time>
      </trkpt>
      <trkpt lat="43.64889" lon="1.38666">
        <ele>153</ele>
        <time>2025-06-12T05:06:58Z</time>
      </trkpt>
      <trkpt lat="43.64892" lon="1.38664">
        <ele>153</ele>
        <time>2025-06-12T05:06:59Z</time>
      </trkpt>
      <trkpt lat="43.64895" lon="1.38662">
        <ele>153</ele>
        <time>2025-06-12T05:07:00Z</time>
      </trkpt>
      <trkpt lat="43.64897" lon="1.3866">
        <ele>153</ele>
        <time>2025-06-12T05:07:01Z</time>
      </trkpt>
      <trkpt lat="43.64903" lon="1.38656">
        <ele>152</ele>
        <time>2025-06-12T05:07:02Z</time>
      </trkpt>
      <trkpt lat="43.64906" lon="1.38655">
        <ele>152</ele>
        <time>2025-06-12T05:07:03Z</time>
      </trkpt>
      <trkpt lat="43.64906" lon="1.38655">
        <ele>153</ele>
        <time>2025-06-12T05:07:04Z</time>
      </trkpt>
      <trkpt lat="43.64908" lon="1.38653">
        <ele>153</ele>
        <time>2025-06-12T05:07:05Z</time>
      </trkpt>
      <trkpt lat="43.64911" lon="1.38651">
        <ele>153</ele>
        <time>2025-06-12T05:07:06Z</time>
      </trkpt>
      <trkpt lat="43.64914" lon="1.38649">
        <ele>153</ele>
        <time>2025-06-12T05:07:07Z</time>
      </trkpt>
      <trkpt lat="43.64917" lon="1.38647">
        <ele>153</ele>
        <time>2025-06-12T05:07:08Z</time>
      </trkpt>
      <trkpt lat="43.64919" lon="1.38645">
        <ele>153</ele>
        <time>2025-06-12T05:07:09Z</time>
      </trkpt>
      <trkpt lat="43.64922" lon="1.38643">
        <ele>153</ele>
        <time>2025-06-12T05:07:10Z</time>
      </trkpt>
      <trkpt lat="43.64925" lon="1.38641">
        <ele>153</ele>
        <time>2025-06-12T05:07:11Z</time>
      </trkpt>
      <trkpt lat="43.64928" lon="1.3864">
        <ele>152</ele>
        <time>2025-06-12T05:07:12Z</time>
      </trkpt>
      <trkpt lat="43.64931" lon="1.38638">
        <ele>152</ele>
        <time>2025-06-12T05:07:13Z</time>
      </trkpt>
      <trkpt lat="43.64934" lon="1.38636">
        <ele>152</ele>
        <time>2025-06-12T05:07:14Z</time>
      </trkpt>
      <trkpt lat="43.64937" lon="1.38635">
        <ele>152</ele>
        <time>2025-06-12T05:07:15Z</time>
      </trkpt>
      <trkpt lat="43.6494" lon="1.38633">
        <ele>152</ele>
        <time>2025-06-12T05:07:16Z</time>
      </trkpt>
      <trkpt lat="43.64943" lon="1.38631">
        <ele>152</ele>
        <time>2025-06-12T05:07:17Z</time>
      </trkpt>
      <trkpt lat="43.64946" lon="1.38629">
        <ele>152</ele>
        <time>2025-06-12T05:07:18Z</time>
      </trkpt>
      <trkpt lat="43.64949" lon="1.38627">
        <ele>152</ele>
        <time>2025-06-12T05:07:19Z</time>
      </trkpt>
      <trkpt lat="43.64952" lon="1.38626">
        <ele>152</ele>
        <time>2025-06-12T05:07:20Z</time>
      </trkpt>
      <trkpt lat="43.64955" lon="1.38625">
        <ele>152</ele>
        <time>2025-06-12T05:07:21Z</time>
      </trkpt>
      <trkpt lat="43.64961" lon="1.38621">
        <ele>152</ele>
        <time>2025-06-12T05:07:22Z</time>
      </trkpt>
      <trkpt lat="43.64961" lon="1.38621">
        <ele>152</ele>
        <time>2025-06-12T05:07:23Z</time>
      </trkpt>
      <trkpt lat="43.64964" lon="1.3862">
        <ele>152</ele>
        <time>2025-06-12T05:07:24Z</time>
      </trkpt>
      <trkpt lat="43.64967" lon="1.38618">
        <ele>152</ele>
        <time>2025-06-12T05:07:25Z</time>
      </trkpt>
      <trkpt lat="43.6497" lon="1.38617">
        <ele>152</ele>
        <time>2025-06-12T05:07:26Z</time>
      </trkpt>
      <trkpt lat="43.64972" lon="1.38615">
        <ele>152</ele>
        <time>2025-06-12T05:07:27Z</time>
      </trkpt>
      <trkpt lat="43.64975" lon="1.38613">
        <ele>153</ele>
        <time>2025-06-12T05:07:28Z</time>
      </trkpt>
      <trkpt lat="43.64977" lon="1.38611">
        <ele>153</ele>
        <time>2025-06-12T05:07:29Z</time>
      </trkpt>
      <trkpt lat="43.6498" lon="1.38609">
        <ele>152</ele>
        <time>2025-06-12T05:07:30Z</time>
      </trkpt>
      <trkpt lat="43.64983" lon="1.38607">
        <ele>152</ele>
        <time>2025-06-12T05:07:31Z</time>
      </trkpt>
      <trkpt lat="43.64986" lon="1.38605">
        <ele>152</ele>
        <time>2025-06-12T05:07:32Z</time>
      </trkpt>
      <trkpt lat="43.64989" lon="1.38603">
        <ele>152</ele>
        <time>2025-06-12T05:07:33Z</time>
      </trkpt>
      <trkpt lat="43.64991" lon="1.38601">
        <ele>152</ele>
        <time>2025-06-12T05:07:34Z</time>
      </trkpt>
      <trkpt lat="43.64994" lon="1.38599">
        <ele>152</ele>
        <time>2025-06-12T05:07:35Z</time>
      </trkpt>
      <trkpt lat="43.64997" lon="1.38597">
        <ele>152</ele>
        <time>2025-06-12T05:07:36Z</time>
      </trkpt>
      <trkpt lat="43.65" lon="1.38596">
        <ele>152</ele>
        <time>2025-06-12T05:07:37Z</time>
      </trkpt>
      <trkpt lat="43.65002" lon="1.38594">
        <ele>152</ele>
        <time>2025-06-12T05:07:38Z</time>
      </trkpt>
      <trkpt lat="43.65005" lon="1.38593">
        <ele>152</ele>
        <time>2025-06-12T05:07:39Z</time>
      </trkpt>
      <trkpt lat="43.65007" lon="1.38591">
        <ele>152</ele>
        <time>2025-06-12T05:07:40Z</time>
      </trkpt>
      <trkpt lat="43.65013" lon="1.38588">
        <ele>152</ele>
        <time>2025-06-12T05:07:41Z</time>
      </trkpt>
      <trkpt lat="43.65013" lon="1.38588">
        <ele>152</ele>
        <time>2025-06-12T05:07:42Z</time>
      </trkpt>
      <trkpt lat="43.65016" lon="1.38587">
        <ele>152</ele>
        <time>2025-06-12T05:07:43Z</time>
      </trkpt>
      <trkpt lat="43.65019" lon="1.38586">
        <ele>152</ele>
        <time>2025-06-12T05:07:44Z</time>
      </trkpt>
      <trkpt lat="43.65022" lon="1.38584">
        <ele>152</ele>
        <time>2025-06-12T05:07:45Z</time>
      </trkpt>
      <trkpt lat="43.65025" lon="1.38583">
        <ele>152</ele>
        <time>2025-06-12T05:07:46Z</time>
      </trkpt>
      <trkpt lat="43.65027" lon="1.38581">
        <ele>152</ele>
        <time>2025-06-12T05:07:47Z</time>
      </trkpt>
      <trkpt lat="43.6503" lon="1.38579">
        <ele>152</ele>
        <time>2025-06-12T05:07:48Z</time>
      </trkpt>
      <trkpt lat="43.65033" lon="1.38578">
        <ele>152</ele>
        <time>2025-06-12T05:07:49Z</time>
      </trkpt>
      <trkpt lat="43.65036" lon="1.38576">
        <ele>152</ele>
        <time>2025-06-12T05:07:50Z</time>
      </trkpt>
      <trkpt lat="43.65038" lon="1.38574">
        <ele>152</ele>
        <time>2025-06-12T05:07:51Z</time>
      </trkpt>
      <trkpt lat="43.65041" lon="1.38572">
        <ele>152</ele>
        <time>2025-06-12T05:07:52Z</time>
      </trkpt>
      <trkpt lat="43.65044" lon="1.38571">
        <ele>152</ele>
        <time>2025-06-12T05:07:53Z</time>
      </trkpt>
      <trkpt lat="43.65047" lon="1.3857">
        <ele>152</ele>
        <time>2025-06-12T05:07:54Z</time>
      </trkpt>
      <trkpt lat="43.65051" lon="1.38569">
        <ele>152</ele>
        <time>2025-06-12T05:07:55Z</time>
      </trkpt>
      <trkpt lat="43.65054" lon="1.38568">
        <ele>152</ele>
        <time>2025-06-12T05:07:56Z</time>
      </trkpt>
      <trkpt lat="43.65057" lon="1.38568">
        <ele>152</ele>
        <time>2025-06-12T05:07:57Z</time>
      </trkpt>
      <trkpt lat="43.6506" lon="1.38566">
        <ele>152</ele>
        <time>2025-06-12T05:07:58Z</time>
      </trkpt>
      <trkpt lat="43.65063" lon="1.38565">
        <ele>152</ele>
        <time>2025-06-12T05:07:59Z</time>
      </trkpt>
      <trkpt lat="43.65066" lon="1.38563">
        <ele>152</ele>
        <time>2025-06-12T05:08:00Z</time>
      </trkpt>
      <trkpt lat="43.65068" lon="1.3856">
        <ele>152</ele>
        <time>2025-06-12T05:08:01Z</time>
      </trkpt>
      <trkpt lat="43.65071" lon="1.38558">
        <ele>152</ele>
        <time>2025-06-12T05:08:02Z</time>
      </trkpt>
      <trkpt lat="43.65074" lon="1.38557">
        <ele>152</ele>
        <time>2025-06-12T05:08:03Z</time>
      </trkpt>
      <trkpt lat="43.65077" lon="1.38555">
        <ele>152</ele>
        <time>2025-06-12T05:08:04Z</time>
      </trkpt>
      <trkpt lat="43.6508" lon="1.38553">
        <ele>152</ele>
        <time>2025-06-12T05:08:05Z</time>
      </trkpt>
      <trkpt lat="43.65083" lon="1.38551">
        <ele>152</ele>
        <time>2025-06-12T05:08:06Z</time>
      </trkpt>
      <trkpt lat="43.65085" lon="1.38549">
        <ele>152</ele>
        <time>2025-06-12T05:08:07Z</time>
      </trkpt>
      <trkpt lat="43.65087" lon="1.38547">
        <ele>152</ele>
        <time>2025-06-12T05:08:08Z</time>
      </trkpt>
      <trkpt lat="43.65089" lon="1.38545">
        <ele>153</ele>
        <time>2025-06-12T05:08:09Z</time>
      </trkpt>
      <trkpt lat="43.65091" lon="1.38542">
        <ele>153</ele>
        <time>2025-06-12T05:08:10Z</time>
      </trkpt>
      <trkpt lat="43.65092" lon="1.38538">
        <ele>153</ele>
        <time>2025-06-12T05:08:11Z</time>
      </trkpt>
      <trkpt lat="43.65093" lon="1.38535">
        <ele>152</ele>
        <time>2025-06-12T05:08:12Z</time>
      </trkpt>
      <trkpt lat="43.65095" lon="1.38532">
        <ele>152</ele>
        <time>2025-06-12T05:08:13Z</time>
      </trkpt>
      <trkpt lat="43.65097" lon="1.38529">
        <ele>152</ele>
        <time>2025-06-12T05:08:14Z</time>
      </trkpt>
      <trkpt lat="43.65098" lon="1.38525">
        <ele>152</ele>
        <time>2025-06-12T05:08:15Z</time>
      </trkpt>
      <trkpt lat="43.65099" lon="1.38522">
        <ele>152</ele>
        <time>2025-06-12T05:08:16Z</time>
      </trkpt>
      <trkpt lat="43.651" lon="1.38519">
        <ele>152</ele>
        <time>2025-06-12T05:08:17Z</time>
      </trkpt>
      <trkpt lat="43.65101" lon="1.38515">
        <ele>152</ele>
        <time>2025-06-12T05:08:18Z</time>
      </trkpt>
      <trkpt lat="43.65103" lon="1.38508">
        <ele>152</ele>
        <time>2025-06-12T05:08:19Z</time>
      </trkpt>
      <trkpt lat="43.65103" lon="1.38508">
        <ele>152</ele>
        <time>2025-06-12T05:08:20Z</time>
      </trkpt>
      <trkpt lat="43.65105" lon="1.38505">
        <ele>152</ele>
        <time>2025-06-12T05:08:21Z</time>
      </trkpt>
      <trkpt lat="43.65107" lon="1.38502">
        <ele>152</ele>
        <time>2025-06-12T05:08:22Z</time>
      </trkpt>
      <trkpt lat="43.6511" lon="1.38501">
        <ele>152</ele>
        <time>2025-06-12T05:08:23Z</time>
      </trkpt>
      <trkpt lat="43.65113" lon="1.38501">
        <ele>152</ele>
        <time>2025-06-12T05:08:24Z</time>
      </trkpt>
      <trkpt lat="43.65116" lon="1.38503">
        <ele>152</ele>
        <time>2025-06-12T05:08:25Z</time>
      </trkpt>
      <trkpt lat="43.65118" lon="1.38505">
        <ele>153</ele>
        <time>2025-06-12T05:08:26Z</time>
      </trkpt>
      <trkpt lat="43.65121" lon="1.38506">
        <ele>153</ele>
        <time>2025-06-12T05:08:27Z</time>
      </trkpt>
      <trkpt lat="43.65123" lon="1.38506">
        <ele>152</ele>
        <time>2025-06-12T05:08:28Z</time>
      </trkpt>
      <trkpt lat="43.65126" lon="1.38506">
        <ele>152</ele>
        <time>2025-06-12T05:08:29Z</time>
      </trkpt>
      <trkpt lat="43.6513" lon="1.38505">
        <ele>152</ele>
        <time>2025-06-12T05:08:30Z</time>
      </trkpt>
      <trkpt lat="43.65133" lon="1.38503">
        <ele>152</ele>
        <time>2025-06-12T05:08:31Z</time>
      </trkpt>
      <trkpt lat="43.65136" lon="1.38501">
        <ele>152</ele>
        <time>2025-06-12T05:08:32Z</time>
      </trkpt>
      <trkpt lat="43.65138" lon="1.38499">
        <ele>152</ele>
        <time>2025-06-12T05:08:33Z</time>
      </trkpt>
      <trkpt lat="43.65141" lon="1.38496">
        <ele>152</ele>
        <time>2025-06-12T05:08:34Z</time>
      </trkpt>
      <trkpt lat="43.65143" lon="1.38494">
        <ele>152</ele>
        <time>2025-06-12T05:08:35Z</time>
      </trkpt>
      <trkpt lat="43.65146" lon="1.38491">
        <ele>152</ele>
        <time>2025-06-12T05:08:36Z</time>
      </trkpt>
      <trkpt lat="43.65149" lon="1.38489">
        <ele>152</ele>
        <time>2025-06-12T05:08:37Z</time>
      </trkpt>
      <trkpt lat="43.65153" lon="1.38486">
        <ele>152</ele>
        <time>2025-06-12T05:08:38Z</time>
      </trkpt>
      <trkpt lat="43.65155" lon="1.38485">
        <ele>151</ele>
        <time>2025-06-12T05:08:39Z</time>
      </trkpt>
      <trkpt lat="43.65158" lon="1.38482">
        <ele>151</ele>
        <time>2025-06-12T05:08:40Z</time>
      </trkpt>
      <trkpt lat="43.6516" lon="1.3848">
        <ele>151</ele>
        <time>2025-06-12T05:08:41Z</time>
      </trkpt>
      <trkpt lat="43.65163" lon="1.38477">
        <ele>150</ele>
        <time>2025-06-12T05:08:42Z</time>
      </trkpt>
      <trkpt lat="43.65165" lon="1.38475">
        <ele>150</ele>
        <time>2025-06-12T05:08:43Z</time>
      </trkpt>
      <trkpt lat="43.65168" lon="1.38472">
        <ele>150</ele>
        <time>2025-06-12T05:08:44Z</time>
      </trkpt>
      <trkpt lat="43.65171" lon="1.3847">
        <ele>149</ele>
        <time>2025-06-12T05:08:45Z</time>
      </trkpt>
      <trkpt lat="43.65174" lon="1.38468">
        <ele>149</ele>
        <time>2025-06-12T05:08:46Z</time>
      </trkpt>
      <trkpt lat="43.65177" lon="1.38465">
        <ele>149</ele>
        <time>2025-06-12T05:08:47Z</time>
      </trkpt>
      <trkpt lat="43.6518" lon="1.38463">
        <ele>149</ele>
        <time>2025-06-12T05:08:48Z</time>
      </trkpt>
      <trkpt lat="43.65183" lon="1.38461">
        <ele>149</ele>
        <time>2025-06-12T05:08:49Z</time>
      </trkpt>
      <trkpt lat="43.65185" lon="1.38458">
        <ele>149</ele>
        <time>2025-06-12T05:08:50Z</time>
      </trkpt>
      <trkpt lat="43.65188" lon="1.38455">
        <ele>149</ele>
        <time>2025-06-12T05:08:51Z</time>
      </trkpt>
      <trkpt lat="43.6519" lon="1.38453">
        <ele>148</ele>
        <time>2025-06-12T05:08:52Z</time>
      </trkpt>
      <trkpt lat="43.65193" lon="1.38451">
        <ele>148</ele>
        <time>2025-06-12T05:08:53Z</time>
      </trkpt>
      <trkpt lat="43.65196" lon="1.38448">
        <ele>149</ele>
        <time>2025-06-12T05:08:54Z</time>
      </trkpt>
      <trkpt lat="43.65198" lon="1.38445">
        <ele>149</ele>
        <time>2025-06-12T05:08:55Z</time>
      </trkpt>
      <trkpt lat="43.652" lon="1.38443">
        <ele>149</ele>
        <time>2025-06-12T05:08:56Z</time>
      </trkpt>
      <trkpt lat="43.65203" lon="1.38439">
        <ele>148</ele>
        <time>2025-06-12T05:08:57Z</time>
      </trkpt>
      <trkpt lat="43.65205" lon="1.38437">
        <ele>148</ele>
        <time>2025-06-12T05:08:58Z</time>
      </trkpt>
      <trkpt lat="43.65208" lon="1.38434">
        <ele>148</ele>
        <time>2025-06-12T05:08:59Z</time>
      </trkpt>
      <trkpt lat="43.6521" lon="1.38432">
        <ele>148</ele>
        <time>2025-06-12T05:09:00Z</time>
      </trkpt>
      <trkpt lat="43.65212" lon="1.38429">
        <ele>148</ele>
        <time>2025-06-12T05:09:01Z</time>
      </trkpt>
      <trkpt lat="43.65213" lon="1.38425">
        <ele>148</ele>
        <time>2025-06-12T05:09:02Z</time>
      </trkpt>
      <trkpt lat="43.65213" lon="1.38422">
        <ele>148</ele>
        <time>2025-06-12T05:09:03Z</time>
      </trkpt>
      <trkpt lat="43.65211" lon="1.38418">
        <ele>148</ele>
        <time>2025-06-12T05:09:04Z</time>
      </trkpt>
      <trkpt lat="43.65209" lon="1.38415">
        <ele>148</ele>
        <time>2025-06-12T05:09:05Z</time>
      </trkpt>
      <trkpt lat="43.65207" lon="1.38412">
        <ele>149</ele>
        <time>2025-06-12T05:09:06Z</time>
      </trkpt>
      <trkpt lat="43.65205" lon="1.38409">
        <ele>149</ele>
        <time>2025-06-12T05:09:07Z</time>
      </trkpt>
      <trkpt lat="43.65203" lon="1.38406">
        <ele>149</ele>
        <time>2025-06-12T05:09:08Z</time>
      </trkpt>
      <trkpt lat="43.65201" lon="1.38403">
        <ele>149</ele>
        <time>2025-06-12T05:09:09Z</time>
      </trkpt>
      <trkpt lat="43.65199" lon="1.384">
        <ele>149</ele>
        <time>2025-06-12T05:09:10Z</time>
      </trkpt>
      <trkpt lat="43.65197" lon="1.38397">
        <ele>149</ele>
        <time>2025-06-12T05:09:11Z</time>
      </trkpt>
      <trkpt lat="43.65195" lon="1.38394">
        <ele>150</ele>
        <time>2025-06-12T05:09:12Z</time>
      </trkpt>
      <trkpt lat="43.65193" lon="1.38391">
        <ele>150</ele>
        <time>2025-06-12T05:09:13Z</time>
      </trkpt>
      <trkpt lat="43.65192" lon="1.38388">
        <ele>150</ele>
        <time>2025-06-12T05:09:14Z</time>
      </trkpt>
      <trkpt lat="43.6519" lon="1.38384">
        <ele>151</ele>
        <time>2025-06-12T05:09:15Z</time>
      </trkpt>
      <trkpt lat="43.65189" lon="1.38377">
        <ele>151</ele>
        <time>2025-06-12T05:09:16Z</time>
      </trkpt>
      <trkpt lat="43.65189" lon="1.38377">
        <ele>151</ele>
        <time>2025-06-12T05:09:17Z</time>
      </trkpt>
      <trkpt lat="43.65188" lon="1.38373">
        <ele>151</ele>
        <time>2025-06-12T05:09:18Z</time>
      </trkpt>
      <trkpt lat="43.65188" lon="1.38369">
        <ele>151</ele>
        <time>2025-06-12T05:09:19Z</time>
      </trkpt>
      <trkpt lat="43.65187" lon="1.38365">
        <ele>151</ele>
        <time>2025-06-12T05:09:20Z</time>
      </trkpt>
      <trkpt lat="43.65187" lon="1.38361">
        <ele>151</ele>
        <time>2025-06-12T05:09:21Z</time>
      </trkpt>
      <trkpt lat="43.65187" lon="1.38357">
        <ele>151</ele>
        <time>2025-06-12T05:09:22Z</time>
      </trkpt>
      <trkpt lat="43.65186" lon="1.38352">
        <ele>151</ele>
        <time>2025-06-12T05:09:23Z</time>
      </trkpt>
      <trkpt lat="43.65186" lon="1.38348">
        <ele>151</ele>
        <time>2025-06-12T05:09:24Z</time>
      </trkpt>
      <trkpt lat="43.65185" lon="1.38344">
        <ele>151</ele>
        <time>2025-06-12T05:09:25Z</time>
      </trkpt>
      <trkpt lat="43.65185" lon="1.38341">
        <ele>151</ele>
        <time>2025-06-12T05:09:26Z</time>
      </trkpt>
      <trkpt lat="43.65184" lon="1.38336">
        <ele>151</ele>
        <time>2025-06-12T05:09:27Z</time>
      </trkpt>
      <trkpt lat="43.65183" lon="1.38332">
        <ele>151</ele>
        <time>2025-06-12T05:09:28Z</time>
      </trkpt>
      <trkpt lat="43.65183" lon="1.38328">
        <ele>151</ele>
        <time>2025-06-12T05:09:29Z</time>
      </trkpt>
      <trkpt lat="43.65182" lon="1.38324">
        <ele>151</ele>
        <time>2025-06-12T05:09:30Z</time>
      </trkpt>
      <trkpt lat="43.65182" lon="1.38321">
        <ele>151</ele>
        <time>2025-06-12T05:09:31Z</time>
      </trkpt>
      <trkpt lat="43.65181" lon="1.38316">
        <ele>151</ele>
        <time>2025-06-12T05:09:32Z</time>
      </trkpt>
      <trkpt lat="43.6518" lon="1.38312">
        <ele>151</ele>
        <time>2025-06-12T05:09:33Z</time>
      </trkpt>
      <trkpt lat="43.6518" lon="1.38308">
        <ele>151</ele>
        <time>2025-06-12T05:09:34Z</time>
      </trkpt>
      <trkpt lat="43.65179" lon="1.383">
        <ele>151</ele>
        <time>2025-06-12T05:09:35Z</time>
      </trkpt>
      <trkpt lat="43.65179" lon="1.383">
        <ele>151</ele>
        <time>2025-06-12T05:09:36Z</time>
      </trkpt>
      <trkpt lat="43.65178" lon="1.38296">
        <ele>151</ele>
        <time>2025-06-12T05:09:37Z</time>
      </trkpt>
      <trkpt lat="43.65177" lon="1.38292">
        <ele>151</ele>
        <time>2025-06-12T05:09:38Z</time>
      </trkpt>
      <trkpt lat="43.65177" lon="1.38288">
        <ele>151</ele>
        <time>2025-06-12T05:09:39Z</time>
      </trkpt>
      <trkpt lat="43.65176" lon="1.38283">
        <ele>151</ele>
        <time>2025-06-12T05:09:40Z</time>
      </trkpt>
      <trkpt lat="43.65174" lon="1.38279">
        <ele>151</ele>
        <time>2025-06-12T05:09:41Z</time>
      </trkpt>
      <trkpt lat="43.65173" lon="1.38275">
        <ele>151</ele>
        <time>2025-06-12T05:09:42Z</time>
      </trkpt>
      <trkpt lat="43.65172" lon="1.38271">
        <ele>151</ele>
        <time>2025-06-12T05:09:43Z</time>
      </trkpt>
      <trkpt lat="43.65171" lon="1.38267">
        <ele>151</ele>
        <time>2025-06-12T05:09:44Z</time>
      </trkpt>
      <trkpt lat="43.6517" lon="1.38263">
        <ele>151</ele>
        <time>2025-06-12T05:09:45Z</time>
      </trkpt>
      <trkpt lat="43.6517" lon="1.3826">
        <ele>151</ele>
        <time>2025-06-12T05:09:46Z</time>
      </trkpt>
      <trkpt lat="43.65169" lon="1.38256">
        <ele>151</ele>
        <time>2025-06-12T05:09:47Z</time>
      </trkpt>
      <trkpt lat="43.65168" lon="1.38252">
        <ele>151</ele>
        <time>2025-06-12T05:09:48Z</time>
      </trkpt>
      <trkpt lat="43.65167" lon="1.38248">
        <ele>151</ele>
        <time>2025-06-12T05:09:49Z</time>
      </trkpt>
      <trkpt lat="43.65166" lon="1.38244">
        <ele>151</ele>
        <time>2025-06-12T05:09:50Z</time>
      </trkpt>
      <trkpt lat="43.65166" lon="1.3824">
        <ele>151</ele>
        <time>2025-06-12T05:09:51Z</time>
      </trkpt>
      <trkpt lat="43.65165" lon="1.38236">
        <ele>151</ele>
        <time>2025-06-12T05:09:52Z</time>
      </trkpt>
      <trkpt lat="43.65164" lon="1.38232">
        <ele>151</ele>
        <time>2025-06-12T05:09:53Z</time>
      </trkpt>
      <trkpt lat="43.65163" lon="1.38223">
        <ele>151</ele>
        <time>2025-06-12T05:09:54Z</time>
      </trkpt>
      <trkpt lat="43.65163" lon="1.38223">
        <ele>151</ele>
        <time>2025-06-12T05:09:55Z</time>
      </trkpt>
      <trkpt lat="43.65163" lon="1.38218">
        <ele>151</ele>
        <time>2025-06-12T05:09:56Z</time>
      </trkpt>
      <trkpt lat="43.65163" lon="1.38214">
        <ele>151</ele>
        <time>2025-06-12T05:09:57Z</time>
      </trkpt>
      <trkpt lat="43.65163" lon="1.3821">
        <ele>151</ele>
        <time>2025-06-12T05:09:58Z</time>
      </trkpt>
      <trkpt lat="43.65163" lon="1.38206">
        <ele>151</ele>
        <time>2025-06-12T05:09:59Z</time>
      </trkpt>
      <trkpt lat="43.65163" lon="1.38202">
        <ele>151</ele>
        <time>2025-06-12T05:10:00Z</time>
      </trkpt>
      <trkpt lat="43.65165" lon="1.38197">
        <ele>151</ele>
        <time>2025-06-12T05:10:01Z</time>
      </trkpt>
      <trkpt lat="43.65166" lon="1.38194">
        <ele>151</ele>
        <time>2025-06-12T05:10:02Z</time>
      </trkpt>
      <trkpt lat="43.65168" lon="1.38191">
        <ele>152</ele>
        <time>2025-06-12T05:10:03Z</time>
      </trkpt>
      <trkpt lat="43.65171" lon="1.38189">
        <ele>152</ele>
        <time>2025-06-12T05:10:04Z</time>
      </trkpt>
      <trkpt lat="43.65173" lon="1.38187">
        <ele>152</ele>
        <time>2025-06-12T05:10:05Z</time>
      </trkpt>
      <trkpt lat="43.65176" lon="1.38184">
        <ele>152</ele>
        <time>2025-06-12T05:10:06Z</time>
      </trkpt>
      <trkpt lat="43.65178" lon="1.38182">
        <ele>152</ele>
        <time>2025-06-12T05:10:07Z</time>
      </trkpt>
      <trkpt lat="43.65181" lon="1.38179">
        <ele>152</ele>
        <time>2025-06-12T05:10:08Z</time>
      </trkpt>
      <trkpt lat="43.65184" lon="1.38177">
        <ele>152</ele>
        <time>2025-06-12T05:10:09Z</time>
      </trkpt>
      <trkpt lat="43.65186" lon="1.38174">
        <ele>152</ele>
        <time>2025-06-12T05:10:10Z</time>
      </trkpt>
      <trkpt lat="43.65189" lon="1.38172">
        <ele>152</ele>
        <time>2025-06-12T05:10:11Z</time>
      </trkpt>
      <trkpt lat="43.65192" lon="1.3817">
        <ele>152</ele>
        <time>2025-06-12T05:10:12Z</time>
      </trkpt>
      <trkpt lat="43.65196" lon="1.38165">
        <ele>152</ele>
        <time>2025-06-12T05:10:13Z</time>
      </trkpt>
      <trkpt lat="43.65196" lon="1.38165">
        <ele>152</ele>
        <time>2025-06-12T05:10:14Z</time>
      </trkpt>
      <trkpt lat="43.65199" lon="1.38163">
        <ele>152</ele>
        <time>2025-06-12T05:10:15Z</time>
      </trkpt>
      <trkpt lat="43.65202" lon="1.38161">
        <ele>152</ele>
        <time>2025-06-12T05:10:16Z</time>
      </trkpt>
      <trkpt lat="43.65204" lon="1.38159">
        <ele>152</ele>
        <time>2025-06-12T05:10:17Z</time>
      </trkpt>
      <trkpt lat="43.65207" lon="1.38157">
        <ele>152</ele>
        <time>2025-06-12T05:10:18Z</time>
      </trkpt>
      <trkpt lat="43.6521" lon="1.38155">
        <ele>152</ele>
        <time>2025-06-12T05:10:19Z</time>
      </trkpt>
      <trkpt lat="43.65214" lon="1.38153">
        <ele>152</ele>
        <time>2025-06-12T05:10:20Z</time>
      </trkpt>
      <trkpt lat="43.65216" lon="1.38151">
        <ele>152</ele>
        <time>2025-06-12T05:10:21Z</time>
      </trkpt>
      <trkpt lat="43.65219" lon="1.38149">
        <ele>152</ele>
        <time>2025-06-12T05:10:22Z</time>
      </trkpt>
      <trkpt lat="43.65222" lon="1.38147">
        <ele>152</ele>
        <time>2025-06-12T05:10:23Z</time>
      </trkpt>
      <trkpt lat="43.65225" lon="1.38145">
        <ele>152</ele>
        <time>2025-06-12T05:10:24Z</time>
      </trkpt>
      <trkpt lat="43.65228" lon="1.38142">
        <ele>152</ele>
        <time>2025-06-12T05:10:25Z</time>
      </trkpt>
      <trkpt lat="43.6523" lon="1.3814">
        <ele>152</ele>
        <time>2025-06-12T05:10:26Z</time>
      </trkpt>
      <trkpt lat="43.65233" lon="1.38138">
        <ele>152</ele>
        <time>2025-06-12T05:10:27Z</time>
      </trkpt>
      <trkpt lat="43.65236" lon="1.38137">
        <ele>152</ele>
        <time>2025-06-12T05:10:28Z</time>
      </trkpt>
      <trkpt lat="43.65239" lon="1.38135">
        <ele>152</ele>
        <time>2025-06-12T05:10:29Z</time>
      </trkpt>
      <trkpt lat="43.65241" lon="1.38133">
        <ele>152</ele>
        <time>2025-06-12T05:10:30Z</time>
      </trkpt>
      <trkpt lat="43.65244" lon="1.3813">
        <ele>152</ele>
        <time>2025-06-12T05:10:31Z</time>
      </trkpt>
      <trkpt lat="43.65246" lon="1.38123">
        <ele>152</ele>
        <time>2025-06-12T05:10:32Z</time>
      </trkpt>
      <trkpt lat="43.65246" lon="1.38123">
        <ele>152</ele>
        <time>2025-06-12T05:10:33Z</time>
      </trkpt>
      <trkpt lat="43.65246" lon="1.38119">
        <ele>152</ele>
        <time>2025-06-12T05:10:34Z</time>
      </trkpt>
      <trkpt lat="43.65245" lon="1.38114">
        <ele>152</ele>
        <time>2025-06-12T05:10:35Z</time>
      </trkpt>
      <trkpt lat="43.65243" lon="1.3811">
        <ele>152</ele>
        <time>2025-06-12T05:10:36Z</time>
      </trkpt>
      <trkpt lat="43.65242" lon="1.38106">
        <ele>152</ele>
        <time>2025-06-12T05:10:37Z</time>
      </trkpt>
      <trkpt lat="43.65241" lon="1.38103">
        <ele>152</ele>
        <time>2025-06-12T05:10:38Z</time>
      </trkpt>
      <trkpt lat="43.65239" lon="1.38099">
        <ele>152</ele>
        <time>2025-06-12T05:10:39Z</time>
      </trkpt>
      <trkpt lat="43.65238" lon="1.38095">
        <ele>152</ele>
        <time>2025-06-12T05:10:40Z</time>
      </trkpt>
      <trkpt lat="43.65237" lon="1.38092">
        <ele>152</ele>
        <time>2025-06-12T05:10:41Z</time>
      </trkpt>
      <trkpt lat="43.65235" lon="1.38088">
        <ele>153</ele>
        <time>2025-06-12T05:10:42Z</time>
      </trkpt>
      <trkpt lat="43.65234" lon="1.38085">
        <ele>153</ele>
        <time>2025-06-12T05:10:43Z</time>
      </trkpt>
      <trkpt lat="43.65233" lon="1.38081">
        <ele>153</ele>
        <time>2025-06-12T05:10:44Z</time>
      </trkpt>
      <trkpt lat="43.65231" lon="1.38077">
        <ele>153</ele>
        <time>2025-06-12T05:10:45Z</time>
      </trkpt>
      <trkpt lat="43.6523" lon="1.38073">
        <ele>153</ele>
        <time>2025-06-12T05:10:46Z</time>
      </trkpt>
      <trkpt lat="43.65228" lon="1.38069">
        <ele>153</ele>
        <time>2025-06-12T05:10:47Z</time>
      </trkpt>
      <trkpt lat="43.65226" lon="1.38066">
        <ele>153</ele>
        <time>2025-06-12T05:10:48Z</time>
      </trkpt>
      <trkpt lat="43.65225" lon="1.38062">
        <ele>153</ele>
        <time>2025-06-12T05:10:49Z</time>
      </trkpt>
      <trkpt lat="43.65224" lon="1.38058">
        <ele>153</ele>
        <time>2025-06-12T05:10:50Z</time>
      </trkpt>
      <trkpt lat="43.65222" lon="1.38054">
        <ele>153</ele>
        <time>2025-06-12T05:10:51Z</time>
      </trkpt>
      <trkpt lat="43.65221" lon="1.3805">
        <ele>153</ele>
        <time>2025-06-12T05:10:52Z</time>
      </trkpt>
      <trkpt lat="43.6522" lon="1.38047">
        <ele>153</ele>
        <time>2025-06-12T05:10:53Z</time>
      </trkpt>
      <trkpt lat="43.65219" lon="1.38042">
        <ele>153</ele>
        <time>2025-06-12T05:10:54Z</time>
      </trkpt>
      <trkpt lat="43.65218" lon="1.38039">
        <ele>153</ele>
        <time>2025-06-12T05:10:55Z</time>
      </trkpt>
      <trkpt lat="43.65216" lon="1.38035">
        <ele>153</ele>
        <time>2025-06-12T05:10:56Z</time>
      </trkpt>
      <trkpt lat="43.65214" lon="1.38033">
        <ele>154</ele>
        <time>2025-06-12T05:10:57Z</time>
      </trkpt>
      <trkpt lat="43.6521" lon="1.38032">
        <ele>154</ele>
        <time>2025-06-12T05:10:58Z</time>
      </trkpt>
      <trkpt lat="43.65207" lon="1.38031">
        <ele>153</ele>
        <time>2025-06-12T05:10:59Z</time>
      </trkpt>
      <trkpt lat="43.65204" lon="1.38032">
        <ele>153</ele>
        <time>2025-06-12T05:11:00Z</time>
      </trkpt>
      <trkpt lat="43.65201" lon="1.38034">
        <ele>153</ele>
        <time>2025-06-12T05:11:01Z</time>
      </trkpt>
      <trkpt lat="43.65198" lon="1.38036">
        <ele>153</ele>
        <time>2025-06-12T05:11:02Z</time>
      </trkpt>
      <trkpt lat="43.65195" lon="1.38039">
        <ele>153</ele>
        <time>2025-06-12T05:11:03Z</time>
      </trkpt>
      <trkpt lat="43.65192" lon="1.38041">
        <ele>153</ele>
        <time>2025-06-12T05:11:04Z</time>
      </trkpt>
      <trkpt lat="43.65186" lon="1.38045">
        <ele>153</ele>
        <time>2025-06-12T05:11:05Z</time>
      </trkpt>
      <trkpt lat="43.65186" lon="1.38045">
        <ele>153</ele>
        <time>2025-06-12T05:11:06Z</time>
      </trkpt>
      <trkpt lat="43.65183" lon="1.38044">
        <ele>153</ele>
        <time>2025-06-12T05:11:07Z</time>
      </trkpt>
      <trkpt lat="43.6518" lon="1.38045">
        <ele>153</ele>
        <time>2025-06-12T05:11:08Z</time>
      </trkpt>
      <trkpt lat="43.65178" lon="1.38046">
        <ele>153</ele>
        <time>2025-06-12T05:11:09Z</time>
      </trkpt>
      <trkpt lat="43.65175" lon="1.38047">
        <ele>153</ele>
        <time>2025-06-12T05:11:10Z</time>
      </trkpt>
      <trkpt lat="43.65172" lon="1.38049">
        <ele>154</ele>
        <time>2025-06-12T05:11:11Z</time>
      </trkpt>
      <trkpt lat="43.65169" lon="1.38051">
        <ele>154</ele>
        <time>2025-06-12T05:11:12Z</time>
      </trkpt>
      <trkpt lat="43.65167" lon="1.38053">
        <ele>154</ele>
        <time>2025-06-12T05:11:13Z</time>
      </trkpt>
      <trkpt lat="43.65164" lon="1.38055">
        <ele>154</ele>
        <time>2025-06-12T05:11:14Z</time>
      </trkpt>
      <trkpt lat="43.65161" lon="1.38056">
        <ele>155</ele>
        <time>2025-06-12T05:11:15Z</time>
      </trkpt>
      <trkpt lat="43.65158" lon="1.38059">
        <ele>155</ele>
        <time>2025-06-12T05:11:16Z</time>
      </trkpt>
      <trkpt lat="43.65155" lon="1.3806">
        <ele>154</ele>
        <time>2025-06-12T05:11:17Z</time>
      </trkpt>
      <trkpt lat="43.65153" lon="1.38062">
        <ele>154</ele>
        <time>2025-06-12T05:11:18Z</time>
      </trkpt>
      <trkpt lat="43.6515" lon="1.38064">
        <ele>154</ele>
        <time>2025-06-12T05:11:19Z</time>
      </trkpt>
      <trkpt lat="43.65147" lon="1.38066">
        <ele>154</ele>
        <time>2025-06-12T05:11:20Z</time>
      </trkpt>
      <trkpt lat="43.65144" lon="1.38068">
        <ele>154</ele>
        <time>2025-06-12T05:11:21Z</time>
      </trkpt>
      <trkpt lat="43.65141" lon="1.3807">
        <ele>154</ele>
        <time>2025-06-12T05:11:22Z</time>
      </trkpt>
      <trkpt lat="43.65139" lon="1.38072">
        <ele>154</ele>
        <time>2025-06-12T05:11:23Z</time>
      </trkpt>
      <trkpt lat="43.65136" lon="1.38074">
        <ele>154</ele>
        <time>2025-06-12T05:11:24Z</time>
      </trkpt>
      <trkpt lat="43.65133" lon="1.38076">
        <ele>154</ele>
        <time>2025-06-12T05:11:25Z</time>
      </trkpt>
      <trkpt lat="43.65131" lon="1.38077">
        <ele>154</ele>
        <time>2025-06-12T05:11:26Z</time>
      </trkpt>
      <trkpt lat="43.65128" lon="1.38079">
        <ele>154</ele>
        <time>2025-06-12T05:11:27Z</time>
      </trkpt>
      <trkpt lat="43.65126" lon="1.38081">
        <ele>154</ele>
        <time>2025-06-12T05:11:28Z</time>
      </trkpt>
      <trkpt lat="43.65123" lon="1.38082">
        <ele>154</ele>
        <time>2025-06-12T05:11:29Z</time>
      </trkpt>
      <trkpt lat="43.6512" lon="1.38084">
        <ele>154</ele>
        <time>2025-06-12T05:11:30Z</time>
      </trkpt>
      <trkpt lat="43.65117" lon="1.38085">
        <ele>154</ele>
        <time>2025-06-12T05:11:31Z</time>
      </trkpt>
      <trkpt lat="43.65114" lon="1.38087">
        <ele>154</ele>
        <time>2025-06-12T05:11:32Z</time>
      </trkpt>
      <trkpt lat="43.65111" lon="1.38089">
        <ele>153</ele>
        <time>2025-06-12T05:11:33Z</time>
      </trkpt>
      <trkpt lat="43.65108" lon="1.3809">
        <ele>153</ele>
        <time>2025-06-12T05:11:34Z</time>
      </trkpt>
      <trkpt lat="43.65105" lon="1.38092">
        <ele>153</ele>
        <time>2025-06-12T05:11:35Z</time>
      </trkpt>
      <trkpt lat="43.65102" lon="1.38094">
        <ele>153</ele>
        <time>2025-06-12T05:11:36Z</time>
      </trkpt>
      <trkpt lat="43.65099" lon="1.38095">
        <ele>153</ele>
        <time>2025-06-12T05:11:37Z</time>
      </trkpt>
      <trkpt lat="43.65097" lon="1.38096">
        <ele>153</ele>
        <time>2025-06-12T05:11:38Z</time>
      </trkpt>
      <trkpt lat="43.65095" lon="1.38098">
        <ele>153</ele>
        <time>2025-06-12T05:11:39Z</time>
      </trkpt>
      <trkpt lat="43.65093" lon="1.381">
        <ele>153</ele>
        <time>2025-06-12T05:11:40Z</time>
      </trkpt>
      <trkpt lat="43.65091" lon="1.38101">
        <ele>153</ele>
        <time>2025-06-12T05:11:41Z</time>
      </trkpt>
      <trkpt lat="43.65089" lon="1.38103">
        <ele>153</ele>
        <time>2025-06-12T05:11:42Z</time>
      </trkpt>
      <trkpt lat="43.65086" lon="1.38104">
        <ele>153</ele>
        <time>2025-06-12T05:11:43Z</time>
      </trkpt>
      <trkpt lat="43.65084" lon="1.38106">
        <ele>153</ele>
        <time>2025-06-12T05:11:44Z</time>
      </trkpt>
      <trkpt lat="43.65081" lon="1.38107">
        <ele>153</ele>
        <time>2025-06-12T05:11:45Z</time>
      </trkpt>
      <trkpt lat="43.65078" lon="1.38109">
        <ele>153</ele>
        <time>2025-06-12T05:11:46Z</time>
      </trkpt>
      <trkpt lat="43.65075" lon="1.38111">
        <ele>152</ele>
        <time>2025-06-12T05:11:47Z</time>
      </trkpt>
      <trkpt lat="43.65072" lon="1.38113">
        <ele>152</ele>
        <time>2025-06-12T05:11:48Z</time>
      </trkpt>
      <trkpt lat="43.65069" lon="1.38116">
        <ele>152</ele>
        <time>2025-06-12T05:11:49Z</time>
      </trkpt>
      <trkpt lat="43.65066" lon="1.38119">
        <ele>152</ele>
        <time>2025-06-12T05:11:50Z</time>
      </trkpt>
      <trkpt lat="43.65062" lon="1.38121">
        <ele>152</ele>
        <time>2025-06-12T05:11:51Z</time>
      </trkpt>
      <trkpt lat="43.65059" lon="1.38124">
        <ele>152</ele>
        <time>2025-06-12T05:11:52Z</time>
      </trkpt>
      <trkpt lat="43.65052" lon="1.3813">
        <ele>152</ele>
        <time>2025-06-12T05:11:53Z</time>
      </trkpt>
      <trkpt lat="43.65052" lon="1.3813">
        <ele>152</ele>
        <time>2025-06-12T05:11:54Z</time>
      </trkpt>
      <trkpt lat="43.65049" lon="1.38133">
        <ele>152</ele>
        <time>2025-06-12T05:11:55Z</time>
      </trkpt>
      <trkpt lat="43.65047" lon="1.38134">
        <ele>152</ele>
        <time>2025-06-12T05:11:56Z</time>
      </trkpt>
      <trkpt lat="43.65044" lon="1.38135">
        <ele>152</ele>
        <time>2025-06-12T05:11:57Z</time>
      </trkpt>
      <trkpt lat="43.65042" lon="1.38137">
        <ele>152</ele>
        <time>2025-06-12T05:11:58Z</time>
      </trkpt>
      <trkpt lat="43.65036" lon="1.38141">
        <ele>152</ele>
        <time>2025-06-12T05:11:59Z</time>
      </trkpt>
    </trkseg>
  </trk>
</gpx>